<?xml version="1.0" encoding="UTF-8" standalone="no" ?>
<gpx xmlns="http://www.topografix.com/GPX/1/1" xmlns:xsi="http://www.w3.org/2001/XMLSchema-instance" xsi:schemaLocation="http://www.topografix.com/GPX/1/1 http://www.topografix.com/GPX/1/1/gpx.xsd" version="1.1" creator="VisuGPX - https://www.visugpx.com">
  <metadata>
    <name>2022-04-28 15:49:16</name>
  </metadata>
  <trk>
    <name><![CDATA[2022-04-28 15:49:16]]></name>
    <trkseg>
      <trkpt lat="43.74809" lon="7.13834">
        <ele>411.1</ele>
        <time>2022-04-28T07:15:40Z</time>
      </trkpt>
      <trkpt lat="43.74805" lon="7.1383">
        <ele>411.58</ele>
        <time>2022-04-28T07:16:14Z</time>
      </trkpt>
      <trkpt lat="43.74807" lon="7.13833">
        <ele>412.06</ele>
        <time>2022-04-28T07:16:52Z</time>
      </trkpt>
      <trkpt lat="43.74804" lon="7.13831">
        <ele>412.06</ele>
        <time>2022-04-28T07:17:27Z</time>
      </trkpt>
      <trkpt lat="43.74803" lon="7.1383">
        <ele>412.54</ele>
        <time>2022-04-28T07:17:34Z</time>
      </trkpt>
      <trkpt lat="43.74804" lon="7.13834">
        <ele>413.02</ele>
        <time>2022-04-28T07:17:44Z</time>
      </trkpt>
      <trkpt lat="43.74803" lon="7.13839">
        <ele>412.54</ele>
        <time>2022-04-28T07:17:56Z</time>
      </trkpt>
      <trkpt lat="43.74808" lon="7.13835">
        <ele>413.02</ele>
        <time>2022-04-28T07:18:09Z</time>
      </trkpt>
      <trkpt lat="43.74807" lon="7.13837">
        <ele>413.02</ele>
        <time>2022-04-28T07:18:24Z</time>
      </trkpt>
      <trkpt lat="43.74803" lon="7.13837">
        <ele>413.02</ele>
        <time>2022-04-28T07:18:40Z</time>
      </trkpt>
      <trkpt lat="43.748" lon="7.13838">
        <ele>412.54</ele>
        <time>2022-04-28T07:18:57Z</time>
      </trkpt>
      <trkpt lat="43.74799" lon="7.13838">
        <ele>413.5</ele>
        <time>2022-04-28T07:19:14Z</time>
      </trkpt>
      <trkpt lat="43.74801" lon="7.13839">
        <ele>413.02</ele>
        <time>2022-04-28T07:19:29Z</time>
      </trkpt>
      <trkpt lat="43.74805" lon="7.13834">
        <ele>410.62</ele>
        <time>2022-04-28T07:19:45Z</time>
      </trkpt>
      <trkpt lat="43.74805" lon="7.13833">
        <ele>415.43</ele>
        <time>2022-04-28T07:19:46Z</time>
      </trkpt>
      <trkpt lat="43.74805" lon="7.13833">
        <ele>412.06</ele>
        <time>2022-04-28T07:19:48Z</time>
      </trkpt>
      <trkpt lat="43.74805" lon="7.13832">
        <ele>402.93</ele>
        <time>2022-04-28T07:19:49Z</time>
      </trkpt>
      <trkpt lat="43.74805" lon="7.13832">
        <ele>403.41</ele>
        <time>2022-04-28T07:19:50Z</time>
      </trkpt>
      <trkpt lat="43.74805" lon="7.13832">
        <ele>418.31</ele>
        <time>2022-04-28T07:19:51Z</time>
      </trkpt>
      <trkpt lat="43.74805" lon="7.13832">
        <ele>425.52</ele>
        <time>2022-04-28T07:19:52Z</time>
      </trkpt>
      <trkpt lat="43.74805" lon="7.13831">
        <ele>414.95</ele>
        <time>2022-04-28T07:19:53Z</time>
      </trkpt>
      <trkpt lat="43.74798" lon="7.13834">
        <ele>413.5</ele>
        <time>2022-04-28T07:20:10Z</time>
      </trkpt>
      <trkpt lat="43.74798" lon="7.13838">
        <ele>415.43</ele>
        <time>2022-04-28T07:20:17Z</time>
      </trkpt>
      <trkpt lat="43.74796" lon="7.13837">
        <ele>413.98</ele>
        <time>2022-04-28T07:20:39Z</time>
      </trkpt>
      <trkpt lat="43.74796" lon="7.13831">
        <ele>415.43</ele>
        <time>2022-04-28T07:20:56Z</time>
      </trkpt>
      <trkpt lat="43.74797" lon="7.13835">
        <ele>410.14</ele>
        <time>2022-04-28T07:21:13Z</time>
      </trkpt>
      <trkpt lat="43.74797" lon="7.13836">
        <ele>414.95</ele>
        <time>2022-04-28T07:21:14Z</time>
      </trkpt>
      <trkpt lat="43.74797" lon="7.13836">
        <ele>418.79</ele>
        <time>2022-04-28T07:21:19Z</time>
      </trkpt>
      <trkpt lat="43.74797" lon="7.13836">
        <ele>416.39</ele>
        <time>2022-04-28T07:21:20Z</time>
      </trkpt>
      <trkpt lat="43.74796" lon="7.13836">
        <ele>409.66</ele>
        <time>2022-04-28T07:21:24Z</time>
      </trkpt>
      <trkpt lat="43.74796" lon="7.13836">
        <ele>411.58</ele>
        <time>2022-04-28T07:21:25Z</time>
      </trkpt>
      <trkpt lat="43.74797" lon="7.13836">
        <ele>421.19</ele>
        <time>2022-04-28T07:21:26Z</time>
      </trkpt>
      <trkpt lat="43.74797" lon="7.13837">
        <ele>414.47</ele>
        <time>2022-04-28T07:21:27Z</time>
      </trkpt>
      <trkpt lat="43.74796" lon="7.13838">
        <ele>410.14</ele>
        <time>2022-04-28T07:21:33Z</time>
      </trkpt>
      <trkpt lat="43.74796" lon="7.13838">
        <ele>418.31</ele>
        <time>2022-04-28T07:21:34Z</time>
      </trkpt>
      <trkpt lat="43.74796" lon="7.13838">
        <ele>417.83</ele>
        <time>2022-04-28T07:21:35Z</time>
      </trkpt>
      <trkpt lat="43.74795" lon="7.13838">
        <ele>414.95</ele>
        <time>2022-04-28T07:21:38Z</time>
      </trkpt>
      <trkpt lat="43.74794" lon="7.13839">
        <ele>410.14</ele>
        <time>2022-04-28T07:21:43Z</time>
      </trkpt>
      <trkpt lat="43.74795" lon="7.13838">
        <ele>413.98</ele>
        <time>2022-04-28T07:21:44Z</time>
      </trkpt>
      <trkpt lat="43.74796" lon="7.13837">
        <ele>419.27</ele>
        <time>2022-04-28T07:21:49Z</time>
      </trkpt>
      <trkpt lat="43.74796" lon="7.13837">
        <ele>415.91</ele>
        <time>2022-04-28T07:21:51Z</time>
      </trkpt>
      <trkpt lat="43.74799" lon="7.13832">
        <ele>415.91</ele>
        <time>2022-04-28T07:22:04Z</time>
      </trkpt>
      <trkpt lat="43.74798" lon="7.13824">
        <ele>416.39</ele>
        <time>2022-04-28T07:22:08Z</time>
      </trkpt>
      <trkpt lat="43.74799" lon="7.13816">
        <ele>415.91</ele>
        <time>2022-04-28T07:22:22Z</time>
      </trkpt>
      <trkpt lat="43.748" lon="7.13815">
        <ele>415.91</ele>
        <time>2022-04-28T07:22:46Z</time>
      </trkpt>
      <trkpt lat="43.74801" lon="7.13816">
        <ele>416.87</ele>
        <time>2022-04-28T07:23:06Z</time>
      </trkpt>
      <trkpt lat="43.74798" lon="7.13818">
        <ele>416.39</ele>
        <time>2022-04-28T07:23:13Z</time>
      </trkpt>
      <trkpt lat="43.74798" lon="7.13823">
        <ele>415.91</ele>
        <time>2022-04-28T07:23:16Z</time>
      </trkpt>
      <trkpt lat="43.748" lon="7.13836">
        <ele>416.87</ele>
        <time>2022-04-28T07:23:29Z</time>
      </trkpt>
      <trkpt lat="43.74797" lon="7.13838">
        <ele>416.87</ele>
        <time>2022-04-28T07:23:42Z</time>
      </trkpt>
      <trkpt lat="43.74801" lon="7.1383">
        <ele>416.39</ele>
        <time>2022-04-28T07:24:02Z</time>
      </trkpt>
      <trkpt lat="43.74798" lon="7.13828">
        <ele>417.35</ele>
        <time>2022-04-28T07:24:16Z</time>
      </trkpt>
      <trkpt lat="43.74798" lon="7.13829">
        <ele>417.35</ele>
        <time>2022-04-28T07:24:27Z</time>
      </trkpt>
      <trkpt lat="43.74799" lon="7.13833">
        <ele>416.87</ele>
        <time>2022-04-28T07:24:41Z</time>
      </trkpt>
      <trkpt lat="43.74794" lon="7.13833">
        <ele>417.35</ele>
        <time>2022-04-28T07:25:00Z</time>
      </trkpt>
      <trkpt lat="43.74795" lon="7.13838">
        <ele>417.83</ele>
        <time>2022-04-28T07:25:17Z</time>
      </trkpt>
      <trkpt lat="43.74795" lon="7.13839">
        <ele>418.31</ele>
        <time>2022-04-28T07:25:37Z</time>
      </trkpt>
      <trkpt lat="43.748" lon="7.13838">
        <ele>418.79</ele>
        <time>2022-04-28T07:26:03Z</time>
      </trkpt>
      <trkpt lat="43.74799" lon="7.13835">
        <ele>418.79</ele>
        <time>2022-04-28T07:26:25Z</time>
      </trkpt>
      <trkpt lat="43.74801" lon="7.1383">
        <ele>418.31</ele>
        <time>2022-04-28T07:26:28Z</time>
      </trkpt>
      <trkpt lat="43.748" lon="7.13819">
        <ele>418.79</ele>
        <time>2022-04-28T07:26:39Z</time>
      </trkpt>
      <trkpt lat="43.74797" lon="7.13818">
        <ele>415.43</ele>
        <time>2022-04-28T07:26:48Z</time>
      </trkpt>
      <trkpt lat="43.74797" lon="7.13817">
        <ele>420.71</ele>
        <time>2022-04-28T07:26:49Z</time>
      </trkpt>
      <trkpt lat="43.74797" lon="7.13818">
        <ele>418.79</ele>
        <time>2022-04-28T07:26:52Z</time>
      </trkpt>
      <trkpt lat="43.74798" lon="7.13817">
        <ele>418.31</ele>
        <time>2022-04-28T07:27:15Z</time>
      </trkpt>
      <trkpt lat="43.74797" lon="7.13818">
        <ele>420.71</ele>
        <time>2022-04-28T07:27:19Z</time>
      </trkpt>
      <trkpt lat="43.74798" lon="7.13821">
        <ele>419.27</ele>
        <time>2022-04-28T07:27:21Z</time>
      </trkpt>
      <trkpt lat="43.74797" lon="7.13832">
        <ele>419.27</ele>
        <time>2022-04-28T07:27:34Z</time>
      </trkpt>
      <trkpt lat="43.74798" lon="7.1383">
        <ele>420.23</ele>
        <time>2022-04-28T07:28:04Z</time>
      </trkpt>
      <trkpt lat="43.74804" lon="7.13833">
        <ele>420.23</ele>
        <time>2022-04-28T07:28:40Z</time>
      </trkpt>
      <trkpt lat="43.74805" lon="7.13834">
        <ele>413.02</ele>
        <time>2022-04-28T07:28:56Z</time>
      </trkpt>
      <trkpt lat="43.74804" lon="7.13833">
        <ele>426.96</ele>
        <time>2022-04-28T07:28:58Z</time>
      </trkpt>
      <trkpt lat="43.74804" lon="7.13833">
        <ele>426.96</ele>
        <time>2022-04-28T07:28:59Z</time>
      </trkpt>
      <trkpt lat="43.74804" lon="7.13833">
        <ele>420.71</ele>
        <time>2022-04-28T07:29:00Z</time>
      </trkpt>
      <trkpt lat="43.74804" lon="7.13833">
        <ele>420.23</ele>
        <time>2022-04-28T07:29:01Z</time>
      </trkpt>
      <trkpt lat="43.74804" lon="7.13834">
        <ele>421.68</ele>
        <time>2022-04-28T07:29:33Z</time>
      </trkpt>
      <trkpt lat="43.748" lon="7.13832">
        <ele>420.23</ele>
        <time>2022-04-28T07:30:04Z</time>
      </trkpt>
      <trkpt lat="43.74801" lon="7.13832">
        <ele>421.19</ele>
        <time>2022-04-28T07:30:33Z</time>
      </trkpt>
      <trkpt lat="43.74801" lon="7.13834">
        <ele>421.19</ele>
        <time>2022-04-28T07:31:09Z</time>
      </trkpt>
      <trkpt lat="43.74799" lon="7.13835">
        <ele>421.68</ele>
        <time>2022-04-28T07:31:47Z</time>
      </trkpt>
      <trkpt lat="43.74804" lon="7.13835">
        <ele>421.68</ele>
        <time>2022-04-28T07:32:21Z</time>
      </trkpt>
      <trkpt lat="43.74804" lon="7.13833">
        <ele>421.68</ele>
        <time>2022-04-28T07:33:01Z</time>
      </trkpt>
      <trkpt lat="43.74804" lon="7.13833">
        <ele>421.68</ele>
        <time>2022-04-28T07:33:18Z</time>
      </trkpt>
      <trkpt lat="43.74807" lon="7.13837">
        <ele>422.64</ele>
        <time>2022-04-28T07:33:31Z</time>
      </trkpt>
      <trkpt lat="43.74802" lon="7.13836">
        <ele>422.64</ele>
        <time>2022-04-28T07:33:43Z</time>
      </trkpt>
      <trkpt lat="43.74801" lon="7.13839">
        <ele>421.68</ele>
        <time>2022-04-28T07:33:57Z</time>
      </trkpt>
      <trkpt lat="43.74801" lon="7.1383">
        <ele>422.64</ele>
        <time>2022-04-28T07:34:18Z</time>
      </trkpt>
      <trkpt lat="43.74801" lon="7.13824">
        <ele>422.16</ele>
        <time>2022-04-28T07:34:29Z</time>
      </trkpt>
      <trkpt lat="43.74801" lon="7.13825">
        <ele>422.16</ele>
        <time>2022-04-28T07:34:57Z</time>
      </trkpt>
      <trkpt lat="43.748" lon="7.13824">
        <ele>416.87</ele>
        <time>2022-04-28T07:35:01Z</time>
      </trkpt>
      <trkpt lat="43.748" lon="7.13824">
        <ele>425.52</ele>
        <time>2022-04-28T07:35:02Z</time>
      </trkpt>
      <trkpt lat="43.748" lon="7.13824">
        <ele>422.64</ele>
        <time>2022-04-28T07:35:03Z</time>
      </trkpt>
      <trkpt lat="43.748" lon="7.13824">
        <ele>426.48</ele>
        <time>2022-04-28T07:35:06Z</time>
      </trkpt>
      <trkpt lat="43.74801" lon="7.13824">
        <ele>423.6</ele>
        <time>2022-04-28T07:35:07Z</time>
      </trkpt>
      <trkpt lat="43.748" lon="7.13824">
        <ele>418.79</ele>
        <time>2022-04-28T07:35:11Z</time>
      </trkpt>
      <trkpt lat="43.748" lon="7.13824">
        <ele>426</ele>
        <time>2022-04-28T07:35:12Z</time>
      </trkpt>
      <trkpt lat="43.748" lon="7.13824">
        <ele>422.16</ele>
        <time>2022-04-28T07:35:13Z</time>
      </trkpt>
      <trkpt lat="43.74799" lon="7.13824">
        <ele>422.64</ele>
        <time>2022-04-28T07:35:42Z</time>
      </trkpt>
      <trkpt lat="43.74801" lon="7.13824">
        <ele>423.6</ele>
        <time>2022-04-28T07:36:14Z</time>
      </trkpt>
      <trkpt lat="43.74803" lon="7.13823">
        <ele>423.12</ele>
        <time>2022-04-28T07:36:40Z</time>
      </trkpt>
      <trkpt lat="43.74802" lon="7.13824">
        <ele>424.08</ele>
        <time>2022-04-28T07:37:07Z</time>
      </trkpt>
      <trkpt lat="43.74801" lon="7.13826">
        <ele>423.6</ele>
        <time>2022-04-28T07:37:20Z</time>
      </trkpt>
      <trkpt lat="43.74801" lon="7.13827">
        <ele>423.6</ele>
        <time>2022-04-28T07:37:41Z</time>
      </trkpt>
      <trkpt lat="43.74803" lon="7.13826">
        <ele>424.56</ele>
        <time>2022-04-28T07:38:07Z</time>
      </trkpt>
      <trkpt lat="43.74803" lon="7.13827">
        <ele>424.08</ele>
        <time>2022-04-28T07:38:32Z</time>
      </trkpt>
      <trkpt lat="43.74803" lon="7.13825">
        <ele>424.08</ele>
        <time>2022-04-28T07:38:54Z</time>
      </trkpt>
      <trkpt lat="43.74802" lon="7.13826">
        <ele>424.56</ele>
        <time>2022-04-28T07:39:17Z</time>
      </trkpt>
      <trkpt lat="43.74803" lon="7.13831">
        <ele>422.16</ele>
        <time>2022-04-28T07:39:38Z</time>
      </trkpt>
      <trkpt lat="43.74803" lon="7.13832">
        <ele>425.52</ele>
        <time>2022-04-28T07:39:39Z</time>
      </trkpt>
      <trkpt lat="43.74804" lon="7.13835">
        <ele>428.89</ele>
        <time>2022-04-28T07:39:43Z</time>
      </trkpt>
      <trkpt lat="43.74804" lon="7.13835">
        <ele>425.52</ele>
        <time>2022-04-28T07:39:44Z</time>
      </trkpt>
      <trkpt lat="43.74803" lon="7.13835">
        <ele>424.56</ele>
        <time>2022-04-28T07:39:46Z</time>
      </trkpt>
      <trkpt lat="43.74798" lon="7.13838">
        <ele>425.52</ele>
        <time>2022-04-28T07:40:00Z</time>
      </trkpt>
      <trkpt lat="43.74808" lon="7.13831">
        <ele>426</ele>
        <time>2022-04-28T07:40:18Z</time>
      </trkpt>
      <trkpt lat="43.74802" lon="7.13818">
        <ele>424.56</ele>
        <time>2022-04-28T07:40:33Z</time>
      </trkpt>
      <trkpt lat="43.74799" lon="7.13816">
        <ele>425.04</ele>
        <time>2022-04-28T07:40:43Z</time>
      </trkpt>
      <trkpt lat="43.74798" lon="7.13818">
        <ele>425.52</ele>
        <time>2022-04-28T07:40:45Z</time>
      </trkpt>
      <trkpt lat="43.74797" lon="7.1383">
        <ele>425.04</ele>
        <time>2022-04-28T07:40:57Z</time>
      </trkpt>
      <trkpt lat="43.748" lon="7.13831">
        <ele>425.52</ele>
        <time>2022-04-28T07:41:08Z</time>
      </trkpt>
      <trkpt lat="43.74792" lon="7.13833">
        <ele>426</ele>
        <time>2022-04-28T07:41:30Z</time>
      </trkpt>
      <trkpt lat="43.74791" lon="7.13842">
        <ele>426</ele>
        <time>2022-04-28T07:41:43Z</time>
      </trkpt>
      <trkpt lat="43.74795" lon="7.13835">
        <ele>426</ele>
        <time>2022-04-28T07:41:50Z</time>
      </trkpt>
      <trkpt lat="43.74798" lon="7.13832">
        <ele>425.52</ele>
        <time>2022-04-28T07:41:52Z</time>
      </trkpt>
      <trkpt lat="43.748" lon="7.13823">
        <ele>426</ele>
        <time>2022-04-28T07:42:08Z</time>
      </trkpt>
      <trkpt lat="43.74799" lon="7.13822">
        <ele>426</ele>
        <time>2022-04-28T07:42:36Z</time>
      </trkpt>
      <trkpt lat="43.74801" lon="7.13824">
        <ele>426</ele>
        <time>2022-04-28T07:43:02Z</time>
      </trkpt>
      <trkpt lat="43.74801" lon="7.13826">
        <ele>426</ele>
        <time>2022-04-28T07:43:26Z</time>
      </trkpt>
      <trkpt lat="43.74803" lon="7.13827">
        <ele>426.48</ele>
        <time>2022-04-28T07:43:43Z</time>
      </trkpt>
      <trkpt lat="43.74804" lon="7.13828">
        <ele>426.96</ele>
        <time>2022-04-28T07:44:09Z</time>
      </trkpt>
      <trkpt lat="43.74802" lon="7.13829">
        <ele>427.44</ele>
        <time>2022-04-28T07:44:31Z</time>
      </trkpt>
      <trkpt lat="43.74799" lon="7.13835">
        <ele>426.96</ele>
        <time>2022-04-28T07:44:45Z</time>
      </trkpt>
      <trkpt lat="43.74801" lon="7.13842">
        <ele>424.56</ele>
        <time>2022-04-28T07:44:57Z</time>
      </trkpt>
      <trkpt lat="43.74801" lon="7.13843">
        <ele>428.89</ele>
        <time>2022-04-28T07:44:58Z</time>
      </trkpt>
      <trkpt lat="43.74803" lon="7.13845">
        <ele>426.96</ele>
        <time>2022-04-28T07:45:01Z</time>
      </trkpt>
      <trkpt lat="43.74806" lon="7.1384">
        <ele>426.48</ele>
        <time>2022-04-28T07:45:09Z</time>
      </trkpt>
      <trkpt lat="43.74806" lon="7.13837">
        <ele>428.4</ele>
        <time>2022-04-28T07:45:11Z</time>
      </trkpt>
      <trkpt lat="43.74806" lon="7.13837">
        <ele>427.44</ele>
        <time>2022-04-28T07:45:12Z</time>
      </trkpt>
      <trkpt lat="43.74809" lon="7.13835">
        <ele>427.92</ele>
        <time>2022-04-28T07:45:16Z</time>
      </trkpt>
      <trkpt lat="43.74811" lon="7.13833">
        <ele>428.4</ele>
        <time>2022-04-28T07:45:18Z</time>
      </trkpt>
      <trkpt lat="43.74815" lon="7.13819">
        <ele>428.4</ele>
        <time>2022-04-28T07:45:30Z</time>
      </trkpt>
      <trkpt lat="43.74817" lon="7.13804">
        <ele>428.89</ele>
        <time>2022-04-28T07:45:43Z</time>
      </trkpt>
      <trkpt lat="43.74819" lon="7.13788">
        <ele>427.44</ele>
        <time>2022-04-28T07:45:56Z</time>
      </trkpt>
      <trkpt lat="43.7482" lon="7.13779">
        <ele>428.4</ele>
        <time>2022-04-28T07:46:11Z</time>
      </trkpt>
      <trkpt lat="43.74821" lon="7.1378">
        <ele>426.96</ele>
        <time>2022-04-28T07:46:20Z</time>
      </trkpt>
      <trkpt lat="43.74821" lon="7.13776">
        <ele>429.85</ele>
        <time>2022-04-28T07:46:23Z</time>
      </trkpt>
      <trkpt lat="43.74822" lon="7.13774">
        <ele>428.4</ele>
        <time>2022-04-28T07:46:25Z</time>
      </trkpt>
      <trkpt lat="43.74825" lon="7.13761">
        <ele>425.52</ele>
        <time>2022-04-28T07:46:39Z</time>
      </trkpt>
      <trkpt lat="43.74826" lon="7.13758">
        <ele>426.96</ele>
        <time>2022-04-28T07:46:41Z</time>
      </trkpt>
      <trkpt lat="43.7483" lon="7.13747">
        <ele>425.04</ele>
        <time>2022-04-28T07:46:48Z</time>
      </trkpt>
      <trkpt lat="43.7483" lon="7.13743">
        <ele>423.6</ele>
        <time>2022-04-28T07:46:51Z</time>
      </trkpt>
      <trkpt lat="43.74831" lon="7.13739">
        <ele>423.6</ele>
        <time>2022-04-28T07:46:54Z</time>
      </trkpt>
      <trkpt lat="43.74834" lon="7.13723">
        <ele>420.71</ele>
        <time>2022-04-28T07:47:04Z</time>
      </trkpt>
      <trkpt lat="43.74836" lon="7.13714">
        <ele>420.71</ele>
        <time>2022-04-28T07:47:10Z</time>
      </trkpt>
      <trkpt lat="43.74839" lon="7.13702">
        <ele>418.31</ele>
        <time>2022-04-28T07:47:18Z</time>
      </trkpt>
      <trkpt lat="43.74843" lon="7.13696">
        <ele>417.35</ele>
        <time>2022-04-28T07:47:23Z</time>
      </trkpt>
      <trkpt lat="43.74846" lon="7.13692">
        <ele>418.31</ele>
        <time>2022-04-28T07:47:27Z</time>
      </trkpt>
      <trkpt lat="43.74849" lon="7.13684">
        <ele>415.43</ele>
        <time>2022-04-28T07:47:33Z</time>
      </trkpt>
      <trkpt lat="43.74851" lon="7.13668">
        <ele>413.02</ele>
        <time>2022-04-28T07:47:45Z</time>
      </trkpt>
      <trkpt lat="43.74851" lon="7.13667">
        <ele>413.02</ele>
        <time>2022-04-28T07:47:46Z</time>
      </trkpt>
      <trkpt lat="43.74851" lon="7.1366">
        <ele>411.58</ele>
        <time>2022-04-28T07:47:50Z</time>
      </trkpt>
      <trkpt lat="43.74852" lon="7.13648">
        <ele>408.22</ele>
        <time>2022-04-28T07:48:00Z</time>
      </trkpt>
      <trkpt lat="43.74853" lon="7.13646">
        <ele>411.1</ele>
        <time>2022-04-28T07:48:02Z</time>
      </trkpt>
      <trkpt lat="43.74853" lon="7.13644">
        <ele>410.14</ele>
        <time>2022-04-28T07:48:09Z</time>
      </trkpt>
      <trkpt lat="43.74852" lon="7.13644">
        <ele>409.66</ele>
        <time>2022-04-28T07:48:29Z</time>
      </trkpt>
      <trkpt lat="43.74858" lon="7.13635">
        <ele>409.18</ele>
        <time>2022-04-28T07:48:40Z</time>
      </trkpt>
      <trkpt lat="43.74859" lon="7.13632">
        <ele>408.22</ele>
        <time>2022-04-28T07:48:45Z</time>
      </trkpt>
      <trkpt lat="43.74864" lon="7.13625">
        <ele>408.22</ele>
        <time>2022-04-28T07:48:51Z</time>
      </trkpt>
      <trkpt lat="43.74865" lon="7.13623">
        <ele>408.22</ele>
        <time>2022-04-28T07:48:53Z</time>
      </trkpt>
      <trkpt lat="43.74873" lon="7.13611">
        <ele>409.66</ele>
        <time>2022-04-28T07:49:03Z</time>
      </trkpt>
      <trkpt lat="43.74874" lon="7.13609">
        <ele>408.7</ele>
        <time>2022-04-28T07:49:05Z</time>
      </trkpt>
      <trkpt lat="43.74876" lon="7.13606">
        <ele>409.66</ele>
        <time>2022-04-28T07:49:07Z</time>
      </trkpt>
      <trkpt lat="43.74881" lon="7.13597">
        <ele>409.66</ele>
        <time>2022-04-28T07:49:15Z</time>
      </trkpt>
      <trkpt lat="43.74882" lon="7.13592">
        <ele>408.7</ele>
        <time>2022-04-28T07:49:18Z</time>
      </trkpt>
      <trkpt lat="43.74883" lon="7.13591">
        <ele>408.7</ele>
        <time>2022-04-28T07:49:19Z</time>
      </trkpt>
      <trkpt lat="43.74889" lon="7.1358">
        <ele>407.26</ele>
        <time>2022-04-28T07:49:31Z</time>
      </trkpt>
      <trkpt lat="43.74893" lon="7.13573">
        <ele>405.81</ele>
        <time>2022-04-28T07:49:37Z</time>
      </trkpt>
      <trkpt lat="43.74894" lon="7.13571">
        <ele>405.81</ele>
        <time>2022-04-28T07:49:39Z</time>
      </trkpt>
      <trkpt lat="43.74897" lon="7.13564">
        <ele>405.81</ele>
        <time>2022-04-28T07:49:51Z</time>
      </trkpt>
      <trkpt lat="43.74899" lon="7.13552">
        <ele>405.81</ele>
        <time>2022-04-28T07:50:03Z</time>
      </trkpt>
      <trkpt lat="43.74903" lon="7.13543">
        <ele>404.85</ele>
        <time>2022-04-28T07:50:14Z</time>
      </trkpt>
      <trkpt lat="43.74909" lon="7.13533">
        <ele>402.45</ele>
        <time>2022-04-28T07:50:29Z</time>
      </trkpt>
      <trkpt lat="43.74916" lon="7.13528">
        <ele>402.45</ele>
        <time>2022-04-28T07:50:40Z</time>
      </trkpt>
      <trkpt lat="43.74921" lon="7.13516">
        <ele>400.53</ele>
        <time>2022-04-28T07:50:52Z</time>
      </trkpt>
      <trkpt lat="43.7492" lon="7.13501">
        <ele>399.08</ele>
        <time>2022-04-28T07:51:06Z</time>
      </trkpt>
      <trkpt lat="43.7492" lon="7.13487">
        <ele>398.6</ele>
        <time>2022-04-28T07:51:19Z</time>
      </trkpt>
      <trkpt lat="43.7492" lon="7.13473">
        <ele>396.68</ele>
        <time>2022-04-28T07:51:33Z</time>
      </trkpt>
      <trkpt lat="43.7492" lon="7.13458">
        <ele>395.24</ele>
        <time>2022-04-28T07:51:48Z</time>
      </trkpt>
      <trkpt lat="43.74922" lon="7.13448">
        <ele>393.32</ele>
        <time>2022-04-28T07:52:00Z</time>
      </trkpt>
      <trkpt lat="43.74924" lon="7.13436">
        <ele>390.91</ele>
        <time>2022-04-28T07:52:14Z</time>
      </trkpt>
      <trkpt lat="43.74927" lon="7.13427">
        <ele>389.47</ele>
        <time>2022-04-28T07:52:25Z</time>
      </trkpt>
      <trkpt lat="43.74929" lon="7.13418">
        <ele>388.51</ele>
        <time>2022-04-28T07:52:38Z</time>
      </trkpt>
      <trkpt lat="43.7493" lon="7.13411">
        <ele>385.63</ele>
        <time>2022-04-28T07:52:46Z</time>
      </trkpt>
      <trkpt lat="43.7493" lon="7.1341">
        <ele>397.16</ele>
        <time>2022-04-28T07:52:47Z</time>
      </trkpt>
      <trkpt lat="43.7493" lon="7.1341">
        <ele>388.03</ele>
        <time>2022-04-28T07:52:48Z</time>
      </trkpt>
      <trkpt lat="43.74926" lon="7.13405">
        <ele>386.11</ele>
        <time>2022-04-28T07:53:09Z</time>
      </trkpt>
      <trkpt lat="43.7493" lon="7.13399">
        <ele>385.63</ele>
        <time>2022-04-28T07:53:23Z</time>
      </trkpt>
      <trkpt lat="43.74934" lon="7.1339">
        <ele>384.66</ele>
        <time>2022-04-28T07:53:34Z</time>
      </trkpt>
      <trkpt lat="43.74938" lon="7.13381">
        <ele>383.22</ele>
        <time>2022-04-28T07:53:48Z</time>
      </trkpt>
      <trkpt lat="43.74939" lon="7.13372">
        <ele>381.3</ele>
        <time>2022-04-28T07:54:00Z</time>
      </trkpt>
      <trkpt lat="43.7494" lon="7.13359">
        <ele>380.82</ele>
        <time>2022-04-28T07:54:13Z</time>
      </trkpt>
      <trkpt lat="43.74941" lon="7.1335">
        <ele>379.86</ele>
        <time>2022-04-28T07:54:25Z</time>
      </trkpt>
      <trkpt lat="43.74943" lon="7.13341">
        <ele>378.9</ele>
        <time>2022-04-28T07:54:37Z</time>
      </trkpt>
      <trkpt lat="43.74945" lon="7.13326">
        <ele>377.94</ele>
        <time>2022-04-28T07:54:51Z</time>
      </trkpt>
      <trkpt lat="43.74945" lon="7.13324">
        <ele>377.94</ele>
        <time>2022-04-28T07:54:54Z</time>
      </trkpt>
      <trkpt lat="43.74948" lon="7.13314">
        <ele>375.53</ele>
        <time>2022-04-28T07:55:06Z</time>
      </trkpt>
      <trkpt lat="43.7495" lon="7.13308">
        <ele>376.01</ele>
        <time>2022-04-28T07:55:19Z</time>
      </trkpt>
      <trkpt lat="43.74954" lon="7.13305">
        <ele>373.61</ele>
        <time>2022-04-28T07:55:29Z</time>
      </trkpt>
      <trkpt lat="43.7496" lon="7.133">
        <ele>374.57</ele>
        <time>2022-04-28T07:55:38Z</time>
      </trkpt>
      <trkpt lat="43.74965" lon="7.13297">
        <ele>374.09</ele>
        <time>2022-04-28T07:55:44Z</time>
      </trkpt>
      <trkpt lat="43.74975" lon="7.13291">
        <ele>372.65</ele>
        <time>2022-04-28T07:55:55Z</time>
      </trkpt>
      <trkpt lat="43.74981" lon="7.13291">
        <ele>372.17</ele>
        <time>2022-04-28T07:56:02Z</time>
      </trkpt>
      <trkpt lat="43.74989" lon="7.13286">
        <ele>371.21</ele>
        <time>2022-04-28T07:56:10Z</time>
      </trkpt>
      <trkpt lat="43.74993" lon="7.13283">
        <ele>370.73</ele>
        <time>2022-04-28T07:56:13Z</time>
      </trkpt>
      <trkpt lat="43.74998" lon="7.13276">
        <ele>370.24</ele>
        <time>2022-04-28T07:56:25Z</time>
      </trkpt>
      <trkpt lat="43.75" lon="7.13275">
        <ele>369.76</ele>
        <time>2022-04-28T07:56:42Z</time>
      </trkpt>
      <trkpt lat="43.75002" lon="7.13276">
        <ele>370.24</ele>
        <time>2022-04-28T07:57:03Z</time>
      </trkpt>
      <trkpt lat="43.74999" lon="7.13275">
        <ele>369.76</ele>
        <time>2022-04-28T07:57:28Z</time>
      </trkpt>
      <trkpt lat="43.74998" lon="7.13271">
        <ele>370.24</ele>
        <time>2022-04-28T07:57:54Z</time>
      </trkpt>
      <trkpt lat="43.75002" lon="7.13262">
        <ele>368.8</ele>
        <time>2022-04-28T07:58:09Z</time>
      </trkpt>
      <trkpt lat="43.75003" lon="7.13263">
        <ele>368.8</ele>
        <time>2022-04-28T07:58:25Z</time>
      </trkpt>
      <trkpt lat="43.75002" lon="7.13264">
        <ele>369.28</ele>
        <time>2022-04-28T07:58:42Z</time>
      </trkpt>
      <trkpt lat="43.75005" lon="7.13263">
        <ele>369.28</ele>
        <time>2022-04-28T07:58:45Z</time>
      </trkpt>
      <trkpt lat="43.75019" lon="7.1325">
        <ele>368.32</ele>
        <time>2022-04-28T07:59:00Z</time>
      </trkpt>
      <trkpt lat="43.75027" lon="7.13243">
        <ele>368.8</ele>
        <time>2022-04-28T07:59:11Z</time>
      </trkpt>
      <trkpt lat="43.75029" lon="7.13242">
        <ele>369.28</ele>
        <time>2022-04-28T07:59:12Z</time>
      </trkpt>
      <trkpt lat="43.75038" lon="7.1324">
        <ele>369.76</ele>
        <time>2022-04-28T07:59:24Z</time>
      </trkpt>
      <trkpt lat="43.7504" lon="7.1324">
        <ele>369.76</ele>
        <time>2022-04-28T07:59:48Z</time>
      </trkpt>
      <trkpt lat="43.7504" lon="7.1324">
        <ele>369.76</ele>
        <time>2022-04-28T08:00:08Z</time>
      </trkpt>
      <trkpt lat="43.75041" lon="7.1324">
        <ele>369.76</ele>
        <time>2022-04-28T08:00:22Z</time>
      </trkpt>
      <trkpt lat="43.75044" lon="7.13236">
        <ele>369.76</ele>
        <time>2022-04-28T08:00:46Z</time>
      </trkpt>
      <trkpt lat="43.75048" lon="7.13227">
        <ele>369.28</ele>
        <time>2022-04-28T08:00:58Z</time>
      </trkpt>
      <trkpt lat="43.75053" lon="7.13218">
        <ele>369.28</ele>
        <time>2022-04-28T08:01:09Z</time>
      </trkpt>
      <trkpt lat="43.75054" lon="7.13217">
        <ele>369.76</ele>
        <time>2022-04-28T08:01:11Z</time>
      </trkpt>
      <trkpt lat="43.75058" lon="7.13216">
        <ele>369.28</ele>
        <time>2022-04-28T08:01:15Z</time>
      </trkpt>
      <trkpt lat="43.75061" lon="7.13215">
        <ele>368.8</ele>
        <time>2022-04-28T08:01:18Z</time>
      </trkpt>
      <trkpt lat="43.75064" lon="7.13216">
        <ele>369.28</ele>
        <time>2022-04-28T08:01:21Z</time>
      </trkpt>
      <trkpt lat="43.75066" lon="7.13216">
        <ele>367.84</ele>
        <time>2022-04-28T08:01:23Z</time>
      </trkpt>
      <trkpt lat="43.75067" lon="7.13216">
        <ele>371.21</ele>
        <time>2022-04-28T08:01:24Z</time>
      </trkpt>
      <trkpt lat="43.75072" lon="7.13214">
        <ele>368.8</ele>
        <time>2022-04-28T08:01:30Z</time>
      </trkpt>
      <trkpt lat="43.75073" lon="7.13214">
        <ele>371.69</ele>
        <time>2022-04-28T08:01:32Z</time>
      </trkpt>
      <trkpt lat="43.75074" lon="7.13211">
        <ele>371.21</ele>
        <time>2022-04-28T08:01:46Z</time>
      </trkpt>
      <trkpt lat="43.75074" lon="7.13211">
        <ele>367.84</ele>
        <time>2022-04-28T08:01:49Z</time>
      </trkpt>
      <trkpt lat="43.75074" lon="7.1321">
        <ele>371.69</ele>
        <time>2022-04-28T08:01:50Z</time>
      </trkpt>
      <trkpt lat="43.75081" lon="7.13198">
        <ele>370.73</ele>
        <time>2022-04-28T08:02:02Z</time>
      </trkpt>
      <trkpt lat="43.75083" lon="7.13197">
        <ele>369.76</ele>
        <time>2022-04-28T08:02:06Z</time>
      </trkpt>
      <trkpt lat="43.75094" lon="7.13193">
        <ele>370.24</ele>
        <time>2022-04-28T08:02:16Z</time>
      </trkpt>
      <trkpt lat="43.75103" lon="7.13189">
        <ele>370.24</ele>
        <time>2022-04-28T08:02:27Z</time>
      </trkpt>
      <trkpt lat="43.75107" lon="7.13188">
        <ele>369.76</ele>
        <time>2022-04-28T08:02:31Z</time>
      </trkpt>
      <trkpt lat="43.75116" lon="7.13182">
        <ele>366.88</ele>
        <time>2022-04-28T08:02:42Z</time>
      </trkpt>
      <trkpt lat="43.75122" lon="7.13176">
        <ele>366.4</ele>
        <time>2022-04-28T08:02:53Z</time>
      </trkpt>
      <trkpt lat="43.7513" lon="7.13167">
        <ele>365.92</ele>
        <time>2022-04-28T08:03:04Z</time>
      </trkpt>
      <trkpt lat="43.75131" lon="7.13165">
        <ele>365.92</ele>
        <time>2022-04-28T08:03:06Z</time>
      </trkpt>
      <trkpt lat="43.7514" lon="7.13149">
        <ele>366.4</ele>
        <time>2022-04-28T08:03:19Z</time>
      </trkpt>
      <trkpt lat="43.75151" lon="7.13138">
        <ele>365.44</ele>
        <time>2022-04-28T08:03:34Z</time>
      </trkpt>
      <trkpt lat="43.7516" lon="7.13131">
        <ele>363.52</ele>
        <time>2022-04-28T08:03:47Z</time>
      </trkpt>
      <trkpt lat="43.75167" lon="7.13128">
        <ele>364.96</ele>
        <time>2022-04-28T08:03:56Z</time>
      </trkpt>
      <trkpt lat="43.75175" lon="7.13128">
        <ele>365.44</ele>
        <time>2022-04-28T08:04:02Z</time>
      </trkpt>
      <trkpt lat="43.75178" lon="7.13126">
        <ele>364.96</ele>
        <time>2022-04-28T08:04:05Z</time>
      </trkpt>
      <trkpt lat="43.75184" lon="7.13121">
        <ele>363.52</ele>
        <time>2022-04-28T08:04:13Z</time>
      </trkpt>
      <trkpt lat="43.75192" lon="7.13118">
        <ele>364.96</ele>
        <time>2022-04-28T08:04:23Z</time>
      </trkpt>
      <trkpt lat="43.75199" lon="7.13117">
        <ele>369.28</ele>
        <time>2022-04-28T08:04:30Z</time>
      </trkpt>
      <trkpt lat="43.752" lon="7.13117">
        <ele>365.92</ele>
        <time>2022-04-28T08:04:31Z</time>
      </trkpt>
      <trkpt lat="43.75204" lon="7.13118">
        <ele>368.8</ele>
        <time>2022-04-28T08:04:36Z</time>
      </trkpt>
      <trkpt lat="43.75205" lon="7.13117">
        <ele>364.48</ele>
        <time>2022-04-28T08:04:37Z</time>
      </trkpt>
      <trkpt lat="43.75209" lon="7.13114">
        <ele>369.28</ele>
        <time>2022-04-28T08:04:42Z</time>
      </trkpt>
      <trkpt lat="43.75213" lon="7.13111">
        <ele>368.32</ele>
        <time>2022-04-28T08:04:47Z</time>
      </trkpt>
      <trkpt lat="43.75216" lon="7.13109">
        <ele>368.8</ele>
        <time>2022-04-28T08:04:53Z</time>
      </trkpt>
      <trkpt lat="43.75226" lon="7.13106">
        <ele>369.76</ele>
        <time>2022-04-28T08:05:04Z</time>
      </trkpt>
      <trkpt lat="43.75232" lon="7.13107">
        <ele>372.65</ele>
        <time>2022-04-28T08:05:10Z</time>
      </trkpt>
      <trkpt lat="43.75233" lon="7.13107">
        <ele>367.36</ele>
        <time>2022-04-28T08:05:11Z</time>
      </trkpt>
      <trkpt lat="43.75233" lon="7.13107">
        <ele>371.69</ele>
        <time>2022-04-28T08:05:12Z</time>
      </trkpt>
      <trkpt lat="43.75234" lon="7.13106">
        <ele>369.76</ele>
        <time>2022-04-28T08:05:13Z</time>
      </trkpt>
      <trkpt lat="43.75239" lon="7.131">
        <ele>370.24</ele>
        <time>2022-04-28T08:05:22Z</time>
      </trkpt>
      <trkpt lat="43.75239" lon="7.131">
        <ele>372.65</ele>
        <time>2022-04-28T08:05:23Z</time>
      </trkpt>
      <trkpt lat="43.7524" lon="7.13099">
        <ele>369.28</ele>
        <time>2022-04-28T08:05:24Z</time>
      </trkpt>
      <trkpt lat="43.75241" lon="7.13099">
        <ele>372.65</ele>
        <time>2022-04-28T08:05:25Z</time>
      </trkpt>
      <trkpt lat="43.75246" lon="7.13097">
        <ele>376.01</ele>
        <time>2022-04-28T08:05:30Z</time>
      </trkpt>
      <trkpt lat="43.7525" lon="7.13095">
        <ele>375.53</ele>
        <time>2022-04-28T08:05:33Z</time>
      </trkpt>
      <trkpt lat="43.75251" lon="7.13095">
        <ele>371.69</ele>
        <time>2022-04-28T08:05:34Z</time>
      </trkpt>
      <trkpt lat="43.75253" lon="7.13095">
        <ele>376.01</ele>
        <time>2022-04-28T08:05:36Z</time>
      </trkpt>
      <trkpt lat="43.75254" lon="7.13095">
        <ele>370.73</ele>
        <time>2022-04-28T08:05:37Z</time>
      </trkpt>
      <trkpt lat="43.75255" lon="7.13095">
        <ele>375.05</ele>
        <time>2022-04-28T08:05:38Z</time>
      </trkpt>
      <trkpt lat="43.75265" lon="7.13091">
        <ele>376.01</ele>
        <time>2022-04-28T08:05:49Z</time>
      </trkpt>
      <trkpt lat="43.75273" lon="7.13088">
        <ele>374.09</ele>
        <time>2022-04-28T08:05:56Z</time>
      </trkpt>
      <trkpt lat="43.75277" lon="7.13088">
        <ele>373.61</ele>
        <time>2022-04-28T08:05:59Z</time>
      </trkpt>
      <trkpt lat="43.75281" lon="7.13085">
        <ele>373.61</ele>
        <time>2022-04-28T08:06:03Z</time>
      </trkpt>
      <trkpt lat="43.75286" lon="7.1308">
        <ele>378.42</ele>
        <time>2022-04-28T08:06:09Z</time>
      </trkpt>
      <trkpt lat="43.75288" lon="7.1308">
        <ele>374.57</ele>
        <time>2022-04-28T08:06:10Z</time>
      </trkpt>
      <trkpt lat="43.75289" lon="7.1308">
        <ele>374.09</ele>
        <time>2022-04-28T08:06:12Z</time>
      </trkpt>
      <trkpt lat="43.75294" lon="7.13078">
        <ele>375.05</ele>
        <time>2022-04-28T08:06:16Z</time>
      </trkpt>
      <trkpt lat="43.75303" lon="7.1307">
        <ele>375.53</ele>
        <time>2022-04-28T08:06:26Z</time>
      </trkpt>
      <trkpt lat="43.75307" lon="7.13067">
        <ele>377.94</ele>
        <time>2022-04-28T08:06:31Z</time>
      </trkpt>
      <trkpt lat="43.75314" lon="7.1306">
        <ele>379.38</ele>
        <time>2022-04-28T08:06:43Z</time>
      </trkpt>
      <trkpt lat="43.75319" lon="7.13058">
        <ele>375.53</ele>
        <time>2022-04-28T08:06:49Z</time>
      </trkpt>
      <trkpt lat="43.7532" lon="7.13058">
        <ele>380.82</ele>
        <time>2022-04-28T08:06:50Z</time>
      </trkpt>
      <trkpt lat="43.75329" lon="7.13051">
        <ele>377.45</ele>
        <time>2022-04-28T08:07:02Z</time>
      </trkpt>
      <trkpt lat="43.7533" lon="7.13051">
        <ele>382.26</ele>
        <time>2022-04-28T08:07:03Z</time>
      </trkpt>
      <trkpt lat="43.75332" lon="7.13049">
        <ele>383.7</ele>
        <time>2022-04-28T08:07:06Z</time>
      </trkpt>
      <trkpt lat="43.75333" lon="7.13048">
        <ele>378.9</ele>
        <time>2022-04-28T08:07:07Z</time>
      </trkpt>
      <trkpt lat="43.75333" lon="7.13047">
        <ele>382.74</ele>
        <time>2022-04-28T08:07:08Z</time>
      </trkpt>
      <trkpt lat="43.75335" lon="7.13043">
        <ele>381.3</ele>
        <time>2022-04-28T08:07:11Z</time>
      </trkpt>
      <trkpt lat="43.75335" lon="7.13042">
        <ele>377.94</ele>
        <time>2022-04-28T08:07:12Z</time>
      </trkpt>
      <trkpt lat="43.75336" lon="7.13042">
        <ele>383.7</ele>
        <time>2022-04-28T08:07:13Z</time>
      </trkpt>
      <trkpt lat="43.75337" lon="7.13039">
        <ele>386.11</ele>
        <time>2022-04-28T08:07:16Z</time>
      </trkpt>
      <trkpt lat="43.75338" lon="7.13036">
        <ele>384.18</ele>
        <time>2022-04-28T08:07:18Z</time>
      </trkpt>
      <trkpt lat="43.7534" lon="7.13033">
        <ele>388.51</ele>
        <time>2022-04-28T08:07:21Z</time>
      </trkpt>
      <trkpt lat="43.7534" lon="7.13033">
        <ele>383.22</ele>
        <time>2022-04-28T08:07:22Z</time>
      </trkpt>
      <trkpt lat="43.75344" lon="7.13027">
        <ele>386.11</ele>
        <time>2022-04-28T08:07:29Z</time>
      </trkpt>
      <trkpt lat="43.75346" lon="7.13023">
        <ele>387.55</ele>
        <time>2022-04-28T08:07:34Z</time>
      </trkpt>
      <trkpt lat="43.75347" lon="7.13022">
        <ele>384.66</ele>
        <time>2022-04-28T08:07:35Z</time>
      </trkpt>
      <trkpt lat="43.75348" lon="7.1302">
        <ele>386.59</ele>
        <time>2022-04-28T08:07:37Z</time>
      </trkpt>
      <trkpt lat="43.75358" lon="7.13016">
        <ele>388.99</ele>
        <time>2022-04-28T08:07:47Z</time>
      </trkpt>
      <trkpt lat="43.75359" lon="7.13016">
        <ele>384.18</ele>
        <time>2022-04-28T08:07:48Z</time>
      </trkpt>
      <trkpt lat="43.7536" lon="7.13015">
        <ele>388.51</ele>
        <time>2022-04-28T08:07:50Z</time>
      </trkpt>
      <trkpt lat="43.75361" lon="7.13015">
        <ele>385.15</ele>
        <time>2022-04-28T08:07:51Z</time>
      </trkpt>
      <trkpt lat="43.75363" lon="7.13014">
        <ele>388.03</ele>
        <time>2022-04-28T08:07:53Z</time>
      </trkpt>
      <trkpt lat="43.75371" lon="7.13011">
        <ele>390.43</ele>
        <time>2022-04-28T08:08:04Z</time>
      </trkpt>
      <trkpt lat="43.75373" lon="7.13007">
        <ele>389.47</ele>
        <time>2022-04-28T08:08:07Z</time>
      </trkpt>
      <trkpt lat="43.75378" lon="7.1299">
        <ele>387.07</ele>
        <time>2022-04-28T08:08:19Z</time>
      </trkpt>
      <trkpt lat="43.7538" lon="7.12986">
        <ele>389.47</ele>
        <time>2022-04-28T08:08:26Z</time>
      </trkpt>
      <trkpt lat="43.7538" lon="7.12985">
        <ele>384.18</ele>
        <time>2022-04-28T08:08:27Z</time>
      </trkpt>
      <trkpt lat="43.75381" lon="7.12984">
        <ele>388.03</ele>
        <time>2022-04-28T08:08:28Z</time>
      </trkpt>
      <trkpt lat="43.75383" lon="7.1298">
        <ele>393.32</ele>
        <time>2022-04-28T08:08:34Z</time>
      </trkpt>
      <trkpt lat="43.75384" lon="7.12979">
        <ele>387.07</ele>
        <time>2022-04-28T08:08:35Z</time>
      </trkpt>
      <trkpt lat="43.75384" lon="7.12979">
        <ele>390.43</ele>
        <time>2022-04-28T08:08:36Z</time>
      </trkpt>
      <trkpt lat="43.75388" lon="7.12975">
        <ele>393.32</ele>
        <time>2022-04-28T08:08:42Z</time>
      </trkpt>
      <trkpt lat="43.75388" lon="7.12974">
        <ele>388.51</ele>
        <time>2022-04-28T08:08:43Z</time>
      </trkpt>
      <trkpt lat="43.75388" lon="7.12972">
        <ele>391.87</ele>
        <time>2022-04-28T08:08:45Z</time>
      </trkpt>
      <trkpt lat="43.75392" lon="7.12965">
        <ele>395.72</ele>
        <time>2022-04-28T08:08:55Z</time>
      </trkpt>
      <trkpt lat="43.75392" lon="7.12964">
        <ele>390.43</ele>
        <time>2022-04-28T08:08:56Z</time>
      </trkpt>
      <trkpt lat="43.75393" lon="7.12963">
        <ele>393.8</ele>
        <time>2022-04-28T08:08:58Z</time>
      </trkpt>
      <trkpt lat="43.75393" lon="7.12962">
        <ele>389.95</ele>
        <time>2022-04-28T08:08:59Z</time>
      </trkpt>
      <trkpt lat="43.75394" lon="7.12962">
        <ele>393.32</ele>
        <time>2022-04-28T08:09:00Z</time>
      </trkpt>
      <trkpt lat="43.75405" lon="7.12952">
        <ele>393.32</ele>
        <time>2022-04-28T08:09:14Z</time>
      </trkpt>
      <trkpt lat="43.75406" lon="7.1295">
        <ele>393.32</ele>
        <time>2022-04-28T08:09:16Z</time>
      </trkpt>
      <trkpt lat="43.75407" lon="7.12948">
        <ele>395.24</ele>
        <time>2022-04-28T08:09:18Z</time>
      </trkpt>
      <trkpt lat="43.75408" lon="7.12947">
        <ele>392.84</ele>
        <time>2022-04-28T08:09:19Z</time>
      </trkpt>
      <trkpt lat="43.75409" lon="7.12946">
        <ele>396.2</ele>
        <time>2022-04-28T08:09:21Z</time>
      </trkpt>
      <trkpt lat="43.75414" lon="7.12939">
        <ele>395.24</ele>
        <time>2022-04-28T08:09:28Z</time>
      </trkpt>
      <trkpt lat="43.75417" lon="7.12933">
        <ele>396.2</ele>
        <time>2022-04-28T08:09:34Z</time>
      </trkpt>
      <trkpt lat="43.7542" lon="7.1293">
        <ele>394.28</ele>
        <time>2022-04-28T08:09:40Z</time>
      </trkpt>
      <trkpt lat="43.75421" lon="7.12929">
        <ele>397.64</ele>
        <time>2022-04-28T08:09:43Z</time>
      </trkpt>
      <trkpt lat="43.75427" lon="7.12926">
        <ele>394.28</ele>
        <time>2022-04-28T08:09:48Z</time>
      </trkpt>
      <trkpt lat="43.75431" lon="7.12921">
        <ele>394.28</ele>
        <time>2022-04-28T08:10:10Z</time>
      </trkpt>
      <trkpt lat="43.75433" lon="7.1292">
        <ele>397.64</ele>
        <time>2022-04-28T08:10:15Z</time>
      </trkpt>
      <trkpt lat="43.75434" lon="7.12915">
        <ele>395.72</ele>
        <time>2022-04-28T08:10:19Z</time>
      </trkpt>
      <trkpt lat="43.75435" lon="7.12911">
        <ele>397.16</ele>
        <time>2022-04-28T08:10:22Z</time>
      </trkpt>
      <trkpt lat="43.75442" lon="7.12898">
        <ele>395.72</ele>
        <time>2022-04-28T08:10:33Z</time>
      </trkpt>
      <trkpt lat="43.75444" lon="7.12897">
        <ele>393.32</ele>
        <time>2022-04-28T08:10:35Z</time>
      </trkpt>
      <trkpt lat="43.75445" lon="7.12895">
        <ele>396.2</ele>
        <time>2022-04-28T08:10:37Z</time>
      </trkpt>
      <trkpt lat="43.7545" lon="7.12889">
        <ele>395.72</ele>
        <time>2022-04-28T08:10:48Z</time>
      </trkpt>
      <trkpt lat="43.75453" lon="7.12885">
        <ele>395.24</ele>
        <time>2022-04-28T08:10:59Z</time>
      </trkpt>
      <trkpt lat="43.75455" lon="7.12896">
        <ele>394.76</ele>
        <time>2022-04-28T08:11:30Z</time>
      </trkpt>
      <trkpt lat="43.75454" lon="7.12896">
        <ele>394.76</ele>
        <time>2022-04-28T08:11:53Z</time>
      </trkpt>
      <trkpt lat="43.75452" lon="7.1288">
        <ele>393.32</ele>
        <time>2022-04-28T08:12:12Z</time>
      </trkpt>
      <trkpt lat="43.75451" lon="7.12876">
        <ele>394.76</ele>
        <time>2022-04-28T08:12:14Z</time>
      </trkpt>
      <trkpt lat="43.75451" lon="7.12873">
        <ele>394.76</ele>
        <time>2022-04-28T08:12:15Z</time>
      </trkpt>
      <trkpt lat="43.75451" lon="7.12871">
        <ele>394.28</ele>
        <time>2022-04-28T08:12:16Z</time>
      </trkpt>
      <trkpt lat="43.75451" lon="7.12869">
        <ele>394.76</ele>
        <time>2022-04-28T08:12:17Z</time>
      </trkpt>
      <trkpt lat="43.75454" lon="7.12856">
        <ele>396.2</ele>
        <time>2022-04-28T08:12:26Z</time>
      </trkpt>
      <trkpt lat="43.75454" lon="7.12854">
        <ele>395.72</ele>
        <time>2022-04-28T08:12:27Z</time>
      </trkpt>
      <trkpt lat="43.75454" lon="7.12852">
        <ele>393.32</ele>
        <time>2022-04-28T08:12:28Z</time>
      </trkpt>
      <trkpt lat="43.75454" lon="7.12849">
        <ele>397.64</ele>
        <time>2022-04-28T08:12:30Z</time>
      </trkpt>
      <trkpt lat="43.75454" lon="7.12848">
        <ele>394.28</ele>
        <time>2022-04-28T08:12:31Z</time>
      </trkpt>
      <trkpt lat="43.75458" lon="7.12836">
        <ele>394.76</ele>
        <time>2022-04-28T08:12:42Z</time>
      </trkpt>
      <trkpt lat="43.75459" lon="7.12832">
        <ele>395.24</ele>
        <time>2022-04-28T08:12:45Z</time>
      </trkpt>
      <trkpt lat="43.7546" lon="7.12827">
        <ele>395.24</ele>
        <time>2022-04-28T08:12:49Z</time>
      </trkpt>
      <trkpt lat="43.75462" lon="7.12824">
        <ele>400.53</ele>
        <time>2022-04-28T08:12:53Z</time>
      </trkpt>
      <trkpt lat="43.75463" lon="7.12823">
        <ele>397.16</ele>
        <time>2022-04-28T08:12:54Z</time>
      </trkpt>
      <trkpt lat="43.75464" lon="7.12822">
        <ele>401.01</ele>
        <time>2022-04-28T08:12:56Z</time>
      </trkpt>
      <trkpt lat="43.75465" lon="7.12821">
        <ele>396.68</ele>
        <time>2022-04-28T08:12:57Z</time>
      </trkpt>
      <trkpt lat="43.75466" lon="7.12819">
        <ele>401.49</ele>
        <time>2022-04-28T08:12:59Z</time>
      </trkpt>
      <trkpt lat="43.75466" lon="7.12818">
        <ele>399.57</ele>
        <time>2022-04-28T08:13:00Z</time>
      </trkpt>
      <trkpt lat="43.75473" lon="7.12807">
        <ele>398.6</ele>
        <time>2022-04-28T08:13:11Z</time>
      </trkpt>
      <trkpt lat="43.75473" lon="7.12806">
        <ele>401.97</ele>
        <time>2022-04-28T08:13:12Z</time>
      </trkpt>
      <trkpt lat="43.75479" lon="7.12801">
        <ele>399.08</ele>
        <time>2022-04-28T08:13:22Z</time>
      </trkpt>
      <trkpt lat="43.75483" lon="7.12801">
        <ele>408.22</ele>
        <time>2022-04-28T08:13:26Z</time>
      </trkpt>
      <trkpt lat="43.75484" lon="7.12801">
        <ele>401.01</ele>
        <time>2022-04-28T08:13:27Z</time>
      </trkpt>
      <trkpt lat="43.75486" lon="7.128">
        <ele>401.97</ele>
        <time>2022-04-28T08:13:30Z</time>
      </trkpt>
      <trkpt lat="43.75489" lon="7.12798">
        <ele>402.45</ele>
        <time>2022-04-28T08:13:33Z</time>
      </trkpt>
      <trkpt lat="43.75496" lon="7.12787">
        <ele>400.53</ele>
        <time>2022-04-28T08:13:43Z</time>
      </trkpt>
      <trkpt lat="43.75496" lon="7.12785">
        <ele>403.41</ele>
        <time>2022-04-28T08:13:44Z</time>
      </trkpt>
      <trkpt lat="43.75494" lon="7.12783">
        <ele>402.93</ele>
        <time>2022-04-28T08:13:47Z</time>
      </trkpt>
      <trkpt lat="43.75486" lon="7.12772">
        <ele>401.49</ele>
        <time>2022-04-28T08:13:59Z</time>
      </trkpt>
      <trkpt lat="43.75486" lon="7.12766">
        <ele>401.01</ele>
        <time>2022-04-28T08:14:03Z</time>
      </trkpt>
      <trkpt lat="43.75486" lon="7.12764">
        <ele>401.49</ele>
        <time>2022-04-28T08:14:04Z</time>
      </trkpt>
      <trkpt lat="43.75489" lon="7.12747">
        <ele>399.08</ele>
        <time>2022-04-28T08:14:16Z</time>
      </trkpt>
      <trkpt lat="43.75493" lon="7.12733">
        <ele>398.12</ele>
        <time>2022-04-28T08:14:28Z</time>
      </trkpt>
      <trkpt lat="43.75493" lon="7.12731">
        <ele>398.12</ele>
        <time>2022-04-28T08:14:29Z</time>
      </trkpt>
      <trkpt lat="43.75493" lon="7.12728">
        <ele>397.16</ele>
        <time>2022-04-28T08:14:31Z</time>
      </trkpt>
      <trkpt lat="43.75498" lon="7.12715">
        <ele>396.2</ele>
        <time>2022-04-28T08:14:42Z</time>
      </trkpt>
      <trkpt lat="43.75499" lon="7.12711">
        <ele>395.24</ele>
        <time>2022-04-28T08:14:45Z</time>
      </trkpt>
      <trkpt lat="43.75503" lon="7.12699">
        <ele>394.76</ele>
        <time>2022-04-28T08:14:54Z</time>
      </trkpt>
      <trkpt lat="43.75503" lon="7.12697">
        <ele>394.28</ele>
        <time>2022-04-28T08:14:55Z</time>
      </trkpt>
      <trkpt lat="43.75504" lon="7.12695">
        <ele>394.28</ele>
        <time>2022-04-28T08:14:57Z</time>
      </trkpt>
      <trkpt lat="43.75504" lon="7.12692">
        <ele>394.28</ele>
        <time>2022-04-28T08:14:59Z</time>
      </trkpt>
      <trkpt lat="43.75504" lon="7.1269">
        <ele>393.8</ele>
        <time>2022-04-28T08:15:00Z</time>
      </trkpt>
      <trkpt lat="43.75508" lon="7.12684">
        <ele>393.32</ele>
        <time>2022-04-28T08:15:04Z</time>
      </trkpt>
      <trkpt lat="43.75509" lon="7.12682">
        <ele>392.36</ele>
        <time>2022-04-28T08:15:05Z</time>
      </trkpt>
      <trkpt lat="43.7551" lon="7.1268">
        <ele>393.32</ele>
        <time>2022-04-28T08:15:06Z</time>
      </trkpt>
      <trkpt lat="43.75513" lon="7.12667">
        <ele>389.47</ele>
        <time>2022-04-28T08:15:17Z</time>
      </trkpt>
      <trkpt lat="43.75514" lon="7.12666">
        <ele>394.28</ele>
        <time>2022-04-28T08:15:18Z</time>
      </trkpt>
      <trkpt lat="43.75515" lon="7.12665">
        <ele>389.47</ele>
        <time>2022-04-28T08:15:20Z</time>
      </trkpt>
      <trkpt lat="43.75516" lon="7.12664">
        <ele>395.24</ele>
        <time>2022-04-28T08:15:21Z</time>
      </trkpt>
      <trkpt lat="43.75522" lon="7.12657">
        <ele>394.28</ele>
        <time>2022-04-28T08:15:31Z</time>
      </trkpt>
      <trkpt lat="43.75526" lon="7.12653">
        <ele>399.08</ele>
        <time>2022-04-28T08:15:38Z</time>
      </trkpt>
      <trkpt lat="43.75528" lon="7.12651">
        <ele>395.24</ele>
        <time>2022-04-28T08:15:40Z</time>
      </trkpt>
      <trkpt lat="43.75535" lon="7.12644">
        <ele>393.8</ele>
        <time>2022-04-28T08:15:51Z</time>
      </trkpt>
      <trkpt lat="43.75536" lon="7.12643">
        <ele>393.8</ele>
        <time>2022-04-28T08:15:52Z</time>
      </trkpt>
      <trkpt lat="43.75539" lon="7.1264">
        <ele>394.28</ele>
        <time>2022-04-28T08:15:55Z</time>
      </trkpt>
      <trkpt lat="43.75544" lon="7.1263">
        <ele>393.32</ele>
        <time>2022-04-28T08:16:04Z</time>
      </trkpt>
      <trkpt lat="43.7555" lon="7.12621">
        <ele>390.43</ele>
        <time>2022-04-28T08:16:15Z</time>
      </trkpt>
      <trkpt lat="43.75554" lon="7.12616">
        <ele>392.36</ele>
        <time>2022-04-28T08:16:23Z</time>
      </trkpt>
      <trkpt lat="43.75557" lon="7.12613">
        <ele>388.99</ele>
        <time>2022-04-28T08:16:27Z</time>
      </trkpt>
      <trkpt lat="43.75557" lon="7.12612">
        <ele>391.39</ele>
        <time>2022-04-28T08:16:41Z</time>
      </trkpt>
      <trkpt lat="43.75558" lon="7.12611">
        <ele>391.39</ele>
        <time>2022-04-28T08:16:57Z</time>
      </trkpt>
      <trkpt lat="43.75557" lon="7.12607">
        <ele>391.39</ele>
        <time>2022-04-28T08:17:19Z</time>
      </trkpt>
      <trkpt lat="43.75556" lon="7.12606">
        <ele>390.91</ele>
        <time>2022-04-28T08:17:35Z</time>
      </trkpt>
      <trkpt lat="43.75556" lon="7.12604">
        <ele>392.36</ele>
        <time>2022-04-28T08:17:57Z</time>
      </trkpt>
      <trkpt lat="43.75558" lon="7.12603">
        <ele>391.39</ele>
        <time>2022-04-28T08:18:01Z</time>
      </trkpt>
      <trkpt lat="43.75561" lon="7.12601">
        <ele>390.91</ele>
        <time>2022-04-28T08:18:04Z</time>
      </trkpt>
      <trkpt lat="43.75568" lon="7.12589">
        <ele>390.91</ele>
        <time>2022-04-28T08:18:15Z</time>
      </trkpt>
      <trkpt lat="43.75571" lon="7.12585">
        <ele>393.8</ele>
        <time>2022-04-28T08:18:20Z</time>
      </trkpt>
      <trkpt lat="43.75572" lon="7.12584">
        <ele>390.91</ele>
        <time>2022-04-28T08:18:21Z</time>
      </trkpt>
      <trkpt lat="43.75573" lon="7.12583">
        <ele>394.28</ele>
        <time>2022-04-28T08:18:23Z</time>
      </trkpt>
      <trkpt lat="43.75573" lon="7.12583">
        <ele>391.39</ele>
        <time>2022-04-28T08:18:24Z</time>
      </trkpt>
      <trkpt lat="43.75575" lon="7.12582">
        <ele>395.24</ele>
        <time>2022-04-28T08:18:26Z</time>
      </trkpt>
      <trkpt lat="43.75584" lon="7.12581">
        <ele>397.16</ele>
        <time>2022-04-28T08:18:35Z</time>
      </trkpt>
      <trkpt lat="43.75585" lon="7.12581">
        <ele>391.39</ele>
        <time>2022-04-28T08:18:36Z</time>
      </trkpt>
      <trkpt lat="43.75586" lon="7.12581">
        <ele>396.68</ele>
        <time>2022-04-28T08:18:37Z</time>
      </trkpt>
      <trkpt lat="43.75588" lon="7.12581">
        <ele>392.84</ele>
        <time>2022-04-28T08:18:39Z</time>
      </trkpt>
      <trkpt lat="43.75589" lon="7.12582">
        <ele>396.2</ele>
        <time>2022-04-28T08:18:40Z</time>
      </trkpt>
      <trkpt lat="43.75594" lon="7.12585">
        <ele>396.68</ele>
        <time>2022-04-28T08:18:47Z</time>
      </trkpt>
      <trkpt lat="43.75598" lon="7.12587">
        <ele>397.64</ele>
        <time>2022-04-28T08:18:52Z</time>
      </trkpt>
      <trkpt lat="43.75604" lon="7.12589">
        <ele>402.93</ele>
        <time>2022-04-28T08:19:03Z</time>
      </trkpt>
      <trkpt lat="43.75605" lon="7.1259">
        <ele>397.16</ele>
        <time>2022-04-28T08:19:04Z</time>
      </trkpt>
      <trkpt lat="43.75605" lon="7.1259">
        <ele>401.01</ele>
        <time>2022-04-28T08:19:05Z</time>
      </trkpt>
      <trkpt lat="43.75609" lon="7.12593">
        <ele>404.37</ele>
        <time>2022-04-28T08:19:12Z</time>
      </trkpt>
      <trkpt lat="43.7561" lon="7.12593">
        <ele>398.6</ele>
        <time>2022-04-28T08:19:13Z</time>
      </trkpt>
      <trkpt lat="43.7561" lon="7.12594">
        <ele>401.97</ele>
        <time>2022-04-28T08:19:14Z</time>
      </trkpt>
      <trkpt lat="43.75612" lon="7.12595">
        <ele>402.93</ele>
        <time>2022-04-28T08:19:18Z</time>
      </trkpt>
      <trkpt lat="43.75615" lon="7.12594">
        <ele>399.08</ele>
        <time>2022-04-28T08:19:22Z</time>
      </trkpt>
      <trkpt lat="43.75616" lon="7.12594">
        <ele>405.33</ele>
        <time>2022-04-28T08:19:23Z</time>
      </trkpt>
      <trkpt lat="43.75616" lon="7.12594">
        <ele>401.97</ele>
        <time>2022-04-28T08:19:24Z</time>
      </trkpt>
      <trkpt lat="43.75617" lon="7.12593">
        <ele>404.85</ele>
        <time>2022-04-28T08:19:25Z</time>
      </trkpt>
      <trkpt lat="43.75619" lon="7.12595">
        <ele>408.7</ele>
        <time>2022-04-28T08:19:28Z</time>
      </trkpt>
      <trkpt lat="43.75619" lon="7.12595">
        <ele>399.57</ele>
        <time>2022-04-28T08:19:29Z</time>
      </trkpt>
      <trkpt lat="43.7562" lon="7.12595">
        <ele>407.74</ele>
        <time>2022-04-28T08:19:30Z</time>
      </trkpt>
      <trkpt lat="43.75621" lon="7.12595">
        <ele>400.53</ele>
        <time>2022-04-28T08:19:31Z</time>
      </trkpt>
      <trkpt lat="43.75621" lon="7.12595">
        <ele>406.29</ele>
        <time>2022-04-28T08:19:32Z</time>
      </trkpt>
      <trkpt lat="43.75626" lon="7.12595">
        <ele>403.41</ele>
        <time>2022-04-28T08:19:38Z</time>
      </trkpt>
      <trkpt lat="43.75626" lon="7.12595">
        <ele>407.26</ele>
        <time>2022-04-28T08:19:39Z</time>
      </trkpt>
      <trkpt lat="43.75627" lon="7.12595">
        <ele>403.41</ele>
        <time>2022-04-28T08:19:40Z</time>
      </trkpt>
      <trkpt lat="43.75628" lon="7.12595">
        <ele>407.74</ele>
        <time>2022-04-28T08:19:41Z</time>
      </trkpt>
      <trkpt lat="43.75629" lon="7.12595">
        <ele>414.47</ele>
        <time>2022-04-28T08:19:44Z</time>
      </trkpt>
      <trkpt lat="43.7563" lon="7.12595">
        <ele>407.26</ele>
        <time>2022-04-28T08:19:45Z</time>
      </trkpt>
      <trkpt lat="43.7563" lon="7.12595">
        <ele>411.1</ele>
        <time>2022-04-28T08:19:46Z</time>
      </trkpt>
      <trkpt lat="43.75631" lon="7.12595">
        <ele>405.81</ele>
        <time>2022-04-28T08:19:47Z</time>
      </trkpt>
      <trkpt lat="43.75631" lon="7.12595">
        <ele>409.18</ele>
        <time>2022-04-28T08:19:48Z</time>
      </trkpt>
      <trkpt lat="43.75632" lon="7.12595">
        <ele>404.37</ele>
        <time>2022-04-28T08:19:49Z</time>
      </trkpt>
      <trkpt lat="43.75632" lon="7.12595">
        <ele>409.66</ele>
        <time>2022-04-28T08:19:50Z</time>
      </trkpt>
      <trkpt lat="43.75636" lon="7.12597">
        <ele>413.02</ele>
        <time>2022-04-28T08:19:55Z</time>
      </trkpt>
      <trkpt lat="43.75637" lon="7.12596">
        <ele>407.74</ele>
        <time>2022-04-28T08:19:56Z</time>
      </trkpt>
      <trkpt lat="43.75637" lon="7.12596">
        <ele>413.98</ele>
        <time>2022-04-28T08:19:57Z</time>
      </trkpt>
      <trkpt lat="43.75638" lon="7.12596">
        <ele>407.74</ele>
        <time>2022-04-28T08:19:58Z</time>
      </trkpt>
      <trkpt lat="43.75639" lon="7.12595">
        <ele>412.06</ele>
        <time>2022-04-28T08:19:59Z</time>
      </trkpt>
      <trkpt lat="43.75639" lon="7.12594">
        <ele>407.74</ele>
        <time>2022-04-28T08:20:00Z</time>
      </trkpt>
      <trkpt lat="43.7564" lon="7.12594">
        <ele>411.1</ele>
        <time>2022-04-28T08:20:01Z</time>
      </trkpt>
      <trkpt lat="43.75648" lon="7.12592">
        <ele>405.81</ele>
        <time>2022-04-28T08:20:12Z</time>
      </trkpt>
      <trkpt lat="43.75649" lon="7.12592">
        <ele>413.02</ele>
        <time>2022-04-28T08:20:13Z</time>
      </trkpt>
      <trkpt lat="43.75652" lon="7.12591">
        <ele>410.14</ele>
        <time>2022-04-28T08:20:17Z</time>
      </trkpt>
      <trkpt lat="43.75652" lon="7.12592">
        <ele>413.02</ele>
        <time>2022-04-28T08:20:18Z</time>
      </trkpt>
      <trkpt lat="43.75655" lon="7.12589">
        <ele>416.87</ele>
        <time>2022-04-28T08:20:23Z</time>
      </trkpt>
      <trkpt lat="43.75655" lon="7.12589">
        <ele>411.1</ele>
        <time>2022-04-28T08:20:24Z</time>
      </trkpt>
      <trkpt lat="43.75655" lon="7.12588">
        <ele>414.47</ele>
        <time>2022-04-28T08:20:25Z</time>
      </trkpt>
      <trkpt lat="43.75656" lon="7.12589">
        <ele>410.14</ele>
        <time>2022-04-28T08:20:26Z</time>
      </trkpt>
      <trkpt lat="43.75656" lon="7.12589">
        <ele>415.91</ele>
        <time>2022-04-28T08:20:27Z</time>
      </trkpt>
      <trkpt lat="43.75657" lon="7.12589">
        <ele>410.14</ele>
        <time>2022-04-28T08:20:28Z</time>
      </trkpt>
      <trkpt lat="43.75657" lon="7.12589">
        <ele>414.47</ele>
        <time>2022-04-28T08:20:29Z</time>
      </trkpt>
      <trkpt lat="43.75659" lon="7.12588">
        <ele>411.1</ele>
        <time>2022-04-28T08:20:32Z</time>
      </trkpt>
      <trkpt lat="43.75659" lon="7.12587">
        <ele>414.95</ele>
        <time>2022-04-28T08:20:33Z</time>
      </trkpt>
      <trkpt lat="43.7566" lon="7.12587">
        <ele>411.58</ele>
        <time>2022-04-28T08:20:34Z</time>
      </trkpt>
      <trkpt lat="43.75668" lon="7.12583">
        <ele>412.06</ele>
        <time>2022-04-28T08:20:43Z</time>
      </trkpt>
      <trkpt lat="43.75675" lon="7.12579">
        <ele>411.1</ele>
        <time>2022-04-28T08:20:52Z</time>
      </trkpt>
      <trkpt lat="43.75683" lon="7.12573">
        <ele>412.06</ele>
        <time>2022-04-28T08:21:00Z</time>
      </trkpt>
      <trkpt lat="43.75684" lon="7.12573">
        <ele>409.66</ele>
        <time>2022-04-28T08:21:01Z</time>
      </trkpt>
      <trkpt lat="43.75686" lon="7.12573">
        <ele>413.02</ele>
        <time>2022-04-28T08:21:03Z</time>
      </trkpt>
      <trkpt lat="43.75687" lon="7.12573">
        <ele>409.66</ele>
        <time>2022-04-28T08:21:04Z</time>
      </trkpt>
      <trkpt lat="43.7569" lon="7.12574">
        <ele>414.47</ele>
        <time>2022-04-28T08:21:06Z</time>
      </trkpt>
      <trkpt lat="43.7569" lon="7.12574">
        <ele>409.66</ele>
        <time>2022-04-28T08:21:07Z</time>
      </trkpt>
      <trkpt lat="43.75691" lon="7.12575">
        <ele>414.47</ele>
        <time>2022-04-28T08:21:08Z</time>
      </trkpt>
      <trkpt lat="43.75695" lon="7.12576">
        <ele>410.62</ele>
        <time>2022-04-28T08:21:12Z</time>
      </trkpt>
      <trkpt lat="43.757" lon="7.12577">
        <ele>414.95</ele>
        <time>2022-04-28T08:21:17Z</time>
      </trkpt>
      <trkpt lat="43.75701" lon="7.12577">
        <ele>411.58</ele>
        <time>2022-04-28T08:21:18Z</time>
      </trkpt>
      <trkpt lat="43.75701" lon="7.12578">
        <ele>415.91</ele>
        <time>2022-04-28T08:21:19Z</time>
      </trkpt>
      <trkpt lat="43.75702" lon="7.12578">
        <ele>411.1</ele>
        <time>2022-04-28T08:21:20Z</time>
      </trkpt>
      <trkpt lat="43.75703" lon="7.12578">
        <ele>413.98</ele>
        <time>2022-04-28T08:21:21Z</time>
      </trkpt>
      <trkpt lat="43.75707" lon="7.12579">
        <ele>417.35</ele>
        <time>2022-04-28T08:21:27Z</time>
      </trkpt>
      <trkpt lat="43.75709" lon="7.12578">
        <ele>413.98</ele>
        <time>2022-04-28T08:21:30Z</time>
      </trkpt>
      <trkpt lat="43.75718" lon="7.12577">
        <ele>413.98</ele>
        <time>2022-04-28T08:21:42Z</time>
      </trkpt>
      <trkpt lat="43.75722" lon="7.12577">
        <ele>410.62</ele>
        <time>2022-04-28T08:21:47Z</time>
      </trkpt>
      <trkpt lat="43.75723" lon="7.12578">
        <ele>414.47</ele>
        <time>2022-04-28T08:21:48Z</time>
      </trkpt>
      <trkpt lat="43.75728" lon="7.12579">
        <ele>417.83</ele>
        <time>2022-04-28T08:21:54Z</time>
      </trkpt>
      <trkpt lat="43.75728" lon="7.12579">
        <ele>414.47</ele>
        <time>2022-04-28T08:21:55Z</time>
      </trkpt>
      <trkpt lat="43.75731" lon="7.1258">
        <ele>418.79</ele>
        <time>2022-04-28T08:21:59Z</time>
      </trkpt>
      <trkpt lat="43.75733" lon="7.1258">
        <ele>413.5</ele>
        <time>2022-04-28T08:22:03Z</time>
      </trkpt>
      <trkpt lat="43.75733" lon="7.1258">
        <ele>417.83</ele>
        <time>2022-04-28T08:22:04Z</time>
      </trkpt>
      <trkpt lat="43.75735" lon="7.12582">
        <ele>421.19</ele>
        <time>2022-04-28T08:22:07Z</time>
      </trkpt>
      <trkpt lat="43.75736" lon="7.12582">
        <ele>414.95</ele>
        <time>2022-04-28T08:22:08Z</time>
      </trkpt>
      <trkpt lat="43.75736" lon="7.12582">
        <ele>419.27</ele>
        <time>2022-04-28T08:22:09Z</time>
      </trkpt>
      <trkpt lat="43.75737" lon="7.12582">
        <ele>411.1</ele>
        <time>2022-04-28T08:22:10Z</time>
      </trkpt>
      <trkpt lat="43.75737" lon="7.12582">
        <ele>419.75</ele>
        <time>2022-04-28T08:22:11Z</time>
      </trkpt>
      <trkpt lat="43.75738" lon="7.12581">
        <ele>414.95</ele>
        <time>2022-04-28T08:22:13Z</time>
      </trkpt>
      <trkpt lat="43.75738" lon="7.12581">
        <ele>421.68</ele>
        <time>2022-04-28T08:22:14Z</time>
      </trkpt>
      <trkpt lat="43.75738" lon="7.1258">
        <ele>415.91</ele>
        <time>2022-04-28T08:22:15Z</time>
      </trkpt>
      <trkpt lat="43.75739" lon="7.12579">
        <ele>423.6</ele>
        <time>2022-04-28T08:22:16Z</time>
      </trkpt>
      <trkpt lat="43.75742" lon="7.12578">
        <ele>421.68</ele>
        <time>2022-04-28T08:22:21Z</time>
      </trkpt>
      <trkpt lat="43.75743" lon="7.12578">
        <ele>415.91</ele>
        <time>2022-04-28T08:22:22Z</time>
      </trkpt>
      <trkpt lat="43.75743" lon="7.12582">
        <ele>423.12</ele>
        <time>2022-04-28T08:22:28Z</time>
      </trkpt>
      <trkpt lat="43.75742" lon="7.12583">
        <ele>418.31</ele>
        <time>2022-04-28T08:22:29Z</time>
      </trkpt>
      <trkpt lat="43.75742" lon="7.12583">
        <ele>421.68</ele>
        <time>2022-04-28T08:22:30Z</time>
      </trkpt>
      <trkpt lat="43.75742" lon="7.12584">
        <ele>415.91</ele>
        <time>2022-04-28T08:22:31Z</time>
      </trkpt>
      <trkpt lat="43.75742" lon="7.12584">
        <ele>421.68</ele>
        <time>2022-04-28T08:22:32Z</time>
      </trkpt>
      <trkpt lat="43.75742" lon="7.12585">
        <ele>416.39</ele>
        <time>2022-04-28T08:22:33Z</time>
      </trkpt>
      <trkpt lat="43.75742" lon="7.12586">
        <ele>420.23</ele>
        <time>2022-04-28T08:22:34Z</time>
      </trkpt>
      <trkpt lat="43.75742" lon="7.12588">
        <ele>415.43</ele>
        <time>2022-04-28T08:22:38Z</time>
      </trkpt>
      <trkpt lat="43.75743" lon="7.12589">
        <ele>415.43</ele>
        <time>2022-04-28T08:22:39Z</time>
      </trkpt>
      <trkpt lat="43.75743" lon="7.12589">
        <ele>424.08</ele>
        <time>2022-04-28T08:22:40Z</time>
      </trkpt>
      <trkpt lat="43.75743" lon="7.12589">
        <ele>422.64</ele>
        <time>2022-04-28T08:22:41Z</time>
      </trkpt>
      <trkpt lat="43.75746" lon="7.12586">
        <ele>426</ele>
        <time>2022-04-28T08:22:45Z</time>
      </trkpt>
      <trkpt lat="43.75747" lon="7.12585">
        <ele>420.23</ele>
        <time>2022-04-28T08:22:46Z</time>
      </trkpt>
      <trkpt lat="43.75748" lon="7.12583">
        <ele>424.08</ele>
        <time>2022-04-28T08:22:50Z</time>
      </trkpt>
      <trkpt lat="43.75749" lon="7.12583">
        <ele>423.12</ele>
        <time>2022-04-28T08:22:51Z</time>
      </trkpt>
      <trkpt lat="43.7575" lon="7.12582">
        <ele>426.96</ele>
        <time>2022-04-28T08:22:54Z</time>
      </trkpt>
      <trkpt lat="43.75751" lon="7.12581">
        <ele>421.19</ele>
        <time>2022-04-28T08:22:55Z</time>
      </trkpt>
      <trkpt lat="43.75751" lon="7.1258">
        <ele>425.52</ele>
        <time>2022-04-28T08:22:56Z</time>
      </trkpt>
      <trkpt lat="43.75758" lon="7.12575">
        <ele>423.12</ele>
        <time>2022-04-28T08:23:06Z</time>
      </trkpt>
      <trkpt lat="43.75759" lon="7.12574">
        <ele>427.92</ele>
        <time>2022-04-28T08:23:07Z</time>
      </trkpt>
      <trkpt lat="43.7576" lon="7.12574">
        <ele>422.16</ele>
        <time>2022-04-28T08:23:08Z</time>
      </trkpt>
      <trkpt lat="43.75761" lon="7.12574">
        <ele>426</ele>
        <time>2022-04-28T08:23:09Z</time>
      </trkpt>
      <trkpt lat="43.75762" lon="7.12569">
        <ele>430.33</ele>
        <time>2022-04-28T08:23:14Z</time>
      </trkpt>
      <trkpt lat="43.75763" lon="7.12568">
        <ele>422.16</ele>
        <time>2022-04-28T08:23:15Z</time>
      </trkpt>
      <trkpt lat="43.75763" lon="7.12568">
        <ele>427.44</ele>
        <time>2022-04-28T08:23:16Z</time>
      </trkpt>
      <trkpt lat="43.75763" lon="7.12568">
        <ele>432.73</ele>
        <time>2022-04-28T08:23:17Z</time>
      </trkpt>
      <trkpt lat="43.75763" lon="7.12567">
        <ele>428.4</ele>
        <time>2022-04-28T08:23:18Z</time>
      </trkpt>
      <trkpt lat="43.75766" lon="7.12564">
        <ele>431.77</ele>
        <time>2022-04-28T08:23:24Z</time>
      </trkpt>
      <trkpt lat="43.75766" lon="7.12564">
        <ele>425.52</ele>
        <time>2022-04-28T08:23:25Z</time>
      </trkpt>
      <trkpt lat="43.75766" lon="7.12563">
        <ele>430.81</ele>
        <time>2022-04-28T08:23:26Z</time>
      </trkpt>
      <trkpt lat="43.75767" lon="7.12562">
        <ele>426.48</ele>
        <time>2022-04-28T08:23:27Z</time>
      </trkpt>
      <trkpt lat="43.75769" lon="7.12561">
        <ele>430.33</ele>
        <time>2022-04-28T08:23:31Z</time>
      </trkpt>
      <trkpt lat="43.7577" lon="7.12563">
        <ele>425.04</ele>
        <time>2022-04-28T08:23:33Z</time>
      </trkpt>
      <trkpt lat="43.7577" lon="7.12563">
        <ele>425.52</ele>
        <time>2022-04-28T08:23:34Z</time>
      </trkpt>
      <trkpt lat="43.7577" lon="7.12563">
        <ele>435.13</ele>
        <time>2022-04-28T08:23:35Z</time>
      </trkpt>
      <trkpt lat="43.75769" lon="7.12564">
        <ele>426.96</ele>
        <time>2022-04-28T08:23:36Z</time>
      </trkpt>
      <trkpt lat="43.75769" lon="7.12564">
        <ele>429.85</ele>
        <time>2022-04-28T08:23:37Z</time>
      </trkpt>
      <trkpt lat="43.75769" lon="7.12565">
        <ele>425.04</ele>
        <time>2022-04-28T08:23:38Z</time>
      </trkpt>
      <trkpt lat="43.75769" lon="7.12565">
        <ele>430.33</ele>
        <time>2022-04-28T08:23:39Z</time>
      </trkpt>
      <trkpt lat="43.75769" lon="7.12565">
        <ele>429.37</ele>
        <time>2022-04-28T08:23:40Z</time>
      </trkpt>
      <trkpt lat="43.75769" lon="7.12567">
        <ele>426.48</ele>
        <time>2022-04-28T08:23:45Z</time>
      </trkpt>
      <trkpt lat="43.75769" lon="7.12567">
        <ele>429.85</ele>
        <time>2022-04-28T08:23:46Z</time>
      </trkpt>
      <trkpt lat="43.7577" lon="7.12569">
        <ele>426.96</ele>
        <time>2022-04-28T08:23:48Z</time>
      </trkpt>
      <trkpt lat="43.75771" lon="7.12569">
        <ele>426.96</ele>
        <time>2022-04-28T08:23:49Z</time>
      </trkpt>
      <trkpt lat="43.75771" lon="7.12568">
        <ele>431.29</ele>
        <time>2022-04-28T08:23:50Z</time>
      </trkpt>
      <trkpt lat="43.75772" lon="7.12568">
        <ele>437.54</ele>
        <time>2022-04-28T08:23:51Z</time>
      </trkpt>
      <trkpt lat="43.75773" lon="7.12567">
        <ele>430.33</ele>
        <time>2022-04-28T08:23:52Z</time>
      </trkpt>
      <trkpt lat="43.75773" lon="7.12568">
        <ele>433.21</ele>
        <time>2022-04-28T08:23:53Z</time>
      </trkpt>
      <trkpt lat="43.75774" lon="7.12569">
        <ele>430.33</ele>
        <time>2022-04-28T08:23:54Z</time>
      </trkpt>
      <trkpt lat="43.75774" lon="7.1257">
        <ele>430.81</ele>
        <time>2022-04-28T08:23:56Z</time>
      </trkpt>
      <trkpt lat="43.75774" lon="7.12571">
        <ele>432.25</ele>
        <time>2022-04-28T08:23:57Z</time>
      </trkpt>
      <trkpt lat="43.75778" lon="7.12571">
        <ele>431.77</ele>
        <time>2022-04-28T08:24:06Z</time>
      </trkpt>
      <trkpt lat="43.75778" lon="7.12571">
        <ele>432.73</ele>
        <time>2022-04-28T08:24:07Z</time>
      </trkpt>
      <trkpt lat="43.75778" lon="7.12571">
        <ele>430.81</ele>
        <time>2022-04-28T08:24:08Z</time>
      </trkpt>
      <trkpt lat="43.75779" lon="7.12572">
        <ele>437.54</ele>
        <time>2022-04-28T08:24:09Z</time>
      </trkpt>
      <trkpt lat="43.75778" lon="7.12574">
        <ele>429.85</ele>
        <time>2022-04-28T08:24:12Z</time>
      </trkpt>
      <trkpt lat="43.75778" lon="7.12575">
        <ele>434.17</ele>
        <time>2022-04-28T08:24:13Z</time>
      </trkpt>
      <trkpt lat="43.75775" lon="7.12582">
        <ele>439.46</ele>
        <time>2022-04-28T08:24:22Z</time>
      </trkpt>
      <trkpt lat="43.75776" lon="7.12583">
        <ele>435.61</ele>
        <time>2022-04-28T08:24:23Z</time>
      </trkpt>
      <trkpt lat="43.75777" lon="7.12583">
        <ele>433.21</ele>
        <time>2022-04-28T08:24:25Z</time>
      </trkpt>
      <trkpt lat="43.75778" lon="7.12583">
        <ele>437.06</ele>
        <time>2022-04-28T08:24:26Z</time>
      </trkpt>
      <trkpt lat="43.75778" lon="7.12582">
        <ele>429.37</ele>
        <time>2022-04-28T08:24:27Z</time>
      </trkpt>
      <trkpt lat="43.75778" lon="7.12581">
        <ele>438.5</ele>
        <time>2022-04-28T08:24:28Z</time>
      </trkpt>
      <trkpt lat="43.7578" lon="7.12581">
        <ele>435.13</ele>
        <time>2022-04-28T08:24:31Z</time>
      </trkpt>
      <trkpt lat="43.75781" lon="7.12582">
        <ele>439.94</ele>
        <time>2022-04-28T08:24:32Z</time>
      </trkpt>
      <trkpt lat="43.75781" lon="7.12582">
        <ele>439.94</ele>
        <time>2022-04-28T08:24:33Z</time>
      </trkpt>
      <trkpt lat="43.75781" lon="7.12583">
        <ele>436.1</ele>
        <time>2022-04-28T08:24:34Z</time>
      </trkpt>
      <trkpt lat="43.75781" lon="7.12584">
        <ele>439.94</ele>
        <time>2022-04-28T08:24:35Z</time>
      </trkpt>
      <trkpt lat="43.75781" lon="7.12585">
        <ele>433.69</ele>
        <time>2022-04-28T08:24:36Z</time>
      </trkpt>
      <trkpt lat="43.7578" lon="7.12586">
        <ele>437.06</ele>
        <time>2022-04-28T08:24:37Z</time>
      </trkpt>
      <trkpt lat="43.75774" lon="7.12591">
        <ele>438.5</ele>
        <time>2022-04-28T08:24:48Z</time>
      </trkpt>
      <trkpt lat="43.75774" lon="7.12593">
        <ele>437.54</ele>
        <time>2022-04-28T08:24:50Z</time>
      </trkpt>
      <trkpt lat="43.75774" lon="7.12594">
        <ele>437.54</ele>
        <time>2022-04-28T08:24:52Z</time>
      </trkpt>
      <trkpt lat="43.75774" lon="7.12595">
        <ele>442.82</ele>
        <time>2022-04-28T08:24:53Z</time>
      </trkpt>
      <trkpt lat="43.75773" lon="7.12596">
        <ele>436.58</ele>
        <time>2022-04-28T08:24:54Z</time>
      </trkpt>
      <trkpt lat="43.75773" lon="7.12597">
        <ele>440.42</ele>
        <time>2022-04-28T08:24:55Z</time>
      </trkpt>
      <trkpt lat="43.75767" lon="7.12602">
        <ele>445.23</ele>
        <time>2022-04-28T08:25:05Z</time>
      </trkpt>
      <trkpt lat="43.75767" lon="7.12603">
        <ele>438.02</ele>
        <time>2022-04-28T08:25:06Z</time>
      </trkpt>
      <trkpt lat="43.75767" lon="7.12604">
        <ele>441.86</ele>
        <time>2022-04-28T08:25:07Z</time>
      </trkpt>
      <trkpt lat="43.75765" lon="7.12606">
        <ele>441.38</ele>
        <time>2022-04-28T08:25:12Z</time>
      </trkpt>
      <trkpt lat="43.75763" lon="7.12608">
        <ele>445.23</ele>
        <time>2022-04-28T08:25:16Z</time>
      </trkpt>
      <trkpt lat="43.7576" lon="7.12612">
        <ele>445.23</ele>
        <time>2022-04-28T08:25:25Z</time>
      </trkpt>
      <trkpt lat="43.75758" lon="7.12614">
        <ele>440.9</ele>
        <time>2022-04-28T08:25:28Z</time>
      </trkpt>
      <trkpt lat="43.75756" lon="7.12615">
        <ele>444.75</ele>
        <time>2022-04-28T08:25:30Z</time>
      </trkpt>
      <trkpt lat="43.75755" lon="7.12616">
        <ele>440.9</ele>
        <time>2022-04-28T08:25:32Z</time>
      </trkpt>
      <trkpt lat="43.75754" lon="7.12617">
        <ele>440.9</ele>
        <time>2022-04-28T08:25:33Z</time>
      </trkpt>
      <trkpt lat="43.75754" lon="7.12617">
        <ele>444.27</ele>
        <time>2022-04-28T08:25:34Z</time>
      </trkpt>
      <trkpt lat="43.75753" lon="7.12618">
        <ele>444.27</ele>
        <time>2022-04-28T08:25:35Z</time>
      </trkpt>
      <trkpt lat="43.75751" lon="7.1262">
        <ele>440.42</ele>
        <time>2022-04-28T08:25:40Z</time>
      </trkpt>
      <trkpt lat="43.75751" lon="7.12621">
        <ele>446.19</ele>
        <time>2022-04-28T08:25:41Z</time>
      </trkpt>
      <trkpt lat="43.75752" lon="7.12622">
        <ele>443.31</ele>
        <time>2022-04-28T08:25:44Z</time>
      </trkpt>
      <trkpt lat="43.75753" lon="7.12622">
        <ele>447.15</ele>
        <time>2022-04-28T08:25:45Z</time>
      </trkpt>
      <trkpt lat="43.75753" lon="7.12621">
        <ele>444.27</ele>
        <time>2022-04-28T08:25:46Z</time>
      </trkpt>
      <trkpt lat="43.75755" lon="7.12622">
        <ele>450.03</ele>
        <time>2022-04-28T08:25:48Z</time>
      </trkpt>
      <trkpt lat="43.75755" lon="7.12622">
        <ele>444.75</ele>
        <time>2022-04-28T08:25:49Z</time>
      </trkpt>
      <trkpt lat="43.75756" lon="7.12622">
        <ele>448.59</ele>
        <time>2022-04-28T08:25:50Z</time>
      </trkpt>
      <trkpt lat="43.75756" lon="7.12622">
        <ele>439.94</ele>
        <time>2022-04-28T08:25:51Z</time>
      </trkpt>
      <trkpt lat="43.75756" lon="7.12623">
        <ele>447.63</ele>
        <time>2022-04-28T08:25:52Z</time>
      </trkpt>
      <trkpt lat="43.75759" lon="7.12623">
        <ele>448.59</ele>
        <time>2022-04-28T08:25:55Z</time>
      </trkpt>
      <trkpt lat="43.7576" lon="7.12623">
        <ele>445.23</ele>
        <time>2022-04-28T08:25:56Z</time>
      </trkpt>
      <trkpt lat="43.75761" lon="7.12623">
        <ele>448.11</ele>
        <time>2022-04-28T08:25:57Z</time>
      </trkpt>
      <trkpt lat="43.75761" lon="7.12623">
        <ele>443.79</ele>
        <time>2022-04-28T08:25:58Z</time>
      </trkpt>
      <trkpt lat="43.75762" lon="7.12624">
        <ele>448.59</ele>
        <time>2022-04-28T08:25:59Z</time>
      </trkpt>
      <trkpt lat="43.75765" lon="7.12625">
        <ele>444.27</ele>
        <time>2022-04-28T08:26:03Z</time>
      </trkpt>
      <trkpt lat="43.75766" lon="7.12626">
        <ele>448.11</ele>
        <time>2022-04-28T08:26:04Z</time>
      </trkpt>
      <trkpt lat="43.75768" lon="7.12627">
        <ele>451.48</ele>
        <time>2022-04-28T08:26:07Z</time>
      </trkpt>
      <trkpt lat="43.75768" lon="7.12627">
        <ele>447.63</ele>
        <time>2022-04-28T08:26:08Z</time>
      </trkpt>
      <trkpt lat="43.75767" lon="7.12629">
        <ele>445.71</ele>
        <time>2022-04-28T08:26:10Z</time>
      </trkpt>
      <trkpt lat="43.75767" lon="7.12629">
        <ele>450.03</ele>
        <time>2022-04-28T08:26:11Z</time>
      </trkpt>
      <trkpt lat="43.75766" lon="7.1263">
        <ele>445.23</ele>
        <time>2022-04-28T08:26:12Z</time>
      </trkpt>
      <trkpt lat="43.75766" lon="7.12631">
        <ele>449.07</ele>
        <time>2022-04-28T08:26:13Z</time>
      </trkpt>
      <trkpt lat="43.75766" lon="7.12632">
        <ele>445.71</ele>
        <time>2022-04-28T08:26:14Z</time>
      </trkpt>
      <trkpt lat="43.75766" lon="7.12632">
        <ele>445.71</ele>
        <time>2022-04-28T08:26:15Z</time>
      </trkpt>
      <trkpt lat="43.75766" lon="7.12633">
        <ele>450.03</ele>
        <time>2022-04-28T08:26:16Z</time>
      </trkpt>
      <trkpt lat="43.75765" lon="7.12633">
        <ele>447.15</ele>
        <time>2022-04-28T08:26:17Z</time>
      </trkpt>
      <trkpt lat="43.75764" lon="7.12634">
        <ele>450.52</ele>
        <time>2022-04-28T08:26:18Z</time>
      </trkpt>
      <trkpt lat="43.75763" lon="7.12636">
        <ele>445.71</ele>
        <time>2022-04-28T08:26:22Z</time>
      </trkpt>
      <trkpt lat="43.75764" lon="7.12637">
        <ele>451.48</ele>
        <time>2022-04-28T08:26:23Z</time>
      </trkpt>
      <trkpt lat="43.75764" lon="7.12638">
        <ele>445.71</ele>
        <time>2022-04-28T08:26:24Z</time>
      </trkpt>
      <trkpt lat="43.75765" lon="7.12638">
        <ele>453.4</ele>
        <time>2022-04-28T08:26:25Z</time>
      </trkpt>
      <trkpt lat="43.75766" lon="7.12638">
        <ele>449.07</ele>
        <time>2022-04-28T08:26:26Z</time>
      </trkpt>
      <trkpt lat="43.75767" lon="7.12639">
        <ele>453.4</ele>
        <time>2022-04-28T08:26:28Z</time>
      </trkpt>
      <trkpt lat="43.75767" lon="7.12639">
        <ele>450.52</ele>
        <time>2022-04-28T08:26:29Z</time>
      </trkpt>
      <trkpt lat="43.75768" lon="7.12638">
        <ele>455.32</ele>
        <time>2022-04-28T08:26:30Z</time>
      </trkpt>
      <trkpt lat="43.75768" lon="7.12638">
        <ele>451</ele>
        <time>2022-04-28T08:26:31Z</time>
      </trkpt>
      <trkpt lat="43.7577" lon="7.12637">
        <ele>453.88</ele>
        <time>2022-04-28T08:26:35Z</time>
      </trkpt>
      <trkpt lat="43.75775" lon="7.12639">
        <ele>449.07</ele>
        <time>2022-04-28T08:26:42Z</time>
      </trkpt>
      <trkpt lat="43.75776" lon="7.12639">
        <ele>455.8</ele>
        <time>2022-04-28T08:26:43Z</time>
      </trkpt>
      <trkpt lat="43.75776" lon="7.12638">
        <ele>450.52</ele>
        <time>2022-04-28T08:26:44Z</time>
      </trkpt>
      <trkpt lat="43.75776" lon="7.12637">
        <ele>454.36</ele>
        <time>2022-04-28T08:26:45Z</time>
      </trkpt>
      <trkpt lat="43.7578" lon="7.12639">
        <ele>450.52</ele>
        <time>2022-04-28T08:26:51Z</time>
      </trkpt>
      <trkpt lat="43.75781" lon="7.12639">
        <ele>455.32</ele>
        <time>2022-04-28T08:26:52Z</time>
      </trkpt>
      <trkpt lat="43.75784" lon="7.12641">
        <ele>451</ele>
        <time>2022-04-28T08:26:56Z</time>
      </trkpt>
      <trkpt lat="43.75784" lon="7.12642">
        <ele>457.72</ele>
        <time>2022-04-28T08:26:57Z</time>
      </trkpt>
      <trkpt lat="43.75785" lon="7.12642">
        <ele>454.36</ele>
        <time>2022-04-28T08:26:58Z</time>
      </trkpt>
      <trkpt lat="43.75788" lon="7.12642">
        <ele>461.09</ele>
        <time>2022-04-28T08:27:02Z</time>
      </trkpt>
      <trkpt lat="43.75789" lon="7.12642">
        <ele>453.88</ele>
        <time>2022-04-28T08:27:03Z</time>
      </trkpt>
      <trkpt lat="43.75789" lon="7.12642">
        <ele>457.72</ele>
        <time>2022-04-28T08:27:04Z</time>
      </trkpt>
      <trkpt lat="43.7579" lon="7.12642">
        <ele>454.36</ele>
        <time>2022-04-28T08:27:05Z</time>
      </trkpt>
      <trkpt lat="43.7579" lon="7.1264">
        <ele>457.72</ele>
        <time>2022-04-28T08:27:08Z</time>
      </trkpt>
      <trkpt lat="43.75792" lon="7.1264">
        <ele>452.92</ele>
        <time>2022-04-28T08:27:11Z</time>
      </trkpt>
      <trkpt lat="43.75792" lon="7.1264">
        <ele>457.24</ele>
        <time>2022-04-28T08:27:12Z</time>
      </trkpt>
      <trkpt lat="43.75795" lon="7.12641">
        <ele>461.09</ele>
        <time>2022-04-28T08:27:17Z</time>
      </trkpt>
      <trkpt lat="43.75796" lon="7.12642">
        <ele>454.36</ele>
        <time>2022-04-28T08:27:18Z</time>
      </trkpt>
      <trkpt lat="43.75797" lon="7.12642">
        <ele>461.09</ele>
        <time>2022-04-28T08:27:20Z</time>
      </trkpt>
      <trkpt lat="43.75797" lon="7.12642">
        <ele>461.09</ele>
        <time>2022-04-28T08:27:21Z</time>
      </trkpt>
      <trkpt lat="43.75798" lon="7.12643">
        <ele>456.76</ele>
        <time>2022-04-28T08:27:22Z</time>
      </trkpt>
      <trkpt lat="43.75799" lon="7.12643">
        <ele>458.21</ele>
        <time>2022-04-28T08:27:23Z</time>
      </trkpt>
      <trkpt lat="43.75801" lon="7.12643">
        <ele>462.53</ele>
        <time>2022-04-28T08:27:26Z</time>
      </trkpt>
      <trkpt lat="43.75802" lon="7.12643">
        <ele>457.24</ele>
        <time>2022-04-28T08:27:27Z</time>
      </trkpt>
      <trkpt lat="43.75802" lon="7.12643">
        <ele>461.57</ele>
        <time>2022-04-28T08:27:28Z</time>
      </trkpt>
      <trkpt lat="43.75803" lon="7.12643">
        <ele>456.76</ele>
        <time>2022-04-28T08:27:29Z</time>
      </trkpt>
      <trkpt lat="43.75803" lon="7.12643">
        <ele>460.61</ele>
        <time>2022-04-28T08:27:30Z</time>
      </trkpt>
      <trkpt lat="43.75807" lon="7.12644">
        <ele>455.32</ele>
        <time>2022-04-28T08:27:36Z</time>
      </trkpt>
      <trkpt lat="43.75808" lon="7.12644">
        <ele>461.09</ele>
        <time>2022-04-28T08:27:37Z</time>
      </trkpt>
      <trkpt lat="43.75808" lon="7.12644">
        <ele>453.4</ele>
        <time>2022-04-28T08:27:38Z</time>
      </trkpt>
      <trkpt lat="43.75809" lon="7.12644">
        <ele>462.53</ele>
        <time>2022-04-28T08:27:39Z</time>
      </trkpt>
      <trkpt lat="43.75809" lon="7.12644">
        <ele>457.72</ele>
        <time>2022-04-28T08:27:40Z</time>
      </trkpt>
      <trkpt lat="43.75809" lon="7.12643">
        <ele>462.05</ele>
        <time>2022-04-28T08:27:41Z</time>
      </trkpt>
      <trkpt lat="43.7581" lon="7.12642">
        <ele>466.86</ele>
        <time>2022-04-28T08:27:42Z</time>
      </trkpt>
      <trkpt lat="43.75811" lon="7.12642">
        <ele>465.42</ele>
        <time>2022-04-28T08:27:44Z</time>
      </trkpt>
      <trkpt lat="43.75811" lon="7.12643">
        <ele>459.65</ele>
        <time>2022-04-28T08:27:45Z</time>
      </trkpt>
      <trkpt lat="43.75812" lon="7.12643">
        <ele>464.93</ele>
        <time>2022-04-28T08:27:46Z</time>
      </trkpt>
      <trkpt lat="43.75812" lon="7.12644">
        <ele>460.13</ele>
        <time>2022-04-28T08:27:47Z</time>
      </trkpt>
      <trkpt lat="43.75814" lon="7.12644">
        <ele>460.13</ele>
        <time>2022-04-28T08:27:49Z</time>
      </trkpt>
      <trkpt lat="43.75815" lon="7.12645">
        <ele>463.01</ele>
        <time>2022-04-28T08:27:50Z</time>
      </trkpt>
      <trkpt lat="43.75817" lon="7.12646">
        <ele>466.86</ele>
        <time>2022-04-28T08:27:53Z</time>
      </trkpt>
      <trkpt lat="43.75818" lon="7.12646">
        <ele>459.17</ele>
        <time>2022-04-28T08:27:54Z</time>
      </trkpt>
      <trkpt lat="43.75819" lon="7.12647">
        <ele>463.97</ele>
        <time>2022-04-28T08:27:55Z</time>
      </trkpt>
      <trkpt lat="43.7582" lon="7.12647">
        <ele>464.93</ele>
        <time>2022-04-28T08:27:56Z</time>
      </trkpt>
      <trkpt lat="43.75822" lon="7.12649">
        <ele>461.57</ele>
        <time>2022-04-28T08:27:59Z</time>
      </trkpt>
      <trkpt lat="43.75824" lon="7.12648">
        <ele>465.42</ele>
        <time>2022-04-28T08:28:03Z</time>
      </trkpt>
      <trkpt lat="43.75826" lon="7.12649">
        <ele>463.49</ele>
        <time>2022-04-28T08:28:05Z</time>
      </trkpt>
      <trkpt lat="43.75826" lon="7.1265">
        <ele>466.86</ele>
        <time>2022-04-28T08:28:07Z</time>
      </trkpt>
      <trkpt lat="43.75827" lon="7.12651">
        <ele>463.97</ele>
        <time>2022-04-28T08:28:10Z</time>
      </trkpt>
      <trkpt lat="43.75827" lon="7.12647">
        <ele>463.97</ele>
        <time>2022-04-28T08:28:25Z</time>
      </trkpt>
      <trkpt lat="43.75828" lon="7.12649">
        <ele>463.97</ele>
        <time>2022-04-28T08:28:44Z</time>
      </trkpt>
      <trkpt lat="43.75827" lon="7.12645">
        <ele>463.97</ele>
        <time>2022-04-28T08:29:01Z</time>
      </trkpt>
      <trkpt lat="43.75825" lon="7.12641">
        <ele>463.97</ele>
        <time>2022-04-28T08:29:33Z</time>
      </trkpt>
      <trkpt lat="43.75825" lon="7.1264">
        <ele>463.97</ele>
        <time>2022-04-28T08:29:58Z</time>
      </trkpt>
      <trkpt lat="43.7582" lon="7.12637">
        <ele>463.97</ele>
        <time>2022-04-28T08:30:26Z</time>
      </trkpt>
      <trkpt lat="43.7583" lon="7.1263">
        <ele>468.3</ele>
        <time>2022-04-28T08:30:41Z</time>
      </trkpt>
      <trkpt lat="43.7583" lon="7.1263">
        <ele>463.49</ele>
        <time>2022-04-28T08:30:42Z</time>
      </trkpt>
      <trkpt lat="43.75832" lon="7.12629">
        <ele>465.9</ele>
        <time>2022-04-28T08:30:44Z</time>
      </trkpt>
      <trkpt lat="43.75833" lon="7.12628">
        <ele>471.18</ele>
        <time>2022-04-28T08:30:46Z</time>
      </trkpt>
      <trkpt lat="43.75834" lon="7.12627">
        <ele>462.53</ele>
        <time>2022-04-28T08:30:47Z</time>
      </trkpt>
      <trkpt lat="43.75834" lon="7.12626">
        <ele>467.82</ele>
        <time>2022-04-28T08:30:48Z</time>
      </trkpt>
      <trkpt lat="43.7584" lon="7.12625">
        <ele>467.34</ele>
        <time>2022-04-28T08:30:57Z</time>
      </trkpt>
      <trkpt lat="43.75843" lon="7.12623">
        <ele>471.18</ele>
        <time>2022-04-28T08:31:02Z</time>
      </trkpt>
      <trkpt lat="43.75846" lon="7.12622">
        <ele>463.97</ele>
        <time>2022-04-28T08:31:05Z</time>
      </trkpt>
      <trkpt lat="43.75847" lon="7.12622">
        <ele>474.55</ele>
        <time>2022-04-28T08:31:06Z</time>
      </trkpt>
      <trkpt lat="43.75848" lon="7.12622">
        <ele>468.78</ele>
        <time>2022-04-28T08:31:07Z</time>
      </trkpt>
      <trkpt lat="43.75849" lon="7.12621">
        <ele>473.59</ele>
        <time>2022-04-28T08:31:09Z</time>
      </trkpt>
      <trkpt lat="43.75849" lon="7.12621">
        <ele>467.34</ele>
        <time>2022-04-28T08:31:10Z</time>
      </trkpt>
      <trkpt lat="43.7585" lon="7.12621">
        <ele>473.11</ele>
        <time>2022-04-28T08:31:11Z</time>
      </trkpt>
      <trkpt lat="43.7585" lon="7.12621">
        <ele>466.38</ele>
        <time>2022-04-28T08:31:12Z</time>
      </trkpt>
      <trkpt lat="43.7585" lon="7.12621">
        <ele>470.7</ele>
        <time>2022-04-28T08:31:13Z</time>
      </trkpt>
      <trkpt lat="43.75851" lon="7.1262">
        <ele>466.38</ele>
        <time>2022-04-28T08:31:14Z</time>
      </trkpt>
      <trkpt lat="43.75851" lon="7.1262">
        <ele>471.18</ele>
        <time>2022-04-28T08:31:15Z</time>
      </trkpt>
      <trkpt lat="43.75853" lon="7.12619">
        <ele>466.86</ele>
        <time>2022-04-28T08:31:17Z</time>
      </trkpt>
      <trkpt lat="43.75854" lon="7.1262">
        <ele>475.99</ele>
        <time>2022-04-28T08:31:18Z</time>
      </trkpt>
      <trkpt lat="43.75855" lon="7.12621">
        <ele>468.3</ele>
        <time>2022-04-28T08:31:19Z</time>
      </trkpt>
      <trkpt lat="43.75856" lon="7.12621">
        <ele>471.66</ele>
        <time>2022-04-28T08:31:20Z</time>
      </trkpt>
      <trkpt lat="43.75856" lon="7.12621">
        <ele>466.86</ele>
        <time>2022-04-28T08:31:21Z</time>
      </trkpt>
      <trkpt lat="43.75857" lon="7.12621">
        <ele>473.11</ele>
        <time>2022-04-28T08:31:22Z</time>
      </trkpt>
      <trkpt lat="43.75862" lon="7.1262">
        <ele>469.74</ele>
        <time>2022-04-28T08:31:29Z</time>
      </trkpt>
      <trkpt lat="43.75865" lon="7.1262">
        <ele>476.47</ele>
        <time>2022-04-28T08:31:33Z</time>
      </trkpt>
      <trkpt lat="43.75866" lon="7.12621">
        <ele>471.66</ele>
        <time>2022-04-28T08:31:34Z</time>
      </trkpt>
      <trkpt lat="43.75867" lon="7.12621">
        <ele>478.39</ele>
        <time>2022-04-28T08:31:35Z</time>
      </trkpt>
      <trkpt lat="43.75868" lon="7.1262">
        <ele>472.63</ele>
        <time>2022-04-28T08:31:36Z</time>
      </trkpt>
      <trkpt lat="43.75871" lon="7.1262">
        <ele>469.74</ele>
        <time>2022-04-28T08:31:42Z</time>
      </trkpt>
      <trkpt lat="43.75871" lon="7.1262">
        <ele>475.51</ele>
        <time>2022-04-28T08:31:43Z</time>
      </trkpt>
      <trkpt lat="43.75873" lon="7.1262">
        <ele>478.87</ele>
        <time>2022-04-28T08:31:48Z</time>
      </trkpt>
      <trkpt lat="43.75874" lon="7.1262">
        <ele>474.55</ele>
        <time>2022-04-28T08:31:49Z</time>
      </trkpt>
      <trkpt lat="43.75875" lon="7.12621">
        <ele>481.28</ele>
        <time>2022-04-28T08:31:50Z</time>
      </trkpt>
      <trkpt lat="43.75876" lon="7.1262">
        <ele>473.59</ele>
        <time>2022-04-28T08:31:51Z</time>
      </trkpt>
      <trkpt lat="43.75877" lon="7.1262">
        <ele>476.95</ele>
        <time>2022-04-28T08:31:52Z</time>
      </trkpt>
      <trkpt lat="43.75877" lon="7.1262">
        <ele>471.18</ele>
        <time>2022-04-28T08:31:53Z</time>
      </trkpt>
      <trkpt lat="43.75878" lon="7.1262">
        <ele>477.43</ele>
        <time>2022-04-28T08:31:54Z</time>
      </trkpt>
      <trkpt lat="43.75884" lon="7.1262">
        <ele>480.8</ele>
        <time>2022-04-28T08:32:03Z</time>
      </trkpt>
      <trkpt lat="43.75885" lon="7.12621">
        <ele>476.47</ele>
        <time>2022-04-28T08:32:04Z</time>
      </trkpt>
      <trkpt lat="43.75885" lon="7.12621">
        <ele>479.84</ele>
        <time>2022-04-28T08:32:05Z</time>
      </trkpt>
      <trkpt lat="43.75886" lon="7.12622">
        <ele>475.51</ele>
        <time>2022-04-28T08:32:06Z</time>
      </trkpt>
      <trkpt lat="43.75886" lon="7.12622">
        <ele>478.39</ele>
        <time>2022-04-28T08:32:07Z</time>
      </trkpt>
      <trkpt lat="43.7589" lon="7.12624">
        <ele>474.07</ele>
        <time>2022-04-28T08:32:14Z</time>
      </trkpt>
      <trkpt lat="43.7589" lon="7.12624">
        <ele>480.8</ele>
        <time>2022-04-28T08:32:15Z</time>
      </trkpt>
      <trkpt lat="43.7589" lon="7.12624">
        <ele>475.99</ele>
        <time>2022-04-28T08:32:16Z</time>
      </trkpt>
      <trkpt lat="43.75891" lon="7.12624">
        <ele>478.87</ele>
        <time>2022-04-28T08:32:17Z</time>
      </trkpt>
      <trkpt lat="43.75893" lon="7.12622">
        <ele>479.84</ele>
        <time>2022-04-28T08:32:20Z</time>
      </trkpt>
      <trkpt lat="43.75895" lon="7.12621">
        <ele>476.47</ele>
        <time>2022-04-28T08:32:23Z</time>
      </trkpt>
      <trkpt lat="43.75897" lon="7.12621">
        <ele>481.76</ele>
        <time>2022-04-28T08:32:25Z</time>
      </trkpt>
      <trkpt lat="43.75898" lon="7.12621">
        <ele>478.39</ele>
        <time>2022-04-28T08:32:26Z</time>
      </trkpt>
      <trkpt lat="43.75902" lon="7.12622">
        <ele>483.2</ele>
        <time>2022-04-28T08:32:30Z</time>
      </trkpt>
      <trkpt lat="43.75902" lon="7.12622">
        <ele>477.91</ele>
        <time>2022-04-28T08:32:31Z</time>
      </trkpt>
      <trkpt lat="43.75903" lon="7.12622">
        <ele>480.8</ele>
        <time>2022-04-28T08:32:32Z</time>
      </trkpt>
      <trkpt lat="43.75904" lon="7.12622">
        <ele>476.47</ele>
        <time>2022-04-28T08:32:33Z</time>
      </trkpt>
      <trkpt lat="43.75904" lon="7.12623">
        <ele>481.28</ele>
        <time>2022-04-28T08:32:34Z</time>
      </trkpt>
      <trkpt lat="43.75907" lon="7.12622">
        <ele>484.64</ele>
        <time>2022-04-28T08:32:37Z</time>
      </trkpt>
      <trkpt lat="43.75907" lon="7.12623">
        <ele>479.84</ele>
        <time>2022-04-28T08:32:38Z</time>
      </trkpt>
      <trkpt lat="43.75909" lon="7.12622">
        <ele>485.12</ele>
        <time>2022-04-28T08:32:43Z</time>
      </trkpt>
      <trkpt lat="43.75911" lon="7.12623">
        <ele>479.84</ele>
        <time>2022-04-28T08:32:44Z</time>
      </trkpt>
      <trkpt lat="43.75911" lon="7.12623">
        <ele>483.68</ele>
        <time>2022-04-28T08:32:45Z</time>
      </trkpt>
      <trkpt lat="43.75911" lon="7.12623">
        <ele>479.35</ele>
        <time>2022-04-28T08:32:46Z</time>
      </trkpt>
      <trkpt lat="43.75912" lon="7.12624">
        <ele>483.2</ele>
        <time>2022-04-28T08:32:47Z</time>
      </trkpt>
      <trkpt lat="43.75913" lon="7.12624">
        <ele>481.28</ele>
        <time>2022-04-28T08:32:48Z</time>
      </trkpt>
      <trkpt lat="43.75914" lon="7.12624">
        <ele>474.55</ele>
        <time>2022-04-28T08:32:50Z</time>
      </trkpt>
      <trkpt lat="43.75914" lon="7.12623">
        <ele>484.64</ele>
        <time>2022-04-28T08:32:51Z</time>
      </trkpt>
      <trkpt lat="43.75918" lon="7.12623">
        <ele>481.76</ele>
        <time>2022-04-28T08:32:57Z</time>
      </trkpt>
      <trkpt lat="43.75918" lon="7.12622">
        <ele>484.64</ele>
        <time>2022-04-28T08:32:58Z</time>
      </trkpt>
      <trkpt lat="43.75919" lon="7.12622">
        <ele>481.28</ele>
        <time>2022-04-28T08:32:59Z</time>
      </trkpt>
      <trkpt lat="43.75919" lon="7.12621">
        <ele>484.64</ele>
        <time>2022-04-28T08:33:00Z</time>
      </trkpt>
      <trkpt lat="43.75921" lon="7.12621">
        <ele>488.49</ele>
        <time>2022-04-28T08:33:03Z</time>
      </trkpt>
      <trkpt lat="43.75922" lon="7.12621">
        <ele>482.24</ele>
        <time>2022-04-28T08:33:04Z</time>
      </trkpt>
      <trkpt lat="43.75923" lon="7.12621">
        <ele>484.64</ele>
        <time>2022-04-28T08:33:05Z</time>
      </trkpt>
      <trkpt lat="43.75924" lon="7.1262">
        <ele>478.87</ele>
        <time>2022-04-28T08:33:06Z</time>
      </trkpt>
      <trkpt lat="43.75924" lon="7.1262">
        <ele>487.05</ele>
        <time>2022-04-28T08:33:07Z</time>
      </trkpt>
      <trkpt lat="43.75925" lon="7.1262">
        <ele>482.72</ele>
        <time>2022-04-28T08:33:08Z</time>
      </trkpt>
      <trkpt lat="43.75925" lon="7.1262">
        <ele>485.6</ele>
        <time>2022-04-28T08:33:09Z</time>
      </trkpt>
      <trkpt lat="43.75926" lon="7.12621">
        <ele>489.45</ele>
        <time>2022-04-28T08:33:10Z</time>
      </trkpt>
      <trkpt lat="43.75927" lon="7.12622">
        <ele>486.56</ele>
        <time>2022-04-28T08:33:11Z</time>
      </trkpt>
      <trkpt lat="43.75927" lon="7.12623">
        <ele>490.89</ele>
        <time>2022-04-28T08:33:12Z</time>
      </trkpt>
      <trkpt lat="43.75928" lon="7.12623">
        <ele>483.2</ele>
        <time>2022-04-28T08:33:13Z</time>
      </trkpt>
      <trkpt lat="43.75928" lon="7.12623">
        <ele>489.45</ele>
        <time>2022-04-28T08:33:14Z</time>
      </trkpt>
      <trkpt lat="43.75928" lon="7.12624">
        <ele>479.84</ele>
        <time>2022-04-28T08:33:15Z</time>
      </trkpt>
      <trkpt lat="43.75929" lon="7.12625">
        <ele>489.45</ele>
        <time>2022-04-28T08:33:16Z</time>
      </trkpt>
      <trkpt lat="43.75929" lon="7.12625">
        <ele>485.6</ele>
        <time>2022-04-28T08:33:17Z</time>
      </trkpt>
      <trkpt lat="43.75928" lon="7.12627">
        <ele>489.45</ele>
        <time>2022-04-28T08:33:21Z</time>
      </trkpt>
      <trkpt lat="43.75928" lon="7.12629">
        <ele>483.68</ele>
        <time>2022-04-28T08:33:24Z</time>
      </trkpt>
      <trkpt lat="43.75928" lon="7.1263">
        <ele>488.49</ele>
        <time>2022-04-28T08:33:25Z</time>
      </trkpt>
      <trkpt lat="43.75929" lon="7.12635">
        <ele>491.85</ele>
        <time>2022-04-28T08:33:30Z</time>
      </trkpt>
      <trkpt lat="43.75931" lon="7.12637">
        <ele>487.53</ele>
        <time>2022-04-28T08:33:34Z</time>
      </trkpt>
      <trkpt lat="43.75933" lon="7.12635">
        <ele>491.37</ele>
        <time>2022-04-28T08:33:38Z</time>
      </trkpt>
      <trkpt lat="43.75934" lon="7.12635">
        <ele>490.41</ele>
        <time>2022-04-28T08:33:39Z</time>
      </trkpt>
      <trkpt lat="43.75936" lon="7.12636">
        <ele>485.12</ele>
        <time>2022-04-28T08:33:43Z</time>
      </trkpt>
      <trkpt lat="43.75937" lon="7.12636">
        <ele>491.37</ele>
        <time>2022-04-28T08:33:44Z</time>
      </trkpt>
      <trkpt lat="43.75937" lon="7.12636">
        <ele>487.53</ele>
        <time>2022-04-28T08:33:45Z</time>
      </trkpt>
      <trkpt lat="43.75938" lon="7.12637">
        <ele>491.85</ele>
        <time>2022-04-28T08:33:46Z</time>
      </trkpt>
      <trkpt lat="43.75938" lon="7.12637">
        <ele>489.45</ele>
        <time>2022-04-28T08:33:47Z</time>
      </trkpt>
      <trkpt lat="43.75934" lon="7.12642">
        <ele>496.66</ele>
        <time>2022-04-28T08:33:55Z</time>
      </trkpt>
      <trkpt lat="43.75934" lon="7.12643">
        <ele>491.85</ele>
        <time>2022-04-28T08:33:56Z</time>
      </trkpt>
      <trkpt lat="43.75933" lon="7.12643">
        <ele>499.06</ele>
        <time>2022-04-28T08:33:57Z</time>
      </trkpt>
      <trkpt lat="43.75933" lon="7.12643">
        <ele>492.33</ele>
        <time>2022-04-28T08:33:58Z</time>
      </trkpt>
      <trkpt lat="43.75932" lon="7.12644">
        <ele>495.7</ele>
        <time>2022-04-28T08:33:59Z</time>
      </trkpt>
      <trkpt lat="43.75932" lon="7.12645">
        <ele>490.41</ele>
        <time>2022-04-28T08:34:00Z</time>
      </trkpt>
      <trkpt lat="43.75932" lon="7.12645">
        <ele>494.26</ele>
        <time>2022-04-28T08:34:01Z</time>
      </trkpt>
      <trkpt lat="43.75932" lon="7.12645">
        <ele>489.93</ele>
        <time>2022-04-28T08:34:02Z</time>
      </trkpt>
      <trkpt lat="43.75932" lon="7.12646">
        <ele>495.22</ele>
        <time>2022-04-28T08:34:03Z</time>
      </trkpt>
      <trkpt lat="43.75931" lon="7.12647">
        <ele>489.45</ele>
        <time>2022-04-28T08:34:04Z</time>
      </trkpt>
      <trkpt lat="43.75932" lon="7.12648">
        <ele>494.26</ele>
        <time>2022-04-28T08:34:05Z</time>
      </trkpt>
      <trkpt lat="43.75932" lon="7.12649">
        <ele>489.93</ele>
        <time>2022-04-28T08:34:06Z</time>
      </trkpt>
      <trkpt lat="43.75932" lon="7.1265">
        <ele>493.77</ele>
        <time>2022-04-28T08:34:07Z</time>
      </trkpt>
      <trkpt lat="43.75934" lon="7.12653">
        <ele>497.62</ele>
        <time>2022-04-28T08:34:12Z</time>
      </trkpt>
      <trkpt lat="43.75936" lon="7.12653">
        <ele>495.7</ele>
        <time>2022-04-28T08:34:17Z</time>
      </trkpt>
      <trkpt lat="43.75939" lon="7.12653">
        <ele>500.5</ele>
        <time>2022-04-28T08:34:22Z</time>
      </trkpt>
      <trkpt lat="43.75939" lon="7.12653">
        <ele>496.18</ele>
        <time>2022-04-28T08:34:23Z</time>
      </trkpt>
      <trkpt lat="43.75941" lon="7.12654">
        <ele>499.54</ele>
        <time>2022-04-28T08:34:29Z</time>
      </trkpt>
      <trkpt lat="43.75941" lon="7.12654">
        <ele>493.29</ele>
        <time>2022-04-28T08:34:30Z</time>
      </trkpt>
      <trkpt lat="43.75941" lon="7.12655">
        <ele>498.58</ele>
        <time>2022-04-28T08:34:31Z</time>
      </trkpt>
      <trkpt lat="43.75941" lon="7.12655">
        <ele>494.74</ele>
        <time>2022-04-28T08:34:32Z</time>
      </trkpt>
      <trkpt lat="43.7594" lon="7.12656">
        <ele>497.62</ele>
        <time>2022-04-28T08:34:33Z</time>
      </trkpt>
      <trkpt lat="43.7594" lon="7.12659">
        <ele>492.81</ele>
        <time>2022-04-28T08:34:37Z</time>
      </trkpt>
      <trkpt lat="43.75939" lon="7.1266">
        <ele>500.02</ele>
        <time>2022-04-28T08:34:38Z</time>
      </trkpt>
      <trkpt lat="43.75939" lon="7.12661">
        <ele>494.74</ele>
        <time>2022-04-28T08:34:39Z</time>
      </trkpt>
      <trkpt lat="43.7594" lon="7.12661">
        <ele>499.06</ele>
        <time>2022-04-28T08:34:40Z</time>
      </trkpt>
      <trkpt lat="43.7594" lon="7.12662">
        <ele>493.77</ele>
        <time>2022-04-28T08:34:41Z</time>
      </trkpt>
      <trkpt lat="43.75941" lon="7.12662">
        <ele>499.06</ele>
        <time>2022-04-28T08:34:42Z</time>
      </trkpt>
      <trkpt lat="43.75941" lon="7.12662">
        <ele>494.74</ele>
        <time>2022-04-28T08:34:43Z</time>
      </trkpt>
      <trkpt lat="43.75942" lon="7.12661">
        <ele>500.5</ele>
        <time>2022-04-28T08:34:44Z</time>
      </trkpt>
      <trkpt lat="43.75944" lon="7.1266">
        <ele>497.62</ele>
        <time>2022-04-28T08:34:48Z</time>
      </trkpt>
      <trkpt lat="43.75944" lon="7.1266">
        <ele>501.95</ele>
        <time>2022-04-28T08:34:49Z</time>
      </trkpt>
      <trkpt lat="43.75946" lon="7.1266">
        <ele>496.66</ele>
        <time>2022-04-28T08:34:56Z</time>
      </trkpt>
      <trkpt lat="43.75946" lon="7.12659">
        <ele>500.02</ele>
        <time>2022-04-28T08:34:57Z</time>
      </trkpt>
      <trkpt lat="43.75947" lon="7.12657">
        <ele>496.18</ele>
        <time>2022-04-28T08:34:58Z</time>
      </trkpt>
      <trkpt lat="43.75947" lon="7.12657">
        <ele>500.02</ele>
        <time>2022-04-28T08:34:59Z</time>
      </trkpt>
      <trkpt lat="43.7595" lon="7.12654">
        <ele>496.18</ele>
        <time>2022-04-28T08:35:03Z</time>
      </trkpt>
      <trkpt lat="43.7595" lon="7.12653">
        <ele>500.5</ele>
        <time>2022-04-28T08:35:04Z</time>
      </trkpt>
      <trkpt lat="43.75953" lon="7.12655">
        <ele>505.79</ele>
        <time>2022-04-28T08:35:11Z</time>
      </trkpt>
      <trkpt lat="43.75953" lon="7.12655">
        <ele>499.54</ele>
        <time>2022-04-28T08:35:12Z</time>
      </trkpt>
      <trkpt lat="43.75954" lon="7.12656">
        <ele>503.39</ele>
        <time>2022-04-28T08:35:13Z</time>
      </trkpt>
      <trkpt lat="43.75954" lon="7.12657">
        <ele>499.54</ele>
        <time>2022-04-28T08:35:14Z</time>
      </trkpt>
      <trkpt lat="43.75955" lon="7.12657">
        <ele>502.91</ele>
        <time>2022-04-28T08:35:15Z</time>
      </trkpt>
      <trkpt lat="43.75952" lon="7.1266">
        <ele>498.58</ele>
        <time>2022-04-28T08:35:19Z</time>
      </trkpt>
      <trkpt lat="43.75951" lon="7.12661">
        <ele>503.39</ele>
        <time>2022-04-28T08:35:20Z</time>
      </trkpt>
      <trkpt lat="43.75951" lon="7.12662">
        <ele>500.02</ele>
        <time>2022-04-28T08:35:21Z</time>
      </trkpt>
      <trkpt lat="43.7595" lon="7.12663">
        <ele>504.35</ele>
        <time>2022-04-28T08:35:22Z</time>
      </trkpt>
      <trkpt lat="43.7595" lon="7.12664">
        <ele>499.54</ele>
        <time>2022-04-28T08:35:23Z</time>
      </trkpt>
      <trkpt lat="43.75949" lon="7.12665">
        <ele>503.87</ele>
        <time>2022-04-28T08:35:24Z</time>
      </trkpt>
      <trkpt lat="43.7595" lon="7.12668">
        <ele>500.5</ele>
        <time>2022-04-28T08:35:28Z</time>
      </trkpt>
      <trkpt lat="43.75951" lon="7.12668">
        <ele>504.83</ele>
        <time>2022-04-28T08:35:29Z</time>
      </trkpt>
      <trkpt lat="43.75954" lon="7.12667">
        <ele>501.46</ele>
        <time>2022-04-28T08:35:34Z</time>
      </trkpt>
      <trkpt lat="43.75955" lon="7.12666">
        <ele>504.83</ele>
        <time>2022-04-28T08:35:35Z</time>
      </trkpt>
      <trkpt lat="43.75957" lon="7.12668">
        <ele>510.6</ele>
        <time>2022-04-28T08:35:40Z</time>
      </trkpt>
      <trkpt lat="43.75958" lon="7.12667">
        <ele>504.35</ele>
        <time>2022-04-28T08:35:41Z</time>
      </trkpt>
      <trkpt lat="43.75959" lon="7.12666">
        <ele>511.08</ele>
        <time>2022-04-28T08:35:42Z</time>
      </trkpt>
      <trkpt lat="43.75959" lon="7.12666">
        <ele>504.35</ele>
        <time>2022-04-28T08:35:43Z</time>
      </trkpt>
      <trkpt lat="43.75962" lon="7.12664">
        <ele>507.23</ele>
        <time>2022-04-28T08:35:50Z</time>
      </trkpt>
      <trkpt lat="43.75967" lon="7.12665">
        <ele>510.6</ele>
        <time>2022-04-28T08:35:57Z</time>
      </trkpt>
      <trkpt lat="43.75967" lon="7.12664">
        <ele>505.79</ele>
        <time>2022-04-28T08:35:58Z</time>
      </trkpt>
      <trkpt lat="43.75968" lon="7.12665">
        <ele>512.52</ele>
        <time>2022-04-28T08:35:59Z</time>
      </trkpt>
      <trkpt lat="43.75968" lon="7.12665">
        <ele>507.23</ele>
        <time>2022-04-28T08:36:00Z</time>
      </trkpt>
      <trkpt lat="43.75969" lon="7.12667">
        <ele>511.08</ele>
        <time>2022-04-28T08:36:04Z</time>
      </trkpt>
      <trkpt lat="43.75968" lon="7.12669">
        <ele>505.31</ele>
        <time>2022-04-28T08:36:07Z</time>
      </trkpt>
      <trkpt lat="43.75968" lon="7.1267">
        <ele>510.6</ele>
        <time>2022-04-28T08:36:08Z</time>
      </trkpt>
      <trkpt lat="43.75967" lon="7.1267">
        <ele>506.75</ele>
        <time>2022-04-28T08:36:09Z</time>
      </trkpt>
      <trkpt lat="43.75967" lon="7.12671">
        <ele>510.6</ele>
        <time>2022-04-28T08:36:11Z</time>
      </trkpt>
      <trkpt lat="43.75966" lon="7.12672">
        <ele>506.27</ele>
        <time>2022-04-28T08:36:12Z</time>
      </trkpt>
      <trkpt lat="43.75965" lon="7.12672">
        <ele>509.16</ele>
        <time>2022-04-28T08:36:13Z</time>
      </trkpt>
      <trkpt lat="43.75964" lon="7.12674">
        <ele>510.6</ele>
        <time>2022-04-28T08:36:16Z</time>
      </trkpt>
      <trkpt lat="43.75963" lon="7.12675">
        <ele>514.44</ele>
        <time>2022-04-28T08:36:18Z</time>
      </trkpt>
      <trkpt lat="43.75963" lon="7.12676">
        <ele>509.64</ele>
        <time>2022-04-28T08:36:19Z</time>
      </trkpt>
      <trkpt lat="43.75964" lon="7.12676">
        <ele>514.44</ele>
        <time>2022-04-28T08:36:20Z</time>
      </trkpt>
      <trkpt lat="43.75963" lon="7.12677">
        <ele>507.71</ele>
        <time>2022-04-28T08:36:21Z</time>
      </trkpt>
      <trkpt lat="43.75963" lon="7.12678">
        <ele>513</ele>
        <time>2022-04-28T08:36:22Z</time>
      </trkpt>
      <trkpt lat="43.75963" lon="7.12679">
        <ele>507.71</ele>
        <time>2022-04-28T08:36:23Z</time>
      </trkpt>
      <trkpt lat="43.75963" lon="7.1268">
        <ele>513</ele>
        <time>2022-04-28T08:36:24Z</time>
      </trkpt>
      <trkpt lat="43.75964" lon="7.1268">
        <ele>517.33</ele>
        <time>2022-04-28T08:36:25Z</time>
      </trkpt>
      <trkpt lat="43.75964" lon="7.1268">
        <ele>512.04</ele>
        <time>2022-04-28T08:36:26Z</time>
      </trkpt>
      <trkpt lat="43.75966" lon="7.1268">
        <ele>517.81</ele>
        <time>2022-04-28T08:36:29Z</time>
      </trkpt>
      <trkpt lat="43.75967" lon="7.12679">
        <ele>511.56</ele>
        <time>2022-04-28T08:36:30Z</time>
      </trkpt>
      <trkpt lat="43.75967" lon="7.12679">
        <ele>514.92</ele>
        <time>2022-04-28T08:36:31Z</time>
      </trkpt>
      <trkpt lat="43.75968" lon="7.12678">
        <ele>508.19</ele>
        <time>2022-04-28T08:36:32Z</time>
      </trkpt>
      <trkpt lat="43.75968" lon="7.12678">
        <ele>513</ele>
        <time>2022-04-28T08:36:33Z</time>
      </trkpt>
      <trkpt lat="43.75971" lon="7.12677">
        <ele>518.77</ele>
        <time>2022-04-28T08:36:40Z</time>
      </trkpt>
      <trkpt lat="43.75972" lon="7.12677">
        <ele>511.08</ele>
        <time>2022-04-28T08:36:41Z</time>
      </trkpt>
      <trkpt lat="43.75973" lon="7.12677">
        <ele>514.92</ele>
        <time>2022-04-28T08:36:42Z</time>
      </trkpt>
      <trkpt lat="43.75973" lon="7.12677">
        <ele>512.04</ele>
        <time>2022-04-28T08:36:43Z</time>
      </trkpt>
      <trkpt lat="43.75974" lon="7.12677">
        <ele>515.4</ele>
        <time>2022-04-28T08:36:44Z</time>
      </trkpt>
      <trkpt lat="43.75978" lon="7.1268">
        <ele>519.25</ele>
        <time>2022-04-28T08:36:52Z</time>
      </trkpt>
      <trkpt lat="43.75978" lon="7.12681">
        <ele>514.44</ele>
        <time>2022-04-28T08:36:53Z</time>
      </trkpt>
      <trkpt lat="43.7598" lon="7.12686">
        <ele>517.81</ele>
        <time>2022-04-28T08:37:00Z</time>
      </trkpt>
      <trkpt lat="43.75978" lon="7.12689">
        <ele>521.17</ele>
        <time>2022-04-28T08:37:05Z</time>
      </trkpt>
      <trkpt lat="43.75978" lon="7.12689">
        <ele>516.85</ele>
        <time>2022-04-28T08:37:06Z</time>
      </trkpt>
      <trkpt lat="43.75976" lon="7.12692">
        <ele>520.21</ele>
        <time>2022-04-28T08:37:11Z</time>
      </trkpt>
      <trkpt lat="43.75975" lon="7.127">
        <ele>523.58</ele>
        <time>2022-04-28T08:37:22Z</time>
      </trkpt>
      <trkpt lat="43.7598" lon="7.12705">
        <ele>523.09</ele>
        <time>2022-04-28T08:37:33Z</time>
      </trkpt>
      <trkpt lat="43.75981" lon="7.12706">
        <ele>526.46</ele>
        <time>2022-04-28T08:37:35Z</time>
      </trkpt>
      <trkpt lat="43.75981" lon="7.12706">
        <ele>523.58</ele>
        <time>2022-04-28T08:37:36Z</time>
      </trkpt>
      <trkpt lat="43.75983" lon="7.12705">
        <ele>517.81</ele>
        <time>2022-04-28T08:37:40Z</time>
      </trkpt>
      <trkpt lat="43.75984" lon="7.12705">
        <ele>523.58</ele>
        <time>2022-04-28T08:37:41Z</time>
      </trkpt>
      <trkpt lat="43.75984" lon="7.12705">
        <ele>519.25</ele>
        <time>2022-04-28T08:37:42Z</time>
      </trkpt>
      <trkpt lat="43.75984" lon="7.12705">
        <ele>525.98</ele>
        <time>2022-04-28T08:37:43Z</time>
      </trkpt>
      <trkpt lat="43.75985" lon="7.12705">
        <ele>525.5</ele>
        <time>2022-04-28T08:37:44Z</time>
      </trkpt>
      <trkpt lat="43.75986" lon="7.12706">
        <ele>522.61</ele>
        <time>2022-04-28T08:37:47Z</time>
      </trkpt>
      <trkpt lat="43.75986" lon="7.12707">
        <ele>527.42</ele>
        <time>2022-04-28T08:37:48Z</time>
      </trkpt>
      <trkpt lat="43.75987" lon="7.12708">
        <ele>530.79</ele>
        <time>2022-04-28T08:37:50Z</time>
      </trkpt>
      <trkpt lat="43.75988" lon="7.12708">
        <ele>525.02</ele>
        <time>2022-04-28T08:37:51Z</time>
      </trkpt>
      <trkpt lat="43.75989" lon="7.12707">
        <ele>521.65</ele>
        <time>2022-04-28T08:37:53Z</time>
      </trkpt>
      <trkpt lat="43.7599" lon="7.12707">
        <ele>526.94</ele>
        <time>2022-04-28T08:37:54Z</time>
      </trkpt>
      <trkpt lat="43.7599" lon="7.12706">
        <ele>523.09</ele>
        <time>2022-04-28T08:37:55Z</time>
      </trkpt>
      <trkpt lat="43.75991" lon="7.12706">
        <ele>527.42</ele>
        <time>2022-04-28T08:37:56Z</time>
      </trkpt>
      <trkpt lat="43.75993" lon="7.12704">
        <ele>531.75</ele>
        <time>2022-04-28T08:38:00Z</time>
      </trkpt>
      <trkpt lat="43.75995" lon="7.12704">
        <ele>526.46</ele>
        <time>2022-04-28T08:38:02Z</time>
      </trkpt>
      <trkpt lat="43.75997" lon="7.12707">
        <ele>532.23</ele>
        <time>2022-04-28T08:38:09Z</time>
      </trkpt>
      <trkpt lat="43.75997" lon="7.12708">
        <ele>525.98</ele>
        <time>2022-04-28T08:38:10Z</time>
      </trkpt>
      <trkpt lat="43.75997" lon="7.12708">
        <ele>529.34</ele>
        <time>2022-04-28T08:38:11Z</time>
      </trkpt>
      <trkpt lat="43.75997" lon="7.12709">
        <ele>525.5</ele>
        <time>2022-04-28T08:38:16Z</time>
      </trkpt>
      <trkpt lat="43.75998" lon="7.12709">
        <ele>530.3</ele>
        <time>2022-04-28T08:38:17Z</time>
      </trkpt>
      <trkpt lat="43.76" lon="7.12706">
        <ele>535.59</ele>
        <time>2022-04-28T08:38:22Z</time>
      </trkpt>
      <trkpt lat="43.76001" lon="7.12706">
        <ele>526.46</ele>
        <time>2022-04-28T08:38:23Z</time>
      </trkpt>
      <trkpt lat="43.76001" lon="7.12706">
        <ele>531.75</ele>
        <time>2022-04-28T08:38:24Z</time>
      </trkpt>
      <trkpt lat="43.76002" lon="7.12706">
        <ele>528.38</ele>
        <time>2022-04-28T08:38:25Z</time>
      </trkpt>
      <trkpt lat="43.76004" lon="7.12703">
        <ele>535.11</ele>
        <time>2022-04-28T08:38:29Z</time>
      </trkpt>
      <trkpt lat="43.76004" lon="7.12702">
        <ele>528.86</ele>
        <time>2022-04-28T08:38:30Z</time>
      </trkpt>
      <trkpt lat="43.76004" lon="7.12701">
        <ele>532.71</ele>
        <time>2022-04-28T08:38:31Z</time>
      </trkpt>
      <trkpt lat="43.76005" lon="7.12701">
        <ele>529.34</ele>
        <time>2022-04-28T08:38:32Z</time>
      </trkpt>
      <trkpt lat="43.76006" lon="7.12701">
        <ele>533.67</ele>
        <time>2022-04-28T08:38:34Z</time>
      </trkpt>
      <trkpt lat="43.76008" lon="7.12702">
        <ele>530.3</ele>
        <time>2022-04-28T08:38:37Z</time>
      </trkpt>
      <trkpt lat="43.7601" lon="7.12704">
        <ele>533.67</ele>
        <time>2022-04-28T08:38:40Z</time>
      </trkpt>
      <trkpt lat="43.7601" lon="7.12704">
        <ele>529.82</ele>
        <time>2022-04-28T08:38:41Z</time>
      </trkpt>
      <trkpt lat="43.7601" lon="7.12705">
        <ele>533.67</ele>
        <time>2022-04-28T08:38:42Z</time>
      </trkpt>
      <trkpt lat="43.76009" lon="7.12707">
        <ele>536.55</ele>
        <time>2022-04-28T08:38:45Z</time>
      </trkpt>
      <trkpt lat="43.76008" lon="7.12708">
        <ele>530.3</ele>
        <time>2022-04-28T08:38:46Z</time>
      </trkpt>
      <trkpt lat="43.76008" lon="7.12708">
        <ele>534.63</ele>
        <time>2022-04-28T08:38:47Z</time>
      </trkpt>
      <trkpt lat="43.76006" lon="7.1271">
        <ele>534.63</ele>
        <time>2022-04-28T08:38:51Z</time>
      </trkpt>
      <trkpt lat="43.76005" lon="7.12713">
        <ele>539.92</ele>
        <time>2022-04-28T08:38:54Z</time>
      </trkpt>
      <trkpt lat="43.76005" lon="7.12714">
        <ele>533.19</ele>
        <time>2022-04-28T08:38:55Z</time>
      </trkpt>
      <trkpt lat="43.76005" lon="7.12715">
        <ele>537.51</ele>
        <time>2022-04-28T08:38:56Z</time>
      </trkpt>
      <trkpt lat="43.76006" lon="7.12715">
        <ele>533.19</ele>
        <time>2022-04-28T08:38:57Z</time>
      </trkpt>
      <trkpt lat="43.76007" lon="7.12716">
        <ele>541.84</ele>
        <time>2022-04-28T08:38:59Z</time>
      </trkpt>
      <trkpt lat="43.76008" lon="7.12716">
        <ele>536.07</ele>
        <time>2022-04-28T08:39:00Z</time>
      </trkpt>
      <trkpt lat="43.76009" lon="7.12717">
        <ele>539.44</ele>
        <time>2022-04-28T08:39:01Z</time>
      </trkpt>
      <trkpt lat="43.76009" lon="7.12717">
        <ele>535.11</ele>
        <time>2022-04-28T08:39:02Z</time>
      </trkpt>
      <trkpt lat="43.76009" lon="7.12717">
        <ele>528.38</ele>
        <time>2022-04-28T08:39:03Z</time>
      </trkpt>
      <trkpt lat="43.7601" lon="7.12717">
        <ele>539.44</ele>
        <time>2022-04-28T08:39:04Z</time>
      </trkpt>
      <trkpt lat="43.76011" lon="7.12716">
        <ele>536.07</ele>
        <time>2022-04-28T08:39:05Z</time>
      </trkpt>
      <trkpt lat="43.76014" lon="7.12712">
        <ele>532.23</ele>
        <time>2022-04-28T08:39:12Z</time>
      </trkpt>
      <trkpt lat="43.76014" lon="7.12711">
        <ele>537.51</ele>
        <time>2022-04-28T08:39:13Z</time>
      </trkpt>
      <trkpt lat="43.76015" lon="7.12711">
        <ele>532.23</ele>
        <time>2022-04-28T08:39:14Z</time>
      </trkpt>
      <trkpt lat="43.76016" lon="7.1271">
        <ele>536.07</ele>
        <time>2022-04-28T08:39:15Z</time>
      </trkpt>
      <trkpt lat="43.76016" lon="7.1271">
        <ele>541.36</ele>
        <time>2022-04-28T08:39:16Z</time>
      </trkpt>
      <trkpt lat="43.76017" lon="7.1271">
        <ele>534.15</ele>
        <time>2022-04-28T08:39:17Z</time>
      </trkpt>
      <trkpt lat="43.76018" lon="7.12709">
        <ele>537.99</ele>
        <time>2022-04-28T08:39:18Z</time>
      </trkpt>
      <trkpt lat="43.76021" lon="7.12708">
        <ele>541.36</ele>
        <time>2022-04-28T08:39:23Z</time>
      </trkpt>
      <trkpt lat="43.76022" lon="7.12708">
        <ele>533.67</ele>
        <time>2022-04-28T08:39:24Z</time>
      </trkpt>
      <trkpt lat="43.76023" lon="7.12708">
        <ele>539.44</ele>
        <time>2022-04-28T08:39:25Z</time>
      </trkpt>
      <trkpt lat="43.76025" lon="7.12707">
        <ele>535.59</ele>
        <time>2022-04-28T08:39:28Z</time>
      </trkpt>
      <trkpt lat="43.76025" lon="7.12707">
        <ele>538.96</ele>
        <time>2022-04-28T08:39:29Z</time>
      </trkpt>
      <trkpt lat="43.76026" lon="7.12707">
        <ele>542.32</ele>
        <time>2022-04-28T08:39:30Z</time>
      </trkpt>
      <trkpt lat="43.76026" lon="7.12707">
        <ele>539.92</ele>
        <time>2022-04-28T08:39:31Z</time>
      </trkpt>
      <trkpt lat="43.76027" lon="7.12706">
        <ele>541.84</ele>
        <time>2022-04-28T08:39:32Z</time>
      </trkpt>
      <trkpt lat="43.76028" lon="7.12706">
        <ele>537.99</ele>
        <time>2022-04-28T08:39:33Z</time>
      </trkpt>
      <trkpt lat="43.76029" lon="7.12705">
        <ele>541.84</ele>
        <time>2022-04-28T08:39:34Z</time>
      </trkpt>
      <trkpt lat="43.76029" lon="7.12705">
        <ele>537.99</ele>
        <time>2022-04-28T08:39:35Z</time>
      </trkpt>
      <trkpt lat="43.76031" lon="7.12705">
        <ele>542.32</ele>
        <time>2022-04-28T08:39:37Z</time>
      </trkpt>
      <trkpt lat="43.76032" lon="7.12706">
        <ele>538.96</ele>
        <time>2022-04-28T08:39:40Z</time>
      </trkpt>
      <trkpt lat="43.76032" lon="7.12707">
        <ele>544.24</ele>
        <time>2022-04-28T08:39:41Z</time>
      </trkpt>
      <trkpt lat="43.76032" lon="7.12707">
        <ele>540.88</ele>
        <time>2022-04-28T08:39:42Z</time>
      </trkpt>
      <trkpt lat="43.7603" lon="7.12711">
        <ele>545.2</ele>
        <time>2022-04-28T08:39:48Z</time>
      </trkpt>
      <trkpt lat="43.76029" lon="7.12712">
        <ele>538.96</ele>
        <time>2022-04-28T08:39:49Z</time>
      </trkpt>
      <trkpt lat="43.76029" lon="7.12712">
        <ele>542.8</ele>
        <time>2022-04-28T08:39:50Z</time>
      </trkpt>
      <trkpt lat="43.7603" lon="7.12716">
        <ele>546.17</ele>
        <time>2022-04-28T08:39:55Z</time>
      </trkpt>
      <trkpt lat="43.76031" lon="7.12716">
        <ele>541.36</ele>
        <time>2022-04-28T08:39:56Z</time>
      </trkpt>
      <trkpt lat="43.76033" lon="7.12715">
        <ele>568.28</ele>
        <time>2022-04-28T08:40:01Z</time>
      </trkpt>
      <trkpt lat="43.76034" lon="7.12715">
        <ele>542.32</ele>
        <time>2022-04-28T08:40:02Z</time>
      </trkpt>
      <trkpt lat="43.76034" lon="7.12714">
        <ele>546.65</ele>
        <time>2022-04-28T08:40:03Z</time>
      </trkpt>
      <trkpt lat="43.76035" lon="7.12712">
        <ele>543.76</ele>
        <time>2022-04-28T08:40:05Z</time>
      </trkpt>
      <trkpt lat="43.76041" lon="7.12708">
        <ele>548.57</ele>
        <time>2022-04-28T08:40:15Z</time>
      </trkpt>
      <trkpt lat="43.76042" lon="7.12707">
        <ele>545.2</ele>
        <time>2022-04-28T08:40:16Z</time>
      </trkpt>
      <trkpt lat="43.76044" lon="7.12706">
        <ele>548.57</ele>
        <time>2022-04-28T08:40:20Z</time>
      </trkpt>
      <trkpt lat="43.76045" lon="7.12706">
        <ele>542.32</ele>
        <time>2022-04-28T08:40:21Z</time>
      </trkpt>
      <trkpt lat="43.76046" lon="7.12706">
        <ele>546.65</ele>
        <time>2022-04-28T08:40:22Z</time>
      </trkpt>
      <trkpt lat="43.76047" lon="7.12707">
        <ele>541.36</ele>
        <time>2022-04-28T08:40:23Z</time>
      </trkpt>
      <trkpt lat="43.76047" lon="7.12707">
        <ele>546.65</ele>
        <time>2022-04-28T08:40:24Z</time>
      </trkpt>
      <trkpt lat="43.76048" lon="7.12713">
        <ele>552.9</ele>
        <time>2022-04-28T08:40:33Z</time>
      </trkpt>
      <trkpt lat="43.76048" lon="7.12713">
        <ele>544.24</ele>
        <time>2022-04-28T08:40:34Z</time>
      </trkpt>
      <trkpt lat="43.76048" lon="7.12714">
        <ele>553.38</ele>
        <time>2022-04-28T08:40:35Z</time>
      </trkpt>
      <trkpt lat="43.76048" lon="7.12714">
        <ele>545.2</ele>
        <time>2022-04-28T08:40:36Z</time>
      </trkpt>
      <trkpt lat="43.76047" lon="7.12715">
        <ele>549.53</ele>
        <time>2022-04-28T08:40:37Z</time>
      </trkpt>
      <trkpt lat="43.76047" lon="7.12716">
        <ele>544.24</ele>
        <time>2022-04-28T08:40:38Z</time>
      </trkpt>
      <trkpt lat="43.76047" lon="7.12717">
        <ele>549.05</ele>
        <time>2022-04-28T08:40:39Z</time>
      </trkpt>
      <trkpt lat="43.76047" lon="7.12716">
        <ele>543.76</ele>
        <time>2022-04-28T08:40:40Z</time>
      </trkpt>
      <trkpt lat="43.76047" lon="7.12717">
        <ele>552.9</ele>
        <time>2022-04-28T08:40:41Z</time>
      </trkpt>
      <trkpt lat="43.76046" lon="7.12717">
        <ele>544.24</ele>
        <time>2022-04-28T08:40:42Z</time>
      </trkpt>
      <trkpt lat="43.76046" lon="7.12718">
        <ele>549.05</ele>
        <time>2022-04-28T08:40:43Z</time>
      </trkpt>
      <trkpt lat="43.76045" lon="7.1272">
        <ele>545.69</ele>
        <time>2022-04-28T08:40:46Z</time>
      </trkpt>
      <trkpt lat="43.76045" lon="7.12721">
        <ele>548.57</ele>
        <time>2022-04-28T08:40:47Z</time>
      </trkpt>
      <trkpt lat="43.76044" lon="7.12723">
        <ele>554.82</ele>
        <time>2022-04-28T08:40:50Z</time>
      </trkpt>
      <trkpt lat="43.76044" lon="7.12724">
        <ele>548.09</ele>
        <time>2022-04-28T08:40:51Z</time>
      </trkpt>
      <trkpt lat="43.76044" lon="7.12728">
        <ele>550.97</ele>
        <time>2022-04-28T08:40:56Z</time>
      </trkpt>
      <trkpt lat="43.76043" lon="7.1273">
        <ele>547.61</ele>
        <time>2022-04-28T08:40:59Z</time>
      </trkpt>
      <trkpt lat="43.76043" lon="7.12729">
        <ele>533.19</ele>
        <time>2022-04-28T08:41:00Z</time>
      </trkpt>
      <trkpt lat="43.76043" lon="7.1273">
        <ele>552.9</ele>
        <time>2022-04-28T08:41:01Z</time>
      </trkpt>
      <trkpt lat="43.76042" lon="7.12729">
        <ele>568.28</ele>
        <time>2022-04-28T08:41:02Z</time>
      </trkpt>
      <trkpt lat="43.76042" lon="7.1273">
        <ele>551.93</ele>
        <time>2022-04-28T08:41:03Z</time>
      </trkpt>
      <trkpt lat="43.76043" lon="7.12732">
        <ele>556.26</ele>
        <time>2022-04-28T08:41:06Z</time>
      </trkpt>
      <trkpt lat="43.76043" lon="7.12734">
        <ele>550.97</ele>
        <time>2022-04-28T08:41:07Z</time>
      </trkpt>
      <trkpt lat="43.76044" lon="7.12734">
        <ele>556.26</ele>
        <time>2022-04-28T08:41:08Z</time>
      </trkpt>
      <trkpt lat="43.76045" lon="7.12734">
        <ele>549.53</ele>
        <time>2022-04-28T08:41:09Z</time>
      </trkpt>
      <trkpt lat="43.76045" lon="7.12734">
        <ele>554.34</ele>
        <time>2022-04-28T08:41:10Z</time>
      </trkpt>
      <trkpt lat="43.76046" lon="7.12734">
        <ele>548.09</ele>
        <time>2022-04-28T08:41:11Z</time>
      </trkpt>
      <trkpt lat="43.76047" lon="7.12734">
        <ele>552.9</ele>
        <time>2022-04-28T08:41:12Z</time>
      </trkpt>
      <trkpt lat="43.76051" lon="7.12736">
        <ele>560.59</ele>
        <time>2022-04-28T08:41:21Z</time>
      </trkpt>
      <trkpt lat="43.76052" lon="7.12735">
        <ele>548.57</ele>
        <time>2022-04-28T08:41:22Z</time>
      </trkpt>
      <trkpt lat="43.76053" lon="7.12735">
        <ele>557.7</ele>
        <time>2022-04-28T08:41:23Z</time>
      </trkpt>
      <trkpt lat="43.76053" lon="7.12735">
        <ele>552.9</ele>
        <time>2022-04-28T08:41:24Z</time>
      </trkpt>
      <trkpt lat="43.76053" lon="7.12735">
        <ele>557.7</ele>
        <time>2022-04-28T08:41:25Z</time>
      </trkpt>
      <trkpt lat="43.76054" lon="7.12736">
        <ele>554.34</ele>
        <time>2022-04-28T08:41:26Z</time>
      </trkpt>
      <trkpt lat="43.76051" lon="7.12737">
        <ele>557.22</ele>
        <time>2022-04-28T08:41:34Z</time>
      </trkpt>
      <trkpt lat="43.76049" lon="7.12739">
        <ele>549.53</ele>
        <time>2022-04-28T08:41:37Z</time>
      </trkpt>
      <trkpt lat="43.76049" lon="7.1274">
        <ele>557.22</ele>
        <time>2022-04-28T08:41:38Z</time>
      </trkpt>
      <trkpt lat="43.76049" lon="7.12743">
        <ele>561.07</ele>
        <time>2022-04-28T08:41:41Z</time>
      </trkpt>
      <trkpt lat="43.76048" lon="7.12744">
        <ele>551.45</ele>
        <time>2022-04-28T08:41:42Z</time>
      </trkpt>
      <trkpt lat="43.76048" lon="7.12745">
        <ele>556.74</ele>
        <time>2022-04-28T08:41:43Z</time>
      </trkpt>
      <trkpt lat="43.76043" lon="7.1275">
        <ele>561.07</ele>
        <time>2022-04-28T08:41:51Z</time>
      </trkpt>
      <trkpt lat="43.76043" lon="7.12751">
        <ele>553.86</ele>
        <time>2022-04-28T08:41:52Z</time>
      </trkpt>
      <trkpt lat="43.76043" lon="7.12752">
        <ele>560.59</ele>
        <time>2022-04-28T08:41:53Z</time>
      </trkpt>
      <trkpt lat="43.76044" lon="7.12753">
        <ele>551.45</ele>
        <time>2022-04-28T08:41:54Z</time>
      </trkpt>
      <trkpt lat="43.76044" lon="7.12753">
        <ele>560.59</ele>
        <time>2022-04-28T08:41:55Z</time>
      </trkpt>
      <trkpt lat="43.76049" lon="7.12754">
        <ele>552.41</ele>
        <time>2022-04-28T08:42:07Z</time>
      </trkpt>
      <trkpt lat="43.76049" lon="7.12754">
        <ele>561.55</ele>
        <time>2022-04-28T08:42:08Z</time>
      </trkpt>
      <trkpt lat="43.7605" lon="7.12754">
        <ele>557.7</ele>
        <time>2022-04-28T08:42:09Z</time>
      </trkpt>
      <trkpt lat="43.7605" lon="7.12754">
        <ele>560.59</ele>
        <time>2022-04-28T08:42:10Z</time>
      </trkpt>
      <trkpt lat="43.76052" lon="7.12754">
        <ele>562.51</ele>
        <time>2022-04-28T08:42:14Z</time>
      </trkpt>
      <trkpt lat="43.76053" lon="7.12754">
        <ele>556.74</ele>
        <time>2022-04-28T08:42:15Z</time>
      </trkpt>
      <trkpt lat="43.76053" lon="7.12755">
        <ele>562.03</ele>
        <time>2022-04-28T08:42:16Z</time>
      </trkpt>
      <trkpt lat="43.76054" lon="7.12754">
        <ele>556.74</ele>
        <time>2022-04-28T08:42:17Z</time>
      </trkpt>
      <trkpt lat="43.76054" lon="7.12753">
        <ele>562.03</ele>
        <time>2022-04-28T08:42:18Z</time>
      </trkpt>
      <trkpt lat="43.76055" lon="7.12753">
        <ele>565.87</ele>
        <time>2022-04-28T08:42:19Z</time>
      </trkpt>
      <trkpt lat="43.76055" lon="7.12752">
        <ele>557.7</ele>
        <time>2022-04-28T08:42:20Z</time>
      </trkpt>
      <trkpt lat="43.76056" lon="7.12752">
        <ele>561.55</ele>
        <time>2022-04-28T08:42:21Z</time>
      </trkpt>
      <trkpt lat="43.76059" lon="7.12752">
        <ele>564.91</ele>
        <time>2022-04-28T08:42:26Z</time>
      </trkpt>
      <trkpt lat="43.7606" lon="7.12751">
        <ele>558.66</ele>
        <time>2022-04-28T08:42:27Z</time>
      </trkpt>
      <trkpt lat="43.76061" lon="7.1275">
        <ele>563.47</ele>
        <time>2022-04-28T08:42:28Z</time>
      </trkpt>
      <trkpt lat="43.76061" lon="7.1275">
        <ele>564.43</ele>
        <time>2022-04-28T08:42:29Z</time>
      </trkpt>
      <trkpt lat="43.76063" lon="7.12747">
        <ele>560.11</ele>
        <time>2022-04-28T08:42:32Z</time>
      </trkpt>
      <trkpt lat="43.76064" lon="7.12747">
        <ele>563.95</ele>
        <time>2022-04-28T08:42:33Z</time>
      </trkpt>
      <trkpt lat="43.76066" lon="7.12745">
        <ele>568.28</ele>
        <time>2022-04-28T08:42:36Z</time>
      </trkpt>
      <trkpt lat="43.76066" lon="7.12745">
        <ele>563.47</ele>
        <time>2022-04-28T08:42:37Z</time>
      </trkpt>
      <trkpt lat="43.76067" lon="7.12745">
        <ele>567.32</ele>
        <time>2022-04-28T08:42:38Z</time>
      </trkpt>
      <trkpt lat="43.76067" lon="7.12745">
        <ele>561.07</ele>
        <time>2022-04-28T08:42:39Z</time>
      </trkpt>
      <trkpt lat="43.76068" lon="7.12745">
        <ele>565.87</ele>
        <time>2022-04-28T08:42:40Z</time>
      </trkpt>
      <trkpt lat="43.76068" lon="7.12745">
        <ele>562.99</ele>
        <time>2022-04-28T08:42:41Z</time>
      </trkpt>
      <trkpt lat="43.7607" lon="7.12743">
        <ele>566.35</ele>
        <time>2022-04-28T08:42:43Z</time>
      </trkpt>
      <trkpt lat="43.76074" lon="7.12745">
        <ele>568.28</ele>
        <time>2022-04-28T08:42:54Z</time>
      </trkpt>
      <trkpt lat="43.76077" lon="7.12746">
        <ele>563.95</ele>
        <time>2022-04-28T08:42:59Z</time>
      </trkpt>
      <trkpt lat="43.76077" lon="7.12745">
        <ele>583.66</ele>
        <time>2022-04-28T08:43:00Z</time>
      </trkpt>
      <trkpt lat="43.76077" lon="7.12744">
        <ele>565.87</ele>
        <time>2022-04-28T08:43:01Z</time>
      </trkpt>
      <trkpt lat="43.76078" lon="7.12744">
        <ele>569.72</ele>
        <time>2022-04-28T08:43:02Z</time>
      </trkpt>
      <trkpt lat="43.76078" lon="7.12743">
        <ele>565.39</ele>
        <time>2022-04-28T08:43:03Z</time>
      </trkpt>
      <trkpt lat="43.76078" lon="7.12743">
        <ele>568.28</ele>
        <time>2022-04-28T08:43:04Z</time>
      </trkpt>
      <trkpt lat="43.7608" lon="7.12741">
        <ele>572.6</ele>
        <time>2022-04-28T08:43:07Z</time>
      </trkpt>
      <trkpt lat="43.76081" lon="7.1274">
        <ele>564.91</ele>
        <time>2022-04-28T08:43:08Z</time>
      </trkpt>
      <trkpt lat="43.76081" lon="7.12739">
        <ele>569.72</ele>
        <time>2022-04-28T08:43:09Z</time>
      </trkpt>
      <trkpt lat="43.76083" lon="7.12736">
        <ele>566.83</ele>
        <time>2022-04-28T08:43:13Z</time>
      </trkpt>
      <trkpt lat="43.76084" lon="7.12736">
        <ele>571.64</ele>
        <time>2022-04-28T08:43:14Z</time>
      </trkpt>
      <trkpt lat="43.76085" lon="7.12735">
        <ele>567.32</ele>
        <time>2022-04-28T08:43:15Z</time>
      </trkpt>
      <trkpt lat="43.76087" lon="7.12734">
        <ele>572.12</ele>
        <time>2022-04-28T08:43:17Z</time>
      </trkpt>
      <trkpt lat="43.76087" lon="7.12733">
        <ele>567.32</ele>
        <time>2022-04-28T08:43:18Z</time>
      </trkpt>
      <trkpt lat="43.76088" lon="7.12733">
        <ele>571.64</ele>
        <time>2022-04-28T08:43:19Z</time>
      </trkpt>
      <trkpt lat="43.7609" lon="7.12731">
        <ele>575.01</ele>
        <time>2022-04-28T08:43:22Z</time>
      </trkpt>
      <trkpt lat="43.76091" lon="7.12731">
        <ele>568.76</ele>
        <time>2022-04-28T08:43:23Z</time>
      </trkpt>
      <trkpt lat="43.76092" lon="7.1273">
        <ele>572.6</ele>
        <time>2022-04-28T08:43:25Z</time>
      </trkpt>
      <trkpt lat="43.76093" lon="7.1273">
        <ele>567.8</ele>
        <time>2022-04-28T08:43:26Z</time>
      </trkpt>
      <trkpt lat="43.76094" lon="7.12729">
        <ele>572.12</ele>
        <time>2022-04-28T08:43:27Z</time>
      </trkpt>
      <trkpt lat="43.76099" lon="7.12728">
        <ele>574.53</ele>
        <time>2022-04-28T08:43:33Z</time>
      </trkpt>
      <trkpt lat="43.761" lon="7.12728">
        <ele>570.2</ele>
        <time>2022-04-28T08:43:34Z</time>
      </trkpt>
      <trkpt lat="43.76101" lon="7.12727">
        <ele>574.53</ele>
        <time>2022-04-28T08:43:35Z</time>
      </trkpt>
      <trkpt lat="43.76101" lon="7.12727">
        <ele>571.64</ele>
        <time>2022-04-28T08:43:36Z</time>
      </trkpt>
      <trkpt lat="43.76103" lon="7.12726">
        <ele>576.45</ele>
        <time>2022-04-28T08:43:38Z</time>
      </trkpt>
      <trkpt lat="43.76103" lon="7.12726">
        <ele>571.64</ele>
        <time>2022-04-28T08:43:39Z</time>
      </trkpt>
      <trkpt lat="43.76106" lon="7.12725">
        <ele>575.97</ele>
        <time>2022-04-28T08:43:43Z</time>
      </trkpt>
      <trkpt lat="43.76107" lon="7.12724">
        <ele>569.72</ele>
        <time>2022-04-28T08:43:44Z</time>
      </trkpt>
      <trkpt lat="43.76107" lon="7.12724">
        <ele>574.04</ele>
        <time>2022-04-28T08:43:45Z</time>
      </trkpt>
      <trkpt lat="43.7611" lon="7.12721">
        <ele>569.72</ele>
        <time>2022-04-28T08:43:49Z</time>
      </trkpt>
      <trkpt lat="43.7611" lon="7.12721">
        <ele>574.53</ele>
        <time>2022-04-28T08:43:50Z</time>
      </trkpt>
      <trkpt lat="43.76112" lon="7.12711">
        <ele>574.53</ele>
        <time>2022-04-28T08:44:01Z</time>
      </trkpt>
      <trkpt lat="43.76115" lon="7.12704">
        <ele>578.85</ele>
        <time>2022-04-28T08:44:07Z</time>
      </trkpt>
      <trkpt lat="43.76115" lon="7.12702">
        <ele>573.08</ele>
        <time>2022-04-28T08:44:08Z</time>
      </trkpt>
      <trkpt lat="43.76115" lon="7.127">
        <ele>577.41</ele>
        <time>2022-04-28T08:44:10Z</time>
      </trkpt>
      <trkpt lat="43.76115" lon="7.12699">
        <ele>572.6</ele>
        <time>2022-04-28T08:44:11Z</time>
      </trkpt>
      <trkpt lat="43.76115" lon="7.12696">
        <ele>576.93</ele>
        <time>2022-04-28T08:44:14Z</time>
      </trkpt>
      <trkpt lat="43.76116" lon="7.12695">
        <ele>573.08</ele>
        <time>2022-04-28T08:44:15Z</time>
      </trkpt>
      <trkpt lat="43.76117" lon="7.12693">
        <ele>576.45</ele>
        <time>2022-04-28T08:44:16Z</time>
      </trkpt>
      <trkpt lat="43.76118" lon="7.12689">
        <ele>572.12</ele>
        <time>2022-04-28T08:44:20Z</time>
      </trkpt>
      <trkpt lat="43.76119" lon="7.12689">
        <ele>575.97</ele>
        <time>2022-04-28T08:44:21Z</time>
      </trkpt>
      <trkpt lat="43.7612" lon="7.12678">
        <ele>575.97</ele>
        <time>2022-04-28T08:44:29Z</time>
      </trkpt>
      <trkpt lat="43.76121" lon="7.12669">
        <ele>579.33</ele>
        <time>2022-04-28T08:44:36Z</time>
      </trkpt>
      <trkpt lat="43.76122" lon="7.12668">
        <ele>574.04</ele>
        <time>2022-04-28T08:44:37Z</time>
      </trkpt>
      <trkpt lat="43.76122" lon="7.12665">
        <ele>579.81</ele>
        <time>2022-04-28T08:44:39Z</time>
      </trkpt>
      <trkpt lat="43.76122" lon="7.12663">
        <ele>573.56</ele>
        <time>2022-04-28T08:44:40Z</time>
      </trkpt>
      <trkpt lat="43.76123" lon="7.12662">
        <ele>577.89</ele>
        <time>2022-04-28T08:44:41Z</time>
      </trkpt>
      <trkpt lat="43.76122" lon="7.12656">
        <ele>577.41</ele>
        <time>2022-04-28T08:44:46Z</time>
      </trkpt>
      <trkpt lat="43.76122" lon="7.12654">
        <ele>581.25</ele>
        <time>2022-04-28T08:44:47Z</time>
      </trkpt>
      <trkpt lat="43.76122" lon="7.12653">
        <ele>574.04</ele>
        <time>2022-04-28T08:44:48Z</time>
      </trkpt>
      <trkpt lat="43.76121" lon="7.12652">
        <ele>578.85</ele>
        <time>2022-04-28T08:44:49Z</time>
      </trkpt>
      <trkpt lat="43.7612" lon="7.12647">
        <ele>581.25</ele>
        <time>2022-04-28T08:44:54Z</time>
      </trkpt>
      <trkpt lat="43.76119" lon="7.12646">
        <ele>577.89</ele>
        <time>2022-04-28T08:44:55Z</time>
      </trkpt>
      <trkpt lat="43.76119" lon="7.12645">
        <ele>577.89</ele>
        <time>2022-04-28T08:44:56Z</time>
      </trkpt>
      <trkpt lat="43.76118" lon="7.12643">
        <ele>581.73</ele>
        <time>2022-04-28T08:44:58Z</time>
      </trkpt>
      <trkpt lat="43.76117" lon="7.12642">
        <ele>576.45</ele>
        <time>2022-04-28T08:44:59Z</time>
      </trkpt>
      <trkpt lat="43.76117" lon="7.12641">
        <ele>579.33</ele>
        <time>2022-04-28T08:45:00Z</time>
      </trkpt>
      <trkpt lat="43.76116" lon="7.1264">
        <ele>580.77</ele>
        <time>2022-04-28T08:45:01Z</time>
      </trkpt>
      <trkpt lat="43.76115" lon="7.12639">
        <ele>575.97</ele>
        <time>2022-04-28T08:45:02Z</time>
      </trkpt>
      <trkpt lat="43.76115" lon="7.12638">
        <ele>579.33</ele>
        <time>2022-04-28T08:45:03Z</time>
      </trkpt>
      <trkpt lat="43.76114" lon="7.12637">
        <ele>581.25</ele>
        <time>2022-04-28T08:45:04Z</time>
      </trkpt>
      <trkpt lat="43.76114" lon="7.12635">
        <ele>575.97</ele>
        <time>2022-04-28T08:45:05Z</time>
      </trkpt>
      <trkpt lat="43.76114" lon="7.12634">
        <ele>579.81</ele>
        <time>2022-04-28T08:45:06Z</time>
      </trkpt>
      <trkpt lat="43.76113" lon="7.12633">
        <ele>575.97</ele>
        <time>2022-04-28T08:45:07Z</time>
      </trkpt>
      <trkpt lat="43.76113" lon="7.12632">
        <ele>580.29</ele>
        <time>2022-04-28T08:45:08Z</time>
      </trkpt>
      <trkpt lat="43.76114" lon="7.12627">
        <ele>583.66</ele>
        <time>2022-04-28T08:45:14Z</time>
      </trkpt>
      <trkpt lat="43.76115" lon="7.12626">
        <ele>579.81</ele>
        <time>2022-04-28T08:45:15Z</time>
      </trkpt>
      <trkpt lat="43.76117" lon="7.12625">
        <ele>580.77</ele>
        <time>2022-04-28T08:45:30Z</time>
      </trkpt>
      <trkpt lat="43.76114" lon="7.12626">
        <ele>580.29</ele>
        <time>2022-04-28T08:45:47Z</time>
      </trkpt>
      <trkpt lat="43.76112" lon="7.12623">
        <ele>576.93</ele>
        <time>2022-04-28T08:45:57Z</time>
      </trkpt>
      <trkpt lat="43.76112" lon="7.12623">
        <ele>576.45</ele>
        <time>2022-04-28T08:45:58Z</time>
      </trkpt>
      <trkpt lat="43.76112" lon="7.12623">
        <ele>585.1</ele>
        <time>2022-04-28T08:45:59Z</time>
      </trkpt>
      <trkpt lat="43.76112" lon="7.12623">
        <ele>580.77</ele>
        <time>2022-04-28T08:46:00Z</time>
      </trkpt>
      <trkpt lat="43.76113" lon="7.12624">
        <ele>575.97</ele>
        <time>2022-04-28T08:46:03Z</time>
      </trkpt>
      <trkpt lat="43.76113" lon="7.12624">
        <ele>580.77</ele>
        <time>2022-04-28T08:46:04Z</time>
      </trkpt>
      <trkpt lat="43.76112" lon="7.12624">
        <ele>575.01</ele>
        <time>2022-04-28T08:46:06Z</time>
      </trkpt>
      <trkpt lat="43.76112" lon="7.12624">
        <ele>582.22</ele>
        <time>2022-04-28T08:46:07Z</time>
      </trkpt>
      <trkpt lat="43.76109" lon="7.12627">
        <ele>580.77</ele>
        <time>2022-04-28T08:46:46Z</time>
      </trkpt>
      <trkpt lat="43.76109" lon="7.12627">
        <ele>585.58</ele>
        <time>2022-04-28T08:46:48Z</time>
      </trkpt>
      <trkpt lat="43.76109" lon="7.12627">
        <ele>579.81</ele>
        <time>2022-04-28T08:46:49Z</time>
      </trkpt>
      <trkpt lat="43.76108" lon="7.12627">
        <ele>580.77</ele>
        <time>2022-04-28T08:46:53Z</time>
      </trkpt>
      <trkpt lat="43.76108" lon="7.12628">
        <ele>581.73</ele>
        <time>2022-04-28T08:47:23Z</time>
      </trkpt>
      <trkpt lat="43.76111" lon="7.12626">
        <ele>581.73</ele>
        <time>2022-04-28T08:47:59Z</time>
      </trkpt>
      <trkpt lat="43.76109" lon="7.12626">
        <ele>581.73</ele>
        <time>2022-04-28T08:48:39Z</time>
      </trkpt>
      <trkpt lat="43.7611" lon="7.12626">
        <ele>582.22</ele>
        <time>2022-04-28T08:49:18Z</time>
      </trkpt>
      <trkpt lat="43.76111" lon="7.12628">
        <ele>582.7</ele>
        <time>2022-04-28T08:49:58Z</time>
      </trkpt>
      <trkpt lat="43.7611" lon="7.12624">
        <ele>583.18</ele>
        <time>2022-04-28T08:50:29Z</time>
      </trkpt>
      <trkpt lat="43.76111" lon="7.12628">
        <ele>581.25</ele>
        <time>2022-04-28T08:50:41Z</time>
      </trkpt>
      <trkpt lat="43.76111" lon="7.12628">
        <ele>585.1</ele>
        <time>2022-04-28T08:50:42Z</time>
      </trkpt>
      <trkpt lat="43.7611" lon="7.12628">
        <ele>583.66</ele>
        <time>2022-04-28T08:50:43Z</time>
      </trkpt>
      <trkpt lat="43.76111" lon="7.12626">
        <ele>580.77</ele>
        <time>2022-04-28T08:51:04Z</time>
      </trkpt>
      <trkpt lat="43.7611" lon="7.12627">
        <ele>583.66</ele>
        <time>2022-04-28T08:51:05Z</time>
      </trkpt>
      <trkpt lat="43.76108" lon="7.12627">
        <ele>583.66</ele>
        <time>2022-04-28T08:51:27Z</time>
      </trkpt>
      <trkpt lat="43.76109" lon="7.12626">
        <ele>584.14</ele>
        <time>2022-04-28T08:51:53Z</time>
      </trkpt>
      <trkpt lat="43.76107" lon="7.12624">
        <ele>584.62</ele>
        <time>2022-04-28T08:52:11Z</time>
      </trkpt>
      <trkpt lat="43.76111" lon="7.12628">
        <ele>585.1</ele>
        <time>2022-04-28T08:52:37Z</time>
      </trkpt>
      <trkpt lat="43.7611" lon="7.12626">
        <ele>586.06</ele>
        <time>2022-04-28T08:52:53Z</time>
      </trkpt>
      <trkpt lat="43.76111" lon="7.12625">
        <ele>582.7</ele>
        <time>2022-04-28T08:53:01Z</time>
      </trkpt>
      <trkpt lat="43.76111" lon="7.12625">
        <ele>585.58</ele>
        <time>2022-04-28T08:53:02Z</time>
      </trkpt>
      <trkpt lat="43.76112" lon="7.12625">
        <ele>582.7</ele>
        <time>2022-04-28T08:53:09Z</time>
      </trkpt>
      <trkpt lat="43.76112" lon="7.12625">
        <ele>587.02</ele>
        <time>2022-04-28T08:53:10Z</time>
      </trkpt>
      <trkpt lat="43.76112" lon="7.12625">
        <ele>587.02</ele>
        <time>2022-04-28T08:53:11Z</time>
      </trkpt>
      <trkpt lat="43.76111" lon="7.12624">
        <ele>585.58</ele>
        <time>2022-04-28T08:53:13Z</time>
      </trkpt>
      <trkpt lat="43.76111" lon="7.12622">
        <ele>581.73</ele>
        <time>2022-04-28T08:53:40Z</time>
      </trkpt>
      <trkpt lat="43.76111" lon="7.12622">
        <ele>585.58</ele>
        <time>2022-04-28T08:53:41Z</time>
      </trkpt>
      <trkpt lat="43.7611" lon="7.12627">
        <ele>589.91</ele>
        <time>2022-04-28T08:54:15Z</time>
      </trkpt>
      <trkpt lat="43.7611" lon="7.12627">
        <ele>585.58</ele>
        <time>2022-04-28T08:54:16Z</time>
      </trkpt>
      <trkpt lat="43.7611" lon="7.12626">
        <ele>584.62</ele>
        <time>2022-04-28T08:54:52Z</time>
      </trkpt>
      <trkpt lat="43.7611" lon="7.12626">
        <ele>586.06</ele>
        <time>2022-04-28T08:54:55Z</time>
      </trkpt>
      <trkpt lat="43.7611" lon="7.12623">
        <ele>586.06</ele>
        <time>2022-04-28T08:55:27Z</time>
      </trkpt>
      <trkpt lat="43.7611" lon="7.12626">
        <ele>583.18</ele>
        <time>2022-04-28T08:55:45Z</time>
      </trkpt>
      <trkpt lat="43.7611" lon="7.12626">
        <ele>587.98</ele>
        <time>2022-04-28T08:55:46Z</time>
      </trkpt>
      <trkpt lat="43.76106" lon="7.12628">
        <ele>586.06</ele>
        <time>2022-04-28T08:56:32Z</time>
      </trkpt>
      <trkpt lat="43.76109" lon="7.12627">
        <ele>586.54</ele>
        <time>2022-04-28T08:57:14Z</time>
      </trkpt>
      <trkpt lat="43.76109" lon="7.12627">
        <ele>586.54</ele>
        <time>2022-04-28T08:57:39Z</time>
      </trkpt>
      <trkpt lat="43.76109" lon="7.12625">
        <ele>586.54</ele>
        <time>2022-04-28T08:58:08Z</time>
      </trkpt>
      <trkpt lat="43.7611" lon="7.12628">
        <ele>587.02</ele>
        <time>2022-04-28T08:58:41Z</time>
      </trkpt>
      <trkpt lat="43.76111" lon="7.12628">
        <ele>582.22</ele>
        <time>2022-04-28T08:58:49Z</time>
      </trkpt>
      <trkpt lat="43.76111" lon="7.12628">
        <ele>600.96</ele>
        <time>2022-04-28T08:58:50Z</time>
      </trkpt>
      <trkpt lat="43.76111" lon="7.12628">
        <ele>587.5</ele>
        <time>2022-04-28T08:58:51Z</time>
      </trkpt>
      <trkpt lat="43.76111" lon="7.12629">
        <ele>587.02</ele>
        <time>2022-04-28T08:58:58Z</time>
      </trkpt>
      <trkpt lat="43.76109" lon="7.12634">
        <ele>587.5</ele>
        <time>2022-04-28T08:59:10Z</time>
      </trkpt>
      <trkpt lat="43.76112" lon="7.12633">
        <ele>586.06</ele>
        <time>2022-04-28T08:59:28Z</time>
      </trkpt>
      <trkpt lat="43.76112" lon="7.12634">
        <ele>589.91</ele>
        <time>2022-04-28T08:59:42Z</time>
      </trkpt>
      <trkpt lat="43.76112" lon="7.12634">
        <ele>587.02</ele>
        <time>2022-04-28T08:59:44Z</time>
      </trkpt>
      <trkpt lat="43.76113" lon="7.12628">
        <ele>587.98</ele>
        <time>2022-04-28T09:00:02Z</time>
      </trkpt>
      <trkpt lat="43.76114" lon="7.12626">
        <ele>586.54</ele>
        <time>2022-04-28T09:00:28Z</time>
      </trkpt>
      <trkpt lat="43.76113" lon="7.12625">
        <ele>587.5</ele>
        <time>2022-04-28T09:00:48Z</time>
      </trkpt>
      <trkpt lat="43.76114" lon="7.12625">
        <ele>573.08</ele>
        <time>2022-04-28T09:00:54Z</time>
      </trkpt>
      <trkpt lat="43.76114" lon="7.12625">
        <ele>607.21</ele>
        <time>2022-04-28T09:00:55Z</time>
      </trkpt>
      <trkpt lat="43.76114" lon="7.12625">
        <ele>588.46</ele>
        <time>2022-04-28T09:00:56Z</time>
      </trkpt>
      <trkpt lat="43.76115" lon="7.12624">
        <ele>584.14</ele>
        <time>2022-04-28T09:00:58Z</time>
      </trkpt>
      <trkpt lat="43.76116" lon="7.12623">
        <ele>587.5</ele>
        <time>2022-04-28T09:00:59Z</time>
      </trkpt>
      <trkpt lat="43.76117" lon="7.12622">
        <ele>586.54</ele>
        <time>2022-04-28T09:01:00Z</time>
      </trkpt>
      <trkpt lat="43.76117" lon="7.12616">
        <ele>587.5</ele>
        <time>2022-04-28T09:01:05Z</time>
      </trkpt>
      <trkpt lat="43.76121" lon="7.1261">
        <ele>587.98</ele>
        <time>2022-04-28T09:01:12Z</time>
      </trkpt>
      <trkpt lat="43.76127" lon="7.12606">
        <ele>587.5</ele>
        <time>2022-04-28T09:01:23Z</time>
      </trkpt>
      <trkpt lat="43.76131" lon="7.12604">
        <ele>589.43</ele>
        <time>2022-04-28T09:01:28Z</time>
      </trkpt>
      <trkpt lat="43.76138" lon="7.12598">
        <ele>587.98</ele>
        <time>2022-04-28T09:01:38Z</time>
      </trkpt>
      <trkpt lat="43.76143" lon="7.12591">
        <ele>587.5</ele>
        <time>2022-04-28T09:01:49Z</time>
      </trkpt>
      <trkpt lat="43.76144" lon="7.12595">
        <ele>587.02</ele>
        <time>2022-04-28T09:02:19Z</time>
      </trkpt>
      <trkpt lat="43.76144" lon="7.12589">
        <ele>583.18</ele>
        <time>2022-04-28T09:02:47Z</time>
      </trkpt>
      <trkpt lat="43.76143" lon="7.12588">
        <ele>587.98</ele>
        <time>2022-04-28T09:02:48Z</time>
      </trkpt>
      <trkpt lat="43.76139" lon="7.12581">
        <ele>585.58</ele>
        <time>2022-04-28T09:03:00Z</time>
      </trkpt>
      <trkpt lat="43.76139" lon="7.1258">
        <ele>591.35</ele>
        <time>2022-04-28T09:03:02Z</time>
      </trkpt>
      <trkpt lat="43.76138" lon="7.12579">
        <ele>585.1</ele>
        <time>2022-04-28T09:03:03Z</time>
      </trkpt>
      <trkpt lat="43.76138" lon="7.12579">
        <ele>588.95</ele>
        <time>2022-04-28T09:03:04Z</time>
      </trkpt>
      <trkpt lat="43.76137" lon="7.12577">
        <ele>591.83</ele>
        <time>2022-04-28T09:03:07Z</time>
      </trkpt>
      <trkpt lat="43.76137" lon="7.12576">
        <ele>587.98</ele>
        <time>2022-04-28T09:03:08Z</time>
      </trkpt>
      <trkpt lat="43.76136" lon="7.12575">
        <ele>591.35</ele>
        <time>2022-04-28T09:03:10Z</time>
      </trkpt>
      <trkpt lat="43.76135" lon="7.12572">
        <ele>587.02</ele>
        <time>2022-04-28T09:03:13Z</time>
      </trkpt>
      <trkpt lat="43.76136" lon="7.12572">
        <ele>591.35</ele>
        <time>2022-04-28T09:03:14Z</time>
      </trkpt>
      <trkpt lat="43.76138" lon="7.12572">
        <ele>587.98</ele>
        <time>2022-04-28T09:03:18Z</time>
      </trkpt>
      <trkpt lat="43.76138" lon="7.12572">
        <ele>594.71</ele>
        <time>2022-04-28T09:03:19Z</time>
      </trkpt>
      <trkpt lat="43.76138" lon="7.12572">
        <ele>605.29</ele>
        <time>2022-04-28T09:03:20Z</time>
      </trkpt>
      <trkpt lat="43.76139" lon="7.12572">
        <ele>591.83</ele>
        <time>2022-04-28T09:03:21Z</time>
      </trkpt>
      <trkpt lat="43.7614" lon="7.12572">
        <ele>589.43</ele>
        <time>2022-04-28T09:03:23Z</time>
      </trkpt>
      <trkpt lat="43.76141" lon="7.12572">
        <ele>592.79</ele>
        <time>2022-04-28T09:03:25Z</time>
      </trkpt>
      <trkpt lat="43.76148" lon="7.12577">
        <ele>591.83</ele>
        <time>2022-04-28T09:03:36Z</time>
      </trkpt>
      <trkpt lat="43.76149" lon="7.12579">
        <ele>597.6</ele>
        <time>2022-04-28T09:03:38Z</time>
      </trkpt>
      <trkpt lat="43.7615" lon="7.12579">
        <ele>593.27</ele>
        <time>2022-04-28T09:03:39Z</time>
      </trkpt>
      <trkpt lat="43.76151" lon="7.12579">
        <ele>589.91</ele>
        <time>2022-04-28T09:03:41Z</time>
      </trkpt>
      <trkpt lat="43.76152" lon="7.1258">
        <ele>594.71</ele>
        <time>2022-04-28T09:03:42Z</time>
      </trkpt>
      <trkpt lat="43.76154" lon="7.12582">
        <ele>596.64</ele>
        <time>2022-04-28T09:03:45Z</time>
      </trkpt>
      <trkpt lat="43.76156" lon="7.12583">
        <ele>592.79</ele>
        <time>2022-04-28T09:03:48Z</time>
      </trkpt>
      <trkpt lat="43.76157" lon="7.12585">
        <ele>596.64</ele>
        <time>2022-04-28T09:03:51Z</time>
      </trkpt>
      <trkpt lat="43.76159" lon="7.12586">
        <ele>592.31</ele>
        <time>2022-04-28T09:03:55Z</time>
      </trkpt>
      <trkpt lat="43.7616" lon="7.12587">
        <ele>597.6</ele>
        <time>2022-04-28T09:03:56Z</time>
      </trkpt>
      <trkpt lat="43.76161" lon="7.12587">
        <ele>593.75</ele>
        <time>2022-04-28T09:03:57Z</time>
      </trkpt>
      <trkpt lat="43.76162" lon="7.12588">
        <ele>597.6</ele>
        <time>2022-04-28T09:03:58Z</time>
      </trkpt>
      <trkpt lat="43.76165" lon="7.12589">
        <ele>593.27</ele>
        <time>2022-04-28T09:04:04Z</time>
      </trkpt>
      <trkpt lat="43.76165" lon="7.12588">
        <ele>600</ele>
        <time>2022-04-28T09:04:05Z</time>
      </trkpt>
      <trkpt lat="43.76165" lon="7.12587">
        <ele>594.23</ele>
        <time>2022-04-28T09:04:06Z</time>
      </trkpt>
      <trkpt lat="43.76166" lon="7.12586">
        <ele>588.95</ele>
        <time>2022-04-28T09:04:08Z</time>
      </trkpt>
      <trkpt lat="43.76167" lon="7.12584">
        <ele>601.44</ele>
        <time>2022-04-28T09:04:09Z</time>
      </trkpt>
      <trkpt lat="43.76167" lon="7.12584">
        <ele>593.27</ele>
        <time>2022-04-28T09:04:10Z</time>
      </trkpt>
      <trkpt lat="43.76166" lon="7.12583">
        <ele>600</ele>
        <time>2022-04-28T09:04:11Z</time>
      </trkpt>
      <trkpt lat="43.76165" lon="7.1258">
        <ele>603.36</ele>
        <time>2022-04-28T09:04:16Z</time>
      </trkpt>
      <trkpt lat="43.76164" lon="7.12579">
        <ele>598.56</ele>
        <time>2022-04-28T09:04:17Z</time>
      </trkpt>
      <trkpt lat="43.76164" lon="7.12575">
        <ele>594.71</ele>
        <time>2022-04-28T09:04:21Z</time>
      </trkpt>
      <trkpt lat="43.76164" lon="7.12574">
        <ele>600</ele>
        <time>2022-04-28T09:04:22Z</time>
      </trkpt>
      <trkpt lat="43.76164" lon="7.12574">
        <ele>597.12</ele>
        <time>2022-04-28T09:04:23Z</time>
      </trkpt>
      <trkpt lat="43.76163" lon="7.12573">
        <ele>600.48</ele>
        <time>2022-04-28T09:04:24Z</time>
      </trkpt>
      <trkpt lat="43.7616" lon="7.1257">
        <ele>597.12</ele>
        <time>2022-04-28T09:04:29Z</time>
      </trkpt>
      <trkpt lat="43.7616" lon="7.12569">
        <ele>602.4</ele>
        <time>2022-04-28T09:04:30Z</time>
      </trkpt>
      <trkpt lat="43.76159" lon="7.12561">
        <ele>603.36</ele>
        <time>2022-04-28T09:04:45Z</time>
      </trkpt>
      <trkpt lat="43.76159" lon="7.1256">
        <ele>599.52</ele>
        <time>2022-04-28T09:04:46Z</time>
      </trkpt>
      <trkpt lat="43.76159" lon="7.12559">
        <ele>603.85</ele>
        <time>2022-04-28T09:04:47Z</time>
      </trkpt>
      <trkpt lat="43.76158" lon="7.12557">
        <ele>609.13</ele>
        <time>2022-04-28T09:04:50Z</time>
      </trkpt>
      <trkpt lat="43.76158" lon="7.12557">
        <ele>602.4</ele>
        <time>2022-04-28T09:04:51Z</time>
      </trkpt>
      <trkpt lat="43.76158" lon="7.12556">
        <ele>606.25</ele>
        <time>2022-04-28T09:04:52Z</time>
      </trkpt>
      <trkpt lat="43.76157" lon="7.12555">
        <ele>600.96</ele>
        <time>2022-04-28T09:04:53Z</time>
      </trkpt>
      <trkpt lat="43.76157" lon="7.12554">
        <ele>606.73</ele>
        <time>2022-04-28T09:04:54Z</time>
      </trkpt>
      <trkpt lat="43.76157" lon="7.12553">
        <ele>601.44</ele>
        <time>2022-04-28T09:04:55Z</time>
      </trkpt>
      <trkpt lat="43.76157" lon="7.12552">
        <ele>605.77</ele>
        <time>2022-04-28T09:04:56Z</time>
      </trkpt>
      <trkpt lat="43.76157" lon="7.12551">
        <ele>602.4</ele>
        <time>2022-04-28T09:04:57Z</time>
      </trkpt>
      <trkpt lat="43.76157" lon="7.1255">
        <ele>605.29</ele>
        <time>2022-04-28T09:04:58Z</time>
      </trkpt>
      <trkpt lat="43.76156" lon="7.12548">
        <ele>608.65</ele>
        <time>2022-04-28T09:05:03Z</time>
      </trkpt>
      <trkpt lat="43.76156" lon="7.12548">
        <ele>606.25</ele>
        <time>2022-04-28T09:05:04Z</time>
      </trkpt>
      <trkpt lat="43.76157" lon="7.12548">
        <ele>604.81</ele>
        <time>2022-04-28T09:05:08Z</time>
      </trkpt>
      <trkpt lat="43.76159" lon="7.12545">
        <ele>613.46</ele>
        <time>2022-04-28T09:05:16Z</time>
      </trkpt>
      <trkpt lat="43.76159" lon="7.12544">
        <ele>610.57</ele>
        <time>2022-04-28T09:05:17Z</time>
      </trkpt>
      <trkpt lat="43.7616" lon="7.12544">
        <ele>607.21</ele>
        <time>2022-04-28T09:05:19Z</time>
      </trkpt>
      <trkpt lat="43.7616" lon="7.12544">
        <ele>609.61</ele>
        <time>2022-04-28T09:05:24Z</time>
      </trkpt>
      <trkpt lat="43.76161" lon="7.12543">
        <ele>606.73</ele>
        <time>2022-04-28T09:05:26Z</time>
      </trkpt>
      <trkpt lat="43.7616" lon="7.12541">
        <ele>610.09</ele>
        <time>2022-04-28T09:05:30Z</time>
      </trkpt>
      <trkpt lat="43.76161" lon="7.1254">
        <ele>601.92</ele>
        <time>2022-04-28T09:05:32Z</time>
      </trkpt>
      <trkpt lat="43.76161" lon="7.12541">
        <ele>612.02</ele>
        <time>2022-04-28T09:05:33Z</time>
      </trkpt>
      <trkpt lat="43.7616" lon="7.12542">
        <ele>610.09</ele>
        <time>2022-04-28T09:05:42Z</time>
      </trkpt>
      <trkpt lat="43.76161" lon="7.1254">
        <ele>604.33</ele>
        <time>2022-04-28T09:05:44Z</time>
      </trkpt>
      <trkpt lat="43.7616" lon="7.12539">
        <ele>611.06</ele>
        <time>2022-04-28T09:05:45Z</time>
      </trkpt>
      <trkpt lat="43.7616" lon="7.12538">
        <ele>611.54</ele>
        <time>2022-04-28T09:05:46Z</time>
      </trkpt>
      <trkpt lat="43.76159" lon="7.12535">
        <ele>607.69</ele>
        <time>2022-04-28T09:05:55Z</time>
      </trkpt>
      <trkpt lat="43.76159" lon="7.12534">
        <ele>614.9</ele>
        <time>2022-04-28T09:05:56Z</time>
      </trkpt>
      <trkpt lat="43.76159" lon="7.12534">
        <ele>609.13</ele>
        <time>2022-04-28T09:05:57Z</time>
      </trkpt>
      <trkpt lat="43.76159" lon="7.12532">
        <ele>606.25</ele>
        <time>2022-04-28T09:05:59Z</time>
      </trkpt>
      <trkpt lat="43.76159" lon="7.12531">
        <ele>613.94</ele>
        <time>2022-04-28T09:06:00Z</time>
      </trkpt>
      <trkpt lat="43.76159" lon="7.12531">
        <ele>612.98</ele>
        <time>2022-04-28T09:06:01Z</time>
      </trkpt>
      <trkpt lat="43.7616" lon="7.12529">
        <ele>616.82</ele>
        <time>2022-04-28T09:06:04Z</time>
      </trkpt>
      <trkpt lat="43.7616" lon="7.12528">
        <ele>613.46</ele>
        <time>2022-04-28T09:06:05Z</time>
      </trkpt>
      <trkpt lat="43.7616" lon="7.12528">
        <ele>617.3</ele>
        <time>2022-04-28T09:06:06Z</time>
      </trkpt>
      <trkpt lat="43.7616" lon="7.12527">
        <ele>612.5</ele>
        <time>2022-04-28T09:06:07Z</time>
      </trkpt>
      <trkpt lat="43.76159" lon="7.12523">
        <ele>617.3</ele>
        <time>2022-04-28T09:06:12Z</time>
      </trkpt>
      <trkpt lat="43.76158" lon="7.12523">
        <ele>612.5</ele>
        <time>2022-04-28T09:06:13Z</time>
      </trkpt>
      <trkpt lat="43.76158" lon="7.12522">
        <ele>616.34</ele>
        <time>2022-04-28T09:06:14Z</time>
      </trkpt>
      <trkpt lat="43.76159" lon="7.12519">
        <ele>602.88</ele>
        <time>2022-04-28T09:06:19Z</time>
      </trkpt>
      <trkpt lat="43.76159" lon="7.12519">
        <ele>628.84</ele>
        <time>2022-04-28T09:06:20Z</time>
      </trkpt>
      <trkpt lat="43.76159" lon="7.12519">
        <ele>607.21</ele>
        <time>2022-04-28T09:06:21Z</time>
      </trkpt>
      <trkpt lat="43.76158" lon="7.12519">
        <ele>624.51</ele>
        <time>2022-04-28T09:06:22Z</time>
      </trkpt>
      <trkpt lat="43.76158" lon="7.12519">
        <ele>614.9</ele>
        <time>2022-04-28T09:06:23Z</time>
      </trkpt>
      <trkpt lat="43.76158" lon="7.12513">
        <ele>622.11</ele>
        <time>2022-04-28T09:06:30Z</time>
      </trkpt>
      <trkpt lat="43.76158" lon="7.12513">
        <ele>613.94</ele>
        <time>2022-04-28T09:06:31Z</time>
      </trkpt>
      <trkpt lat="43.76158" lon="7.12513">
        <ele>622.11</ele>
        <time>2022-04-28T09:06:32Z</time>
      </trkpt>
      <trkpt lat="43.76158" lon="7.12513">
        <ele>613.94</ele>
        <time>2022-04-28T09:06:33Z</time>
      </trkpt>
      <trkpt lat="43.76158" lon="7.12512">
        <ele>618.26</ele>
        <time>2022-04-28T09:06:34Z</time>
      </trkpt>
      <trkpt lat="43.76157" lon="7.12512">
        <ele>604.33</ele>
        <time>2022-04-28T09:06:36Z</time>
      </trkpt>
      <trkpt lat="43.76157" lon="7.12511">
        <ele>611.06</ele>
        <time>2022-04-28T09:06:37Z</time>
      </trkpt>
      <trkpt lat="43.76156" lon="7.12511">
        <ele>618.75</ele>
        <time>2022-04-28T09:06:38Z</time>
      </trkpt>
      <trkpt lat="43.76154" lon="7.1251">
        <ele>614.9</ele>
        <time>2022-04-28T09:06:42Z</time>
      </trkpt>
      <trkpt lat="43.76153" lon="7.1251">
        <ele>620.67</ele>
        <time>2022-04-28T09:06:43Z</time>
      </trkpt>
      <trkpt lat="43.76153" lon="7.1251">
        <ele>613.94</ele>
        <time>2022-04-28T09:06:44Z</time>
      </trkpt>
      <trkpt lat="43.76152" lon="7.12509">
        <ele>619.71</ele>
        <time>2022-04-28T09:06:45Z</time>
      </trkpt>
      <trkpt lat="43.7615" lon="7.12507">
        <ele>622.59</ele>
        <time>2022-04-28T09:06:48Z</time>
      </trkpt>
      <trkpt lat="43.7615" lon="7.12507">
        <ele>617.3</ele>
        <time>2022-04-28T09:06:49Z</time>
      </trkpt>
      <trkpt lat="43.76149" lon="7.12506">
        <ele>620.67</ele>
        <time>2022-04-28T09:06:50Z</time>
      </trkpt>
      <trkpt lat="43.76146" lon="7.12504">
        <ele>621.15</ele>
        <time>2022-04-28T09:06:54Z</time>
      </trkpt>
      <trkpt lat="43.76146" lon="7.12504">
        <ele>625.47</ele>
        <time>2022-04-28T09:06:55Z</time>
      </trkpt>
      <trkpt lat="43.76145" lon="7.12503">
        <ele>617.78</ele>
        <time>2022-04-28T09:06:56Z</time>
      </trkpt>
      <trkpt lat="43.76145" lon="7.12503">
        <ele>622.11</ele>
        <time>2022-04-28T09:06:57Z</time>
      </trkpt>
      <trkpt lat="43.76143" lon="7.125">
        <ele>625.47</ele>
        <time>2022-04-28T09:07:01Z</time>
      </trkpt>
      <trkpt lat="43.76142" lon="7.125">
        <ele>618.75</ele>
        <time>2022-04-28T09:07:02Z</time>
      </trkpt>
      <trkpt lat="43.76142" lon="7.12499">
        <ele>619.23</ele>
        <time>2022-04-28T09:07:03Z</time>
      </trkpt>
      <trkpt lat="43.76141" lon="7.12499">
        <ele>619.23</ele>
        <time>2022-04-28T09:07:04Z</time>
      </trkpt>
      <trkpt lat="43.76141" lon="7.12498">
        <ele>622.11</ele>
        <time>2022-04-28T09:07:05Z</time>
      </trkpt>
      <trkpt lat="43.76139" lon="7.12496">
        <ele>625.96</ele>
        <time>2022-04-28T09:07:08Z</time>
      </trkpt>
      <trkpt lat="43.76139" lon="7.12496">
        <ele>618.26</ele>
        <time>2022-04-28T09:07:09Z</time>
      </trkpt>
      <trkpt lat="43.76138" lon="7.12495">
        <ele>622.59</ele>
        <time>2022-04-28T09:07:10Z</time>
      </trkpt>
      <trkpt lat="43.76134" lon="7.1249">
        <ele>618.75</ele>
        <time>2022-04-28T09:07:20Z</time>
      </trkpt>
      <trkpt lat="43.76133" lon="7.12489">
        <ele>624.03</ele>
        <time>2022-04-28T09:07:21Z</time>
      </trkpt>
      <trkpt lat="43.76133" lon="7.12488">
        <ele>620.19</ele>
        <time>2022-04-28T09:07:22Z</time>
      </trkpt>
      <trkpt lat="43.76133" lon="7.12488">
        <ele>624.99</ele>
        <time>2022-04-28T09:07:23Z</time>
      </trkpt>
      <trkpt lat="43.76133" lon="7.12486">
        <ele>624.99</ele>
        <time>2022-04-28T09:07:27Z</time>
      </trkpt>
      <trkpt lat="43.76132" lon="7.12484">
        <ele>629.32</ele>
        <time>2022-04-28T09:07:30Z</time>
      </trkpt>
      <trkpt lat="43.76132" lon="7.12484">
        <ele>625.47</ele>
        <time>2022-04-28T09:07:31Z</time>
      </trkpt>
      <trkpt lat="43.76131" lon="7.12483">
        <ele>630.28</ele>
        <time>2022-04-28T09:07:32Z</time>
      </trkpt>
      <trkpt lat="43.76131" lon="7.12483">
        <ele>623.55</ele>
        <time>2022-04-28T09:07:33Z</time>
      </trkpt>
      <trkpt lat="43.76132" lon="7.12483">
        <ele>630.28</ele>
        <time>2022-04-28T09:07:34Z</time>
      </trkpt>
      <trkpt lat="43.76131" lon="7.12483">
        <ele>625.47</ele>
        <time>2022-04-28T09:07:35Z</time>
      </trkpt>
      <trkpt lat="43.76132" lon="7.12482">
        <ele>626.92</ele>
        <time>2022-04-28T09:07:40Z</time>
      </trkpt>
      <trkpt lat="43.76132" lon="7.12479">
        <ele>623.07</ele>
        <time>2022-04-28T09:07:43Z</time>
      </trkpt>
      <trkpt lat="43.76132" lon="7.12479">
        <ele>630.76</ele>
        <time>2022-04-28T09:07:44Z</time>
      </trkpt>
      <trkpt lat="43.76132" lon="7.12478">
        <ele>624.03</ele>
        <time>2022-04-28T09:07:45Z</time>
      </trkpt>
      <trkpt lat="43.76132" lon="7.12478">
        <ele>633.17</ele>
        <time>2022-04-28T09:07:46Z</time>
      </trkpt>
      <trkpt lat="43.76132" lon="7.12477">
        <ele>626.92</ele>
        <time>2022-04-28T09:07:47Z</time>
      </trkpt>
      <trkpt lat="43.76131" lon="7.12476">
        <ele>631.72</ele>
        <time>2022-04-28T09:07:48Z</time>
      </trkpt>
      <trkpt lat="43.76131" lon="7.12476">
        <ele>627.88</ele>
        <time>2022-04-28T09:07:49Z</time>
      </trkpt>
      <trkpt lat="43.76131" lon="7.12475">
        <ele>632.68</ele>
        <time>2022-04-28T09:07:50Z</time>
      </trkpt>
      <trkpt lat="43.76131" lon="7.12475">
        <ele>625.47</ele>
        <time>2022-04-28T09:07:51Z</time>
      </trkpt>
      <trkpt lat="43.76131" lon="7.12474">
        <ele>630.28</ele>
        <time>2022-04-28T09:07:52Z</time>
      </trkpt>
      <trkpt lat="43.76131" lon="7.12474">
        <ele>626.44</ele>
        <time>2022-04-28T09:07:53Z</time>
      </trkpt>
      <trkpt lat="43.7613" lon="7.12474">
        <ele>630.28</ele>
        <time>2022-04-28T09:07:54Z</time>
      </trkpt>
      <trkpt lat="43.7613" lon="7.12472">
        <ele>635.09</ele>
        <time>2022-04-28T09:07:56Z</time>
      </trkpt>
      <trkpt lat="43.7613" lon="7.12471">
        <ele>628.36</ele>
        <time>2022-04-28T09:07:57Z</time>
      </trkpt>
      <trkpt lat="43.7613" lon="7.12471">
        <ele>637.49</ele>
        <time>2022-04-28T09:07:58Z</time>
      </trkpt>
      <trkpt lat="43.7613" lon="7.1247">
        <ele>627.88</ele>
        <time>2022-04-28T09:07:59Z</time>
      </trkpt>
      <trkpt lat="43.76129" lon="7.1247">
        <ele>631.72</ele>
        <time>2022-04-28T09:08:00Z</time>
      </trkpt>
      <trkpt lat="43.76124" lon="7.12464">
        <ele>626.44</ele>
        <time>2022-04-28T09:08:12Z</time>
      </trkpt>
      <trkpt lat="43.76123" lon="7.12464">
        <ele>632.68</ele>
        <time>2022-04-28T09:08:13Z</time>
      </trkpt>
      <trkpt lat="43.76123" lon="7.12463">
        <ele>627.4</ele>
        <time>2022-04-28T09:08:14Z</time>
      </trkpt>
      <trkpt lat="43.76123" lon="7.12463">
        <ele>633.65</ele>
        <time>2022-04-28T09:08:15Z</time>
      </trkpt>
      <trkpt lat="43.76122" lon="7.12462">
        <ele>629.8</ele>
        <time>2022-04-28T09:08:16Z</time>
      </trkpt>
      <trkpt lat="43.76122" lon="7.12461">
        <ele>633.65</ele>
        <time>2022-04-28T09:08:17Z</time>
      </trkpt>
      <trkpt lat="43.76121" lon="7.12461">
        <ele>630.76</ele>
        <time>2022-04-28T09:08:18Z</time>
      </trkpt>
      <trkpt lat="43.76121" lon="7.12461">
        <ele>634.13</ele>
        <time>2022-04-28T09:08:19Z</time>
      </trkpt>
      <trkpt lat="43.76119" lon="7.12459">
        <ele>630.28</ele>
        <time>2022-04-28T09:08:24Z</time>
      </trkpt>
      <trkpt lat="43.76119" lon="7.12458">
        <ele>633.17</ele>
        <time>2022-04-28T09:08:25Z</time>
      </trkpt>
      <trkpt lat="43.76119" lon="7.12458">
        <ele>642.3</ele>
        <time>2022-04-28T09:08:29Z</time>
      </trkpt>
      <trkpt lat="43.7612" lon="7.12458">
        <ele>633.17</ele>
        <time>2022-04-28T09:08:30Z</time>
      </trkpt>
      <trkpt lat="43.7612" lon="7.12459">
        <ele>638.45</ele>
        <time>2022-04-28T09:08:31Z</time>
      </trkpt>
      <trkpt lat="43.76121" lon="7.1246">
        <ele>633.17</ele>
        <time>2022-04-28T09:08:32Z</time>
      </trkpt>
      <trkpt lat="43.76123" lon="7.12461">
        <ele>637.01</ele>
        <time>2022-04-28T09:08:35Z</time>
      </trkpt>
      <trkpt lat="43.76124" lon="7.12462">
        <ele>637.49</ele>
        <time>2022-04-28T09:08:36Z</time>
      </trkpt>
      <trkpt lat="43.76124" lon="7.12462">
        <ele>633.65</ele>
        <time>2022-04-28T09:08:37Z</time>
      </trkpt>
      <trkpt lat="43.76125" lon="7.12461">
        <ele>634.61</ele>
        <time>2022-04-28T09:08:38Z</time>
      </trkpt>
      <trkpt lat="43.76128" lon="7.1246">
        <ele>640.38</ele>
        <time>2022-04-28T09:08:45Z</time>
      </trkpt>
      <trkpt lat="43.76128" lon="7.1246">
        <ele>633.17</ele>
        <time>2022-04-28T09:08:46Z</time>
      </trkpt>
      <trkpt lat="43.76129" lon="7.1246">
        <ele>637.97</ele>
        <time>2022-04-28T09:08:47Z</time>
      </trkpt>
      <trkpt lat="43.76129" lon="7.1246">
        <ele>628.36</ele>
        <time>2022-04-28T09:08:48Z</time>
      </trkpt>
      <trkpt lat="43.76131" lon="7.12459">
        <ele>637.49</ele>
        <time>2022-04-28T09:08:49Z</time>
      </trkpt>
      <trkpt lat="43.76133" lon="7.12457">
        <ele>637.01</ele>
        <time>2022-04-28T09:09:04Z</time>
      </trkpt>
      <trkpt lat="43.76131" lon="7.12457">
        <ele>633.17</ele>
        <time>2022-04-28T09:09:15Z</time>
      </trkpt>
      <trkpt lat="43.76131" lon="7.12456">
        <ele>644.22</ele>
        <time>2022-04-28T09:09:16Z</time>
      </trkpt>
      <trkpt lat="43.76131" lon="7.12456">
        <ele>636.05</ele>
        <time>2022-04-28T09:09:17Z</time>
      </trkpt>
      <trkpt lat="43.76131" lon="7.12455">
        <ele>639.89</ele>
        <time>2022-04-28T09:09:18Z</time>
      </trkpt>
      <trkpt lat="43.7613" lon="7.12455">
        <ele>636.53</ele>
        <time>2022-04-28T09:09:19Z</time>
      </trkpt>
      <trkpt lat="43.76127" lon="7.12453">
        <ele>641.82</ele>
        <time>2022-04-28T09:09:25Z</time>
      </trkpt>
      <trkpt lat="43.76127" lon="7.12452">
        <ele>636.05</ele>
        <time>2022-04-28T09:09:26Z</time>
      </trkpt>
      <trkpt lat="43.76126" lon="7.12452">
        <ele>637.49</ele>
        <time>2022-04-28T09:09:39Z</time>
      </trkpt>
      <trkpt lat="43.76124" lon="7.12459">
        <ele>637.01</ele>
        <time>2022-04-28T09:10:02Z</time>
      </trkpt>
      <trkpt lat="43.76125" lon="7.12458">
        <ele>637.49</ele>
        <time>2022-04-28T09:10:24Z</time>
      </trkpt>
      <trkpt lat="43.76123" lon="7.12459">
        <ele>637.01</ele>
        <time>2022-04-28T09:10:44Z</time>
      </trkpt>
      <trkpt lat="43.76125" lon="7.12454">
        <ele>636.05</ele>
        <time>2022-04-28T09:11:06Z</time>
      </trkpt>
      <trkpt lat="43.76125" lon="7.12456">
        <ele>637.49</ele>
        <time>2022-04-28T09:11:36Z</time>
      </trkpt>
      <trkpt lat="43.76123" lon="7.12452">
        <ele>637.49</ele>
        <time>2022-04-28T09:12:08Z</time>
      </trkpt>
      <trkpt lat="43.76124" lon="7.12452">
        <ele>637.97</ele>
        <time>2022-04-28T09:12:29Z</time>
      </trkpt>
      <trkpt lat="43.76123" lon="7.1245">
        <ele>637.97</ele>
        <time>2022-04-28T09:12:55Z</time>
      </trkpt>
      <trkpt lat="43.76125" lon="7.12448">
        <ele>638.45</ele>
        <time>2022-04-28T09:13:27Z</time>
      </trkpt>
      <trkpt lat="43.76125" lon="7.12449">
        <ele>637.97</ele>
        <time>2022-04-28T09:13:44Z</time>
      </trkpt>
      <trkpt lat="43.76125" lon="7.12449">
        <ele>631.24</ele>
        <time>2022-04-28T09:13:45Z</time>
      </trkpt>
      <trkpt lat="43.76124" lon="7.12449">
        <ele>639.89</ele>
        <time>2022-04-28T09:13:46Z</time>
      </trkpt>
      <trkpt lat="43.76124" lon="7.12448">
        <ele>634.13</ele>
        <time>2022-04-28T09:13:47Z</time>
      </trkpt>
      <trkpt lat="43.76123" lon="7.12448">
        <ele>639.41</ele>
        <time>2022-04-28T09:13:48Z</time>
      </trkpt>
      <trkpt lat="43.7612" lon="7.12446">
        <ele>639.41</ele>
        <time>2022-04-28T09:13:52Z</time>
      </trkpt>
      <trkpt lat="43.76119" lon="7.12443">
        <ele>636.05</ele>
        <time>2022-04-28T09:13:56Z</time>
      </trkpt>
      <trkpt lat="43.76118" lon="7.12443">
        <ele>640.86</ele>
        <time>2022-04-28T09:13:57Z</time>
      </trkpt>
      <trkpt lat="43.76118" lon="7.12442">
        <ele>635.09</ele>
        <time>2022-04-28T09:13:58Z</time>
      </trkpt>
      <trkpt lat="43.76117" lon="7.12442">
        <ele>640.86</ele>
        <time>2022-04-28T09:13:59Z</time>
      </trkpt>
      <trkpt lat="43.76115" lon="7.12441">
        <ele>647.1</ele>
        <time>2022-04-28T09:14:02Z</time>
      </trkpt>
      <trkpt lat="43.76115" lon="7.1244">
        <ele>641.34</ele>
        <time>2022-04-28T09:14:03Z</time>
      </trkpt>
      <trkpt lat="43.76113" lon="7.12439">
        <ele>646.14</ele>
        <time>2022-04-28T09:14:06Z</time>
      </trkpt>
      <trkpt lat="43.76113" lon="7.12439">
        <ele>638.45</ele>
        <time>2022-04-28T09:14:07Z</time>
      </trkpt>
      <trkpt lat="43.76112" lon="7.12439">
        <ele>647.1</ele>
        <time>2022-04-28T09:14:08Z</time>
      </trkpt>
      <trkpt lat="43.76112" lon="7.12438">
        <ele>637.97</ele>
        <time>2022-04-28T09:14:09Z</time>
      </trkpt>
      <trkpt lat="43.76111" lon="7.12438">
        <ele>648.55</ele>
        <time>2022-04-28T09:14:10Z</time>
      </trkpt>
      <trkpt lat="43.76111" lon="7.12438">
        <ele>637.01</ele>
        <time>2022-04-28T09:14:11Z</time>
      </trkpt>
      <trkpt lat="43.7611" lon="7.12438">
        <ele>647.1</ele>
        <time>2022-04-28T09:14:12Z</time>
      </trkpt>
      <trkpt lat="43.7611" lon="7.12437">
        <ele>640.86</ele>
        <time>2022-04-28T09:14:13Z</time>
      </trkpt>
      <trkpt lat="43.76111" lon="7.12438">
        <ele>644.7</ele>
        <time>2022-04-28T09:14:18Z</time>
      </trkpt>
      <trkpt lat="43.76112" lon="7.12437">
        <ele>640.38</ele>
        <time>2022-04-28T09:14:19Z</time>
      </trkpt>
      <trkpt lat="43.76115" lon="7.12439">
        <ele>644.22</ele>
        <time>2022-04-28T09:14:24Z</time>
      </trkpt>
      <trkpt lat="43.76117" lon="7.12439">
        <ele>642.3</ele>
        <time>2022-04-28T09:14:27Z</time>
      </trkpt>
      <trkpt lat="43.7612" lon="7.12441">
        <ele>640.38</ele>
        <time>2022-04-28T09:14:31Z</time>
      </trkpt>
      <trkpt lat="43.7612" lon="7.12441">
        <ele>644.22</ele>
        <time>2022-04-28T09:14:32Z</time>
      </trkpt>
      <trkpt lat="43.7613" lon="7.12443">
        <ele>643.74</ele>
        <time>2022-04-28T09:14:44Z</time>
      </trkpt>
      <trkpt lat="43.76131" lon="7.12443">
        <ele>647.59</ele>
        <time>2022-04-28T09:14:45Z</time>
      </trkpt>
      <trkpt lat="43.76131" lon="7.12443">
        <ele>639.41</ele>
        <time>2022-04-28T09:14:46Z</time>
      </trkpt>
      <trkpt lat="43.76132" lon="7.12443">
        <ele>646.14</ele>
        <time>2022-04-28T09:14:47Z</time>
      </trkpt>
      <trkpt lat="43.76137" lon="7.12446">
        <ele>642.3</ele>
        <time>2022-04-28T09:15:02Z</time>
      </trkpt>
      <trkpt lat="43.76138" lon="7.12447">
        <ele>648.07</ele>
        <time>2022-04-28T09:15:03Z</time>
      </trkpt>
      <trkpt lat="43.76139" lon="7.12447">
        <ele>644.22</ele>
        <time>2022-04-28T09:15:04Z</time>
      </trkpt>
      <trkpt lat="43.7614" lon="7.12447">
        <ele>649.03</ele>
        <time>2022-04-28T09:15:06Z</time>
      </trkpt>
      <trkpt lat="43.76141" lon="7.12447">
        <ele>647.1</ele>
        <time>2022-04-28T09:15:07Z</time>
      </trkpt>
      <trkpt lat="43.76143" lon="7.12448">
        <ele>640.86</ele>
        <time>2022-04-28T09:15:11Z</time>
      </trkpt>
      <trkpt lat="43.76144" lon="7.12448">
        <ele>647.1</ele>
        <time>2022-04-28T09:15:12Z</time>
      </trkpt>
      <trkpt lat="43.76147" lon="7.12449">
        <ele>650.47</ele>
        <time>2022-04-28T09:15:15Z</time>
      </trkpt>
      <trkpt lat="43.76147" lon="7.12449">
        <ele>644.7</ele>
        <time>2022-04-28T09:15:16Z</time>
      </trkpt>
      <trkpt lat="43.76148" lon="7.12449">
        <ele>649.51</ele>
        <time>2022-04-28T09:15:17Z</time>
      </trkpt>
      <trkpt lat="43.76149" lon="7.12449">
        <ele>644.22</ele>
        <time>2022-04-28T09:15:18Z</time>
      </trkpt>
      <trkpt lat="43.76149" lon="7.12449">
        <ele>649.03</ele>
        <time>2022-04-28T09:15:19Z</time>
      </trkpt>
      <trkpt lat="43.7615" lon="7.12449">
        <ele>644.7</ele>
        <time>2022-04-28T09:15:20Z</time>
      </trkpt>
      <trkpt lat="43.7615" lon="7.12449">
        <ele>649.51</ele>
        <time>2022-04-28T09:15:21Z</time>
      </trkpt>
      <trkpt lat="43.76151" lon="7.12449">
        <ele>644.22</ele>
        <time>2022-04-28T09:15:22Z</time>
      </trkpt>
      <trkpt lat="43.76152" lon="7.12449">
        <ele>648.07</ele>
        <time>2022-04-28T09:15:23Z</time>
      </trkpt>
      <trkpt lat="43.76157" lon="7.12445">
        <ele>645.66</ele>
        <time>2022-04-28T09:15:34Z</time>
      </trkpt>
      <trkpt lat="43.76157" lon="7.12446">
        <ele>650.47</ele>
        <time>2022-04-28T09:15:35Z</time>
      </trkpt>
      <trkpt lat="43.76158" lon="7.12446">
        <ele>647.1</ele>
        <time>2022-04-28T09:15:36Z</time>
      </trkpt>
      <trkpt lat="43.76158" lon="7.12446">
        <ele>650.47</ele>
        <time>2022-04-28T09:15:37Z</time>
      </trkpt>
      <trkpt lat="43.76158" lon="7.12444">
        <ele>647.1</ele>
        <time>2022-04-28T09:15:41Z</time>
      </trkpt>
      <trkpt lat="43.76159" lon="7.12444">
        <ele>653.35</ele>
        <time>2022-04-28T09:15:42Z</time>
      </trkpt>
      <trkpt lat="43.7616" lon="7.12445">
        <ele>642.78</ele>
        <time>2022-04-28T09:15:43Z</time>
      </trkpt>
      <trkpt lat="43.76161" lon="7.12445">
        <ele>650.47</ele>
        <time>2022-04-28T09:15:44Z</time>
      </trkpt>
      <trkpt lat="43.76163" lon="7.12444">
        <ele>654.31</ele>
        <time>2022-04-28T09:15:49Z</time>
      </trkpt>
      <trkpt lat="43.76163" lon="7.12441">
        <ele>648.55</ele>
        <time>2022-04-28T09:15:52Z</time>
      </trkpt>
      <trkpt lat="43.76163" lon="7.1244">
        <ele>654.8</ele>
        <time>2022-04-28T09:15:53Z</time>
      </trkpt>
      <trkpt lat="43.76163" lon="7.1244">
        <ele>648.55</ele>
        <time>2022-04-28T09:15:54Z</time>
      </trkpt>
      <trkpt lat="43.76163" lon="7.1244">
        <ele>634.13</ele>
        <time>2022-04-28T09:15:55Z</time>
      </trkpt>
      <trkpt lat="43.76163" lon="7.1244">
        <ele>673.54</ele>
        <time>2022-04-28T09:15:56Z</time>
      </trkpt>
      <trkpt lat="43.76162" lon="7.12439">
        <ele>652.87</ele>
        <time>2022-04-28T09:15:57Z</time>
      </trkpt>
      <trkpt lat="43.76161" lon="7.12438">
        <ele>648.55</ele>
        <time>2022-04-28T09:15:59Z</time>
      </trkpt>
      <trkpt lat="43.76159" lon="7.12438">
        <ele>653.35</ele>
        <time>2022-04-28T09:16:01Z</time>
      </trkpt>
      <trkpt lat="43.76159" lon="7.12438">
        <ele>649.99</ele>
        <time>2022-04-28T09:16:02Z</time>
      </trkpt>
      <trkpt lat="43.76156" lon="7.12437">
        <ele>653.35</ele>
        <time>2022-04-28T09:16:07Z</time>
      </trkpt>
      <trkpt lat="43.76154" lon="7.12435">
        <ele>647.59</ele>
        <time>2022-04-28T09:16:10Z</time>
      </trkpt>
      <trkpt lat="43.76153" lon="7.12435">
        <ele>653.35</ele>
        <time>2022-04-28T09:16:11Z</time>
      </trkpt>
      <trkpt lat="43.76151" lon="7.12433">
        <ele>649.51</ele>
        <time>2022-04-28T09:16:15Z</time>
      </trkpt>
      <trkpt lat="43.7615" lon="7.12432">
        <ele>654.31</ele>
        <time>2022-04-28T09:16:16Z</time>
      </trkpt>
      <trkpt lat="43.7615" lon="7.12431">
        <ele>647.1</ele>
        <time>2022-04-28T09:16:17Z</time>
      </trkpt>
      <trkpt lat="43.7615" lon="7.1243">
        <ele>654.8</ele>
        <time>2022-04-28T09:16:18Z</time>
      </trkpt>
      <trkpt lat="43.76157" lon="7.1243">
        <ele>653.83</ele>
        <time>2022-04-28T09:16:30Z</time>
      </trkpt>
      <trkpt lat="43.76161" lon="7.12433">
        <ele>659.12</ele>
        <time>2022-04-28T09:16:36Z</time>
      </trkpt>
      <trkpt lat="43.76162" lon="7.12433">
        <ele>653.35</ele>
        <time>2022-04-28T09:16:37Z</time>
      </trkpt>
      <trkpt lat="43.76162" lon="7.12433">
        <ele>660.08</ele>
        <time>2022-04-28T09:16:38Z</time>
      </trkpt>
      <trkpt lat="43.76163" lon="7.12433">
        <ele>651.43</ele>
        <time>2022-04-28T09:16:39Z</time>
      </trkpt>
      <trkpt lat="43.76164" lon="7.12433">
        <ele>657.68</ele>
        <time>2022-04-28T09:16:40Z</time>
      </trkpt>
      <trkpt lat="43.76164" lon="7.12432">
        <ele>653.83</ele>
        <time>2022-04-28T09:16:41Z</time>
      </trkpt>
      <trkpt lat="43.76166" lon="7.12433">
        <ele>657.2</ele>
        <time>2022-04-28T09:16:44Z</time>
      </trkpt>
      <trkpt lat="43.76168" lon="7.12435">
        <ele>660.56</ele>
        <time>2022-04-28T09:16:47Z</time>
      </trkpt>
      <trkpt lat="43.76169" lon="7.12436">
        <ele>653.35</ele>
        <time>2022-04-28T09:16:48Z</time>
      </trkpt>
      <trkpt lat="43.7617" lon="7.12436">
        <ele>658.16</ele>
        <time>2022-04-28T09:16:49Z</time>
      </trkpt>
      <trkpt lat="43.76172" lon="7.12437">
        <ele>658.64</ele>
        <time>2022-04-28T09:16:53Z</time>
      </trkpt>
      <trkpt lat="43.76173" lon="7.12431">
        <ele>654.31</ele>
        <time>2022-04-28T09:17:05Z</time>
      </trkpt>
      <trkpt lat="43.76172" lon="7.12431">
        <ele>659.6</ele>
        <time>2022-04-28T09:17:06Z</time>
      </trkpt>
      <trkpt lat="43.7617" lon="7.12429">
        <ele>662.97</ele>
        <time>2022-04-28T09:17:09Z</time>
      </trkpt>
      <trkpt lat="43.76169" lon="7.12429">
        <ele>656.72</ele>
        <time>2022-04-28T09:17:10Z</time>
      </trkpt>
      <trkpt lat="43.76169" lon="7.12428">
        <ele>660.08</ele>
        <time>2022-04-28T09:17:13Z</time>
      </trkpt>
      <trkpt lat="43.76167" lon="7.12426">
        <ele>653.35</ele>
        <time>2022-04-28T09:17:16Z</time>
      </trkpt>
      <trkpt lat="43.76167" lon="7.12426">
        <ele>661.04</ele>
        <time>2022-04-28T09:17:17Z</time>
      </trkpt>
      <trkpt lat="43.76165" lon="7.12424">
        <ele>663.93</ele>
        <time>2022-04-28T09:17:20Z</time>
      </trkpt>
      <trkpt lat="43.76164" lon="7.12423">
        <ele>657.68</ele>
        <time>2022-04-28T09:17:21Z</time>
      </trkpt>
      <trkpt lat="43.76164" lon="7.12423">
        <ele>661.04</ele>
        <time>2022-04-28T09:17:22Z</time>
      </trkpt>
      <trkpt lat="43.76161" lon="7.12421">
        <ele>655.76</ele>
        <time>2022-04-28T09:17:26Z</time>
      </trkpt>
      <trkpt lat="43.76161" lon="7.12421">
        <ele>662.01</ele>
        <time>2022-04-28T09:17:27Z</time>
      </trkpt>
      <trkpt lat="43.7616" lon="7.1242">
        <ele>658.64</ele>
        <time>2022-04-28T09:17:28Z</time>
      </trkpt>
      <trkpt lat="43.76159" lon="7.12419">
        <ele>662.01</ele>
        <time>2022-04-28T09:17:29Z</time>
      </trkpt>
      <trkpt lat="43.76157" lon="7.12418">
        <ele>665.37</ele>
        <time>2022-04-28T09:17:32Z</time>
      </trkpt>
      <trkpt lat="43.76157" lon="7.12417">
        <ele>661.52</ele>
        <time>2022-04-28T09:17:33Z</time>
      </trkpt>
      <trkpt lat="43.76156" lon="7.12417">
        <ele>667.29</ele>
        <time>2022-04-28T09:17:34Z</time>
      </trkpt>
      <trkpt lat="43.76156" lon="7.12416">
        <ele>661.04</ele>
        <time>2022-04-28T09:17:35Z</time>
      </trkpt>
      <trkpt lat="43.76155" lon="7.12416">
        <ele>663.93</ele>
        <time>2022-04-28T09:17:36Z</time>
      </trkpt>
      <trkpt lat="43.7615" lon="7.12415">
        <ele>659.6</ele>
        <time>2022-04-28T09:17:42Z</time>
      </trkpt>
      <trkpt lat="43.76149" lon="7.12414">
        <ele>664.41</ele>
        <time>2022-04-28T09:17:43Z</time>
      </trkpt>
      <trkpt lat="43.76147" lon="7.12414">
        <ele>668.25</ele>
        <time>2022-04-28T09:17:46Z</time>
      </trkpt>
      <trkpt lat="43.76146" lon="7.12414">
        <ele>661.52</ele>
        <time>2022-04-28T09:17:47Z</time>
      </trkpt>
      <trkpt lat="43.76146" lon="7.12413">
        <ele>665.85</ele>
        <time>2022-04-28T09:17:48Z</time>
      </trkpt>
      <trkpt lat="43.76145" lon="7.12413">
        <ele>659.6</ele>
        <time>2022-04-28T09:17:49Z</time>
      </trkpt>
      <trkpt lat="43.76145" lon="7.12413">
        <ele>664.89</ele>
        <time>2022-04-28T09:17:50Z</time>
      </trkpt>
      <trkpt lat="43.76146" lon="7.12409">
        <ele>670.18</ele>
        <time>2022-04-28T09:17:57Z</time>
      </trkpt>
      <trkpt lat="43.76146" lon="7.12408">
        <ele>666.81</ele>
        <time>2022-04-28T09:17:58Z</time>
      </trkpt>
      <trkpt lat="43.76146" lon="7.12408">
        <ele>658.64</ele>
        <time>2022-04-28T09:18:00Z</time>
      </trkpt>
      <trkpt lat="43.76147" lon="7.12408">
        <ele>666.81</ele>
        <time>2022-04-28T09:18:01Z</time>
      </trkpt>
      <trkpt lat="43.76147" lon="7.12408">
        <ele>662.97</ele>
        <time>2022-04-28T09:18:02Z</time>
      </trkpt>
      <trkpt lat="43.76148" lon="7.12408">
        <ele>665.85</ele>
        <time>2022-04-28T09:18:03Z</time>
      </trkpt>
      <trkpt lat="43.7615" lon="7.12406">
        <ele>668.73</ele>
        <time>2022-04-28T09:18:08Z</time>
      </trkpt>
      <trkpt lat="43.76151" lon="7.12406">
        <ele>662.97</ele>
        <time>2022-04-28T09:18:09Z</time>
      </trkpt>
      <trkpt lat="43.76152" lon="7.12406">
        <ele>667.29</ele>
        <time>2022-04-28T09:18:10Z</time>
      </trkpt>
      <trkpt lat="43.76155" lon="7.12407">
        <ele>663.93</ele>
        <time>2022-04-28T09:18:16Z</time>
      </trkpt>
      <trkpt lat="43.76156" lon="7.12407">
        <ele>667.29</ele>
        <time>2022-04-28T09:18:17Z</time>
      </trkpt>
      <trkpt lat="43.76158" lon="7.12407">
        <ele>662.97</ele>
        <time>2022-04-28T09:18:19Z</time>
      </trkpt>
      <trkpt lat="43.76159" lon="7.12407">
        <ele>667.77</ele>
        <time>2022-04-28T09:18:20Z</time>
      </trkpt>
      <trkpt lat="43.76162" lon="7.12407">
        <ele>663.45</ele>
        <time>2022-04-28T09:18:24Z</time>
      </trkpt>
      <trkpt lat="43.76163" lon="7.12407">
        <ele>667.29</ele>
        <time>2022-04-28T09:18:25Z</time>
      </trkpt>
      <trkpt lat="43.76164" lon="7.12408">
        <ele>671.62</ele>
        <time>2022-04-28T09:18:26Z</time>
      </trkpt>
      <trkpt lat="43.76164" lon="7.12408">
        <ele>665.85</ele>
        <time>2022-04-28T09:18:27Z</time>
      </trkpt>
      <trkpt lat="43.76165" lon="7.12408">
        <ele>670.18</ele>
        <time>2022-04-28T09:18:28Z</time>
      </trkpt>
      <trkpt lat="43.76165" lon="7.12408">
        <ele>666.81</ele>
        <time>2022-04-28T09:18:31Z</time>
      </trkpt>
      <trkpt lat="43.76168" lon="7.12409">
        <ele>671.14</ele>
        <time>2022-04-28T09:18:35Z</time>
      </trkpt>
      <trkpt lat="43.76171" lon="7.12408">
        <ele>667.29</ele>
        <time>2022-04-28T09:18:39Z</time>
      </trkpt>
      <trkpt lat="43.76173" lon="7.12407">
        <ele>675.94</ele>
        <time>2022-04-28T09:18:43Z</time>
      </trkpt>
      <trkpt lat="43.76173" lon="7.12407">
        <ele>670.18</ele>
        <time>2022-04-28T09:18:44Z</time>
      </trkpt>
      <trkpt lat="43.76174" lon="7.12407">
        <ele>666.81</ele>
        <time>2022-04-28T09:18:45Z</time>
      </trkpt>
      <trkpt lat="43.76174" lon="7.12407">
        <ele>671.14</ele>
        <time>2022-04-28T09:18:46Z</time>
      </trkpt>
      <trkpt lat="43.7618" lon="7.12409">
        <ele>675.46</ele>
        <time>2022-04-28T09:18:55Z</time>
      </trkpt>
      <trkpt lat="43.7618" lon="7.12409">
        <ele>667.29</ele>
        <time>2022-04-28T09:18:56Z</time>
      </trkpt>
      <trkpt lat="43.76181" lon="7.12409">
        <ele>673.54</ele>
        <time>2022-04-28T09:18:57Z</time>
      </trkpt>
      <trkpt lat="43.7618" lon="7.1241">
        <ele>643.26</ele>
        <time>2022-04-28T09:18:58Z</time>
      </trkpt>
      <trkpt lat="43.7618" lon="7.1241">
        <ele>687.48</ele>
        <time>2022-04-28T09:18:59Z</time>
      </trkpt>
      <trkpt lat="43.7618" lon="7.12409">
        <ele>671.62</ele>
        <time>2022-04-28T09:19:00Z</time>
      </trkpt>
      <trkpt lat="43.76181" lon="7.12409">
        <ele>668.25</ele>
        <time>2022-04-28T09:19:01Z</time>
      </trkpt>
      <trkpt lat="43.76182" lon="7.1241">
        <ele>673.54</ele>
        <time>2022-04-28T09:19:02Z</time>
      </trkpt>
      <trkpt lat="43.76182" lon="7.1241">
        <ele>666.81</ele>
        <time>2022-04-28T09:19:03Z</time>
      </trkpt>
      <trkpt lat="43.76182" lon="7.1241">
        <ele>673.06</ele>
        <time>2022-04-28T09:19:04Z</time>
      </trkpt>
      <trkpt lat="43.76183" lon="7.12411">
        <ele>669.22</ele>
        <time>2022-04-28T09:19:05Z</time>
      </trkpt>
      <trkpt lat="43.76183" lon="7.12411">
        <ele>674.5</ele>
        <time>2022-04-28T09:19:06Z</time>
      </trkpt>
      <trkpt lat="43.76184" lon="7.12412">
        <ele>668.25</ele>
        <time>2022-04-28T09:19:07Z</time>
      </trkpt>
      <trkpt lat="43.76185" lon="7.12412">
        <ele>673.06</ele>
        <time>2022-04-28T09:19:08Z</time>
      </trkpt>
      <trkpt lat="43.76188" lon="7.12413">
        <ele>679.31</ele>
        <time>2022-04-28T09:19:13Z</time>
      </trkpt>
      <trkpt lat="43.76188" lon="7.12413">
        <ele>665.85</ele>
        <time>2022-04-28T09:19:14Z</time>
      </trkpt>
      <trkpt lat="43.76189" lon="7.12413">
        <ele>676.42</ele>
        <time>2022-04-28T09:19:15Z</time>
      </trkpt>
      <trkpt lat="43.76189" lon="7.12414">
        <ele>667.77</ele>
        <time>2022-04-28T09:19:16Z</time>
      </trkpt>
      <trkpt lat="43.7619" lon="7.12413">
        <ele>674.02</ele>
        <time>2022-04-28T09:19:17Z</time>
      </trkpt>
      <trkpt lat="43.76193" lon="7.12415">
        <ele>678.83</ele>
        <time>2022-04-28T09:19:22Z</time>
      </trkpt>
      <trkpt lat="43.76194" lon="7.12414">
        <ele>672.1</ele>
        <time>2022-04-28T09:19:23Z</time>
      </trkpt>
      <trkpt lat="43.76195" lon="7.12414">
        <ele>678.35</ele>
        <time>2022-04-28T09:19:24Z</time>
      </trkpt>
      <trkpt lat="43.76195" lon="7.12414">
        <ele>674.5</ele>
        <time>2022-04-28T09:19:25Z</time>
      </trkpt>
      <trkpt lat="43.76196" lon="7.12415">
        <ele>671.14</ele>
        <time>2022-04-28T09:19:27Z</time>
      </trkpt>
      <trkpt lat="43.76197" lon="7.12416">
        <ele>675.94</ele>
        <time>2022-04-28T09:19:28Z</time>
      </trkpt>
      <trkpt lat="43.76201" lon="7.12416">
        <ele>676.91</ele>
        <time>2022-04-28T09:19:42Z</time>
      </trkpt>
      <trkpt lat="43.76206" lon="7.12416">
        <ele>673.06</ele>
        <time>2022-04-28T09:19:51Z</time>
      </trkpt>
      <trkpt lat="43.76206" lon="7.12416">
        <ele>676.91</ele>
        <time>2022-04-28T09:19:52Z</time>
      </trkpt>
      <trkpt lat="43.76211" lon="7.12422">
        <ele>680.27</ele>
        <time>2022-04-28T09:20:03Z</time>
      </trkpt>
      <trkpt lat="43.76211" lon="7.12423">
        <ele>674.02</ele>
        <time>2022-04-28T09:20:04Z</time>
      </trkpt>
      <trkpt lat="43.76212" lon="7.12423">
        <ele>679.31</ele>
        <time>2022-04-28T09:20:05Z</time>
      </trkpt>
      <trkpt lat="43.76213" lon="7.12423">
        <ele>673.54</ele>
        <time>2022-04-28T09:20:06Z</time>
      </trkpt>
      <trkpt lat="43.76213" lon="7.12424">
        <ele>678.35</ele>
        <time>2022-04-28T09:20:07Z</time>
      </trkpt>
      <trkpt lat="43.76214" lon="7.12429">
        <ele>674.5</ele>
        <time>2022-04-28T09:20:18Z</time>
      </trkpt>
      <trkpt lat="43.76214" lon="7.12428">
        <ele>683.15</ele>
        <time>2022-04-28T09:20:19Z</time>
      </trkpt>
      <trkpt lat="43.76215" lon="7.12429">
        <ele>676.91</ele>
        <time>2022-04-28T09:20:20Z</time>
      </trkpt>
      <trkpt lat="43.76215" lon="7.12429">
        <ele>680.27</ele>
        <time>2022-04-28T09:20:23Z</time>
      </trkpt>
      <trkpt lat="43.76216" lon="7.12427">
        <ele>679.31</ele>
        <time>2022-04-28T09:20:45Z</time>
      </trkpt>
      <trkpt lat="43.76213" lon="7.12427">
        <ele>675.46</ele>
        <time>2022-04-28T09:21:01Z</time>
      </trkpt>
      <trkpt lat="43.76214" lon="7.12426">
        <ele>681.71</ele>
        <time>2022-04-28T09:21:02Z</time>
      </trkpt>
      <trkpt lat="43.76215" lon="7.12427">
        <ele>676.42</ele>
        <time>2022-04-28T09:21:04Z</time>
      </trkpt>
      <trkpt lat="43.76216" lon="7.12428">
        <ele>679.79</ele>
        <time>2022-04-28T09:21:05Z</time>
      </trkpt>
      <trkpt lat="43.76217" lon="7.12428">
        <ele>676.91</ele>
        <time>2022-04-28T09:21:06Z</time>
      </trkpt>
      <trkpt lat="43.76218" lon="7.12429">
        <ele>680.75</ele>
        <time>2022-04-28T09:21:07Z</time>
      </trkpt>
      <trkpt lat="43.76219" lon="7.12429">
        <ele>679.79</ele>
        <time>2022-04-28T09:21:11Z</time>
      </trkpt>
      <trkpt lat="43.76223" lon="7.1243">
        <ele>683.15</ele>
        <time>2022-04-28T09:21:29Z</time>
      </trkpt>
      <trkpt lat="43.76223" lon="7.1243">
        <ele>678.83</ele>
        <time>2022-04-28T09:21:30Z</time>
      </trkpt>
      <trkpt lat="43.76229" lon="7.12432">
        <ele>682.19</ele>
        <time>2022-04-28T09:21:41Z</time>
      </trkpt>
      <trkpt lat="43.7623" lon="7.12428">
        <ele>687</ele>
        <time>2022-04-28T09:21:48Z</time>
      </trkpt>
      <trkpt lat="43.76229" lon="7.12427">
        <ele>681.23</ele>
        <time>2022-04-28T09:21:49Z</time>
      </trkpt>
      <trkpt lat="43.76228" lon="7.12426">
        <ele>677.87</ele>
        <time>2022-04-28T09:21:51Z</time>
      </trkpt>
      <trkpt lat="43.76228" lon="7.12425">
        <ele>684.6</ele>
        <time>2022-04-28T09:21:52Z</time>
      </trkpt>
      <trkpt lat="43.76226" lon="7.12421">
        <ele>680.75</ele>
        <time>2022-04-28T09:21:59Z</time>
      </trkpt>
      <trkpt lat="43.76227" lon="7.1242">
        <ele>685.56</ele>
        <time>2022-04-28T09:22:00Z</time>
      </trkpt>
      <trkpt lat="43.76229" lon="7.12419">
        <ele>681.23</ele>
        <time>2022-04-28T09:22:05Z</time>
      </trkpt>
      <trkpt lat="43.76229" lon="7.12418">
        <ele>686.04</ele>
        <time>2022-04-28T09:22:06Z</time>
      </trkpt>
      <trkpt lat="43.76231" lon="7.12419">
        <ele>689.4</ele>
        <time>2022-04-28T09:22:09Z</time>
      </trkpt>
      <trkpt lat="43.76231" lon="7.12419">
        <ele>682.67</ele>
        <time>2022-04-28T09:22:10Z</time>
      </trkpt>
      <trkpt lat="43.76232" lon="7.12419">
        <ele>692.29</ele>
        <time>2022-04-28T09:22:11Z</time>
      </trkpt>
      <trkpt lat="43.76232" lon="7.12418">
        <ele>686.04</ele>
        <time>2022-04-28T09:22:12Z</time>
      </trkpt>
      <trkpt lat="43.76235" lon="7.12416">
        <ele>689.4</ele>
        <time>2022-04-28T09:22:17Z</time>
      </trkpt>
      <trkpt lat="43.76235" lon="7.12416">
        <ele>684.6</ele>
        <time>2022-04-28T09:22:18Z</time>
      </trkpt>
      <trkpt lat="43.76236" lon="7.12415">
        <ele>689.4</ele>
        <time>2022-04-28T09:22:19Z</time>
      </trkpt>
      <trkpt lat="43.76235" lon="7.12412">
        <ele>686.04</ele>
        <time>2022-04-28T09:22:31Z</time>
      </trkpt>
      <trkpt lat="43.76235" lon="7.1241">
        <ele>690.36</ele>
        <time>2022-04-28T09:22:34Z</time>
      </trkpt>
      <trkpt lat="43.76236" lon="7.12409">
        <ele>687</ele>
        <time>2022-04-28T09:22:35Z</time>
      </trkpt>
      <trkpt lat="43.76237" lon="7.12402">
        <ele>689.88</ele>
        <time>2022-04-28T09:22:44Z</time>
      </trkpt>
      <trkpt lat="43.76237" lon="7.12402">
        <ele>686.04</ele>
        <time>2022-04-28T09:22:45Z</time>
      </trkpt>
      <trkpt lat="43.76236" lon="7.12399">
        <ele>688.92</ele>
        <time>2022-04-28T09:22:47Z</time>
      </trkpt>
      <trkpt lat="43.76235" lon="7.12392">
        <ele>688.44</ele>
        <time>2022-04-28T09:22:53Z</time>
      </trkpt>
      <trkpt lat="43.76229" lon="7.12379">
        <ele>689.4</ele>
        <time>2022-04-28T09:23:05Z</time>
      </trkpt>
      <trkpt lat="43.76228" lon="7.12378">
        <ele>686.04</ele>
        <time>2022-04-28T09:23:06Z</time>
      </trkpt>
      <trkpt lat="43.76228" lon="7.12377">
        <ele>688.92</ele>
        <time>2022-04-28T09:23:07Z</time>
      </trkpt>
      <trkpt lat="43.76223" lon="7.12375">
        <ele>692.77</ele>
        <time>2022-04-28T09:23:13Z</time>
      </trkpt>
      <trkpt lat="43.76222" lon="7.12374">
        <ele>686.04</ele>
        <time>2022-04-28T09:23:14Z</time>
      </trkpt>
      <trkpt lat="43.76221" lon="7.12373">
        <ele>689.88</ele>
        <time>2022-04-28T09:23:17Z</time>
      </trkpt>
      <trkpt lat="43.76217" lon="7.12369">
        <ele>693.73</ele>
        <time>2022-04-28T09:23:24Z</time>
      </trkpt>
      <trkpt lat="43.76216" lon="7.12368">
        <ele>689.4</ele>
        <time>2022-04-28T09:23:25Z</time>
      </trkpt>
      <trkpt lat="43.76216" lon="7.12368">
        <ele>693.25</ele>
        <time>2022-04-28T09:23:26Z</time>
      </trkpt>
      <trkpt lat="43.76215" lon="7.12368">
        <ele>689.4</ele>
        <time>2022-04-28T09:23:27Z</time>
      </trkpt>
      <trkpt lat="43.76214" lon="7.12367">
        <ele>693.73</ele>
        <time>2022-04-28T09:23:28Z</time>
      </trkpt>
      <trkpt lat="43.76213" lon="7.12366">
        <ele>688.44</ele>
        <time>2022-04-28T09:23:29Z</time>
      </trkpt>
      <trkpt lat="43.76212" lon="7.12365">
        <ele>692.77</ele>
        <time>2022-04-28T09:23:31Z</time>
      </trkpt>
      <trkpt lat="43.76211" lon="7.12365">
        <ele>687.48</ele>
        <time>2022-04-28T09:23:32Z</time>
      </trkpt>
      <trkpt lat="43.7621" lon="7.12365">
        <ele>691.33</ele>
        <time>2022-04-28T09:23:33Z</time>
      </trkpt>
      <trkpt lat="43.76207" lon="7.12362">
        <ele>690.84</ele>
        <time>2022-04-28T09:23:47Z</time>
      </trkpt>
      <trkpt lat="43.76207" lon="7.12362">
        <ele>694.69</ele>
        <time>2022-04-28T09:23:48Z</time>
      </trkpt>
      <trkpt lat="43.76207" lon="7.12361">
        <ele>689.88</ele>
        <time>2022-04-28T09:23:49Z</time>
      </trkpt>
      <trkpt lat="43.76208" lon="7.12361">
        <ele>700.94</ele>
        <time>2022-04-28T09:23:50Z</time>
      </trkpt>
      <trkpt lat="43.76208" lon="7.1236">
        <ele>692.77</ele>
        <time>2022-04-28T09:23:51Z</time>
      </trkpt>
      <trkpt lat="43.76208" lon="7.12359">
        <ele>688.92</ele>
        <time>2022-04-28T09:23:55Z</time>
      </trkpt>
      <trkpt lat="43.76208" lon="7.12359">
        <ele>698.05</ele>
        <time>2022-04-28T09:23:56Z</time>
      </trkpt>
      <trkpt lat="43.76208" lon="7.12358">
        <ele>692.77</ele>
        <time>2022-04-28T09:23:57Z</time>
      </trkpt>
      <trkpt lat="43.76208" lon="7.12355">
        <ele>688.92</ele>
        <time>2022-04-28T09:24:04Z</time>
      </trkpt>
      <trkpt lat="43.76207" lon="7.12354">
        <ele>693.25</ele>
        <time>2022-04-28T09:24:05Z</time>
      </trkpt>
      <trkpt lat="43.76207" lon="7.12353">
        <ele>697.57</ele>
        <time>2022-04-28T09:24:06Z</time>
      </trkpt>
      <trkpt lat="43.76207" lon="7.12353">
        <ele>692.77</ele>
        <time>2022-04-28T09:24:07Z</time>
      </trkpt>
      <trkpt lat="43.76208" lon="7.12352">
        <ele>697.57</ele>
        <time>2022-04-28T09:24:08Z</time>
      </trkpt>
      <trkpt lat="43.76208" lon="7.12351">
        <ele>693.73</ele>
        <time>2022-04-28T09:24:09Z</time>
      </trkpt>
      <trkpt lat="43.76206" lon="7.12349">
        <ele>699.02</ele>
        <time>2022-04-28T09:24:12Z</time>
      </trkpt>
      <trkpt lat="43.76205" lon="7.12349">
        <ele>690.36</ele>
        <time>2022-04-28T09:24:13Z</time>
      </trkpt>
      <trkpt lat="43.76205" lon="7.12349">
        <ele>694.69</ele>
        <time>2022-04-28T09:24:14Z</time>
      </trkpt>
      <trkpt lat="43.76203" lon="7.12349">
        <ele>689.88</ele>
        <time>2022-04-28T09:24:17Z</time>
      </trkpt>
      <trkpt lat="43.76203" lon="7.12348">
        <ele>696.13</ele>
        <time>2022-04-28T09:24:18Z</time>
      </trkpt>
      <trkpt lat="43.762" lon="7.12347">
        <ele>691.81</ele>
        <time>2022-04-28T09:24:28Z</time>
      </trkpt>
      <trkpt lat="43.762" lon="7.12347">
        <ele>700.46</ele>
        <time>2022-04-28T09:24:29Z</time>
      </trkpt>
      <trkpt lat="43.762" lon="7.12346">
        <ele>688.44</ele>
        <time>2022-04-28T09:24:30Z</time>
      </trkpt>
      <trkpt lat="43.762" lon="7.12346">
        <ele>695.65</ele>
        <time>2022-04-28T09:24:31Z</time>
      </trkpt>
      <trkpt lat="43.762" lon="7.12346">
        <ele>698.05</ele>
        <time>2022-04-28T09:24:35Z</time>
      </trkpt>
      <trkpt lat="43.762" lon="7.12346">
        <ele>695.17</ele>
        <time>2022-04-28T09:24:38Z</time>
      </trkpt>
      <trkpt lat="43.76199" lon="7.12348">
        <ele>695.17</ele>
        <time>2022-04-28T09:25:00Z</time>
      </trkpt>
      <trkpt lat="43.762" lon="7.12348">
        <ele>695.17</ele>
        <time>2022-04-28T09:25:18Z</time>
      </trkpt>
      <trkpt lat="43.76199" lon="7.12349">
        <ele>695.17</ele>
        <time>2022-04-28T09:25:53Z</time>
      </trkpt>
      <trkpt lat="43.76198" lon="7.12349">
        <ele>695.17</ele>
        <time>2022-04-28T09:26:19Z</time>
      </trkpt>
      <trkpt lat="43.76196" lon="7.1235">
        <ele>696.61</ele>
        <time>2022-04-28T09:26:20Z</time>
      </trkpt>
      <trkpt lat="43.76193" lon="7.12351">
        <ele>697.57</ele>
        <time>2022-04-28T09:26:24Z</time>
      </trkpt>
      <trkpt lat="43.76191" lon="7.12352">
        <ele>694.21</ele>
        <time>2022-04-28T09:26:25Z</time>
      </trkpt>
      <trkpt lat="43.76191" lon="7.12352">
        <ele>695.17</ele>
        <time>2022-04-28T09:26:26Z</time>
      </trkpt>
      <trkpt lat="43.76183" lon="7.12352">
        <ele>694.69</ele>
        <time>2022-04-28T09:26:36Z</time>
      </trkpt>
      <trkpt lat="43.76181" lon="7.12352">
        <ele>697.09</ele>
        <time>2022-04-28T09:26:37Z</time>
      </trkpt>
      <trkpt lat="43.76178" lon="7.12352">
        <ele>693.73</ele>
        <time>2022-04-28T09:26:41Z</time>
      </trkpt>
      <trkpt lat="43.76175" lon="7.12352">
        <ele>697.57</ele>
        <time>2022-04-28T09:26:45Z</time>
      </trkpt>
      <trkpt lat="43.76174" lon="7.12353">
        <ele>693.73</ele>
        <time>2022-04-28T09:26:46Z</time>
      </trkpt>
      <trkpt lat="43.76171" lon="7.12353">
        <ele>697.09</ele>
        <time>2022-04-28T09:26:50Z</time>
      </trkpt>
      <trkpt lat="43.76167" lon="7.12353">
        <ele>693.25</ele>
        <time>2022-04-28T09:26:54Z</time>
      </trkpt>
      <trkpt lat="43.76166" lon="7.12353">
        <ele>698.53</ele>
        <time>2022-04-28T09:26:56Z</time>
      </trkpt>
      <trkpt lat="43.76165" lon="7.12352">
        <ele>694.21</ele>
        <time>2022-04-28T09:26:57Z</time>
      </trkpt>
      <trkpt lat="43.76162" lon="7.12351">
        <ele>698.53</ele>
        <time>2022-04-28T09:27:01Z</time>
      </trkpt>
      <trkpt lat="43.76162" lon="7.1235">
        <ele>692.29</ele>
        <time>2022-04-28T09:27:02Z</time>
      </trkpt>
      <trkpt lat="43.76161" lon="7.1235">
        <ele>698.53</ele>
        <time>2022-04-28T09:27:03Z</time>
      </trkpt>
      <trkpt lat="43.7616" lon="7.1235">
        <ele>695.65</ele>
        <time>2022-04-28T09:27:06Z</time>
      </trkpt>
      <trkpt lat="43.76157" lon="7.1235">
        <ele>698.53</ele>
        <time>2022-04-28T09:27:12Z</time>
      </trkpt>
      <trkpt lat="43.76157" lon="7.12349">
        <ele>690.84</ele>
        <time>2022-04-28T09:27:13Z</time>
      </trkpt>
      <trkpt lat="43.76157" lon="7.12349">
        <ele>699.5</ele>
        <time>2022-04-28T09:27:14Z</time>
      </trkpt>
      <trkpt lat="43.76156" lon="7.12349">
        <ele>696.13</ele>
        <time>2022-04-28T09:27:16Z</time>
      </trkpt>
      <trkpt lat="43.76154" lon="7.12349">
        <ele>699.5</ele>
        <time>2022-04-28T09:27:19Z</time>
      </trkpt>
      <trkpt lat="43.76153" lon="7.12349">
        <ele>693.25</ele>
        <time>2022-04-28T09:27:20Z</time>
      </trkpt>
      <trkpt lat="43.76153" lon="7.12349">
        <ele>700.46</ele>
        <time>2022-04-28T09:27:21Z</time>
      </trkpt>
      <trkpt lat="43.76152" lon="7.12348">
        <ele>695.65</ele>
        <time>2022-04-28T09:27:22Z</time>
      </trkpt>
      <trkpt lat="43.76152" lon="7.12347">
        <ele>703.34</ele>
        <time>2022-04-28T09:27:23Z</time>
      </trkpt>
      <trkpt lat="43.76151" lon="7.12346">
        <ele>697.57</ele>
        <time>2022-04-28T09:27:24Z</time>
      </trkpt>
      <trkpt lat="43.76149" lon="7.12346">
        <ele>695.65</ele>
        <time>2022-04-28T09:27:38Z</time>
      </trkpt>
      <trkpt lat="43.76147" lon="7.12347">
        <ele>697.09</ele>
        <time>2022-04-28T09:27:50Z</time>
      </trkpt>
      <trkpt lat="43.76147" lon="7.12347">
        <ele>697.09</ele>
        <time>2022-04-28T09:28:13Z</time>
      </trkpt>
      <trkpt lat="43.76147" lon="7.12345">
        <ele>697.09</ele>
        <time>2022-04-28T09:28:34Z</time>
      </trkpt>
      <trkpt lat="43.76147" lon="7.12346">
        <ele>697.57</ele>
        <time>2022-04-28T09:29:02Z</time>
      </trkpt>
      <trkpt lat="43.76148" lon="7.12345">
        <ele>697.09</ele>
        <time>2022-04-28T09:29:29Z</time>
      </trkpt>
      <trkpt lat="43.76147" lon="7.12342">
        <ele>696.61</ele>
        <time>2022-04-28T09:29:44Z</time>
      </trkpt>
      <trkpt lat="43.76147" lon="7.12343">
        <ele>697.09</ele>
        <time>2022-04-28T09:29:59Z</time>
      </trkpt>
      <trkpt lat="43.76147" lon="7.12339">
        <ele>698.53</ele>
        <time>2022-04-28T09:30:13Z</time>
      </trkpt>
      <trkpt lat="43.76147" lon="7.12339">
        <ele>697.57</ele>
        <time>2022-04-28T09:30:16Z</time>
      </trkpt>
      <trkpt lat="43.76148" lon="7.12338">
        <ele>701.42</ele>
        <time>2022-04-28T09:30:36Z</time>
      </trkpt>
      <trkpt lat="43.76148" lon="7.12337">
        <ele>697.57</ele>
        <time>2022-04-28T09:30:37Z</time>
      </trkpt>
      <trkpt lat="43.76149" lon="7.12336">
        <ele>701.42</ele>
        <time>2022-04-28T09:30:38Z</time>
      </trkpt>
      <trkpt lat="43.76149" lon="7.12336">
        <ele>698.05</ele>
        <time>2022-04-28T09:30:39Z</time>
      </trkpt>
      <trkpt lat="43.76153" lon="7.12332">
        <ele>693.73</ele>
        <time>2022-04-28T09:30:48Z</time>
      </trkpt>
      <trkpt lat="43.76153" lon="7.12333">
        <ele>700.94</ele>
        <time>2022-04-28T09:30:49Z</time>
      </trkpt>
      <trkpt lat="43.76154" lon="7.12333">
        <ele>697.57</ele>
        <time>2022-04-28T09:30:51Z</time>
      </trkpt>
      <trkpt lat="43.76154" lon="7.12333">
        <ele>700.94</ele>
        <time>2022-04-28T09:30:52Z</time>
      </trkpt>
      <trkpt lat="43.76154" lon="7.12333">
        <ele>699.98</ele>
        <time>2022-04-28T09:30:53Z</time>
      </trkpt>
      <trkpt lat="43.76158" lon="7.12329">
        <ele>701.9</ele>
        <time>2022-04-28T09:31:03Z</time>
      </trkpt>
      <trkpt lat="43.76158" lon="7.12323">
        <ele>698.05</ele>
        <time>2022-04-28T09:31:16Z</time>
      </trkpt>
      <trkpt lat="43.76159" lon="7.12324">
        <ele>701.42</ele>
        <time>2022-04-28T09:31:17Z</time>
      </trkpt>
      <trkpt lat="43.76161" lon="7.12327">
        <ele>701.9</ele>
        <time>2022-04-28T09:31:33Z</time>
      </trkpt>
      <trkpt lat="43.76165" lon="7.12328">
        <ele>703.82</ele>
        <time>2022-04-28T09:31:49Z</time>
      </trkpt>
      <trkpt lat="43.76165" lon="7.1233">
        <ele>699.5</ele>
        <time>2022-04-28T09:31:51Z</time>
      </trkpt>
      <trkpt lat="43.76169" lon="7.12335">
        <ele>702.38</ele>
        <time>2022-04-28T09:32:03Z</time>
      </trkpt>
      <trkpt lat="43.76169" lon="7.12335">
        <ele>696.61</ele>
        <time>2022-04-28T09:32:07Z</time>
      </trkpt>
      <trkpt lat="43.76169" lon="7.12335">
        <ele>700.46</ele>
        <time>2022-04-28T09:32:08Z</time>
      </trkpt>
      <trkpt lat="43.76169" lon="7.12335">
        <ele>709.11</ele>
        <time>2022-04-28T09:32:14Z</time>
      </trkpt>
      <trkpt lat="43.7617" lon="7.12335">
        <ele>700.94</ele>
        <time>2022-04-28T09:32:15Z</time>
      </trkpt>
      <trkpt lat="43.76171" lon="7.12334">
        <ele>704.78</ele>
        <time>2022-04-28T09:32:16Z</time>
      </trkpt>
      <trkpt lat="43.76173" lon="7.12335">
        <ele>699.98</ele>
        <time>2022-04-28T09:32:18Z</time>
      </trkpt>
      <trkpt lat="43.76173" lon="7.12335">
        <ele>701.9</ele>
        <time>2022-04-28T09:32:19Z</time>
      </trkpt>
      <trkpt lat="43.76175" lon="7.12334">
        <ele>701.9</ele>
        <time>2022-04-28T09:32:35Z</time>
      </trkpt>
      <trkpt lat="43.76175" lon="7.12333">
        <ele>701.9</ele>
        <time>2022-04-28T09:33:01Z</time>
      </trkpt>
      <trkpt lat="43.76174" lon="7.12334">
        <ele>701.9</ele>
        <time>2022-04-28T09:33:17Z</time>
      </trkpt>
      <trkpt lat="43.76175" lon="7.12333">
        <ele>702.38</ele>
        <time>2022-04-28T09:33:37Z</time>
      </trkpt>
      <trkpt lat="43.76176" lon="7.12332">
        <ele>702.38</ele>
        <time>2022-04-28T09:33:55Z</time>
      </trkpt>
      <trkpt lat="43.76175" lon="7.12332">
        <ele>702.86</ele>
        <time>2022-04-28T09:34:17Z</time>
      </trkpt>
      <trkpt lat="43.76175" lon="7.12332">
        <ele>697.09</ele>
        <time>2022-04-28T09:34:23Z</time>
      </trkpt>
      <trkpt lat="43.76175" lon="7.12333">
        <ele>711.03</ele>
        <time>2022-04-28T09:34:24Z</time>
      </trkpt>
      <trkpt lat="43.76175" lon="7.12332">
        <ele>703.82</ele>
        <time>2022-04-28T09:34:25Z</time>
      </trkpt>
      <trkpt lat="43.76175" lon="7.12333">
        <ele>701.9</ele>
        <time>2022-04-28T09:34:46Z</time>
      </trkpt>
      <trkpt lat="43.76173" lon="7.1233">
        <ele>703.82</ele>
        <time>2022-04-28T09:35:00Z</time>
      </trkpt>
      <trkpt lat="43.7617" lon="7.12333">
        <ele>700.94</ele>
        <time>2022-04-28T09:35:06Z</time>
      </trkpt>
      <trkpt lat="43.76171" lon="7.12333">
        <ele>701.9</ele>
        <time>2022-04-28T09:35:21Z</time>
      </trkpt>
      <trkpt lat="43.76171" lon="7.12331">
        <ele>701.42</ele>
        <time>2022-04-28T09:35:49Z</time>
      </trkpt>
      <trkpt lat="43.7617" lon="7.1233">
        <ele>705.75</ele>
        <time>2022-04-28T09:35:50Z</time>
      </trkpt>
      <trkpt lat="43.7617" lon="7.1233">
        <ele>700.94</ele>
        <time>2022-04-28T09:35:51Z</time>
      </trkpt>
      <trkpt lat="43.76171" lon="7.12327">
        <ele>702.38</ele>
        <time>2022-04-28T09:36:05Z</time>
      </trkpt>
      <trkpt lat="43.76171" lon="7.12327">
        <ele>703.34</ele>
        <time>2022-04-28T09:36:28Z</time>
      </trkpt>
      <trkpt lat="43.76164" lon="7.12325">
        <ele>702.38</ele>
        <time>2022-04-28T09:36:39Z</time>
      </trkpt>
      <trkpt lat="43.76162" lon="7.12327">
        <ele>701.42</ele>
        <time>2022-04-28T09:36:58Z</time>
      </trkpt>
      <trkpt lat="43.76159" lon="7.12324">
        <ele>702.38</ele>
        <time>2022-04-28T09:37:13Z</time>
      </trkpt>
      <trkpt lat="43.76159" lon="7.12321">
        <ele>701.9</ele>
        <time>2022-04-28T09:37:28Z</time>
      </trkpt>
      <trkpt lat="43.76156" lon="7.1232">
        <ele>702.38</ele>
        <time>2022-04-28T09:37:53Z</time>
      </trkpt>
      <trkpt lat="43.76157" lon="7.12323">
        <ele>702.38</ele>
        <time>2022-04-28T09:38:20Z</time>
      </trkpt>
      <trkpt lat="43.76157" lon="7.12324">
        <ele>700.46</ele>
        <time>2022-04-28T09:38:21Z</time>
      </trkpt>
      <trkpt lat="43.76157" lon="7.12324">
        <ele>703.82</ele>
        <time>2022-04-28T09:38:22Z</time>
      </trkpt>
      <trkpt lat="43.7615" lon="7.12328">
        <ele>699.5</ele>
        <time>2022-04-28T09:38:35Z</time>
      </trkpt>
      <trkpt lat="43.76149" lon="7.12329">
        <ele>703.82</ele>
        <time>2022-04-28T09:38:36Z</time>
      </trkpt>
      <trkpt lat="43.76151" lon="7.12332">
        <ele>702.86</ele>
        <time>2022-04-28T09:38:59Z</time>
      </trkpt>
      <trkpt lat="43.76151" lon="7.1233">
        <ele>703.34</ele>
        <time>2022-04-28T09:39:22Z</time>
      </trkpt>
      <trkpt lat="43.76153" lon="7.12331">
        <ele>702.38</ele>
        <time>2022-04-28T09:39:47Z</time>
      </trkpt>
      <trkpt lat="43.76154" lon="7.12328">
        <ele>698.53</ele>
        <time>2022-04-28T09:40:03Z</time>
      </trkpt>
      <trkpt lat="43.76155" lon="7.12327">
        <ele>701.9</ele>
        <time>2022-04-28T09:40:04Z</time>
      </trkpt>
      <trkpt lat="43.76155" lon="7.12327">
        <ele>698.05</ele>
        <time>2022-04-28T09:40:10Z</time>
      </trkpt>
      <trkpt lat="43.76156" lon="7.12327">
        <ele>701.42</ele>
        <time>2022-04-28T09:40:13Z</time>
      </trkpt>
      <trkpt lat="43.76157" lon="7.12327">
        <ele>702.38</ele>
        <time>2022-04-28T09:40:33Z</time>
      </trkpt>
      <trkpt lat="43.76155" lon="7.12326">
        <ele>701.9</ele>
        <time>2022-04-28T09:40:49Z</time>
      </trkpt>
      <trkpt lat="43.76157" lon="7.12326">
        <ele>700.94</ele>
        <time>2022-04-28T09:41:05Z</time>
      </trkpt>
      <trkpt lat="43.76158" lon="7.12326">
        <ele>703.82</ele>
        <time>2022-04-28T09:41:06Z</time>
      </trkpt>
      <trkpt lat="43.76162" lon="7.12326">
        <ele>703.34</ele>
        <time>2022-04-28T09:41:21Z</time>
      </trkpt>
      <trkpt lat="43.76163" lon="7.1233">
        <ele>702.86</ele>
        <time>2022-04-28T09:41:40Z</time>
      </trkpt>
      <trkpt lat="43.76165" lon="7.12331">
        <ele>703.82</ele>
        <time>2022-04-28T09:41:53Z</time>
      </trkpt>
      <trkpt lat="43.76169" lon="7.12333">
        <ele>702.86</ele>
        <time>2022-04-28T09:42:07Z</time>
      </trkpt>
      <trkpt lat="43.76168" lon="7.12329">
        <ele>702.38</ele>
        <time>2022-04-28T09:42:22Z</time>
      </trkpt>
      <trkpt lat="43.76162" lon="7.12327">
        <ele>702.38</ele>
        <time>2022-04-28T09:42:36Z</time>
      </trkpt>
      <trkpt lat="43.76162" lon="7.12328">
        <ele>702.38</ele>
        <time>2022-04-28T09:43:04Z</time>
      </trkpt>
      <trkpt lat="43.76162" lon="7.1233">
        <ele>703.82</ele>
        <time>2022-04-28T09:43:12Z</time>
      </trkpt>
      <trkpt lat="43.76162" lon="7.12331">
        <ele>701.9</ele>
        <time>2022-04-28T09:43:21Z</time>
      </trkpt>
      <trkpt lat="43.7616" lon="7.12331">
        <ele>705.26</ele>
        <time>2022-04-28T09:43:25Z</time>
      </trkpt>
      <trkpt lat="43.76157" lon="7.12332">
        <ele>698.53</ele>
        <time>2022-04-28T09:43:38Z</time>
      </trkpt>
      <trkpt lat="43.76157" lon="7.12332">
        <ele>705.26</ele>
        <time>2022-04-28T09:43:39Z</time>
      </trkpt>
      <trkpt lat="43.76157" lon="7.12332">
        <ele>702.38</ele>
        <time>2022-04-28T09:43:42Z</time>
      </trkpt>
      <trkpt lat="43.76157" lon="7.12332">
        <ele>704.78</ele>
        <time>2022-04-28T09:43:45Z</time>
      </trkpt>
      <trkpt lat="43.76157" lon="7.12333">
        <ele>708.15</ele>
        <time>2022-04-28T09:43:48Z</time>
      </trkpt>
      <trkpt lat="43.76157" lon="7.12333">
        <ele>705.75</ele>
        <time>2022-04-28T09:43:49Z</time>
      </trkpt>
      <trkpt lat="43.76158" lon="7.12334">
        <ele>701.42</ele>
        <time>2022-04-28T09:43:52Z</time>
      </trkpt>
      <trkpt lat="43.76158" lon="7.12333">
        <ele>706.71</ele>
        <time>2022-04-28T09:43:53Z</time>
      </trkpt>
      <trkpt lat="43.76159" lon="7.12333">
        <ele>701.42</ele>
        <time>2022-04-28T09:43:54Z</time>
      </trkpt>
      <trkpt lat="43.76159" lon="7.12333">
        <ele>705.75</ele>
        <time>2022-04-28T09:43:55Z</time>
      </trkpt>
      <trkpt lat="43.76159" lon="7.12332">
        <ele>701.9</ele>
        <time>2022-04-28T09:43:59Z</time>
      </trkpt>
      <trkpt lat="43.7616" lon="7.12332">
        <ele>702.38</ele>
        <time>2022-04-28T09:44:00Z</time>
      </trkpt>
      <trkpt lat="43.76159" lon="7.12332">
        <ele>713.44</ele>
        <time>2022-04-28T09:44:01Z</time>
      </trkpt>
      <trkpt lat="43.76159" lon="7.12332">
        <ele>707.19</ele>
        <time>2022-04-28T09:44:02Z</time>
      </trkpt>
      <trkpt lat="43.76159" lon="7.12334">
        <ele>706.23</ele>
        <time>2022-04-28T09:44:04Z</time>
      </trkpt>
      <trkpt lat="43.76162" lon="7.12329">
        <ele>703.34</ele>
        <time>2022-04-28T09:44:12Z</time>
      </trkpt>
      <trkpt lat="43.76166" lon="7.12332">
        <ele>703.34</ele>
        <time>2022-04-28T09:44:24Z</time>
      </trkpt>
      <trkpt lat="43.76163" lon="7.1233">
        <ele>703.34</ele>
        <time>2022-04-28T09:44:37Z</time>
      </trkpt>
      <trkpt lat="43.76159" lon="7.12332">
        <ele>702.86</ele>
        <time>2022-04-28T09:44:58Z</time>
      </trkpt>
      <trkpt lat="43.76167" lon="7.12329">
        <ele>702.86</ele>
        <time>2022-04-28T09:45:27Z</time>
      </trkpt>
      <trkpt lat="43.7617" lon="7.1233">
        <ele>703.82</ele>
        <time>2022-04-28T09:45:45Z</time>
      </trkpt>
      <trkpt lat="43.76169" lon="7.12329">
        <ele>703.34</ele>
        <time>2022-04-28T09:46:11Z</time>
      </trkpt>
      <trkpt lat="43.7617" lon="7.12328">
        <ele>704.3</ele>
        <time>2022-04-28T09:46:32Z</time>
      </trkpt>
      <trkpt lat="43.76166" lon="7.12332">
        <ele>704.78</ele>
        <time>2022-04-28T09:46:49Z</time>
      </trkpt>
      <trkpt lat="43.76165" lon="7.12335">
        <ele>703.34</ele>
        <time>2022-04-28T09:47:02Z</time>
      </trkpt>
      <trkpt lat="43.76165" lon="7.12335">
        <ele>704.3</ele>
        <time>2022-04-28T09:47:29Z</time>
      </trkpt>
      <trkpt lat="43.76166" lon="7.12336">
        <ele>703.82</ele>
        <time>2022-04-28T09:47:51Z</time>
      </trkpt>
      <trkpt lat="43.76162" lon="7.12335">
        <ele>703.82</ele>
        <time>2022-04-28T09:48:21Z</time>
      </trkpt>
      <trkpt lat="43.76163" lon="7.12336">
        <ele>704.3</ele>
        <time>2022-04-28T09:48:44Z</time>
      </trkpt>
      <trkpt lat="43.76168" lon="7.12331">
        <ele>704.78</ele>
        <time>2022-04-28T09:49:02Z</time>
      </trkpt>
      <trkpt lat="43.76169" lon="7.1233">
        <ele>701.42</ele>
        <time>2022-04-28T09:49:03Z</time>
      </trkpt>
      <trkpt lat="43.76169" lon="7.12329">
        <ele>705.26</ele>
        <time>2022-04-28T09:49:04Z</time>
      </trkpt>
      <trkpt lat="43.76174" lon="7.12326">
        <ele>701.9</ele>
        <time>2022-04-28T09:49:10Z</time>
      </trkpt>
      <trkpt lat="43.76174" lon="7.12325">
        <ele>705.26</ele>
        <time>2022-04-28T09:49:11Z</time>
      </trkpt>
      <trkpt lat="43.76178" lon="7.12324">
        <ele>704.78</ele>
        <time>2022-04-28T09:49:32Z</time>
      </trkpt>
      <trkpt lat="43.76176" lon="7.12324">
        <ele>704.78</ele>
        <time>2022-04-28T09:49:53Z</time>
      </trkpt>
      <trkpt lat="43.76174" lon="7.12323">
        <ele>704.78</ele>
        <time>2022-04-28T09:50:10Z</time>
      </trkpt>
      <trkpt lat="43.76174" lon="7.12323">
        <ele>704.3</ele>
        <time>2022-04-28T09:50:34Z</time>
      </trkpt>
      <trkpt lat="43.76174" lon="7.12325">
        <ele>704.3</ele>
        <time>2022-04-28T09:50:50Z</time>
      </trkpt>
      <trkpt lat="43.76171" lon="7.1232">
        <ele>704.78</ele>
        <time>2022-04-28T09:51:09Z</time>
      </trkpt>
      <trkpt lat="43.7617" lon="7.12318">
        <ele>704.3</ele>
        <time>2022-04-28T09:51:23Z</time>
      </trkpt>
      <trkpt lat="43.76172" lon="7.12319">
        <ele>707.19</ele>
        <time>2022-04-28T09:51:28Z</time>
      </trkpt>
      <trkpt lat="43.76172" lon="7.12319">
        <ele>705.26</ele>
        <time>2022-04-28T09:51:31Z</time>
      </trkpt>
      <trkpt lat="43.76172" lon="7.12318">
        <ele>701.42</ele>
        <time>2022-04-28T09:51:38Z</time>
      </trkpt>
      <trkpt lat="43.76172" lon="7.12318">
        <ele>707.19</ele>
        <time>2022-04-28T09:51:39Z</time>
      </trkpt>
      <trkpt lat="43.76172" lon="7.12319">
        <ele>706.23</ele>
        <time>2022-04-28T09:51:40Z</time>
      </trkpt>
      <trkpt lat="43.76172" lon="7.12319">
        <ele>702.38</ele>
        <time>2022-04-28T09:51:49Z</time>
      </trkpt>
      <trkpt lat="43.76171" lon="7.12319">
        <ele>703.34</ele>
        <time>2022-04-28T09:51:50Z</time>
      </trkpt>
      <trkpt lat="43.76171" lon="7.1232">
        <ele>706.71</ele>
        <time>2022-04-28T09:51:51Z</time>
      </trkpt>
      <trkpt lat="43.76172" lon="7.1232">
        <ele>705.26</ele>
        <time>2022-04-28T09:51:52Z</time>
      </trkpt>
      <trkpt lat="43.76172" lon="7.1232">
        <ele>696.61</ele>
        <time>2022-04-28T09:51:56Z</time>
      </trkpt>
      <trkpt lat="43.76172" lon="7.1232">
        <ele>713.44</ele>
        <time>2022-04-28T09:51:57Z</time>
      </trkpt>
      <trkpt lat="43.76172" lon="7.1232">
        <ele>704.78</ele>
        <time>2022-04-28T09:51:58Z</time>
      </trkpt>
      <trkpt lat="43.76172" lon="7.12321">
        <ele>705.26</ele>
        <time>2022-04-28T09:52:29Z</time>
      </trkpt>
      <trkpt lat="43.76172" lon="7.12321">
        <ele>705.26</ele>
        <time>2022-04-28T09:52:59Z</time>
      </trkpt>
      <trkpt lat="43.76173" lon="7.12323">
        <ele>705.75</ele>
        <time>2022-04-28T09:53:27Z</time>
      </trkpt>
      <trkpt lat="43.76172" lon="7.12322">
        <ele>703.34</ele>
        <time>2022-04-28T09:54:00Z</time>
      </trkpt>
      <trkpt lat="43.76172" lon="7.12322">
        <ele>704.3</ele>
        <time>2022-04-28T09:54:01Z</time>
      </trkpt>
      <trkpt lat="43.76171" lon="7.12323">
        <ele>705.75</ele>
        <time>2022-04-28T09:54:22Z</time>
      </trkpt>
      <trkpt lat="43.76172" lon="7.12324">
        <ele>705.26</ele>
        <time>2022-04-28T09:54:59Z</time>
      </trkpt>
      <trkpt lat="43.76173" lon="7.1232">
        <ele>706.71</ele>
        <time>2022-04-28T09:55:32Z</time>
      </trkpt>
      <trkpt lat="43.76172" lon="7.1232">
        <ele>706.23</ele>
        <time>2022-04-28T09:56:02Z</time>
      </trkpt>
      <trkpt lat="43.76172" lon="7.12324">
        <ele>706.23</ele>
        <time>2022-04-28T09:56:35Z</time>
      </trkpt>
      <trkpt lat="43.76172" lon="7.12323">
        <ele>705.75</ele>
        <time>2022-04-28T09:57:07Z</time>
      </trkpt>
      <trkpt lat="43.76172" lon="7.12323">
        <ele>706.23</ele>
        <time>2022-04-28T09:57:41Z</time>
      </trkpt>
      <trkpt lat="43.76173" lon="7.12319">
        <ele>707.67</ele>
        <time>2022-04-28T09:58:17Z</time>
      </trkpt>
      <trkpt lat="43.76173" lon="7.12322">
        <ele>703.82</ele>
        <time>2022-04-28T09:58:26Z</time>
      </trkpt>
      <trkpt lat="43.76173" lon="7.12322">
        <ele>707.19</ele>
        <time>2022-04-28T09:58:28Z</time>
      </trkpt>
      <trkpt lat="43.76172" lon="7.12322">
        <ele>706.23</ele>
        <time>2022-04-28T09:59:02Z</time>
      </trkpt>
      <trkpt lat="43.76171" lon="7.12321">
        <ele>707.19</ele>
        <time>2022-04-28T09:59:31Z</time>
      </trkpt>
      <trkpt lat="43.76172" lon="7.12321">
        <ele>707.19</ele>
        <time>2022-04-28T09:59:48Z</time>
      </trkpt>
      <trkpt lat="43.76173" lon="7.12323">
        <ele>706.71</ele>
        <time>2022-04-28T10:00:22Z</time>
      </trkpt>
      <trkpt lat="43.76172" lon="7.12322">
        <ele>707.67</ele>
        <time>2022-04-28T10:00:51Z</time>
      </trkpt>
      <trkpt lat="43.76173" lon="7.12321">
        <ele>704.3</ele>
        <time>2022-04-28T10:00:55Z</time>
      </trkpt>
      <trkpt lat="43.76173" lon="7.12321">
        <ele>707.67</ele>
        <time>2022-04-28T10:00:59Z</time>
      </trkpt>
      <trkpt lat="43.76173" lon="7.1232">
        <ele>707.67</ele>
        <time>2022-04-28T10:01:38Z</time>
      </trkpt>
      <trkpt lat="43.76174" lon="7.12321">
        <ele>708.15</ele>
        <time>2022-04-28T10:02:06Z</time>
      </trkpt>
      <trkpt lat="43.76175" lon="7.12321">
        <ele>708.15</ele>
        <time>2022-04-28T10:02:35Z</time>
      </trkpt>
      <trkpt lat="43.76175" lon="7.12321">
        <ele>708.63</ele>
        <time>2022-04-28T10:02:39Z</time>
      </trkpt>
      <trkpt lat="43.76173" lon="7.12321">
        <ele>707.67</ele>
        <time>2022-04-28T10:03:05Z</time>
      </trkpt>
      <trkpt lat="43.76175" lon="7.1232">
        <ele>707.19</ele>
        <time>2022-04-28T10:03:32Z</time>
      </trkpt>
      <trkpt lat="43.76174" lon="7.12321">
        <ele>706.23</ele>
        <time>2022-04-28T10:03:46Z</time>
      </trkpt>
      <trkpt lat="43.76174" lon="7.12321">
        <ele>710.55</ele>
        <time>2022-04-28T10:03:47Z</time>
      </trkpt>
      <trkpt lat="43.76174" lon="7.12321">
        <ele>708.15</ele>
        <time>2022-04-28T10:03:50Z</time>
      </trkpt>
      <trkpt lat="43.76174" lon="7.12321">
        <ele>708.63</ele>
        <time>2022-04-28T10:03:52Z</time>
      </trkpt>
      <trkpt lat="43.76174" lon="7.12321">
        <ele>707.67</ele>
        <time>2022-04-28T10:04:20Z</time>
      </trkpt>
      <trkpt lat="43.76174" lon="7.12319">
        <ele>708.15</ele>
        <time>2022-04-28T10:04:47Z</time>
      </trkpt>
      <trkpt lat="43.76174" lon="7.12319">
        <ele>704.3</ele>
        <time>2022-04-28T10:04:50Z</time>
      </trkpt>
      <trkpt lat="43.76174" lon="7.12319">
        <ele>708.15</ele>
        <time>2022-04-28T10:04:51Z</time>
      </trkpt>
      <trkpt lat="43.76174" lon="7.12319">
        <ele>711.51</ele>
        <time>2022-04-28T10:04:52Z</time>
      </trkpt>
      <trkpt lat="43.76174" lon="7.1232">
        <ele>707.67</ele>
        <time>2022-04-28T10:04:54Z</time>
      </trkpt>
      <trkpt lat="43.76174" lon="7.1232">
        <ele>708.15</ele>
        <time>2022-04-28T10:04:55Z</time>
      </trkpt>
      <trkpt lat="43.76173" lon="7.12321">
        <ele>707.67</ele>
        <time>2022-04-28T10:05:01Z</time>
      </trkpt>
      <trkpt lat="43.76173" lon="7.12322">
        <ele>712.95</ele>
        <time>2022-04-28T10:05:05Z</time>
      </trkpt>
      <trkpt lat="43.76173" lon="7.12322">
        <ele>703.82</ele>
        <time>2022-04-28T10:05:06Z</time>
      </trkpt>
      <trkpt lat="43.76173" lon="7.12323">
        <ele>720.65</ele>
        <time>2022-04-28T10:05:07Z</time>
      </trkpt>
      <trkpt lat="43.76173" lon="7.12323">
        <ele>708.15</ele>
        <time>2022-04-28T10:05:08Z</time>
      </trkpt>
      <trkpt lat="43.76167" lon="7.12323">
        <ele>705.75</ele>
        <time>2022-04-28T10:05:24Z</time>
      </trkpt>
      <trkpt lat="43.76166" lon="7.12323">
        <ele>707.67</ele>
        <time>2022-04-28T10:05:26Z</time>
      </trkpt>
      <trkpt lat="43.76163" lon="7.12323">
        <ele>706.71</ele>
        <time>2022-04-28T10:05:38Z</time>
      </trkpt>
      <trkpt lat="43.76167" lon="7.12327">
        <ele>707.67</ele>
        <time>2022-04-28T10:05:57Z</time>
      </trkpt>
      <trkpt lat="43.76171" lon="7.12335">
        <ele>708.63</ele>
        <time>2022-04-28T10:06:10Z</time>
      </trkpt>
      <trkpt lat="43.76171" lon="7.12334">
        <ele>703.82</ele>
        <time>2022-04-28T10:06:12Z</time>
      </trkpt>
      <trkpt lat="43.76171" lon="7.12335">
        <ele>711.03</ele>
        <time>2022-04-28T10:06:13Z</time>
      </trkpt>
      <trkpt lat="43.76171" lon="7.12335">
        <ele>708.15</ele>
        <time>2022-04-28T10:06:14Z</time>
      </trkpt>
      <trkpt lat="43.76171" lon="7.12335">
        <ele>703.82</ele>
        <time>2022-04-28T10:06:18Z</time>
      </trkpt>
      <trkpt lat="43.76171" lon="7.12335">
        <ele>708.63</ele>
        <time>2022-04-28T10:06:19Z</time>
      </trkpt>
      <trkpt lat="43.76172" lon="7.12333">
        <ele>707.19</ele>
        <time>2022-04-28T10:06:37Z</time>
      </trkpt>
      <trkpt lat="43.7617" lon="7.1233">
        <ele>707.19</ele>
        <time>2022-04-28T10:06:41Z</time>
      </trkpt>
      <trkpt lat="43.76164" lon="7.12322">
        <ele>707.19</ele>
        <time>2022-04-28T10:06:56Z</time>
      </trkpt>
      <trkpt lat="43.7616" lon="7.12318">
        <ele>707.19</ele>
        <time>2022-04-28T10:07:09Z</time>
      </trkpt>
      <trkpt lat="43.7616" lon="7.12319">
        <ele>704.78</ele>
        <time>2022-04-28T10:07:17Z</time>
      </trkpt>
      <trkpt lat="43.76163" lon="7.12321">
        <ele>705.26</ele>
        <time>2022-04-28T10:07:21Z</time>
      </trkpt>
      <trkpt lat="43.76164" lon="7.12322">
        <ele>707.19</ele>
        <time>2022-04-28T10:07:22Z</time>
      </trkpt>
      <trkpt lat="43.76166" lon="7.12323">
        <ele>705.75</ele>
        <time>2022-04-28T10:07:24Z</time>
      </trkpt>
      <trkpt lat="43.7617" lon="7.12324">
        <ele>707.67</ele>
        <time>2022-04-28T10:07:30Z</time>
      </trkpt>
      <trkpt lat="43.76175" lon="7.12322">
        <ele>705.75</ele>
        <time>2022-04-28T10:07:39Z</time>
      </trkpt>
      <trkpt lat="43.76177" lon="7.12322">
        <ele>705.75</ele>
        <time>2022-04-28T10:07:41Z</time>
      </trkpt>
      <trkpt lat="43.76179" lon="7.12317">
        <ele>711.99</ele>
        <time>2022-04-28T10:07:47Z</time>
      </trkpt>
      <trkpt lat="43.76179" lon="7.12316">
        <ele>709.59</ele>
        <time>2022-04-28T10:07:48Z</time>
      </trkpt>
      <trkpt lat="43.76181" lon="7.12315">
        <ele>708.63</ele>
        <time>2022-04-28T10:07:50Z</time>
      </trkpt>
      <trkpt lat="43.76181" lon="7.12314">
        <ele>711.99</ele>
        <time>2022-04-28T10:07:51Z</time>
      </trkpt>
      <trkpt lat="43.76181" lon="7.12314">
        <ele>707.19</ele>
        <time>2022-04-28T10:07:52Z</time>
      </trkpt>
      <trkpt lat="43.76181" lon="7.12313">
        <ele>711.03</ele>
        <time>2022-04-28T10:07:53Z</time>
      </trkpt>
      <trkpt lat="43.76182" lon="7.12312">
        <ele>692.29</ele>
        <time>2022-04-28T10:07:56Z</time>
      </trkpt>
      <trkpt lat="43.76182" lon="7.12312">
        <ele>717.28</ele>
        <time>2022-04-28T10:07:57Z</time>
      </trkpt>
      <trkpt lat="43.7618" lon="7.12309">
        <ele>711.99</ele>
        <time>2022-04-28T10:08:00Z</time>
      </trkpt>
      <trkpt lat="43.76179" lon="7.12311">
        <ele>710.55</ele>
        <time>2022-04-28T10:08:14Z</time>
      </trkpt>
      <trkpt lat="43.76175" lon="7.12308">
        <ele>712.95</ele>
        <time>2022-04-28T10:08:24Z</time>
      </trkpt>
      <trkpt lat="43.7617" lon="7.12305">
        <ele>711.51</ele>
        <time>2022-04-28T10:08:37Z</time>
      </trkpt>
      <trkpt lat="43.7617" lon="7.12308">
        <ele>711.99</ele>
        <time>2022-04-28T10:08:56Z</time>
      </trkpt>
      <trkpt lat="43.76171" lon="7.12311">
        <ele>711.51</ele>
        <time>2022-04-28T10:09:25Z</time>
      </trkpt>
      <trkpt lat="43.76169" lon="7.12311">
        <ele>711.99</ele>
        <time>2022-04-28T10:09:58Z</time>
      </trkpt>
      <trkpt lat="43.76171" lon="7.12311">
        <ele>712.47</ele>
        <time>2022-04-28T10:10:16Z</time>
      </trkpt>
      <trkpt lat="43.76172" lon="7.12312">
        <ele>711.51</ele>
        <time>2022-04-28T10:10:35Z</time>
      </trkpt>
      <trkpt lat="43.76171" lon="7.12309">
        <ele>710.07</ele>
        <time>2022-04-28T10:11:03Z</time>
      </trkpt>
      <trkpt lat="43.76171" lon="7.12308">
        <ele>712.47</ele>
        <time>2022-04-28T10:11:05Z</time>
      </trkpt>
      <trkpt lat="43.76171" lon="7.12307">
        <ele>711.51</ele>
        <time>2022-04-28T10:11:19Z</time>
      </trkpt>
      <trkpt lat="43.76169" lon="7.12307">
        <ele>711.99</ele>
        <time>2022-04-28T10:11:40Z</time>
      </trkpt>
      <trkpt lat="43.76173" lon="7.12308">
        <ele>712.47</ele>
        <time>2022-04-28T10:11:53Z</time>
      </trkpt>
      <trkpt lat="43.76177" lon="7.1231">
        <ele>711.51</ele>
        <time>2022-04-28T10:12:09Z</time>
      </trkpt>
      <trkpt lat="43.7618" lon="7.12313">
        <ele>712.47</ele>
        <time>2022-04-28T10:12:20Z</time>
      </trkpt>
      <trkpt lat="43.76181" lon="7.12311">
        <ele>711.03</ele>
        <time>2022-04-28T10:12:32Z</time>
      </trkpt>
      <trkpt lat="43.76182" lon="7.12312">
        <ele>711.51</ele>
        <time>2022-04-28T10:12:48Z</time>
      </trkpt>
      <trkpt lat="43.76179" lon="7.12317">
        <ele>709.11</ele>
        <time>2022-04-28T10:13:01Z</time>
      </trkpt>
      <trkpt lat="43.76178" lon="7.12322">
        <ele>708.63</ele>
        <time>2022-04-28T10:13:10Z</time>
      </trkpt>
      <trkpt lat="43.76177" lon="7.12329">
        <ele>708.63</ele>
        <time>2022-04-28T10:13:23Z</time>
      </trkpt>
      <trkpt lat="43.76176" lon="7.12325">
        <ele>708.15</ele>
        <time>2022-04-28T10:13:41Z</time>
      </trkpt>
      <trkpt lat="43.76175" lon="7.12326">
        <ele>707.67</ele>
        <time>2022-04-28T10:14:03Z</time>
      </trkpt>
      <trkpt lat="43.76174" lon="7.12327">
        <ele>709.11</ele>
        <time>2022-04-28T10:14:27Z</time>
      </trkpt>
      <trkpt lat="43.76176" lon="7.12327">
        <ele>708.63</ele>
        <time>2022-04-28T10:14:53Z</time>
      </trkpt>
      <trkpt lat="43.76177" lon="7.12326">
        <ele>708.15</ele>
        <time>2022-04-28T10:15:18Z</time>
      </trkpt>
      <trkpt lat="43.76175" lon="7.12326">
        <ele>708.15</ele>
        <time>2022-04-28T10:15:45Z</time>
      </trkpt>
      <trkpt lat="43.76177" lon="7.12329">
        <ele>708.15</ele>
        <time>2022-04-28T10:16:14Z</time>
      </trkpt>
      <trkpt lat="43.76177" lon="7.12327">
        <ele>709.11</ele>
        <time>2022-04-28T10:16:31Z</time>
      </trkpt>
      <trkpt lat="43.76177" lon="7.12326">
        <ele>708.63</ele>
        <time>2022-04-28T10:16:53Z</time>
      </trkpt>
      <trkpt lat="43.76176" lon="7.12327">
        <ele>706.71</ele>
        <time>2022-04-28T10:17:11Z</time>
      </trkpt>
      <trkpt lat="43.76175" lon="7.12328">
        <ele>708.63</ele>
        <time>2022-04-28T10:17:38Z</time>
      </trkpt>
      <trkpt lat="43.76176" lon="7.12328">
        <ele>708.63</ele>
        <time>2022-04-28T10:18:12Z</time>
      </trkpt>
      <trkpt lat="43.76175" lon="7.12328">
        <ele>708.15</ele>
        <time>2022-04-28T10:18:36Z</time>
      </trkpt>
      <trkpt lat="43.76177" lon="7.12327">
        <ele>708.63</ele>
        <time>2022-04-28T10:18:59Z</time>
      </trkpt>
      <trkpt lat="43.76178" lon="7.12327">
        <ele>708.15</ele>
        <time>2022-04-28T10:19:16Z</time>
      </trkpt>
      <trkpt lat="43.76179" lon="7.12328">
        <ele>709.11</ele>
        <time>2022-04-28T10:19:41Z</time>
      </trkpt>
      <trkpt lat="43.76179" lon="7.12327">
        <ele>709.11</ele>
        <time>2022-04-28T10:20:01Z</time>
      </trkpt>
      <trkpt lat="43.76178" lon="7.12328">
        <ele>709.11</ele>
        <time>2022-04-28T10:20:20Z</time>
      </trkpt>
      <trkpt lat="43.76178" lon="7.12328">
        <ele>708.63</ele>
        <time>2022-04-28T10:20:40Z</time>
      </trkpt>
      <trkpt lat="43.76181" lon="7.12329">
        <ele>709.59</ele>
        <time>2022-04-28T10:20:56Z</time>
      </trkpt>
      <trkpt lat="43.76175" lon="7.12323">
        <ele>708.15</ele>
        <time>2022-04-28T10:21:18Z</time>
      </trkpt>
      <trkpt lat="43.76174" lon="7.1232">
        <ele>706.71</ele>
        <time>2022-04-28T10:21:30Z</time>
      </trkpt>
      <trkpt lat="43.76174" lon="7.1232">
        <ele>710.07</ele>
        <time>2022-04-28T10:21:31Z</time>
      </trkpt>
      <trkpt lat="43.76174" lon="7.1232">
        <ele>707.19</ele>
        <time>2022-04-28T10:21:32Z</time>
      </trkpt>
      <trkpt lat="43.76174" lon="7.12319">
        <ele>712.47</ele>
        <time>2022-04-28T10:21:35Z</time>
      </trkpt>
      <trkpt lat="43.76174" lon="7.1232">
        <ele>709.59</ele>
        <time>2022-04-28T10:21:38Z</time>
      </trkpt>
      <trkpt lat="43.76173" lon="7.12322">
        <ele>709.59</ele>
        <time>2022-04-28T10:22:06Z</time>
      </trkpt>
      <trkpt lat="43.76174" lon="7.12322">
        <ele>709.59</ele>
        <time>2022-04-28T10:22:32Z</time>
      </trkpt>
      <trkpt lat="43.76175" lon="7.12321">
        <ele>708.15</ele>
        <time>2022-04-28T10:22:57Z</time>
      </trkpt>
      <trkpt lat="43.76174" lon="7.12325">
        <ele>709.59</ele>
        <time>2022-04-28T10:23:07Z</time>
      </trkpt>
      <trkpt lat="43.76175" lon="7.12322">
        <ele>708.63</ele>
        <time>2022-04-28T10:23:24Z</time>
      </trkpt>
      <trkpt lat="43.76174" lon="7.12323">
        <ele>709.11</ele>
        <time>2022-04-28T10:23:53Z</time>
      </trkpt>
      <trkpt lat="43.76176" lon="7.12326">
        <ele>709.59</ele>
        <time>2022-04-28T10:24:11Z</time>
      </trkpt>
      <trkpt lat="43.76176" lon="7.12329">
        <ele>706.23</ele>
        <time>2022-04-28T10:24:17Z</time>
      </trkpt>
      <trkpt lat="43.76176" lon="7.1233">
        <ele>710.55</ele>
        <time>2022-04-28T10:24:18Z</time>
      </trkpt>
      <trkpt lat="43.76176" lon="7.1233">
        <ele>707.19</ele>
        <time>2022-04-28T10:24:19Z</time>
      </trkpt>
      <trkpt lat="43.76176" lon="7.12328">
        <ele>706.23</ele>
        <time>2022-04-28T10:24:28Z</time>
      </trkpt>
      <trkpt lat="43.76176" lon="7.12328">
        <ele>709.59</ele>
        <time>2022-04-28T10:24:32Z</time>
      </trkpt>
      <trkpt lat="43.76175" lon="7.12328">
        <ele>708.15</ele>
        <time>2022-04-28T10:25:00Z</time>
      </trkpt>
      <trkpt lat="43.76176" lon="7.12327">
        <ele>708.15</ele>
        <time>2022-04-28T10:25:29Z</time>
      </trkpt>
      <trkpt lat="43.76174" lon="7.12326">
        <ele>708.63</ele>
        <time>2022-04-28T10:26:07Z</time>
      </trkpt>
      <trkpt lat="43.76176" lon="7.12324">
        <ele>708.63</ele>
        <time>2022-04-28T10:26:37Z</time>
      </trkpt>
      <trkpt lat="43.76176" lon="7.12325">
        <ele>708.15</ele>
        <time>2022-04-28T10:27:01Z</time>
      </trkpt>
      <trkpt lat="43.76175" lon="7.12326">
        <ele>708.63</ele>
        <time>2022-04-28T10:27:37Z</time>
      </trkpt>
      <trkpt lat="43.76174" lon="7.12327">
        <ele>707.67</ele>
        <time>2022-04-28T10:28:09Z</time>
      </trkpt>
      <trkpt lat="43.76175" lon="7.12327">
        <ele>709.11</ele>
        <time>2022-04-28T10:28:35Z</time>
      </trkpt>
      <trkpt lat="43.76175" lon="7.12326">
        <ele>708.15</ele>
        <time>2022-04-28T10:29:05Z</time>
      </trkpt>
      <trkpt lat="43.76175" lon="7.12326">
        <ele>709.11</ele>
        <time>2022-04-28T10:29:35Z</time>
      </trkpt>
      <trkpt lat="43.76175" lon="7.12326">
        <ele>709.11</ele>
        <time>2022-04-28T10:29:36Z</time>
      </trkpt>
      <trkpt lat="43.76175" lon="7.12327">
        <ele>708.15</ele>
        <time>2022-04-28T10:30:11Z</time>
      </trkpt>
      <trkpt lat="43.76176" lon="7.12327">
        <ele>708.63</ele>
        <time>2022-04-28T10:30:42Z</time>
      </trkpt>
      <trkpt lat="43.76176" lon="7.12327">
        <ele>708.15</ele>
        <time>2022-04-28T10:31:06Z</time>
      </trkpt>
      <trkpt lat="43.76175" lon="7.12325">
        <ele>708.15</ele>
        <time>2022-04-28T10:31:38Z</time>
      </trkpt>
      <trkpt lat="43.76175" lon="7.12327">
        <ele>708.63</ele>
        <time>2022-04-28T10:32:02Z</time>
      </trkpt>
      <trkpt lat="43.76176" lon="7.12327">
        <ele>708.63</ele>
        <time>2022-04-28T10:32:29Z</time>
      </trkpt>
      <trkpt lat="43.76177" lon="7.12328">
        <ele>708.15</ele>
        <time>2022-04-28T10:33:03Z</time>
      </trkpt>
      <trkpt lat="43.76176" lon="7.12327">
        <ele>708.15</ele>
        <time>2022-04-28T10:33:32Z</time>
      </trkpt>
      <trkpt lat="43.76175" lon="7.12327">
        <ele>708.15</ele>
        <time>2022-04-28T10:33:57Z</time>
      </trkpt>
      <trkpt lat="43.76174" lon="7.12324">
        <ele>708.15</ele>
        <time>2022-04-28T10:34:21Z</time>
      </trkpt>
      <trkpt lat="43.76174" lon="7.12322">
        <ele>708.15</ele>
        <time>2022-04-28T10:34:38Z</time>
      </trkpt>
      <trkpt lat="43.76174" lon="7.12323">
        <ele>708.15</ele>
        <time>2022-04-28T10:35:10Z</time>
      </trkpt>
      <trkpt lat="43.76174" lon="7.12326">
        <ele>707.67</ele>
        <time>2022-04-28T10:35:24Z</time>
      </trkpt>
      <trkpt lat="43.76174" lon="7.12322">
        <ele>708.63</ele>
        <time>2022-04-28T10:35:49Z</time>
      </trkpt>
      <trkpt lat="43.76173" lon="7.12322">
        <ele>708.15</ele>
        <time>2022-04-28T10:35:54Z</time>
      </trkpt>
      <trkpt lat="43.76174" lon="7.12327">
        <ele>707.19</ele>
        <time>2022-04-28T10:36:05Z</time>
      </trkpt>
      <trkpt lat="43.76178" lon="7.12326">
        <ele>708.15</ele>
        <time>2022-04-28T10:36:14Z</time>
      </trkpt>
      <trkpt lat="43.76179" lon="7.12326">
        <ele>708.15</ele>
        <time>2022-04-28T10:36:28Z</time>
      </trkpt>
      <trkpt lat="43.76179" lon="7.12326">
        <ele>708.15</ele>
        <time>2022-04-28T10:36:51Z</time>
      </trkpt>
      <trkpt lat="43.76179" lon="7.12324">
        <ele>708.63</ele>
        <time>2022-04-28T10:37:17Z</time>
      </trkpt>
      <trkpt lat="43.76189" lon="7.12324">
        <ele>707.67</ele>
        <time>2022-04-28T10:37:29Z</time>
      </trkpt>
      <trkpt lat="43.76193" lon="7.12324">
        <ele>709.59</ele>
        <time>2022-04-28T10:37:34Z</time>
      </trkpt>
      <trkpt lat="43.76196" lon="7.12324">
        <ele>710.07</ele>
        <time>2022-04-28T10:37:37Z</time>
      </trkpt>
      <trkpt lat="43.76197" lon="7.12325">
        <ele>706.23</ele>
        <time>2022-04-28T10:37:38Z</time>
      </trkpt>
      <trkpt lat="43.76208" lon="7.12324">
        <ele>709.11</ele>
        <time>2022-04-28T10:37:52Z</time>
      </trkpt>
      <trkpt lat="43.7621" lon="7.12323">
        <ele>706.23</ele>
        <time>2022-04-28T10:37:54Z</time>
      </trkpt>
      <trkpt lat="43.76212" lon="7.12322">
        <ele>707.19</ele>
        <time>2022-04-28T10:37:57Z</time>
      </trkpt>
      <trkpt lat="43.76214" lon="7.12321">
        <ele>705.75</ele>
        <time>2022-04-28T10:37:59Z</time>
      </trkpt>
      <trkpt lat="43.76215" lon="7.12321">
        <ele>709.11</ele>
        <time>2022-04-28T10:38:01Z</time>
      </trkpt>
      <trkpt lat="43.76221" lon="7.12322">
        <ele>709.59</ele>
        <time>2022-04-28T10:38:08Z</time>
      </trkpt>
      <trkpt lat="43.76223" lon="7.12321">
        <ele>708.15</ele>
        <time>2022-04-28T10:38:10Z</time>
      </trkpt>
      <trkpt lat="43.76227" lon="7.1232">
        <ele>701.42</ele>
        <time>2022-04-28T10:38:15Z</time>
      </trkpt>
      <trkpt lat="43.76228" lon="7.1232">
        <ele>709.59</ele>
        <time>2022-04-28T10:38:16Z</time>
      </trkpt>
      <trkpt lat="43.76232" lon="7.12319">
        <ele>706.23</ele>
        <time>2022-04-28T10:38:23Z</time>
      </trkpt>
      <trkpt lat="43.76233" lon="7.12319">
        <ele>709.59</ele>
        <time>2022-04-28T10:38:24Z</time>
      </trkpt>
      <trkpt lat="43.76233" lon="7.1232">
        <ele>690.36</ele>
        <time>2022-04-28T10:38:29Z</time>
      </trkpt>
      <trkpt lat="43.76233" lon="7.1232">
        <ele>723.05</ele>
        <time>2022-04-28T10:38:30Z</time>
      </trkpt>
      <trkpt lat="43.76234" lon="7.12321">
        <ele>709.11</ele>
        <time>2022-04-28T10:38:31Z</time>
      </trkpt>
      <trkpt lat="43.76235" lon="7.12321">
        <ele>708.63</ele>
        <time>2022-04-28T10:38:33Z</time>
      </trkpt>
      <trkpt lat="43.76243" lon="7.1232">
        <ele>703.82</ele>
        <time>2022-04-28T10:38:43Z</time>
      </trkpt>
      <trkpt lat="43.76244" lon="7.1232">
        <ele>711.99</ele>
        <time>2022-04-28T10:38:44Z</time>
      </trkpt>
      <trkpt lat="43.76245" lon="7.1232">
        <ele>708.15</ele>
        <time>2022-04-28T10:38:45Z</time>
      </trkpt>
      <trkpt lat="43.76254" lon="7.12319">
        <ele>708.63</ele>
        <time>2022-04-28T10:38:57Z</time>
      </trkpt>
      <trkpt lat="43.76264" lon="7.12321">
        <ele>708.15</ele>
        <time>2022-04-28T10:39:09Z</time>
      </trkpt>
      <trkpt lat="43.7627" lon="7.12321">
        <ele>712.47</ele>
        <time>2022-04-28T10:39:18Z</time>
      </trkpt>
      <trkpt lat="43.76271" lon="7.12321">
        <ele>707.19</ele>
        <time>2022-04-28T10:39:19Z</time>
      </trkpt>
      <trkpt lat="43.76271" lon="7.12321">
        <ele>712.47</ele>
        <time>2022-04-28T10:39:20Z</time>
      </trkpt>
      <trkpt lat="43.76272" lon="7.12321">
        <ele>707.67</ele>
        <time>2022-04-28T10:39:21Z</time>
      </trkpt>
      <trkpt lat="43.76273" lon="7.12321">
        <ele>711.03</ele>
        <time>2022-04-28T10:39:22Z</time>
      </trkpt>
      <trkpt lat="43.76277" lon="7.12322">
        <ele>708.15</ele>
        <time>2022-04-28T10:39:27Z</time>
      </trkpt>
      <trkpt lat="43.76277" lon="7.12322">
        <ele>711.51</ele>
        <time>2022-04-28T10:39:28Z</time>
      </trkpt>
      <trkpt lat="43.76281" lon="7.12322">
        <ele>708.15</ele>
        <time>2022-04-28T10:39:32Z</time>
      </trkpt>
      <trkpt lat="43.76283" lon="7.12325">
        <ele>711.51</ele>
        <time>2022-04-28T10:39:36Z</time>
      </trkpt>
      <trkpt lat="43.76286" lon="7.12324">
        <ele>711.03</ele>
        <time>2022-04-28T10:39:50Z</time>
      </trkpt>
      <trkpt lat="43.76289" lon="7.12328">
        <ele>709.11</ele>
        <time>2022-04-28T10:40:05Z</time>
      </trkpt>
      <trkpt lat="43.76294" lon="7.1233">
        <ele>708.15</ele>
        <time>2022-04-28T10:40:17Z</time>
      </trkpt>
      <trkpt lat="43.76295" lon="7.12332">
        <ele>707.67</ele>
        <time>2022-04-28T10:40:19Z</time>
      </trkpt>
      <trkpt lat="43.76295" lon="7.12338">
        <ele>707.67</ele>
        <time>2022-04-28T10:40:33Z</time>
      </trkpt>
      <trkpt lat="43.76294" lon="7.12337">
        <ele>706.71</ele>
        <time>2022-04-28T10:40:52Z</time>
      </trkpt>
      <trkpt lat="43.76296" lon="7.12342">
        <ele>706.71</ele>
        <time>2022-04-28T10:41:17Z</time>
      </trkpt>
      <trkpt lat="43.76298" lon="7.12343">
        <ele>711.51</ele>
        <time>2022-04-28T10:41:35Z</time>
      </trkpt>
      <trkpt lat="43.76298" lon="7.12343">
        <ele>705.75</ele>
        <time>2022-04-28T10:41:36Z</time>
      </trkpt>
      <trkpt lat="43.76298" lon="7.12343">
        <ele>710.07</ele>
        <time>2022-04-28T10:41:37Z</time>
      </trkpt>
      <trkpt lat="43.76299" lon="7.12343">
        <ele>704.3</ele>
        <time>2022-04-28T10:41:38Z</time>
      </trkpt>
      <trkpt lat="43.76299" lon="7.12343">
        <ele>707.67</ele>
        <time>2022-04-28T10:41:39Z</time>
      </trkpt>
      <trkpt lat="43.76302" lon="7.12344">
        <ele>711.51</ele>
        <time>2022-04-28T10:41:44Z</time>
      </trkpt>
      <trkpt lat="43.76303" lon="7.12344">
        <ele>706.71</ele>
        <time>2022-04-28T10:41:45Z</time>
      </trkpt>
      <trkpt lat="43.76305" lon="7.12354">
        <ele>708.15</ele>
        <time>2022-04-28T10:41:56Z</time>
      </trkpt>
      <trkpt lat="43.76306" lon="7.12364">
        <ele>705.26</ele>
        <time>2022-04-28T10:42:06Z</time>
      </trkpt>
      <trkpt lat="43.76308" lon="7.12377">
        <ele>704.78</ele>
        <time>2022-04-28T10:42:19Z</time>
      </trkpt>
      <trkpt lat="43.76309" lon="7.12389">
        <ele>705.26</ele>
        <time>2022-04-28T10:42:27Z</time>
      </trkpt>
      <trkpt lat="43.76309" lon="7.12391">
        <ele>706.23</ele>
        <time>2022-04-28T10:42:29Z</time>
      </trkpt>
      <trkpt lat="43.7631" lon="7.124">
        <ele>709.59</ele>
        <time>2022-04-28T10:42:35Z</time>
      </trkpt>
      <trkpt lat="43.76309" lon="7.12401">
        <ele>702.38</ele>
        <time>2022-04-28T10:42:36Z</time>
      </trkpt>
      <trkpt lat="43.76309" lon="7.12403">
        <ele>707.19</ele>
        <time>2022-04-28T10:42:37Z</time>
      </trkpt>
      <trkpt lat="43.7631" lon="7.12409">
        <ele>712.47</ele>
        <time>2022-04-28T10:42:42Z</time>
      </trkpt>
      <trkpt lat="43.7631" lon="7.1241">
        <ele>706.71</ele>
        <time>2022-04-28T10:42:43Z</time>
      </trkpt>
      <trkpt lat="43.76311" lon="7.12415">
        <ele>710.55</ele>
        <time>2022-04-28T10:42:47Z</time>
      </trkpt>
      <trkpt lat="43.76311" lon="7.12416">
        <ele>707.19</ele>
        <time>2022-04-28T10:42:48Z</time>
      </trkpt>
      <trkpt lat="43.76311" lon="7.12417">
        <ele>712.47</ele>
        <time>2022-04-28T10:42:49Z</time>
      </trkpt>
      <trkpt lat="43.76312" lon="7.12418">
        <ele>705.75</ele>
        <time>2022-04-28T10:42:50Z</time>
      </trkpt>
      <trkpt lat="43.76313" lon="7.12419">
        <ele>709.59</ele>
        <time>2022-04-28T10:42:52Z</time>
      </trkpt>
      <trkpt lat="43.76313" lon="7.1242">
        <ele>709.11</ele>
        <time>2022-04-28T10:42:53Z</time>
      </trkpt>
      <trkpt lat="43.76313" lon="7.12425">
        <ele>703.82</ele>
        <time>2022-04-28T10:42:58Z</time>
      </trkpt>
      <trkpt lat="43.76313" lon="7.12426">
        <ele>711.03</ele>
        <time>2022-04-28T10:42:59Z</time>
      </trkpt>
      <trkpt lat="43.76314" lon="7.12426">
        <ele>707.19</ele>
        <time>2022-04-28T10:43:00Z</time>
      </trkpt>
      <trkpt lat="43.76314" lon="7.12427">
        <ele>710.07</ele>
        <time>2022-04-28T10:43:01Z</time>
      </trkpt>
      <trkpt lat="43.76315" lon="7.12429">
        <ele>706.71</ele>
        <time>2022-04-28T10:43:03Z</time>
      </trkpt>
      <trkpt lat="43.76315" lon="7.1243">
        <ele>710.55</ele>
        <time>2022-04-28T10:43:04Z</time>
      </trkpt>
      <trkpt lat="43.76317" lon="7.12443">
        <ele>709.11</ele>
        <time>2022-04-28T10:43:16Z</time>
      </trkpt>
      <trkpt lat="43.76319" lon="7.12452">
        <ele>711.51</ele>
        <time>2022-04-28T10:43:25Z</time>
      </trkpt>
      <trkpt lat="43.76322" lon="7.12458">
        <ele>713.92</ele>
        <time>2022-04-28T10:43:31Z</time>
      </trkpt>
      <trkpt lat="43.76323" lon="7.12459">
        <ele>708.63</ele>
        <time>2022-04-28T10:43:32Z</time>
      </trkpt>
      <trkpt lat="43.76324" lon="7.12461">
        <ele>711.51</ele>
        <time>2022-04-28T10:43:34Z</time>
      </trkpt>
      <trkpt lat="43.76325" lon="7.12463">
        <ele>708.15</ele>
        <time>2022-04-28T10:43:37Z</time>
      </trkpt>
      <trkpt lat="43.76326" lon="7.12465">
        <ele>711.99</ele>
        <time>2022-04-28T10:43:40Z</time>
      </trkpt>
      <trkpt lat="43.76327" lon="7.12466">
        <ele>703.34</ele>
        <time>2022-04-28T10:43:41Z</time>
      </trkpt>
      <trkpt lat="43.76327" lon="7.12466">
        <ele>712.95</ele>
        <time>2022-04-28T10:43:42Z</time>
      </trkpt>
      <trkpt lat="43.76328" lon="7.12467">
        <ele>711.51</ele>
        <time>2022-04-28T10:43:43Z</time>
      </trkpt>
      <trkpt lat="43.76335" lon="7.12478">
        <ele>713.44</ele>
        <time>2022-04-28T10:43:56Z</time>
      </trkpt>
      <trkpt lat="43.76336" lon="7.12479">
        <ele>709.11</ele>
        <time>2022-04-28T10:43:57Z</time>
      </trkpt>
      <trkpt lat="43.76337" lon="7.1248">
        <ele>712.47</ele>
        <time>2022-04-28T10:43:59Z</time>
      </trkpt>
      <trkpt lat="43.76342" lon="7.12491">
        <ele>711.99</ele>
        <time>2022-04-28T10:44:10Z</time>
      </trkpt>
      <trkpt lat="43.76353" lon="7.12499">
        <ele>712.47</ele>
        <time>2022-04-28T10:44:24Z</time>
      </trkpt>
      <trkpt lat="43.76354" lon="7.12499">
        <ele>717.28</ele>
        <time>2022-04-28T10:44:25Z</time>
      </trkpt>
      <trkpt lat="43.76355" lon="7.12499">
        <ele>709.11</ele>
        <time>2022-04-28T10:44:26Z</time>
      </trkpt>
      <trkpt lat="43.76355" lon="7.125">
        <ele>715.36</ele>
        <time>2022-04-28T10:44:27Z</time>
      </trkpt>
      <trkpt lat="43.76357" lon="7.12503">
        <ele>710.07</ele>
        <time>2022-04-28T10:44:31Z</time>
      </trkpt>
      <trkpt lat="43.76357" lon="7.12504">
        <ele>714.4</ele>
        <time>2022-04-28T10:44:32Z</time>
      </trkpt>
      <trkpt lat="43.76359" lon="7.12505">
        <ele>712.95</ele>
        <time>2022-04-28T10:44:34Z</time>
      </trkpt>
      <trkpt lat="43.76363" lon="7.12507">
        <ele>707.19</ele>
        <time>2022-04-28T10:44:39Z</time>
      </trkpt>
      <trkpt lat="43.76363" lon="7.12507">
        <ele>713.92</ele>
        <time>2022-04-28T10:44:40Z</time>
      </trkpt>
      <trkpt lat="43.76365" lon="7.12508">
        <ele>709.11</ele>
        <time>2022-04-28T10:44:42Z</time>
      </trkpt>
      <trkpt lat="43.76366" lon="7.12509">
        <ele>715.84</ele>
        <time>2022-04-28T10:44:43Z</time>
      </trkpt>
      <trkpt lat="43.76367" lon="7.12509">
        <ele>712.47</ele>
        <time>2022-04-28T10:44:44Z</time>
      </trkpt>
      <trkpt lat="43.76368" lon="7.1251">
        <ele>715.84</ele>
        <time>2022-04-28T10:44:45Z</time>
      </trkpt>
      <trkpt lat="43.76369" lon="7.12511">
        <ele>719.68</ele>
        <time>2022-04-28T10:44:48Z</time>
      </trkpt>
      <trkpt lat="43.7637" lon="7.12512">
        <ele>714.4</ele>
        <time>2022-04-28T10:44:49Z</time>
      </trkpt>
      <trkpt lat="43.76373" lon="7.12514">
        <ele>719.2</ele>
        <time>2022-04-28T10:44:53Z</time>
      </trkpt>
      <trkpt lat="43.76374" lon="7.12514">
        <ele>712.47</ele>
        <time>2022-04-28T10:44:54Z</time>
      </trkpt>
      <trkpt lat="43.76374" lon="7.12515">
        <ele>716.32</ele>
        <time>2022-04-28T10:44:55Z</time>
      </trkpt>
      <trkpt lat="43.76375" lon="7.12515">
        <ele>711.51</ele>
        <time>2022-04-28T10:44:56Z</time>
      </trkpt>
      <trkpt lat="43.76375" lon="7.12516">
        <ele>718.24</ele>
        <time>2022-04-28T10:44:57Z</time>
      </trkpt>
      <trkpt lat="43.76378" lon="7.12515">
        <ele>718.24</ele>
        <time>2022-04-28T10:45:01Z</time>
      </trkpt>
      <trkpt lat="43.7638" lon="7.12515">
        <ele>718.24</ele>
        <time>2022-04-28T10:45:15Z</time>
      </trkpt>
      <trkpt lat="43.76382" lon="7.12515">
        <ele>718.24</ele>
        <time>2022-04-28T10:45:47Z</time>
      </trkpt>
      <trkpt lat="43.76381" lon="7.12513">
        <ele>718.24</ele>
        <time>2022-04-28T10:46:09Z</time>
      </trkpt>
      <trkpt lat="43.76385" lon="7.12515">
        <ele>721.61</ele>
        <time>2022-04-28T10:46:26Z</time>
      </trkpt>
      <trkpt lat="43.76388" lon="7.12518">
        <ele>718.24</ele>
        <time>2022-04-28T10:46:31Z</time>
      </trkpt>
      <trkpt lat="43.76388" lon="7.12519">
        <ele>722.09</ele>
        <time>2022-04-28T10:46:32Z</time>
      </trkpt>
      <trkpt lat="43.76389" lon="7.12519">
        <ele>718.72</ele>
        <time>2022-04-28T10:46:33Z</time>
      </trkpt>
      <trkpt lat="43.7639" lon="7.12519">
        <ele>722.57</ele>
        <time>2022-04-28T10:46:35Z</time>
      </trkpt>
      <trkpt lat="43.76391" lon="7.1252">
        <ele>719.2</ele>
        <time>2022-04-28T10:46:36Z</time>
      </trkpt>
      <trkpt lat="43.76391" lon="7.1252">
        <ele>723.53</ele>
        <time>2022-04-28T10:46:37Z</time>
      </trkpt>
      <trkpt lat="43.76392" lon="7.1252">
        <ele>719.2</ele>
        <time>2022-04-28T10:46:38Z</time>
      </trkpt>
      <trkpt lat="43.76394" lon="7.12521">
        <ele>724.49</ele>
        <time>2022-04-28T10:46:42Z</time>
      </trkpt>
      <trkpt lat="43.76395" lon="7.12521">
        <ele>717.76</ele>
        <time>2022-04-28T10:46:43Z</time>
      </trkpt>
      <trkpt lat="43.76395" lon="7.12522">
        <ele>722.57</ele>
        <time>2022-04-28T10:46:44Z</time>
      </trkpt>
      <trkpt lat="43.76396" lon="7.12522">
        <ele>719.2</ele>
        <time>2022-04-28T10:46:45Z</time>
      </trkpt>
      <trkpt lat="43.76396" lon="7.12522">
        <ele>722.57</ele>
        <time>2022-04-28T10:46:46Z</time>
      </trkpt>
      <trkpt lat="43.76401" lon="7.12527">
        <ele>726.89</ele>
        <time>2022-04-28T10:46:54Z</time>
      </trkpt>
      <trkpt lat="43.76401" lon="7.12528">
        <ele>723.53</ele>
        <time>2022-04-28T10:46:55Z</time>
      </trkpt>
      <trkpt lat="43.76402" lon="7.12531">
        <ele>724.97</ele>
        <time>2022-04-28T10:47:00Z</time>
      </trkpt>
      <trkpt lat="43.76403" lon="7.12533">
        <ele>721.13</ele>
        <time>2022-04-28T10:47:02Z</time>
      </trkpt>
      <trkpt lat="43.76405" lon="7.12534">
        <ele>722.57</ele>
        <time>2022-04-28T10:47:04Z</time>
      </trkpt>
      <trkpt lat="43.76405" lon="7.12534">
        <ele>717.76</ele>
        <time>2022-04-28T10:47:05Z</time>
      </trkpt>
      <trkpt lat="43.76406" lon="7.12534">
        <ele>722.57</ele>
        <time>2022-04-28T10:47:06Z</time>
      </trkpt>
      <trkpt lat="43.76408" lon="7.12534">
        <ele>726.89</ele>
        <time>2022-04-28T10:47:09Z</time>
      </trkpt>
      <trkpt lat="43.76409" lon="7.12534">
        <ele>719.68</ele>
        <time>2022-04-28T10:47:10Z</time>
      </trkpt>
      <trkpt lat="43.7641" lon="7.12534">
        <ele>728.34</ele>
        <time>2022-04-28T10:47:11Z</time>
      </trkpt>
      <trkpt lat="43.7641" lon="7.12534">
        <ele>721.61</ele>
        <time>2022-04-28T10:47:12Z</time>
      </trkpt>
      <trkpt lat="43.76412" lon="7.12536">
        <ele>724.49</ele>
        <time>2022-04-28T10:47:14Z</time>
      </trkpt>
      <trkpt lat="43.76412" lon="7.12536">
        <ele>723.53</ele>
        <time>2022-04-28T10:47:15Z</time>
      </trkpt>
      <trkpt lat="43.76414" lon="7.12539">
        <ele>724.49</ele>
        <time>2022-04-28T10:47:19Z</time>
      </trkpt>
      <trkpt lat="43.76418" lon="7.12543">
        <ele>722.09</ele>
        <time>2022-04-28T10:47:24Z</time>
      </trkpt>
      <trkpt lat="43.76421" lon="7.12544">
        <ele>723.05</ele>
        <time>2022-04-28T10:47:27Z</time>
      </trkpt>
      <trkpt lat="43.76425" lon="7.12546">
        <ele>722.09</ele>
        <time>2022-04-28T10:47:32Z</time>
      </trkpt>
      <trkpt lat="43.76427" lon="7.12546">
        <ele>726.89</ele>
        <time>2022-04-28T10:47:36Z</time>
      </trkpt>
      <trkpt lat="43.76428" lon="7.12547">
        <ele>722.57</ele>
        <time>2022-04-28T10:47:37Z</time>
      </trkpt>
      <trkpt lat="43.76438" lon="7.12555">
        <ele>724.49</ele>
        <time>2022-04-28T10:47:50Z</time>
      </trkpt>
      <trkpt lat="43.7644" lon="7.12563">
        <ele>720.65</ele>
        <time>2022-04-28T10:47:58Z</time>
      </trkpt>
      <trkpt lat="43.7644" lon="7.12564">
        <ele>726.41</ele>
        <time>2022-04-28T10:47:59Z</time>
      </trkpt>
      <trkpt lat="43.76441" lon="7.12565">
        <ele>721.61</ele>
        <time>2022-04-28T10:48:00Z</time>
      </trkpt>
      <trkpt lat="43.76446" lon="7.12575">
        <ele>718.24</ele>
        <time>2022-04-28T10:48:13Z</time>
      </trkpt>
      <trkpt lat="43.76448" lon="7.12578">
        <ele>721.61</ele>
        <time>2022-04-28T10:48:17Z</time>
      </trkpt>
      <trkpt lat="43.76448" lon="7.12579">
        <ele>720.16</ele>
        <time>2022-04-28T10:48:20Z</time>
      </trkpt>
      <trkpt lat="43.76456" lon="7.12592">
        <ele>717.28</ele>
        <time>2022-04-28T10:48:34Z</time>
      </trkpt>
      <trkpt lat="43.76468" lon="7.126">
        <ele>718.72</ele>
        <time>2022-04-28T10:48:46Z</time>
      </trkpt>
      <trkpt lat="43.76479" lon="7.1261">
        <ele>718.24</ele>
        <time>2022-04-28T10:49:00Z</time>
      </trkpt>
      <trkpt lat="43.76483" lon="7.12616">
        <ele>717.76</ele>
        <time>2022-04-28T10:49:07Z</time>
      </trkpt>
      <trkpt lat="43.76492" lon="7.12627">
        <ele>717.28</ele>
        <time>2022-04-28T10:49:20Z</time>
      </trkpt>
      <trkpt lat="43.76491" lon="7.12628">
        <ele>716.32</ele>
        <time>2022-04-28T10:49:21Z</time>
      </trkpt>
      <trkpt lat="43.76493" lon="7.12636">
        <ele>716.32</ele>
        <time>2022-04-28T10:49:27Z</time>
      </trkpt>
      <trkpt lat="43.76494" lon="7.12639">
        <ele>716.32</ele>
        <time>2022-04-28T10:49:29Z</time>
      </trkpt>
      <trkpt lat="43.76495" lon="7.12642">
        <ele>714.88</ele>
        <time>2022-04-28T10:49:31Z</time>
      </trkpt>
      <trkpt lat="43.765" lon="7.12653">
        <ele>714.88</ele>
        <time>2022-04-28T10:49:40Z</time>
      </trkpt>
      <trkpt lat="43.76503" lon="7.12659">
        <ele>713.92</ele>
        <time>2022-04-28T10:49:44Z</time>
      </trkpt>
      <trkpt lat="43.76506" lon="7.12664">
        <ele>714.88</ele>
        <time>2022-04-28T10:49:48Z</time>
      </trkpt>
      <trkpt lat="43.76512" lon="7.12678">
        <ele>712.47</ele>
        <time>2022-04-28T10:49:59Z</time>
      </trkpt>
      <trkpt lat="43.76517" lon="7.12688">
        <ele>711.99</ele>
        <time>2022-04-28T10:50:08Z</time>
      </trkpt>
      <trkpt lat="43.76519" lon="7.12692">
        <ele>710.55</ele>
        <time>2022-04-28T10:50:11Z</time>
      </trkpt>
      <trkpt lat="43.76521" lon="7.12694">
        <ele>714.4</ele>
        <time>2022-04-28T10:50:13Z</time>
      </trkpt>
      <trkpt lat="43.76525" lon="7.12697">
        <ele>709.11</ele>
        <time>2022-04-28T10:50:18Z</time>
      </trkpt>
      <trkpt lat="43.76526" lon="7.12698">
        <ele>714.88</ele>
        <time>2022-04-28T10:50:19Z</time>
      </trkpt>
      <trkpt lat="43.76532" lon="7.12704">
        <ele>715.36</ele>
        <time>2022-04-28T10:50:27Z</time>
      </trkpt>
      <trkpt lat="43.76532" lon="7.12705">
        <ele>711.51</ele>
        <time>2022-04-28T10:50:28Z</time>
      </trkpt>
      <trkpt lat="43.76533" lon="7.12706">
        <ele>715.36</ele>
        <time>2022-04-28T10:50:29Z</time>
      </trkpt>
      <trkpt lat="43.76534" lon="7.12707">
        <ele>711.51</ele>
        <time>2022-04-28T10:50:31Z</time>
      </trkpt>
      <trkpt lat="43.76535" lon="7.12708">
        <ele>716.32</ele>
        <time>2022-04-28T10:50:32Z</time>
      </trkpt>
      <trkpt lat="43.76536" lon="7.1271">
        <ele>711.99</ele>
        <time>2022-04-28T10:50:34Z</time>
      </trkpt>
      <trkpt lat="43.76537" lon="7.12711">
        <ele>715.36</ele>
        <time>2022-04-28T10:50:35Z</time>
      </trkpt>
      <trkpt lat="43.7654" lon="7.12716">
        <ele>715.84</ele>
        <time>2022-04-28T10:50:40Z</time>
      </trkpt>
      <trkpt lat="43.76548" lon="7.12725">
        <ele>713.44</ele>
        <time>2022-04-28T10:50:52Z</time>
      </trkpt>
      <trkpt lat="43.76552" lon="7.1273">
        <ele>713.92</ele>
        <time>2022-04-28T10:50:59Z</time>
      </trkpt>
      <trkpt lat="43.76553" lon="7.1273">
        <ele>716.8</ele>
        <time>2022-04-28T10:51:00Z</time>
      </trkpt>
      <trkpt lat="43.76554" lon="7.1273">
        <ele>714.88</ele>
        <time>2022-04-28T10:51:01Z</time>
      </trkpt>
      <trkpt lat="43.76557" lon="7.12731">
        <ele>716.32</ele>
        <time>2022-04-28T10:51:04Z</time>
      </trkpt>
      <trkpt lat="43.76557" lon="7.12732">
        <ele>711.99</ele>
        <time>2022-04-28T10:51:05Z</time>
      </trkpt>
      <trkpt lat="43.76558" lon="7.12732">
        <ele>717.76</ele>
        <time>2022-04-28T10:51:06Z</time>
      </trkpt>
      <trkpt lat="43.7656" lon="7.12736">
        <ele>716.32</ele>
        <time>2022-04-28T10:51:09Z</time>
      </trkpt>
      <trkpt lat="43.76561" lon="7.12736">
        <ele>718.72</ele>
        <time>2022-04-28T10:51:10Z</time>
      </trkpt>
      <trkpt lat="43.76564" lon="7.12737">
        <ele>718.72</ele>
        <time>2022-04-28T10:51:13Z</time>
      </trkpt>
      <trkpt lat="43.76569" lon="7.12743">
        <ele>716.32</ele>
        <time>2022-04-28T10:51:19Z</time>
      </trkpt>
      <trkpt lat="43.7657" lon="7.12746">
        <ele>717.28</ele>
        <time>2022-04-28T10:51:21Z</time>
      </trkpt>
      <trkpt lat="43.76578" lon="7.12757">
        <ele>717.28</ele>
        <time>2022-04-28T10:51:31Z</time>
      </trkpt>
      <trkpt lat="43.76578" lon="7.12758">
        <ele>715.36</ele>
        <time>2022-04-28T10:51:32Z</time>
      </trkpt>
      <trkpt lat="43.7658" lon="7.12759">
        <ele>723.05</ele>
        <time>2022-04-28T10:51:34Z</time>
      </trkpt>
      <trkpt lat="43.7658" lon="7.1276">
        <ele>717.28</ele>
        <time>2022-04-28T10:51:35Z</time>
      </trkpt>
      <trkpt lat="43.76585" lon="7.12769">
        <ele>714.4</ele>
        <time>2022-04-28T10:51:46Z</time>
      </trkpt>
      <trkpt lat="43.7659" lon="7.12777">
        <ele>714.4</ele>
        <time>2022-04-28T10:51:54Z</time>
      </trkpt>
      <trkpt lat="43.76602" lon="7.12785">
        <ele>716.32</ele>
        <time>2022-04-28T10:52:06Z</time>
      </trkpt>
      <trkpt lat="43.76603" lon="7.12786">
        <ele>714.4</ele>
        <time>2022-04-28T10:52:07Z</time>
      </trkpt>
      <trkpt lat="43.76605" lon="7.12786">
        <ele>713.44</ele>
        <time>2022-04-28T10:52:09Z</time>
      </trkpt>
      <trkpt lat="43.7661" lon="7.12788">
        <ele>714.4</ele>
        <time>2022-04-28T10:52:15Z</time>
      </trkpt>
      <trkpt lat="43.76619" lon="7.12795">
        <ele>717.76</ele>
        <time>2022-04-28T10:52:23Z</time>
      </trkpt>
      <trkpt lat="43.7662" lon="7.12795">
        <ele>713.92</ele>
        <time>2022-04-28T10:52:24Z</time>
      </trkpt>
      <trkpt lat="43.76627" lon="7.12803">
        <ele>714.4</ele>
        <time>2022-04-28T10:52:32Z</time>
      </trkpt>
      <trkpt lat="43.76629" lon="7.12807">
        <ele>713.44</ele>
        <time>2022-04-28T10:52:36Z</time>
      </trkpt>
      <trkpt lat="43.76633" lon="7.12812">
        <ele>714.4</ele>
        <time>2022-04-28T10:52:41Z</time>
      </trkpt>
      <trkpt lat="43.76637" lon="7.12816">
        <ele>714.4</ele>
        <time>2022-04-28T10:52:45Z</time>
      </trkpt>
      <trkpt lat="43.76639" lon="7.12817">
        <ele>710.55</ele>
        <time>2022-04-28T10:52:47Z</time>
      </trkpt>
      <trkpt lat="43.76642" lon="7.12818">
        <ele>715.84</ele>
        <time>2022-04-28T10:52:49Z</time>
      </trkpt>
      <trkpt lat="43.76645" lon="7.12821">
        <ele>717.28</ele>
        <time>2022-04-28T10:52:52Z</time>
      </trkpt>
      <trkpt lat="43.76645" lon="7.12821">
        <ele>711.51</ele>
        <time>2022-04-28T10:52:53Z</time>
      </trkpt>
      <trkpt lat="43.76647" lon="7.12822">
        <ele>716.32</ele>
        <time>2022-04-28T10:52:55Z</time>
      </trkpt>
      <trkpt lat="43.76648" lon="7.12823">
        <ele>712.95</ele>
        <time>2022-04-28T10:52:56Z</time>
      </trkpt>
      <trkpt lat="43.76656" lon="7.1283">
        <ele>716.32</ele>
        <time>2022-04-28T10:53:06Z</time>
      </trkpt>
      <trkpt lat="43.76657" lon="7.12831">
        <ele>711.99</ele>
        <time>2022-04-28T10:53:07Z</time>
      </trkpt>
      <trkpt lat="43.76658" lon="7.12832">
        <ele>715.84</ele>
        <time>2022-04-28T10:53:09Z</time>
      </trkpt>
      <trkpt lat="43.76659" lon="7.12832">
        <ele>714.88</ele>
        <time>2022-04-28T10:53:10Z</time>
      </trkpt>
      <trkpt lat="43.76663" lon="7.12831">
        <ele>714.4</ele>
        <time>2022-04-28T10:53:22Z</time>
      </trkpt>
      <trkpt lat="43.76668" lon="7.12837">
        <ele>714.88</ele>
        <time>2022-04-28T10:53:46Z</time>
      </trkpt>
      <trkpt lat="43.76672" lon="7.12841">
        <ele>718.24</ele>
        <time>2022-04-28T10:53:51Z</time>
      </trkpt>
      <trkpt lat="43.76672" lon="7.12842">
        <ele>713.44</ele>
        <time>2022-04-28T10:53:52Z</time>
      </trkpt>
      <trkpt lat="43.76675" lon="7.12848">
        <ele>713.92</ele>
        <time>2022-04-28T10:54:05Z</time>
      </trkpt>
      <trkpt lat="43.76682" lon="7.12853">
        <ele>712.95</ele>
        <time>2022-04-28T10:54:25Z</time>
      </trkpt>
      <trkpt lat="43.76683" lon="7.12854">
        <ele>716.8</ele>
        <time>2022-04-28T10:54:26Z</time>
      </trkpt>
      <trkpt lat="43.76684" lon="7.12854">
        <ele>713.92</ele>
        <time>2022-04-28T10:54:27Z</time>
      </trkpt>
      <trkpt lat="43.76686" lon="7.12855">
        <ele>715.36</ele>
        <time>2022-04-28T10:54:30Z</time>
      </trkpt>
      <trkpt lat="43.76687" lon="7.12855">
        <ele>711.51</ele>
        <time>2022-04-28T10:54:31Z</time>
      </trkpt>
      <trkpt lat="43.76688" lon="7.12856">
        <ele>714.88</ele>
        <time>2022-04-28T10:54:32Z</time>
      </trkpt>
      <trkpt lat="43.76694" lon="7.12861">
        <ele>713.92</ele>
        <time>2022-04-28T10:54:41Z</time>
      </trkpt>
      <trkpt lat="43.76698" lon="7.12864">
        <ele>713.92</ele>
        <time>2022-04-28T10:54:45Z</time>
      </trkpt>
      <trkpt lat="43.767" lon="7.12869">
        <ele>712.47</ele>
        <time>2022-04-28T10:54:49Z</time>
      </trkpt>
      <trkpt lat="43.76703" lon="7.12871">
        <ele>711.51</ele>
        <time>2022-04-28T10:54:52Z</time>
      </trkpt>
      <trkpt lat="43.7671" lon="7.12879">
        <ele>713.44</ele>
        <time>2022-04-28T10:54:59Z</time>
      </trkpt>
      <trkpt lat="43.76716" lon="7.12882">
        <ele>713.44</ele>
        <time>2022-04-28T10:55:06Z</time>
      </trkpt>
      <trkpt lat="43.76718" lon="7.12885">
        <ele>712.47</ele>
        <time>2022-04-28T10:55:09Z</time>
      </trkpt>
      <trkpt lat="43.7672" lon="7.12886">
        <ele>713.92</ele>
        <time>2022-04-28T10:55:11Z</time>
      </trkpt>
      <trkpt lat="43.76722" lon="7.12888">
        <ele>711.99</ele>
        <time>2022-04-28T10:55:13Z</time>
      </trkpt>
      <trkpt lat="43.76724" lon="7.1289">
        <ele>714.88</ele>
        <time>2022-04-28T10:55:15Z</time>
      </trkpt>
      <trkpt lat="43.76733" lon="7.12901">
        <ele>716.32</ele>
        <time>2022-04-28T10:55:26Z</time>
      </trkpt>
      <trkpt lat="43.76735" lon="7.12903">
        <ele>711.51</ele>
        <time>2022-04-28T10:55:28Z</time>
      </trkpt>
      <trkpt lat="43.76737" lon="7.12905">
        <ele>715.36</ele>
        <time>2022-04-28T10:55:30Z</time>
      </trkpt>
      <trkpt lat="43.7674" lon="7.12906">
        <ele>714.88</ele>
        <time>2022-04-28T10:55:33Z</time>
      </trkpt>
      <trkpt lat="43.76742" lon="7.12909">
        <ele>713.44</ele>
        <time>2022-04-28T10:55:36Z</time>
      </trkpt>
      <trkpt lat="43.76748" lon="7.12919">
        <ele>714.88</ele>
        <time>2022-04-28T10:55:45Z</time>
      </trkpt>
      <trkpt lat="43.7675" lon="7.12925">
        <ele>714.4</ele>
        <time>2022-04-28T10:55:58Z</time>
      </trkpt>
      <trkpt lat="43.76749" lon="7.12932">
        <ele>712.95</ele>
        <time>2022-04-28T10:56:04Z</time>
      </trkpt>
      <trkpt lat="43.76746" lon="7.12948">
        <ele>712.95</ele>
        <time>2022-04-28T10:56:17Z</time>
      </trkpt>
      <trkpt lat="43.76746" lon="7.12949">
        <ele>713.44</ele>
        <time>2022-04-28T10:56:39Z</time>
      </trkpt>
      <trkpt lat="43.76745" lon="7.12948">
        <ele>712.47</ele>
        <time>2022-04-28T10:57:01Z</time>
      </trkpt>
      <trkpt lat="43.76746" lon="7.12945">
        <ele>713.44</ele>
        <time>2022-04-28T10:57:24Z</time>
      </trkpt>
      <trkpt lat="43.76743" lon="7.1296">
        <ele>715.84</ele>
        <time>2022-04-28T10:57:36Z</time>
      </trkpt>
      <trkpt lat="43.76742" lon="7.12967">
        <ele>720.65</ele>
        <time>2022-04-28T10:57:42Z</time>
      </trkpt>
      <trkpt lat="43.76742" lon="7.12968">
        <ele>709.59</ele>
        <time>2022-04-28T10:57:43Z</time>
      </trkpt>
      <trkpt lat="43.76742" lon="7.12969">
        <ele>715.36</ele>
        <time>2022-04-28T10:57:44Z</time>
      </trkpt>
      <trkpt lat="43.76742" lon="7.12971">
        <ele>716.32</ele>
        <time>2022-04-28T10:57:46Z</time>
      </trkpt>
      <trkpt lat="43.76741" lon="7.12974">
        <ele>716.32</ele>
        <time>2022-04-28T10:58:02Z</time>
      </trkpt>
      <trkpt lat="43.76742" lon="7.12974">
        <ele>721.13</ele>
        <time>2022-04-28T10:58:05Z</time>
      </trkpt>
      <trkpt lat="43.76743" lon="7.12975">
        <ele>715.36</ele>
        <time>2022-04-28T10:58:06Z</time>
      </trkpt>
      <trkpt lat="43.76744" lon="7.12975">
        <ele>716.32</ele>
        <time>2022-04-28T10:58:08Z</time>
      </trkpt>
      <trkpt lat="43.76749" lon="7.12978">
        <ele>713.44</ele>
        <time>2022-04-28T10:58:16Z</time>
      </trkpt>
      <trkpt lat="43.76749" lon="7.1298">
        <ele>718.72</ele>
        <time>2022-04-28T10:58:18Z</time>
      </trkpt>
      <trkpt lat="43.76751" lon="7.12981">
        <ele>714.88</ele>
        <time>2022-04-28T10:58:20Z</time>
      </trkpt>
      <trkpt lat="43.76752" lon="7.12983">
        <ele>718.72</ele>
        <time>2022-04-28T10:58:22Z</time>
      </trkpt>
      <trkpt lat="43.76756" lon="7.12986">
        <ele>716.8</ele>
        <time>2022-04-28T10:58:26Z</time>
      </trkpt>
      <trkpt lat="43.76763" lon="7.12993">
        <ele>719.2</ele>
        <time>2022-04-28T10:58:35Z</time>
      </trkpt>
      <trkpt lat="43.76763" lon="7.12994">
        <ele>718.24</ele>
        <time>2022-04-28T10:58:36Z</time>
      </trkpt>
      <trkpt lat="43.76764" lon="7.12995">
        <ele>714.88</ele>
        <time>2022-04-28T10:58:37Z</time>
      </trkpt>
      <trkpt lat="43.76765" lon="7.12996">
        <ele>721.13</ele>
        <time>2022-04-28T10:58:38Z</time>
      </trkpt>
      <trkpt lat="43.76765" lon="7.12996">
        <ele>717.28</ele>
        <time>2022-04-28T10:58:39Z</time>
      </trkpt>
      <trkpt lat="43.76767" lon="7.12998">
        <ele>720.16</ele>
        <time>2022-04-28T10:58:41Z</time>
      </trkpt>
      <trkpt lat="43.76767" lon="7.12999">
        <ele>716.8</ele>
        <time>2022-04-28T10:58:42Z</time>
      </trkpt>
      <trkpt lat="43.76769" lon="7.13001">
        <ele>723.53</ele>
        <time>2022-04-28T10:58:44Z</time>
      </trkpt>
      <trkpt lat="43.7677" lon="7.13002">
        <ele>716.32</ele>
        <time>2022-04-28T10:58:45Z</time>
      </trkpt>
      <trkpt lat="43.7677" lon="7.13002">
        <ele>720.16</ele>
        <time>2022-04-28T10:58:46Z</time>
      </trkpt>
      <trkpt lat="43.76773" lon="7.13004">
        <ele>718.72</ele>
        <time>2022-04-28T10:58:49Z</time>
      </trkpt>
      <trkpt lat="43.76774" lon="7.13004">
        <ele>722.09</ele>
        <time>2022-04-28T10:58:50Z</time>
      </trkpt>
      <trkpt lat="43.76775" lon="7.13004">
        <ele>720.65</ele>
        <time>2022-04-28T10:58:51Z</time>
      </trkpt>
      <trkpt lat="43.76782" lon="7.13006">
        <ele>720.65</ele>
        <time>2022-04-28T10:59:03Z</time>
      </trkpt>
      <trkpt lat="43.76785" lon="7.13007">
        <ele>724.01</ele>
        <time>2022-04-28T10:59:15Z</time>
      </trkpt>
      <trkpt lat="43.76786" lon="7.13007">
        <ele>718.24</ele>
        <time>2022-04-28T10:59:16Z</time>
      </trkpt>
      <trkpt lat="43.76787" lon="7.13009">
        <ele>722.57</ele>
        <time>2022-04-28T10:59:18Z</time>
      </trkpt>
      <trkpt lat="43.76788" lon="7.13009">
        <ele>722.09</ele>
        <time>2022-04-28T10:59:19Z</time>
      </trkpt>
      <trkpt lat="43.76794" lon="7.13013">
        <ele>718.24</ele>
        <time>2022-04-28T10:59:32Z</time>
      </trkpt>
      <trkpt lat="43.76794" lon="7.13013">
        <ele>723.05</ele>
        <time>2022-04-28T10:59:33Z</time>
      </trkpt>
      <trkpt lat="43.76796" lon="7.13014">
        <ele>720.16</ele>
        <time>2022-04-28T10:59:35Z</time>
      </trkpt>
      <trkpt lat="43.76797" lon="7.13015">
        <ele>723.53</ele>
        <time>2022-04-28T10:59:36Z</time>
      </trkpt>
      <trkpt lat="43.76797" lon="7.13015">
        <ele>721.13</ele>
        <time>2022-04-28T10:59:38Z</time>
      </trkpt>
      <trkpt lat="43.768" lon="7.13016">
        <ele>719.68</ele>
        <time>2022-04-28T10:59:40Z</time>
      </trkpt>
      <trkpt lat="43.76801" lon="7.13016">
        <ele>723.53</ele>
        <time>2022-04-28T10:59:42Z</time>
      </trkpt>
      <trkpt lat="43.76802" lon="7.13015">
        <ele>723.53</ele>
        <time>2022-04-28T10:59:43Z</time>
      </trkpt>
      <trkpt lat="43.76808" lon="7.13016">
        <ele>718.72</ele>
        <time>2022-04-28T10:59:50Z</time>
      </trkpt>
      <trkpt lat="43.76808" lon="7.13016">
        <ele>723.53</ele>
        <time>2022-04-28T10:59:51Z</time>
      </trkpt>
      <trkpt lat="43.7681" lon="7.13016">
        <ele>719.68</ele>
        <time>2022-04-28T10:59:53Z</time>
      </trkpt>
      <trkpt lat="43.7681" lon="7.13016">
        <ele>723.05</ele>
        <time>2022-04-28T10:59:54Z</time>
      </trkpt>
      <trkpt lat="43.76811" lon="7.13017">
        <ele>726.41</ele>
        <time>2022-04-28T10:59:55Z</time>
      </trkpt>
      <trkpt lat="43.76812" lon="7.13017">
        <ele>720.65</ele>
        <time>2022-04-28T10:59:56Z</time>
      </trkpt>
      <trkpt lat="43.76815" lon="7.13017">
        <ele>724.97</ele>
        <time>2022-04-28T11:00:00Z</time>
      </trkpt>
      <trkpt lat="43.76816" lon="7.13017">
        <ele>724.97</ele>
        <time>2022-04-28T11:00:01Z</time>
      </trkpt>
      <trkpt lat="43.76818" lon="7.13018">
        <ele>719.68</ele>
        <time>2022-04-28T11:00:02Z</time>
      </trkpt>
      <trkpt lat="43.76819" lon="7.13019">
        <ele>724.01</ele>
        <time>2022-04-28T11:00:03Z</time>
      </trkpt>
      <trkpt lat="43.76825" lon="7.13024">
        <ele>725.45</ele>
        <time>2022-04-28T11:00:10Z</time>
      </trkpt>
      <trkpt lat="43.76828" lon="7.13027">
        <ele>725.45</ele>
        <time>2022-04-28T11:00:13Z</time>
      </trkpt>
      <trkpt lat="43.76829" lon="7.13029">
        <ele>722.57</ele>
        <time>2022-04-28T11:00:15Z</time>
      </trkpt>
      <trkpt lat="43.7683" lon="7.1303">
        <ele>725.93</ele>
        <time>2022-04-28T11:00:16Z</time>
      </trkpt>
      <trkpt lat="43.76836" lon="7.13033">
        <ele>729.3</ele>
        <time>2022-04-28T11:00:23Z</time>
      </trkpt>
      <trkpt lat="43.76836" lon="7.13034">
        <ele>723.53</ele>
        <time>2022-04-28T11:00:24Z</time>
      </trkpt>
      <trkpt lat="43.76836" lon="7.13034">
        <ele>725.93</ele>
        <time>2022-04-28T11:00:25Z</time>
      </trkpt>
      <trkpt lat="43.76839" lon="7.13034">
        <ele>725.93</ele>
        <time>2022-04-28T11:00:27Z</time>
      </trkpt>
      <trkpt lat="43.76848" lon="7.13035">
        <ele>725.93</ele>
        <time>2022-04-28T11:00:37Z</time>
      </trkpt>
      <trkpt lat="43.76849" lon="7.13036">
        <ele>724.49</ele>
        <time>2022-04-28T11:00:39Z</time>
      </trkpt>
      <trkpt lat="43.7685" lon="7.13037">
        <ele>726.89</ele>
        <time>2022-04-28T11:00:40Z</time>
      </trkpt>
      <trkpt lat="43.7686" lon="7.13045">
        <ele>726.41</ele>
        <time>2022-04-28T11:00:52Z</time>
      </trkpt>
      <trkpt lat="43.76865" lon="7.13045">
        <ele>725.93</ele>
        <time>2022-04-28T11:00:56Z</time>
      </trkpt>
      <trkpt lat="43.76866" lon="7.13044">
        <ele>726.41</ele>
        <time>2022-04-28T11:00:57Z</time>
      </trkpt>
      <trkpt lat="43.76867" lon="7.13035">
        <ele>724.49</ele>
        <time>2022-04-28T11:01:13Z</time>
      </trkpt>
      <trkpt lat="43.76869" lon="7.13034">
        <ele>725.45</ele>
        <time>2022-04-28T11:01:18Z</time>
      </trkpt>
      <trkpt lat="43.76871" lon="7.13035">
        <ele>725.93</ele>
        <time>2022-04-28T11:01:20Z</time>
      </trkpt>
      <trkpt lat="43.76873" lon="7.13036">
        <ele>720.65</ele>
        <time>2022-04-28T11:01:21Z</time>
      </trkpt>
      <trkpt lat="43.76874" lon="7.13036">
        <ele>726.41</ele>
        <time>2022-04-28T11:01:22Z</time>
      </trkpt>
      <trkpt lat="43.76878" lon="7.13035">
        <ele>723.05</ele>
        <time>2022-04-28T11:01:27Z</time>
      </trkpt>
      <trkpt lat="43.76879" lon="7.13035">
        <ele>725.93</ele>
        <time>2022-04-28T11:01:28Z</time>
      </trkpt>
      <trkpt lat="43.76882" lon="7.13035">
        <ele>724.49</ele>
        <time>2022-04-28T11:01:30Z</time>
      </trkpt>
      <trkpt lat="43.76885" lon="7.13035">
        <ele>727.37</ele>
        <time>2022-04-28T11:01:33Z</time>
      </trkpt>
      <trkpt lat="43.76887" lon="7.13035">
        <ele>724.49</ele>
        <time>2022-04-28T11:01:35Z</time>
      </trkpt>
      <trkpt lat="43.76888" lon="7.13035">
        <ele>729.3</ele>
        <time>2022-04-28T11:01:36Z</time>
      </trkpt>
      <trkpt lat="43.76888" lon="7.13036">
        <ele>722.09</ele>
        <time>2022-04-28T11:01:37Z</time>
      </trkpt>
      <trkpt lat="43.76889" lon="7.13036">
        <ele>727.37</ele>
        <time>2022-04-28T11:01:38Z</time>
      </trkpt>
      <trkpt lat="43.76894" lon="7.13037">
        <ele>727.86</ele>
        <time>2022-04-28T11:01:43Z</time>
      </trkpt>
      <trkpt lat="43.76895" lon="7.13038">
        <ele>727.86</ele>
        <time>2022-04-28T11:01:45Z</time>
      </trkpt>
      <trkpt lat="43.76897" lon="7.13039">
        <ele>724.49</ele>
        <time>2022-04-28T11:01:47Z</time>
      </trkpt>
      <trkpt lat="43.76898" lon="7.1304">
        <ele>727.86</ele>
        <time>2022-04-28T11:01:48Z</time>
      </trkpt>
      <trkpt lat="43.769" lon="7.13041">
        <ele>724.01</ele>
        <time>2022-04-28T11:01:50Z</time>
      </trkpt>
      <trkpt lat="43.76901" lon="7.13042">
        <ele>728.34</ele>
        <time>2022-04-28T11:01:51Z</time>
      </trkpt>
      <trkpt lat="43.76906" lon="7.13045">
        <ele>728.34</ele>
        <time>2022-04-28T11:01:58Z</time>
      </trkpt>
      <trkpt lat="43.76909" lon="7.13045">
        <ele>726.41</ele>
        <time>2022-04-28T11:02:01Z</time>
      </trkpt>
      <trkpt lat="43.7691" lon="7.13046">
        <ele>729.3</ele>
        <time>2022-04-28T11:02:03Z</time>
      </trkpt>
      <trkpt lat="43.76911" lon="7.13046">
        <ele>721.61</ele>
        <time>2022-04-28T11:02:04Z</time>
      </trkpt>
      <trkpt lat="43.76912" lon="7.13047">
        <ele>732.18</ele>
        <time>2022-04-28T11:02:05Z</time>
      </trkpt>
      <trkpt lat="43.76914" lon="7.13048">
        <ele>730.74</ele>
        <time>2022-04-28T11:02:06Z</time>
      </trkpt>
      <trkpt lat="43.76918" lon="7.13051">
        <ele>726.89</ele>
        <time>2022-04-28T11:02:14Z</time>
      </trkpt>
      <trkpt lat="43.76921" lon="7.13053">
        <ele>732.66</ele>
        <time>2022-04-28T11:02:16Z</time>
      </trkpt>
      <trkpt lat="43.76922" lon="7.13053">
        <ele>727.86</ele>
        <time>2022-04-28T11:02:17Z</time>
      </trkpt>
      <trkpt lat="43.76925" lon="7.13055">
        <ele>729.3</ele>
        <time>2022-04-28T11:02:21Z</time>
      </trkpt>
      <trkpt lat="43.76928" lon="7.13057">
        <ele>733.62</ele>
        <time>2022-04-28T11:02:25Z</time>
      </trkpt>
      <trkpt lat="43.76928" lon="7.13058">
        <ele>729.3</ele>
        <time>2022-04-28T11:02:26Z</time>
      </trkpt>
      <trkpt lat="43.7693" lon="7.13059">
        <ele>734.58</ele>
        <time>2022-04-28T11:02:28Z</time>
      </trkpt>
      <trkpt lat="43.76931" lon="7.1306">
        <ele>730.26</ele>
        <time>2022-04-28T11:02:29Z</time>
      </trkpt>
      <trkpt lat="43.76933" lon="7.13061">
        <ele>737.47</ele>
        <time>2022-04-28T11:02:31Z</time>
      </trkpt>
      <trkpt lat="43.76933" lon="7.13061">
        <ele>728.34</ele>
        <time>2022-04-28T11:02:32Z</time>
      </trkpt>
      <trkpt lat="43.76933" lon="7.13061">
        <ele>732.18</ele>
        <time>2022-04-28T11:02:33Z</time>
      </trkpt>
      <trkpt lat="43.76935" lon="7.13061">
        <ele>732.18</ele>
        <time>2022-04-28T11:02:38Z</time>
      </trkpt>
      <trkpt lat="43.76939" lon="7.13061">
        <ele>727.86</ele>
        <time>2022-04-28T11:02:43Z</time>
      </trkpt>
      <trkpt lat="43.76945" lon="7.13063">
        <ele>736.03</ele>
        <time>2022-04-28T11:02:48Z</time>
      </trkpt>
      <trkpt lat="43.76945" lon="7.13063">
        <ele>728.82</ele>
        <time>2022-04-28T11:02:49Z</time>
      </trkpt>
      <trkpt lat="43.76946" lon="7.13063">
        <ele>732.66</ele>
        <time>2022-04-28T11:02:50Z</time>
      </trkpt>
      <trkpt lat="43.76948" lon="7.13064">
        <ele>729.3</ele>
        <time>2022-04-28T11:02:52Z</time>
      </trkpt>
      <trkpt lat="43.76949" lon="7.13064">
        <ele>733.62</ele>
        <time>2022-04-28T11:02:53Z</time>
      </trkpt>
      <trkpt lat="43.76952" lon="7.13063">
        <ele>734.1</ele>
        <time>2022-04-28T11:02:58Z</time>
      </trkpt>
      <trkpt lat="43.76955" lon="7.13064">
        <ele>732.18</ele>
        <time>2022-04-28T11:03:00Z</time>
      </trkpt>
      <trkpt lat="43.76958" lon="7.13063">
        <ele>729.78</ele>
        <time>2022-04-28T11:03:03Z</time>
      </trkpt>
      <trkpt lat="43.76958" lon="7.13063">
        <ele>735.07</ele>
        <time>2022-04-28T11:03:04Z</time>
      </trkpt>
      <trkpt lat="43.76959" lon="7.13062">
        <ele>740.83</ele>
        <time>2022-04-28T11:03:05Z</time>
      </trkpt>
      <trkpt lat="43.76959" lon="7.13061">
        <ele>733.14</ele>
        <time>2022-04-28T11:03:06Z</time>
      </trkpt>
      <trkpt lat="43.7696" lon="7.1306">
        <ele>737.95</ele>
        <time>2022-04-28T11:03:07Z</time>
      </trkpt>
      <trkpt lat="43.7696" lon="7.1306">
        <ele>730.26</ele>
        <time>2022-04-28T11:03:08Z</time>
      </trkpt>
      <trkpt lat="43.76961" lon="7.1306">
        <ele>736.99</ele>
        <time>2022-04-28T11:03:09Z</time>
      </trkpt>
      <trkpt lat="43.76961" lon="7.13059">
        <ele>733.14</ele>
        <time>2022-04-28T11:03:10Z</time>
      </trkpt>
      <trkpt lat="43.76961" lon="7.13058">
        <ele>737.47</ele>
        <time>2022-04-28T11:03:12Z</time>
      </trkpt>
      <trkpt lat="43.76962" lon="7.13056">
        <ele>735.55</ele>
        <time>2022-04-28T11:03:27Z</time>
      </trkpt>
      <trkpt lat="43.76962" lon="7.13056">
        <ele>735.55</ele>
        <time>2022-04-28T11:03:46Z</time>
      </trkpt>
      <trkpt lat="43.76961" lon="7.13053">
        <ele>735.55</ele>
        <time>2022-04-28T11:04:08Z</time>
      </trkpt>
      <trkpt lat="43.76965" lon="7.13057">
        <ele>736.51</ele>
        <time>2022-04-28T11:04:13Z</time>
      </trkpt>
      <trkpt lat="43.76967" lon="7.13059">
        <ele>733.62</ele>
        <time>2022-04-28T11:04:18Z</time>
      </trkpt>
      <trkpt lat="43.76969" lon="7.13061">
        <ele>733.14</ele>
        <time>2022-04-28T11:04:20Z</time>
      </trkpt>
      <trkpt lat="43.7697" lon="7.13062">
        <ele>738.43</ele>
        <time>2022-04-28T11:04:22Z</time>
      </trkpt>
      <trkpt lat="43.76972" lon="7.13064">
        <ele>734.1</ele>
        <time>2022-04-28T11:04:24Z</time>
      </trkpt>
      <trkpt lat="43.76973" lon="7.13064">
        <ele>738.43</ele>
        <time>2022-04-28T11:04:25Z</time>
      </trkpt>
      <trkpt lat="43.7698" lon="7.1307">
        <ele>738.91</ele>
        <time>2022-04-28T11:04:33Z</time>
      </trkpt>
      <trkpt lat="43.76981" lon="7.13071">
        <ele>736.03</ele>
        <time>2022-04-28T11:04:34Z</time>
      </trkpt>
      <trkpt lat="43.76984" lon="7.13073">
        <ele>738.91</ele>
        <time>2022-04-28T11:04:37Z</time>
      </trkpt>
      <trkpt lat="43.76985" lon="7.13074">
        <ele>735.55</ele>
        <time>2022-04-28T11:04:38Z</time>
      </trkpt>
      <trkpt lat="43.76987" lon="7.13075">
        <ele>741.31</ele>
        <time>2022-04-28T11:04:40Z</time>
      </trkpt>
      <trkpt lat="43.76988" lon="7.13075">
        <ele>733.62</ele>
        <time>2022-04-28T11:04:41Z</time>
      </trkpt>
      <trkpt lat="43.76989" lon="7.13075">
        <ele>737.95</ele>
        <time>2022-04-28T11:04:42Z</time>
      </trkpt>
      <trkpt lat="43.76994" lon="7.13079">
        <ele>735.07</ele>
        <time>2022-04-28T11:04:48Z</time>
      </trkpt>
      <trkpt lat="43.76995" lon="7.13079">
        <ele>739.87</ele>
        <time>2022-04-28T11:04:49Z</time>
      </trkpt>
      <trkpt lat="43.76998" lon="7.1308">
        <ele>735.07</ele>
        <time>2022-04-28T11:04:51Z</time>
      </trkpt>
      <trkpt lat="43.76999" lon="7.13081">
        <ele>740.35</ele>
        <time>2022-04-28T11:04:52Z</time>
      </trkpt>
      <trkpt lat="43.77001" lon="7.13081">
        <ele>737.47</ele>
        <time>2022-04-28T11:04:54Z</time>
      </trkpt>
      <trkpt lat="43.77006" lon="7.13085">
        <ele>741.31</ele>
        <time>2022-04-28T11:05:00Z</time>
      </trkpt>
      <trkpt lat="43.77008" lon="7.13086">
        <ele>740.35</ele>
        <time>2022-04-28T11:05:02Z</time>
      </trkpt>
      <trkpt lat="43.77011" lon="7.13088">
        <ele>738.91</ele>
        <time>2022-04-28T11:05:05Z</time>
      </trkpt>
      <trkpt lat="43.77014" lon="7.13091">
        <ele>736.99</ele>
        <time>2022-04-28T11:05:08Z</time>
      </trkpt>
      <trkpt lat="43.77017" lon="7.13095">
        <ele>739.87</ele>
        <time>2022-04-28T11:05:12Z</time>
      </trkpt>
      <trkpt lat="43.77017" lon="7.13095">
        <ele>744.2</ele>
        <time>2022-04-28T11:05:13Z</time>
      </trkpt>
      <trkpt lat="43.77018" lon="7.13096">
        <ele>740.83</ele>
        <time>2022-04-28T11:05:14Z</time>
      </trkpt>
      <trkpt lat="43.77026" lon="7.13102">
        <ele>745.64</ele>
        <time>2022-04-28T11:05:23Z</time>
      </trkpt>
      <trkpt lat="43.77027" lon="7.13102">
        <ele>738.91</ele>
        <time>2022-04-28T11:05:24Z</time>
      </trkpt>
      <trkpt lat="43.77028" lon="7.13103">
        <ele>742.28</ele>
        <time>2022-04-28T11:05:25Z</time>
      </trkpt>
      <trkpt lat="43.77029" lon="7.13103">
        <ele>745.16</ele>
        <time>2022-04-28T11:05:26Z</time>
      </trkpt>
      <trkpt lat="43.77029" lon="7.13103">
        <ele>740.83</ele>
        <time>2022-04-28T11:05:27Z</time>
      </trkpt>
      <trkpt lat="43.77031" lon="7.13104">
        <ele>746.12</ele>
        <time>2022-04-28T11:05:29Z</time>
      </trkpt>
      <trkpt lat="43.77032" lon="7.13105">
        <ele>739.87</ele>
        <time>2022-04-28T11:05:30Z</time>
      </trkpt>
      <trkpt lat="43.77032" lon="7.13106">
        <ele>743.72</ele>
        <time>2022-04-28T11:05:31Z</time>
      </trkpt>
      <trkpt lat="43.77035" lon="7.13109">
        <ele>739.87</ele>
        <time>2022-04-28T11:05:36Z</time>
      </trkpt>
      <trkpt lat="43.77036" lon="7.1311">
        <ele>745.64</ele>
        <time>2022-04-28T11:05:37Z</time>
      </trkpt>
      <trkpt lat="43.77043" lon="7.13116">
        <ele>749</ele>
        <time>2022-04-28T11:05:47Z</time>
      </trkpt>
      <trkpt lat="43.77044" lon="7.13116">
        <ele>741.79</ele>
        <time>2022-04-28T11:05:48Z</time>
      </trkpt>
      <trkpt lat="43.77045" lon="7.13117">
        <ele>745.64</ele>
        <time>2022-04-28T11:05:49Z</time>
      </trkpt>
      <trkpt lat="43.77048" lon="7.1312">
        <ele>742.76</ele>
        <time>2022-04-28T11:05:53Z</time>
      </trkpt>
      <trkpt lat="43.77049" lon="7.13121">
        <ele>746.12</ele>
        <time>2022-04-28T11:05:55Z</time>
      </trkpt>
      <trkpt lat="43.77052" lon="7.13122">
        <ele>745.16</ele>
        <time>2022-04-28T11:05:59Z</time>
      </trkpt>
      <trkpt lat="43.77056" lon="7.13125">
        <ele>742.76</ele>
        <time>2022-04-28T11:06:05Z</time>
      </trkpt>
      <trkpt lat="43.77057" lon="7.13125">
        <ele>747.56</ele>
        <time>2022-04-28T11:06:06Z</time>
      </trkpt>
      <trkpt lat="43.7706" lon="7.13128">
        <ele>750.45</ele>
        <time>2022-04-28T11:06:11Z</time>
      </trkpt>
      <trkpt lat="43.77061" lon="7.13129">
        <ele>748.04</ele>
        <time>2022-04-28T11:06:12Z</time>
      </trkpt>
      <trkpt lat="43.77064" lon="7.13131">
        <ele>748.04</ele>
        <time>2022-04-28T11:06:15Z</time>
      </trkpt>
      <trkpt lat="43.77066" lon="7.13133">
        <ele>746.12</ele>
        <time>2022-04-28T11:06:17Z</time>
      </trkpt>
      <trkpt lat="43.77074" lon="7.13139">
        <ele>748.52</ele>
        <time>2022-04-28T11:06:27Z</time>
      </trkpt>
      <trkpt lat="43.77075" lon="7.13139">
        <ele>752.37</ele>
        <time>2022-04-28T11:06:28Z</time>
      </trkpt>
      <trkpt lat="43.77076" lon="7.1314">
        <ele>746.12</ele>
        <time>2022-04-28T11:06:29Z</time>
      </trkpt>
      <trkpt lat="43.77078" lon="7.13141">
        <ele>752.37</ele>
        <time>2022-04-28T11:06:31Z</time>
      </trkpt>
      <trkpt lat="43.77079" lon="7.13141">
        <ele>746.12</ele>
        <time>2022-04-28T11:06:32Z</time>
      </trkpt>
      <trkpt lat="43.77081" lon="7.13142">
        <ele>750.93</ele>
        <time>2022-04-28T11:06:34Z</time>
      </trkpt>
      <trkpt lat="43.77082" lon="7.13143">
        <ele>748.04</ele>
        <time>2022-04-28T11:06:35Z</time>
      </trkpt>
      <trkpt lat="43.77085" lon="7.13146">
        <ele>748.52</ele>
        <time>2022-04-28T11:06:40Z</time>
      </trkpt>
      <trkpt lat="43.77087" lon="7.13148">
        <ele>748.04</ele>
        <time>2022-04-28T11:06:43Z</time>
      </trkpt>
      <trkpt lat="43.77089" lon="7.1315">
        <ele>750.45</ele>
        <time>2022-04-28T11:06:45Z</time>
      </trkpt>
      <trkpt lat="43.77098" lon="7.13159">
        <ele>749.49</ele>
        <time>2022-04-28T11:06:57Z</time>
      </trkpt>
      <trkpt lat="43.77107" lon="7.13166">
        <ele>754.77</ele>
        <time>2022-04-28T11:07:10Z</time>
      </trkpt>
      <trkpt lat="43.77108" lon="7.13167">
        <ele>749.49</ele>
        <time>2022-04-28T11:07:11Z</time>
      </trkpt>
      <trkpt lat="43.77111" lon="7.13169">
        <ele>757.18</ele>
        <time>2022-04-28T11:07:17Z</time>
      </trkpt>
      <trkpt lat="43.77112" lon="7.13169">
        <ele>748.52</ele>
        <time>2022-04-28T11:07:18Z</time>
      </trkpt>
      <trkpt lat="43.77112" lon="7.13169">
        <ele>753.33</ele>
        <time>2022-04-28T11:07:19Z</time>
      </trkpt>
      <trkpt lat="43.77113" lon="7.1317">
        <ele>749.97</ele>
        <time>2022-04-28T11:07:21Z</time>
      </trkpt>
      <trkpt lat="43.77115" lon="7.13172">
        <ele>750.93</ele>
        <time>2022-04-28T11:07:24Z</time>
      </trkpt>
      <trkpt lat="43.77118" lon="7.13174">
        <ele>753.81</ele>
        <time>2022-04-28T11:07:27Z</time>
      </trkpt>
      <trkpt lat="43.7712" lon="7.13175">
        <ele>748.04</ele>
        <time>2022-04-28T11:07:29Z</time>
      </trkpt>
      <trkpt lat="43.7712" lon="7.13175">
        <ele>755.73</ele>
        <time>2022-04-28T11:07:30Z</time>
      </trkpt>
      <trkpt lat="43.77123" lon="7.13176">
        <ele>752.37</ele>
        <time>2022-04-28T11:07:34Z</time>
      </trkpt>
      <trkpt lat="43.77126" lon="7.13178">
        <ele>756.69</ele>
        <time>2022-04-28T11:07:38Z</time>
      </trkpt>
      <trkpt lat="43.77127" lon="7.13179">
        <ele>750.93</ele>
        <time>2022-04-28T11:07:39Z</time>
      </trkpt>
      <trkpt lat="43.77127" lon="7.13179">
        <ele>755.73</ele>
        <time>2022-04-28T11:07:40Z</time>
      </trkpt>
      <trkpt lat="43.77129" lon="7.13182">
        <ele>751.89</ele>
        <time>2022-04-28T11:07:45Z</time>
      </trkpt>
      <trkpt lat="43.7713" lon="7.13183">
        <ele>755.73</ele>
        <time>2022-04-28T11:07:46Z</time>
      </trkpt>
      <trkpt lat="43.77137" lon="7.13185">
        <ele>755.25</ele>
        <time>2022-04-28T11:07:54Z</time>
      </trkpt>
      <trkpt lat="43.77139" lon="7.13185">
        <ele>762.46</ele>
        <time>2022-04-28T11:07:56Z</time>
      </trkpt>
      <trkpt lat="43.7714" lon="7.13185">
        <ele>753.33</ele>
        <time>2022-04-28T11:07:57Z</time>
      </trkpt>
      <trkpt lat="43.7714" lon="7.13185">
        <ele>756.69</ele>
        <time>2022-04-28T11:07:58Z</time>
      </trkpt>
      <trkpt lat="43.77141" lon="7.13185">
        <ele>760.54</ele>
        <time>2022-04-28T11:07:59Z</time>
      </trkpt>
      <trkpt lat="43.77142" lon="7.13185">
        <ele>755.25</ele>
        <time>2022-04-28T11:08:00Z</time>
      </trkpt>
      <trkpt lat="43.77143" lon="7.13186">
        <ele>758.62</ele>
        <time>2022-04-28T11:08:01Z</time>
      </trkpt>
      <trkpt lat="43.77143" lon="7.13186">
        <ele>753.33</ele>
        <time>2022-04-28T11:08:02Z</time>
      </trkpt>
      <trkpt lat="43.77144" lon="7.13186">
        <ele>758.14</ele>
        <time>2022-04-28T11:08:03Z</time>
      </trkpt>
      <trkpt lat="43.77145" lon="7.13186">
        <ele>754.29</ele>
        <time>2022-04-28T11:08:05Z</time>
      </trkpt>
      <trkpt lat="43.77146" lon="7.13186">
        <ele>758.62</ele>
        <time>2022-04-28T11:08:06Z</time>
      </trkpt>
      <trkpt lat="43.77149" lon="7.13186">
        <ele>762.94</ele>
        <time>2022-04-28T11:08:09Z</time>
      </trkpt>
      <trkpt lat="43.77149" lon="7.13186">
        <ele>753.33</ele>
        <time>2022-04-28T11:08:10Z</time>
      </trkpt>
      <trkpt lat="43.7715" lon="7.13185">
        <ele>759.58</ele>
        <time>2022-04-28T11:08:11Z</time>
      </trkpt>
      <trkpt lat="43.77151" lon="7.13185">
        <ele>763.42</ele>
        <time>2022-04-28T11:08:12Z</time>
      </trkpt>
      <trkpt lat="43.77151" lon="7.13185">
        <ele>758.14</ele>
        <time>2022-04-28T11:08:13Z</time>
      </trkpt>
      <trkpt lat="43.77152" lon="7.13186">
        <ele>761.5</ele>
        <time>2022-04-28T11:08:14Z</time>
      </trkpt>
      <trkpt lat="43.77152" lon="7.13186">
        <ele>757.66</ele>
        <time>2022-04-28T11:08:15Z</time>
      </trkpt>
      <trkpt lat="43.77154" lon="7.13187">
        <ele>763.42</ele>
        <time>2022-04-28T11:08:17Z</time>
      </trkpt>
      <trkpt lat="43.77155" lon="7.13187">
        <ele>756.21</ele>
        <time>2022-04-28T11:08:18Z</time>
      </trkpt>
      <trkpt lat="43.77156" lon="7.13188">
        <ele>760.06</ele>
        <time>2022-04-28T11:08:19Z</time>
      </trkpt>
      <trkpt lat="43.77157" lon="7.13189">
        <ele>755.25</ele>
        <time>2022-04-28T11:08:21Z</time>
      </trkpt>
      <trkpt lat="43.77158" lon="7.13189">
        <ele>761.98</ele>
        <time>2022-04-28T11:08:22Z</time>
      </trkpt>
      <trkpt lat="43.7716" lon="7.1319">
        <ele>758.62</ele>
        <time>2022-04-28T11:08:24Z</time>
      </trkpt>
      <trkpt lat="43.77161" lon="7.1319">
        <ele>762.46</ele>
        <time>2022-04-28T11:08:25Z</time>
      </trkpt>
      <trkpt lat="43.77163" lon="7.13191">
        <ele>758.14</ele>
        <time>2022-04-28T11:08:29Z</time>
      </trkpt>
      <trkpt lat="43.77172" lon="7.13193">
        <ele>763.42</ele>
        <time>2022-04-28T11:08:40Z</time>
      </trkpt>
      <trkpt lat="43.77173" lon="7.13193">
        <ele>759.58</ele>
        <time>2022-04-28T11:08:41Z</time>
      </trkpt>
      <trkpt lat="43.77175" lon="7.13194">
        <ele>764.39</ele>
        <time>2022-04-28T11:08:43Z</time>
      </trkpt>
      <trkpt lat="43.77176" lon="7.13194">
        <ele>758.14</ele>
        <time>2022-04-28T11:08:44Z</time>
      </trkpt>
      <trkpt lat="43.77176" lon="7.13194">
        <ele>762.94</ele>
        <time>2022-04-28T11:08:45Z</time>
      </trkpt>
      <trkpt lat="43.77177" lon="7.13194">
        <ele>766.31</ele>
        <time>2022-04-28T11:08:46Z</time>
      </trkpt>
      <trkpt lat="43.77178" lon="7.13194">
        <ele>759.1</ele>
        <time>2022-04-28T11:08:47Z</time>
      </trkpt>
      <trkpt lat="43.77179" lon="7.13194">
        <ele>763.42</ele>
        <time>2022-04-28T11:08:48Z</time>
      </trkpt>
      <trkpt lat="43.7718" lon="7.13194">
        <ele>766.79</ele>
        <time>2022-04-28T11:08:49Z</time>
      </trkpt>
      <trkpt lat="43.77181" lon="7.13194">
        <ele>758.62</ele>
        <time>2022-04-28T11:08:50Z</time>
      </trkpt>
      <trkpt lat="43.77182" lon="7.13195">
        <ele>763.9</ele>
        <time>2022-04-28T11:08:51Z</time>
      </trkpt>
      <trkpt lat="43.77184" lon="7.13195">
        <ele>760.06</ele>
        <time>2022-04-28T11:08:53Z</time>
      </trkpt>
      <trkpt lat="43.77194" lon="7.13205">
        <ele>763.42</ele>
        <time>2022-04-28T11:09:04Z</time>
      </trkpt>
      <trkpt lat="43.77195" lon="7.13205">
        <ele>761.5</ele>
        <time>2022-04-28T11:09:06Z</time>
      </trkpt>
      <trkpt lat="43.77195" lon="7.13205">
        <ele>765.83</ele>
        <time>2022-04-28T11:09:07Z</time>
      </trkpt>
      <trkpt lat="43.77198" lon="7.13205">
        <ele>756.69</ele>
        <time>2022-04-28T11:09:11Z</time>
      </trkpt>
      <trkpt lat="43.77198" lon="7.13205">
        <ele>767.75</ele>
        <time>2022-04-28T11:09:12Z</time>
      </trkpt>
      <trkpt lat="43.77199" lon="7.13204">
        <ele>763.9</ele>
        <time>2022-04-28T11:09:16Z</time>
      </trkpt>
      <trkpt lat="43.772" lon="7.13204">
        <ele>770.15</ele>
        <time>2022-04-28T11:09:17Z</time>
      </trkpt>
      <trkpt lat="43.772" lon="7.13204">
        <ele>763.9</ele>
        <time>2022-04-28T11:09:18Z</time>
      </trkpt>
      <trkpt lat="43.77201" lon="7.13204">
        <ele>767.75</ele>
        <time>2022-04-28T11:09:20Z</time>
      </trkpt>
      <trkpt lat="43.77201" lon="7.13205">
        <ele>765.35</ele>
        <time>2022-04-28T11:09:21Z</time>
      </trkpt>
      <trkpt lat="43.77203" lon="7.13206">
        <ele>764.87</ele>
        <time>2022-04-28T11:09:23Z</time>
      </trkpt>
      <trkpt lat="43.77205" lon="7.13207">
        <ele>768.23</ele>
        <time>2022-04-28T11:09:25Z</time>
      </trkpt>
      <trkpt lat="43.77206" lon="7.13208">
        <ele>763.42</ele>
        <time>2022-04-28T11:09:26Z</time>
      </trkpt>
      <trkpt lat="43.77206" lon="7.13208">
        <ele>768.23</ele>
        <time>2022-04-28T11:09:27Z</time>
      </trkpt>
      <trkpt lat="43.77215" lon="7.13213">
        <ele>767.27</ele>
        <time>2022-04-28T11:09:38Z</time>
      </trkpt>
      <trkpt lat="43.77215" lon="7.13215">
        <ele>767.75</ele>
        <time>2022-04-28T11:09:41Z</time>
      </trkpt>
      <trkpt lat="43.77218" lon="7.13214">
        <ele>765.35</ele>
        <time>2022-04-28T11:09:44Z</time>
      </trkpt>
      <trkpt lat="43.7722" lon="7.13214">
        <ele>771.11</ele>
        <time>2022-04-28T11:09:46Z</time>
      </trkpt>
      <trkpt lat="43.77221" lon="7.13214">
        <ele>764.87</ele>
        <time>2022-04-28T11:09:47Z</time>
      </trkpt>
      <trkpt lat="43.77222" lon="7.13214">
        <ele>768.71</ele>
        <time>2022-04-28T11:09:49Z</time>
      </trkpt>
      <trkpt lat="43.77223" lon="7.13214">
        <ele>765.35</ele>
        <time>2022-04-28T11:09:51Z</time>
      </trkpt>
      <trkpt lat="43.77227" lon="7.13212">
        <ele>774</ele>
        <time>2022-04-28T11:09:56Z</time>
      </trkpt>
      <trkpt lat="43.77228" lon="7.13212">
        <ele>768.23</ele>
        <time>2022-04-28T11:09:57Z</time>
      </trkpt>
      <trkpt lat="43.77233" lon="7.13212">
        <ele>766.79</ele>
        <time>2022-04-28T11:10:02Z</time>
      </trkpt>
      <trkpt lat="43.77234" lon="7.13212">
        <ele>770.15</ele>
        <time>2022-04-28T11:10:03Z</time>
      </trkpt>
      <trkpt lat="43.77239" lon="7.13211">
        <ele>768.71</ele>
        <time>2022-04-28T11:10:09Z</time>
      </trkpt>
      <trkpt lat="43.77239" lon="7.13212">
        <ele>772.08</ele>
        <time>2022-04-28T11:10:10Z</time>
      </trkpt>
      <trkpt lat="43.7724" lon="7.13212">
        <ele>768.23</ele>
        <time>2022-04-28T11:10:11Z</time>
      </trkpt>
      <trkpt lat="43.77244" lon="7.13214">
        <ele>776.88</ele>
        <time>2022-04-28T11:10:16Z</time>
      </trkpt>
      <trkpt lat="43.77245" lon="7.13215">
        <ele>770.63</ele>
        <time>2022-04-28T11:10:17Z</time>
      </trkpt>
      <trkpt lat="43.77247" lon="7.13215">
        <ele>774.96</ele>
        <time>2022-04-28T11:10:19Z</time>
      </trkpt>
      <trkpt lat="43.77248" lon="7.13215">
        <ele>769.67</ele>
        <time>2022-04-28T11:10:20Z</time>
      </trkpt>
      <trkpt lat="43.77253" lon="7.13221">
        <ele>770.15</ele>
        <time>2022-04-28T11:10:31Z</time>
      </trkpt>
      <trkpt lat="43.77253" lon="7.1322">
        <ele>770.63</ele>
        <time>2022-04-28T11:10:50Z</time>
      </trkpt>
      <trkpt lat="43.77254" lon="7.13217">
        <ele>770.15</ele>
        <time>2022-04-28T11:11:17Z</time>
      </trkpt>
      <trkpt lat="43.77255" lon="7.13219">
        <ele>770.15</ele>
        <time>2022-04-28T11:11:34Z</time>
      </trkpt>
      <trkpt lat="43.77254" lon="7.13219">
        <ele>770.63</ele>
        <time>2022-04-28T11:11:56Z</time>
      </trkpt>
      <trkpt lat="43.77255" lon="7.13217">
        <ele>770.63</ele>
        <time>2022-04-28T11:12:19Z</time>
      </trkpt>
      <trkpt lat="43.77255" lon="7.13219">
        <ele>770.63</ele>
        <time>2022-04-28T11:12:41Z</time>
      </trkpt>
      <trkpt lat="43.77255" lon="7.13218">
        <ele>754.77</ele>
        <time>2022-04-28T11:12:58Z</time>
      </trkpt>
      <trkpt lat="43.77254" lon="7.13219">
        <ele>754.77</ele>
        <time>2022-04-28T11:12:59Z</time>
      </trkpt>
      <trkpt lat="43.77254" lon="7.1322">
        <ele>771.11</ele>
        <time>2022-04-28T11:13:00Z</time>
      </trkpt>
      <trkpt lat="43.77254" lon="7.1322">
        <ele>774.48</ele>
        <time>2022-04-28T11:13:01Z</time>
      </trkpt>
      <trkpt lat="43.77254" lon="7.1322">
        <ele>764.87</ele>
        <time>2022-04-28T11:13:02Z</time>
      </trkpt>
      <trkpt lat="43.77253" lon="7.1322">
        <ele>791.3</ele>
        <time>2022-04-28T11:13:04Z</time>
      </trkpt>
      <trkpt lat="43.77252" lon="7.1322">
        <ele>772.08</ele>
        <time>2022-04-28T11:13:05Z</time>
      </trkpt>
      <trkpt lat="43.77252" lon="7.1322">
        <ele>770.63</ele>
        <time>2022-04-28T11:13:07Z</time>
      </trkpt>
      <trkpt lat="43.77255" lon="7.13221">
        <ele>770.63</ele>
        <time>2022-04-28T11:13:20Z</time>
      </trkpt>
      <trkpt lat="43.77255" lon="7.13222">
        <ele>770.63</ele>
        <time>2022-04-28T11:13:41Z</time>
      </trkpt>
      <trkpt lat="43.77255" lon="7.13224">
        <ele>770.15</ele>
        <time>2022-04-28T11:14:03Z</time>
      </trkpt>
      <trkpt lat="43.77256" lon="7.13223">
        <ele>771.11</ele>
        <time>2022-04-28T11:14:16Z</time>
      </trkpt>
      <trkpt lat="43.7726" lon="7.13223">
        <ele>770.15</ele>
        <time>2022-04-28T11:14:37Z</time>
      </trkpt>
      <trkpt lat="43.77265" lon="7.13224">
        <ele>771.11</ele>
        <time>2022-04-28T11:14:43Z</time>
      </trkpt>
      <trkpt lat="43.77269" lon="7.13228">
        <ele>768.23</ele>
        <time>2022-04-28T11:14:48Z</time>
      </trkpt>
      <trkpt lat="43.77269" lon="7.13229">
        <ele>772.08</ele>
        <time>2022-04-28T11:14:49Z</time>
      </trkpt>
      <trkpt lat="43.77273" lon="7.13229">
        <ele>768.71</ele>
        <time>2022-04-28T11:14:54Z</time>
      </trkpt>
      <trkpt lat="43.77274" lon="7.13229">
        <ele>772.56</ele>
        <time>2022-04-28T11:14:55Z</time>
      </trkpt>
      <trkpt lat="43.77276" lon="7.13229">
        <ele>767.75</ele>
        <time>2022-04-28T11:14:57Z</time>
      </trkpt>
      <trkpt lat="43.77277" lon="7.13229">
        <ele>773.04</ele>
        <time>2022-04-28T11:14:58Z</time>
      </trkpt>
      <trkpt lat="43.77279" lon="7.1323">
        <ele>771.11</ele>
        <time>2022-04-28T11:15:00Z</time>
      </trkpt>
      <trkpt lat="43.77288" lon="7.13242">
        <ele>773.04</ele>
        <time>2022-04-28T11:15:12Z</time>
      </trkpt>
      <trkpt lat="43.77289" lon="7.13243">
        <ele>772.56</ele>
        <time>2022-04-28T11:15:14Z</time>
      </trkpt>
      <trkpt lat="43.77296" lon="7.1325">
        <ele>771.6</ele>
        <time>2022-04-28T11:15:24Z</time>
      </trkpt>
      <trkpt lat="43.77297" lon="7.13253">
        <ele>774.96</ele>
        <time>2022-04-28T11:15:26Z</time>
      </trkpt>
      <trkpt lat="43.77298" lon="7.13255">
        <ele>772.56</ele>
        <time>2022-04-28T11:15:27Z</time>
      </trkpt>
      <trkpt lat="43.773" lon="7.13259">
        <ele>774</ele>
        <time>2022-04-28T11:15:30Z</time>
      </trkpt>
      <trkpt lat="43.77301" lon="7.13261">
        <ele>773.04</ele>
        <time>2022-04-28T11:15:32Z</time>
      </trkpt>
      <trkpt lat="43.77303" lon="7.13263">
        <ele>769.19</ele>
        <time>2022-04-28T11:15:34Z</time>
      </trkpt>
      <trkpt lat="43.77303" lon="7.13265">
        <ele>768.71</ele>
        <time>2022-04-28T11:15:36Z</time>
      </trkpt>
      <trkpt lat="43.77303" lon="7.13266">
        <ele>768.71</ele>
        <time>2022-04-28T11:15:37Z</time>
      </trkpt>
      <trkpt lat="43.77304" lon="7.13268">
        <ele>774</ele>
        <time>2022-04-28T11:15:38Z</time>
      </trkpt>
      <trkpt lat="43.77305" lon="7.13269">
        <ele>771.11</ele>
        <time>2022-04-28T11:15:40Z</time>
      </trkpt>
      <trkpt lat="43.77306" lon="7.13269">
        <ele>784.09</ele>
        <time>2022-04-28T11:15:41Z</time>
      </trkpt>
      <trkpt lat="43.77307" lon="7.1327">
        <ele>773.04</ele>
        <time>2022-04-28T11:15:42Z</time>
      </trkpt>
      <trkpt lat="43.77311" lon="7.13272">
        <ele>772.56</ele>
        <time>2022-04-28T11:15:47Z</time>
      </trkpt>
      <trkpt lat="43.77311" lon="7.13275">
        <ele>775.92</ele>
        <time>2022-04-28T11:15:49Z</time>
      </trkpt>
      <trkpt lat="43.77311" lon="7.13276">
        <ele>774.48</ele>
        <time>2022-04-28T11:15:50Z</time>
      </trkpt>
      <trkpt lat="43.77312" lon="7.13277">
        <ele>775.92</ele>
        <time>2022-04-28T11:15:51Z</time>
      </trkpt>
      <trkpt lat="43.77313" lon="7.13278">
        <ele>775.92</ele>
        <time>2022-04-28T11:15:52Z</time>
      </trkpt>
      <trkpt lat="43.77314" lon="7.13279">
        <ele>772.56</ele>
        <time>2022-04-28T11:15:54Z</time>
      </trkpt>
      <trkpt lat="43.77315" lon="7.13279">
        <ele>775.44</ele>
        <time>2022-04-28T11:15:55Z</time>
      </trkpt>
      <trkpt lat="43.77316" lon="7.1328">
        <ele>771.6</ele>
        <time>2022-04-28T11:15:56Z</time>
      </trkpt>
      <trkpt lat="43.77317" lon="7.13282">
        <ele>775.44</ele>
        <time>2022-04-28T11:15:58Z</time>
      </trkpt>
      <trkpt lat="43.77318" lon="7.13281">
        <ele>773.52</ele>
        <time>2022-04-28T11:16:00Z</time>
      </trkpt>
      <trkpt lat="43.77318" lon="7.13281">
        <ele>775.44</ele>
        <time>2022-04-28T11:16:01Z</time>
      </trkpt>
      <trkpt lat="43.77321" lon="7.13285">
        <ele>775.44</ele>
        <time>2022-04-28T11:16:05Z</time>
      </trkpt>
      <trkpt lat="43.77322" lon="7.13287">
        <ele>768.71</ele>
        <time>2022-04-28T11:16:06Z</time>
      </trkpt>
      <trkpt lat="43.77323" lon="7.13288">
        <ele>777.36</ele>
        <time>2022-04-28T11:16:07Z</time>
      </trkpt>
      <trkpt lat="43.77323" lon="7.13288">
        <ele>770.63</ele>
        <time>2022-04-28T11:16:08Z</time>
      </trkpt>
      <trkpt lat="43.77323" lon="7.13289">
        <ele>774</ele>
        <time>2022-04-28T11:16:09Z</time>
      </trkpt>
      <trkpt lat="43.77324" lon="7.1329">
        <ele>777.84</ele>
        <time>2022-04-28T11:16:10Z</time>
      </trkpt>
      <trkpt lat="43.77323" lon="7.13291">
        <ele>774.48</ele>
        <time>2022-04-28T11:16:11Z</time>
      </trkpt>
      <trkpt lat="43.77324" lon="7.13293">
        <ele>773.52</ele>
        <time>2022-04-28T11:16:13Z</time>
      </trkpt>
      <trkpt lat="43.77326" lon="7.13295">
        <ele>776.88</ele>
        <time>2022-04-28T11:16:15Z</time>
      </trkpt>
      <trkpt lat="43.77328" lon="7.13294">
        <ele>780.25</ele>
        <time>2022-04-28T11:16:18Z</time>
      </trkpt>
      <trkpt lat="43.77329" lon="7.13294">
        <ele>774.48</ele>
        <time>2022-04-28T11:16:19Z</time>
      </trkpt>
      <trkpt lat="43.77329" lon="7.13294">
        <ele>778.81</ele>
        <time>2022-04-28T11:16:20Z</time>
      </trkpt>
      <trkpt lat="43.7733" lon="7.13293">
        <ele>771.6</ele>
        <time>2022-04-28T11:16:21Z</time>
      </trkpt>
      <trkpt lat="43.77331" lon="7.13293">
        <ele>777.84</ele>
        <time>2022-04-28T11:16:22Z</time>
      </trkpt>
      <trkpt lat="43.77337" lon="7.13291">
        <ele>776.88</ele>
        <time>2022-04-28T11:16:34Z</time>
      </trkpt>
      <trkpt lat="43.77338" lon="7.1329">
        <ele>772.08</ele>
        <time>2022-04-28T11:16:36Z</time>
      </trkpt>
      <trkpt lat="43.77339" lon="7.1329">
        <ele>781.69</ele>
        <time>2022-04-28T11:16:37Z</time>
      </trkpt>
      <trkpt lat="43.7734" lon="7.13289">
        <ele>774</ele>
        <time>2022-04-28T11:16:38Z</time>
      </trkpt>
      <trkpt lat="43.7734" lon="7.13289">
        <ele>777.84</ele>
        <time>2022-04-28T11:16:39Z</time>
      </trkpt>
      <trkpt lat="43.77341" lon="7.13288">
        <ele>781.21</ele>
        <time>2022-04-28T11:16:40Z</time>
      </trkpt>
      <trkpt lat="43.77342" lon="7.13287">
        <ele>776.4</ele>
        <time>2022-04-28T11:16:41Z</time>
      </trkpt>
      <trkpt lat="43.77343" lon="7.13288">
        <ele>779.77</ele>
        <time>2022-04-28T11:16:43Z</time>
      </trkpt>
      <trkpt lat="43.77344" lon="7.13289">
        <ele>775.92</ele>
        <time>2022-04-28T11:16:44Z</time>
      </trkpt>
      <trkpt lat="43.77345" lon="7.13291">
        <ele>780.25</ele>
        <time>2022-04-28T11:16:48Z</time>
      </trkpt>
      <trkpt lat="43.77346" lon="7.13293">
        <ele>776.88</ele>
        <time>2022-04-28T11:16:49Z</time>
      </trkpt>
      <trkpt lat="43.77345" lon="7.13293">
        <ele>781.21</ele>
        <time>2022-04-28T11:16:50Z</time>
      </trkpt>
      <trkpt lat="43.77345" lon="7.13292">
        <ele>779.29</ele>
        <time>2022-04-28T11:16:51Z</time>
      </trkpt>
      <trkpt lat="43.77344" lon="7.13291">
        <ele>778.32</ele>
        <time>2022-04-28T11:16:53Z</time>
      </trkpt>
      <trkpt lat="43.7734" lon="7.13292">
        <ele>777.36</ele>
        <time>2022-04-28T11:17:04Z</time>
      </trkpt>
      <trkpt lat="43.7734" lon="7.13292">
        <ele>779.29</ele>
        <time>2022-04-28T11:17:06Z</time>
      </trkpt>
      <trkpt lat="43.77342" lon="7.13295">
        <ele>782.65</ele>
        <time>2022-04-28T11:17:10Z</time>
      </trkpt>
      <trkpt lat="43.77343" lon="7.13296">
        <ele>779.29</ele>
        <time>2022-04-28T11:17:11Z</time>
      </trkpt>
      <trkpt lat="43.77345" lon="7.13297">
        <ele>777.84</ele>
        <time>2022-04-28T11:17:14Z</time>
      </trkpt>
      <trkpt lat="43.77347" lon="7.13297">
        <ele>783.13</ele>
        <time>2022-04-28T11:17:16Z</time>
      </trkpt>
      <trkpt lat="43.77348" lon="7.13297">
        <ele>779.77</ele>
        <time>2022-04-28T11:17:17Z</time>
      </trkpt>
      <trkpt lat="43.77352" lon="7.13297">
        <ele>785.53</ele>
        <time>2022-04-28T11:17:22Z</time>
      </trkpt>
      <trkpt lat="43.77352" lon="7.13297">
        <ele>777.36</ele>
        <time>2022-04-28T11:17:23Z</time>
      </trkpt>
      <trkpt lat="43.77353" lon="7.13297">
        <ele>781.69</ele>
        <time>2022-04-28T11:17:24Z</time>
      </trkpt>
      <trkpt lat="43.77353" lon="7.13299">
        <ele>785.05</ele>
        <time>2022-04-28T11:17:26Z</time>
      </trkpt>
      <trkpt lat="43.77353" lon="7.13299">
        <ele>780.25</ele>
        <time>2022-04-28T11:17:27Z</time>
      </trkpt>
      <trkpt lat="43.77353" lon="7.133">
        <ele>780.73</ele>
        <time>2022-04-28T11:17:28Z</time>
      </trkpt>
      <trkpt lat="43.77355" lon="7.13302">
        <ele>786.02</ele>
        <time>2022-04-28T11:17:30Z</time>
      </trkpt>
      <trkpt lat="43.77355" lon="7.13302">
        <ele>776.4</ele>
        <time>2022-04-28T11:17:31Z</time>
      </trkpt>
      <trkpt lat="43.77356" lon="7.13303">
        <ele>787.94</ele>
        <time>2022-04-28T11:17:32Z</time>
      </trkpt>
      <trkpt lat="43.77357" lon="7.13304">
        <ele>780.25</ele>
        <time>2022-04-28T11:17:33Z</time>
      </trkpt>
      <trkpt lat="43.77357" lon="7.13304">
        <ele>783.13</ele>
        <time>2022-04-28T11:17:34Z</time>
      </trkpt>
      <trkpt lat="43.77359" lon="7.13302">
        <ele>783.13</ele>
        <time>2022-04-28T11:17:37Z</time>
      </trkpt>
      <trkpt lat="43.77361" lon="7.13301">
        <ele>781.69</ele>
        <time>2022-04-28T11:17:39Z</time>
      </trkpt>
      <trkpt lat="43.77364" lon="7.13301">
        <ele>785.05</ele>
        <time>2022-04-28T11:17:42Z</time>
      </trkpt>
      <trkpt lat="43.77366" lon="7.133">
        <ele>784.09</ele>
        <time>2022-04-28T11:17:44Z</time>
      </trkpt>
      <trkpt lat="43.77367" lon="7.13299">
        <ele>778.81</ele>
        <time>2022-04-28T11:17:46Z</time>
      </trkpt>
      <trkpt lat="43.77368" lon="7.13299">
        <ele>785.05</ele>
        <time>2022-04-28T11:17:47Z</time>
      </trkpt>
      <trkpt lat="43.77372" lon="7.13298">
        <ele>788.42</ele>
        <time>2022-04-28T11:17:52Z</time>
      </trkpt>
      <trkpt lat="43.77372" lon="7.13298">
        <ele>781.69</ele>
        <time>2022-04-28T11:17:53Z</time>
      </trkpt>
      <trkpt lat="43.77373" lon="7.13298">
        <ele>784.57</ele>
        <time>2022-04-28T11:17:54Z</time>
      </trkpt>
      <trkpt lat="43.77374" lon="7.13298">
        <ele>787.94</ele>
        <time>2022-04-28T11:17:55Z</time>
      </trkpt>
      <trkpt lat="43.77375" lon="7.13298">
        <ele>786.02</ele>
        <time>2022-04-28T11:17:56Z</time>
      </trkpt>
      <trkpt lat="43.77376" lon="7.13298">
        <ele>790.34</ele>
        <time>2022-04-28T11:17:57Z</time>
      </trkpt>
      <trkpt lat="43.77377" lon="7.13299">
        <ele>782.17</ele>
        <time>2022-04-28T11:17:58Z</time>
      </trkpt>
      <trkpt lat="43.77377" lon="7.13299">
        <ele>786.02</ele>
        <time>2022-04-28T11:17:59Z</time>
      </trkpt>
      <trkpt lat="43.77381" lon="7.13298">
        <ele>791.78</ele>
        <time>2022-04-28T11:18:04Z</time>
      </trkpt>
      <trkpt lat="43.77382" lon="7.13298">
        <ele>783.13</ele>
        <time>2022-04-28T11:18:05Z</time>
      </trkpt>
      <trkpt lat="43.77382" lon="7.13298">
        <ele>791.78</ele>
        <time>2022-04-28T11:18:06Z</time>
      </trkpt>
      <trkpt lat="43.77383" lon="7.13299">
        <ele>783.13</ele>
        <time>2022-04-28T11:18:07Z</time>
      </trkpt>
      <trkpt lat="43.77384" lon="7.133">
        <ele>782.17</ele>
        <time>2022-04-28T11:18:09Z</time>
      </trkpt>
      <trkpt lat="43.77385" lon="7.133">
        <ele>789.86</ele>
        <time>2022-04-28T11:18:10Z</time>
      </trkpt>
      <trkpt lat="43.77386" lon="7.133">
        <ele>788.9</ele>
        <time>2022-04-28T11:18:11Z</time>
      </trkpt>
      <trkpt lat="43.77389" lon="7.13302">
        <ele>789.86</ele>
        <time>2022-04-28T11:18:16Z</time>
      </trkpt>
      <trkpt lat="43.77391" lon="7.13302">
        <ele>785.53</ele>
        <time>2022-04-28T11:18:20Z</time>
      </trkpt>
      <trkpt lat="43.77392" lon="7.13302">
        <ele>790.34</ele>
        <time>2022-04-28T11:18:21Z</time>
      </trkpt>
      <trkpt lat="43.77393" lon="7.13304">
        <ele>792.26</ele>
        <time>2022-04-28T11:18:24Z</time>
      </trkpt>
      <trkpt lat="43.77392" lon="7.13308">
        <ele>792.74</ele>
        <time>2022-04-28T11:18:27Z</time>
      </trkpt>
      <trkpt lat="43.77392" lon="7.13308">
        <ele>789.86</ele>
        <time>2022-04-28T11:18:28Z</time>
      </trkpt>
      <trkpt lat="43.7739" lon="7.13316">
        <ele>792.74</ele>
        <time>2022-04-28T11:18:35Z</time>
      </trkpt>
      <trkpt lat="43.7739" lon="7.13316">
        <ele>792.74</ele>
        <time>2022-04-28T11:18:36Z</time>
      </trkpt>
      <trkpt lat="43.77389" lon="7.13317">
        <ele>788.42</ele>
        <time>2022-04-28T11:18:37Z</time>
      </trkpt>
      <trkpt lat="43.77389" lon="7.13318">
        <ele>790.34</ele>
        <time>2022-04-28T11:18:38Z</time>
      </trkpt>
      <trkpt lat="43.77388" lon="7.13319">
        <ele>795.15</ele>
        <time>2022-04-28T11:18:39Z</time>
      </trkpt>
      <trkpt lat="43.77389" lon="7.13326">
        <ele>792.26</ele>
        <time>2022-04-28T11:18:50Z</time>
      </trkpt>
      <trkpt lat="43.77391" lon="7.13327">
        <ele>798.51</ele>
        <time>2022-04-28T11:18:53Z</time>
      </trkpt>
      <trkpt lat="43.77391" lon="7.13327">
        <ele>791.3</ele>
        <time>2022-04-28T11:18:54Z</time>
      </trkpt>
      <trkpt lat="43.77392" lon="7.13327">
        <ele>800.44</ele>
        <time>2022-04-28T11:18:55Z</time>
      </trkpt>
      <trkpt lat="43.77392" lon="7.13327">
        <ele>793.22</ele>
        <time>2022-04-28T11:18:56Z</time>
      </trkpt>
      <trkpt lat="43.77394" lon="7.13327">
        <ele>788.9</ele>
        <time>2022-04-28T11:18:58Z</time>
      </trkpt>
      <trkpt lat="43.77394" lon="7.13327">
        <ele>793.71</ele>
        <time>2022-04-28T11:18:59Z</time>
      </trkpt>
      <trkpt lat="43.77401" lon="7.13322">
        <ele>793.22</ele>
        <time>2022-04-28T11:19:08Z</time>
      </trkpt>
      <trkpt lat="43.77407" lon="7.1332">
        <ele>794.19</ele>
        <time>2022-04-28T11:19:13Z</time>
      </trkpt>
      <trkpt lat="43.77409" lon="7.13322">
        <ele>794.67</ele>
        <time>2022-04-28T11:19:15Z</time>
      </trkpt>
      <trkpt lat="43.77411" lon="7.13322">
        <ele>791.3</ele>
        <time>2022-04-28T11:19:17Z</time>
      </trkpt>
      <trkpt lat="43.77412" lon="7.13322">
        <ele>797.07</ele>
        <time>2022-04-28T11:19:18Z</time>
      </trkpt>
      <trkpt lat="43.77412" lon="7.13321">
        <ele>794.19</ele>
        <time>2022-04-28T11:19:19Z</time>
      </trkpt>
      <trkpt lat="43.77413" lon="7.1332">
        <ele>790.34</ele>
        <time>2022-04-28T11:19:20Z</time>
      </trkpt>
      <trkpt lat="43.77414" lon="7.13321">
        <ele>799.47</ele>
        <time>2022-04-28T11:19:21Z</time>
      </trkpt>
      <trkpt lat="43.77415" lon="7.13321">
        <ele>793.22</ele>
        <time>2022-04-28T11:19:22Z</time>
      </trkpt>
      <trkpt lat="43.77417" lon="7.13322">
        <ele>797.55</ele>
        <time>2022-04-28T11:19:24Z</time>
      </trkpt>
      <trkpt lat="43.77417" lon="7.13323">
        <ele>789.86</ele>
        <time>2022-04-28T11:19:25Z</time>
      </trkpt>
      <trkpt lat="43.77418" lon="7.13323">
        <ele>796.11</ele>
        <time>2022-04-28T11:19:26Z</time>
      </trkpt>
      <trkpt lat="43.77419" lon="7.13326">
        <ele>798.03</ele>
        <time>2022-04-28T11:19:29Z</time>
      </trkpt>
      <trkpt lat="43.77419" lon="7.13327">
        <ele>794.67</ele>
        <time>2022-04-28T11:19:30Z</time>
      </trkpt>
      <trkpt lat="43.77419" lon="7.13328">
        <ele>794.67</ele>
        <time>2022-04-28T11:19:31Z</time>
      </trkpt>
      <trkpt lat="43.77421" lon="7.13332">
        <ele>798.03</ele>
        <time>2022-04-28T11:19:35Z</time>
      </trkpt>
      <trkpt lat="43.77421" lon="7.13332">
        <ele>794.19</ele>
        <time>2022-04-28T11:19:36Z</time>
      </trkpt>
      <trkpt lat="43.77421" lon="7.13334">
        <ele>800.44</ele>
        <time>2022-04-28T11:19:38Z</time>
      </trkpt>
      <trkpt lat="43.77421" lon="7.13335">
        <ele>793.22</ele>
        <time>2022-04-28T11:19:39Z</time>
      </trkpt>
      <trkpt lat="43.77421" lon="7.13336">
        <ele>797.55</ele>
        <time>2022-04-28T11:19:40Z</time>
      </trkpt>
      <trkpt lat="43.77421" lon="7.13335">
        <ele>776.4</ele>
        <time>2022-04-28T11:19:41Z</time>
      </trkpt>
      <trkpt lat="43.77421" lon="7.13336">
        <ele>782.65</ele>
        <time>2022-04-28T11:19:42Z</time>
      </trkpt>
      <trkpt lat="43.7742" lon="7.13337">
        <ele>813.89</ele>
        <time>2022-04-28T11:19:43Z</time>
      </trkpt>
      <trkpt lat="43.7742" lon="7.13338">
        <ele>798.03</ele>
        <time>2022-04-28T11:19:44Z</time>
      </trkpt>
      <trkpt lat="43.7742" lon="7.13336">
        <ele>797.55</ele>
        <time>2022-04-28T11:19:46Z</time>
      </trkpt>
      <trkpt lat="43.77421" lon="7.13337">
        <ele>792.74</ele>
        <time>2022-04-28T11:19:47Z</time>
      </trkpt>
      <trkpt lat="43.77421" lon="7.13338">
        <ele>804.28</ele>
        <time>2022-04-28T11:19:48Z</time>
      </trkpt>
      <trkpt lat="43.77422" lon="7.13338">
        <ele>795.15</ele>
        <time>2022-04-28T11:19:49Z</time>
      </trkpt>
      <trkpt lat="43.77422" lon="7.13339">
        <ele>807.16</ele>
        <time>2022-04-28T11:19:50Z</time>
      </trkpt>
      <trkpt lat="43.77423" lon="7.1334">
        <ele>794.19</ele>
        <time>2022-04-28T11:19:51Z</time>
      </trkpt>
      <trkpt lat="43.77423" lon="7.13341">
        <ele>799.47</ele>
        <time>2022-04-28T11:19:52Z</time>
      </trkpt>
      <trkpt lat="43.77425" lon="7.13342">
        <ele>796.11</ele>
        <time>2022-04-28T11:19:54Z</time>
      </trkpt>
      <trkpt lat="43.77426" lon="7.13344">
        <ele>800.92</ele>
        <time>2022-04-28T11:19:56Z</time>
      </trkpt>
      <trkpt lat="43.7743" lon="7.13346">
        <ele>796.11</ele>
        <time>2022-04-28T11:20:02Z</time>
      </trkpt>
      <trkpt lat="43.77432" lon="7.13346">
        <ele>800.92</ele>
        <time>2022-04-28T11:20:04Z</time>
      </trkpt>
      <trkpt lat="43.77432" lon="7.13346">
        <ele>796.59</ele>
        <time>2022-04-28T11:20:05Z</time>
      </trkpt>
      <trkpt lat="43.77434" lon="7.13346">
        <ele>800.44</ele>
        <time>2022-04-28T11:20:07Z</time>
      </trkpt>
      <trkpt lat="43.77435" lon="7.13346">
        <ele>800.44</ele>
        <time>2022-04-28T11:20:08Z</time>
      </trkpt>
      <trkpt lat="43.77436" lon="7.13346">
        <ele>795.15</ele>
        <time>2022-04-28T11:20:09Z</time>
      </trkpt>
      <trkpt lat="43.77437" lon="7.13346">
        <ele>800.44</ele>
        <time>2022-04-28T11:20:10Z</time>
      </trkpt>
      <trkpt lat="43.77438" lon="7.13347">
        <ele>796.11</ele>
        <time>2022-04-28T11:20:12Z</time>
      </trkpt>
      <trkpt lat="43.77439" lon="7.13348">
        <ele>799.95</ele>
        <time>2022-04-28T11:20:13Z</time>
      </trkpt>
      <trkpt lat="43.7744" lon="7.13348">
        <ele>799.95</ele>
        <time>2022-04-28T11:20:14Z</time>
      </trkpt>
      <trkpt lat="43.77441" lon="7.13349">
        <ele>798.51</ele>
        <time>2022-04-28T11:20:16Z</time>
      </trkpt>
      <trkpt lat="43.77441" lon="7.1335">
        <ele>804.28</ele>
        <time>2022-04-28T11:20:17Z</time>
      </trkpt>
      <trkpt lat="43.77442" lon="7.1335">
        <ele>800.44</ele>
        <time>2022-04-28T11:20:18Z</time>
      </trkpt>
      <trkpt lat="43.77444" lon="7.13351">
        <ele>803.32</ele>
        <time>2022-04-28T11:20:20Z</time>
      </trkpt>
      <trkpt lat="43.77444" lon="7.13352">
        <ele>800.92</ele>
        <time>2022-04-28T11:20:21Z</time>
      </trkpt>
      <trkpt lat="43.77447" lon="7.13353">
        <ele>801.4</ele>
        <time>2022-04-28T11:20:23Z</time>
      </trkpt>
      <trkpt lat="43.77449" lon="7.13355">
        <ele>799.95</ele>
        <time>2022-04-28T11:20:26Z</time>
      </trkpt>
      <trkpt lat="43.77451" lon="7.13357">
        <ele>800.92</ele>
        <time>2022-04-28T11:20:28Z</time>
      </trkpt>
      <trkpt lat="43.77452" lon="7.13358">
        <ele>797.07</ele>
        <time>2022-04-28T11:20:29Z</time>
      </trkpt>
      <trkpt lat="43.77453" lon="7.13359">
        <ele>801.4</ele>
        <time>2022-04-28T11:20:30Z</time>
      </trkpt>
      <trkpt lat="43.77454" lon="7.1336">
        <ele>796.59</ele>
        <time>2022-04-28T11:20:32Z</time>
      </trkpt>
      <trkpt lat="43.77455" lon="7.13361">
        <ele>798.99</ele>
        <time>2022-04-28T11:20:33Z</time>
      </trkpt>
      <trkpt lat="43.77455" lon="7.13362">
        <ele>807.64</ele>
        <time>2022-04-28T11:20:34Z</time>
      </trkpt>
      <trkpt lat="43.77456" lon="7.13363">
        <ele>799.47</ele>
        <time>2022-04-28T11:20:35Z</time>
      </trkpt>
      <trkpt lat="43.77457" lon="7.13364">
        <ele>802.36</ele>
        <time>2022-04-28T11:20:36Z</time>
      </trkpt>
      <trkpt lat="43.77459" lon="7.13365">
        <ele>799.47</ele>
        <time>2022-04-28T11:20:38Z</time>
      </trkpt>
      <trkpt lat="43.77461" lon="7.13367">
        <ele>804.28</ele>
        <time>2022-04-28T11:20:40Z</time>
      </trkpt>
      <trkpt lat="43.77462" lon="7.13368">
        <ele>800.92</ele>
        <time>2022-04-28T11:20:41Z</time>
      </trkpt>
      <trkpt lat="43.77463" lon="7.1337">
        <ele>804.76</ele>
        <time>2022-04-28T11:20:43Z</time>
      </trkpt>
      <trkpt lat="43.7747" lon="7.13378">
        <ele>800.92</ele>
        <time>2022-04-28T11:20:53Z</time>
      </trkpt>
      <trkpt lat="43.77471" lon="7.13379">
        <ele>804.28</ele>
        <time>2022-04-28T11:20:54Z</time>
      </trkpt>
      <trkpt lat="43.77472" lon="7.13382">
        <ele>800.92</ele>
        <time>2022-04-28T11:20:56Z</time>
      </trkpt>
      <trkpt lat="43.77472" lon="7.13383">
        <ele>801.88</ele>
        <time>2022-04-28T11:20:57Z</time>
      </trkpt>
      <trkpt lat="43.77472" lon="7.13384">
        <ele>807.64</ele>
        <time>2022-04-28T11:20:58Z</time>
      </trkpt>
      <trkpt lat="43.77475" lon="7.13386">
        <ele>811.97</ele>
        <time>2022-04-28T11:21:01Z</time>
      </trkpt>
      <trkpt lat="43.77477" lon="7.13387">
        <ele>805.72</ele>
        <time>2022-04-28T11:21:03Z</time>
      </trkpt>
      <trkpt lat="43.77483" lon="7.13387">
        <ele>810.05</ele>
        <time>2022-04-28T11:21:12Z</time>
      </trkpt>
      <trkpt lat="43.77484" lon="7.13388">
        <ele>801.88</ele>
        <time>2022-04-28T11:21:13Z</time>
      </trkpt>
      <trkpt lat="43.77485" lon="7.13389">
        <ele>808.13</ele>
        <time>2022-04-28T11:21:14Z</time>
      </trkpt>
      <trkpt lat="43.77485" lon="7.1339">
        <ele>808.61</ele>
        <time>2022-04-28T11:21:15Z</time>
      </trkpt>
      <trkpt lat="43.77486" lon="7.13393">
        <ele>807.64</ele>
        <time>2022-04-28T11:21:17Z</time>
      </trkpt>
      <trkpt lat="43.77487" lon="7.13394">
        <ele>808.61</ele>
        <time>2022-04-28T11:21:18Z</time>
      </trkpt>
      <trkpt lat="43.77489" lon="7.13397">
        <ele>807.16</ele>
        <time>2022-04-28T11:21:20Z</time>
      </trkpt>
      <trkpt lat="43.7749" lon="7.13399">
        <ele>806.68</ele>
        <time>2022-04-28T11:21:22Z</time>
      </trkpt>
      <trkpt lat="43.77492" lon="7.13399">
        <ele>808.13</ele>
        <time>2022-04-28T11:21:24Z</time>
      </trkpt>
      <trkpt lat="43.77493" lon="7.13399">
        <ele>804.76</ele>
        <time>2022-04-28T11:21:26Z</time>
      </trkpt>
      <trkpt lat="43.77494" lon="7.13399">
        <ele>808.13</ele>
        <time>2022-04-28T11:21:27Z</time>
      </trkpt>
      <trkpt lat="43.77496" lon="7.13399">
        <ele>808.61</ele>
        <time>2022-04-28T11:21:29Z</time>
      </trkpt>
      <trkpt lat="43.77498" lon="7.13399">
        <ele>815.82</ele>
        <time>2022-04-28T11:21:32Z</time>
      </trkpt>
      <trkpt lat="43.77501" lon="7.13398">
        <ele>809.09</ele>
        <time>2022-04-28T11:21:34Z</time>
      </trkpt>
      <trkpt lat="43.77502" lon="7.13397">
        <ele>803.32</ele>
        <time>2022-04-28T11:21:36Z</time>
      </trkpt>
      <trkpt lat="43.77503" lon="7.13397">
        <ele>810.05</ele>
        <time>2022-04-28T11:21:37Z</time>
      </trkpt>
      <trkpt lat="43.77505" lon="7.13396">
        <ele>805.72</ele>
        <time>2022-04-28T11:21:39Z</time>
      </trkpt>
      <trkpt lat="43.77506" lon="7.13396">
        <ele>810.53</ele>
        <time>2022-04-28T11:21:40Z</time>
      </trkpt>
      <trkpt lat="43.77508" lon="7.13394">
        <ele>802.84</ele>
        <time>2022-04-28T11:21:44Z</time>
      </trkpt>
      <trkpt lat="43.77509" lon="7.13394">
        <ele>811.49</ele>
        <time>2022-04-28T11:21:45Z</time>
      </trkpt>
      <trkpt lat="43.77512" lon="7.13394">
        <ele>804.28</ele>
        <time>2022-04-28T11:21:49Z</time>
      </trkpt>
      <trkpt lat="43.77512" lon="7.13394">
        <ele>812.45</ele>
        <time>2022-04-28T11:21:50Z</time>
      </trkpt>
      <trkpt lat="43.77513" lon="7.13394">
        <ele>806.68</ele>
        <time>2022-04-28T11:21:51Z</time>
      </trkpt>
      <trkpt lat="43.77514" lon="7.13394">
        <ele>811.49</ele>
        <time>2022-04-28T11:21:52Z</time>
      </trkpt>
      <trkpt lat="43.77516" lon="7.13392">
        <ele>803.8</ele>
        <time>2022-04-28T11:21:56Z</time>
      </trkpt>
      <trkpt lat="43.77516" lon="7.13392">
        <ele>813.41</ele>
        <time>2022-04-28T11:21:57Z</time>
      </trkpt>
      <trkpt lat="43.77517" lon="7.13391">
        <ele>808.61</ele>
        <time>2022-04-28T11:21:58Z</time>
      </trkpt>
      <trkpt lat="43.77517" lon="7.1339">
        <ele>813.41</ele>
        <time>2022-04-28T11:21:59Z</time>
      </trkpt>
      <trkpt lat="43.77521" lon="7.13388">
        <ele>812.93</ele>
        <time>2022-04-28T11:22:09Z</time>
      </trkpt>
      <trkpt lat="43.77522" lon="7.13388">
        <ele>811.49</ele>
        <time>2022-04-28T11:22:14Z</time>
      </trkpt>
      <trkpt lat="43.77524" lon="7.13389">
        <ele>816.3</ele>
        <time>2022-04-28T11:22:16Z</time>
      </trkpt>
      <trkpt lat="43.77525" lon="7.13391">
        <ele>813.41</ele>
        <time>2022-04-28T11:22:17Z</time>
      </trkpt>
      <trkpt lat="43.77526" lon="7.13392">
        <ele>813.41</ele>
        <time>2022-04-28T11:22:19Z</time>
      </trkpt>
      <trkpt lat="43.77528" lon="7.13394">
        <ele>819.18</ele>
        <time>2022-04-28T11:22:22Z</time>
      </trkpt>
      <trkpt lat="43.77529" lon="7.13396">
        <ele>815.34</ele>
        <time>2022-04-28T11:22:24Z</time>
      </trkpt>
      <trkpt lat="43.77531" lon="7.13396">
        <ele>811.01</ele>
        <time>2022-04-28T11:22:26Z</time>
      </trkpt>
      <trkpt lat="43.77532" lon="7.13395">
        <ele>816.3</ele>
        <time>2022-04-28T11:22:27Z</time>
      </trkpt>
      <trkpt lat="43.77532" lon="7.13393">
        <ele>812.93</ele>
        <time>2022-04-28T11:22:29Z</time>
      </trkpt>
      <trkpt lat="43.77532" lon="7.13392">
        <ele>819.66</ele>
        <time>2022-04-28T11:22:30Z</time>
      </trkpt>
      <trkpt lat="43.77533" lon="7.13392">
        <ele>815.82</ele>
        <time>2022-04-28T11:22:31Z</time>
      </trkpt>
      <trkpt lat="43.77533" lon="7.13391">
        <ele>810.05</ele>
        <time>2022-04-28T11:22:32Z</time>
      </trkpt>
      <trkpt lat="43.77533" lon="7.1339">
        <ele>817.26</ele>
        <time>2022-04-28T11:22:33Z</time>
      </trkpt>
      <trkpt lat="43.77534" lon="7.1339">
        <ele>808.61</ele>
        <time>2022-04-28T11:22:34Z</time>
      </trkpt>
      <trkpt lat="43.77534" lon="7.1339">
        <ele>818.22</ele>
        <time>2022-04-28T11:22:35Z</time>
      </trkpt>
      <trkpt lat="43.77535" lon="7.1339">
        <ele>813.89</ele>
        <time>2022-04-28T11:22:36Z</time>
      </trkpt>
      <trkpt lat="43.77536" lon="7.1339">
        <ele>817.26</ele>
        <time>2022-04-28T11:22:37Z</time>
      </trkpt>
      <trkpt lat="43.77538" lon="7.13393">
        <ele>814.85</ele>
        <time>2022-04-28T11:22:39Z</time>
      </trkpt>
      <trkpt lat="43.77539" lon="7.13394">
        <ele>819.66</ele>
        <time>2022-04-28T11:22:41Z</time>
      </trkpt>
      <trkpt lat="43.7754" lon="7.13395">
        <ele>814.85</ele>
        <time>2022-04-28T11:22:42Z</time>
      </trkpt>
      <trkpt lat="43.77541" lon="7.13396">
        <ele>818.22</ele>
        <time>2022-04-28T11:22:43Z</time>
      </trkpt>
      <trkpt lat="43.77543" lon="7.13399">
        <ele>816.78</ele>
        <time>2022-04-28T11:22:46Z</time>
      </trkpt>
      <trkpt lat="43.77546" lon="7.13401">
        <ele>819.66</ele>
        <time>2022-04-28T11:22:50Z</time>
      </trkpt>
      <trkpt lat="43.77547" lon="7.13402">
        <ele>815.82</ele>
        <time>2022-04-28T11:22:51Z</time>
      </trkpt>
      <trkpt lat="43.77549" lon="7.13402">
        <ele>819.18</ele>
        <time>2022-04-28T11:22:53Z</time>
      </trkpt>
      <trkpt lat="43.77554" lon="7.134">
        <ele>814.85</ele>
        <time>2022-04-28T11:23:02Z</time>
      </trkpt>
      <trkpt lat="43.77555" lon="7.134">
        <ele>814.85</ele>
        <time>2022-04-28T11:23:03Z</time>
      </trkpt>
      <trkpt lat="43.77556" lon="7.134">
        <ele>822.55</ele>
        <time>2022-04-28T11:23:04Z</time>
      </trkpt>
      <trkpt lat="43.77557" lon="7.134">
        <ele>818.7</ele>
        <time>2022-04-28T11:23:05Z</time>
      </trkpt>
      <trkpt lat="43.77562" lon="7.13401">
        <ele>821.58</ele>
        <time>2022-04-28T11:23:10Z</time>
      </trkpt>
      <trkpt lat="43.77563" lon="7.13402">
        <ele>814.37</ele>
        <time>2022-04-28T11:23:11Z</time>
      </trkpt>
      <trkpt lat="43.77564" lon="7.13403">
        <ele>819.66</ele>
        <time>2022-04-28T11:23:12Z</time>
      </trkpt>
      <trkpt lat="43.77566" lon="7.13404">
        <ele>816.3</ele>
        <time>2022-04-28T11:23:14Z</time>
      </trkpt>
      <trkpt lat="43.77567" lon="7.13405">
        <ele>820.62</ele>
        <time>2022-04-28T11:23:15Z</time>
      </trkpt>
      <trkpt lat="43.77574" lon="7.13412">
        <ele>823.51</ele>
        <time>2022-04-28T11:23:26Z</time>
      </trkpt>
      <trkpt lat="43.77575" lon="7.13412">
        <ele>815.34</ele>
        <time>2022-04-28T11:23:27Z</time>
      </trkpt>
      <trkpt lat="43.77576" lon="7.13412">
        <ele>822.55</ele>
        <time>2022-04-28T11:23:28Z</time>
      </trkpt>
      <trkpt lat="43.77577" lon="7.13413">
        <ele>816.78</ele>
        <time>2022-04-28T11:23:30Z</time>
      </trkpt>
      <trkpt lat="43.77577" lon="7.13414">
        <ele>823.03</ele>
        <time>2022-04-28T11:23:31Z</time>
      </trkpt>
      <trkpt lat="43.77578" lon="7.13414">
        <ele>818.22</ele>
        <time>2022-04-28T11:23:32Z</time>
      </trkpt>
      <trkpt lat="43.77578" lon="7.13415">
        <ele>823.51</ele>
        <time>2022-04-28T11:23:33Z</time>
      </trkpt>
      <trkpt lat="43.7758" lon="7.1342">
        <ele>828.79</ele>
        <time>2022-04-28T11:23:41Z</time>
      </trkpt>
      <trkpt lat="43.77581" lon="7.13421">
        <ele>822.55</ele>
        <time>2022-04-28T11:23:42Z</time>
      </trkpt>
      <trkpt lat="43.77582" lon="7.13423">
        <ele>828.31</ele>
        <time>2022-04-28T11:23:44Z</time>
      </trkpt>
      <trkpt lat="43.77582" lon="7.13423">
        <ele>820.14</ele>
        <time>2022-04-28T11:23:45Z</time>
      </trkpt>
      <trkpt lat="43.77583" lon="7.13424">
        <ele>825.91</ele>
        <time>2022-04-28T11:23:46Z</time>
      </trkpt>
      <trkpt lat="43.77583" lon="7.13425">
        <ele>822.55</ele>
        <time>2022-04-28T11:23:47Z</time>
      </trkpt>
      <trkpt lat="43.77585" lon="7.13427">
        <ele>825.91</ele>
        <time>2022-04-28T11:23:50Z</time>
      </trkpt>
      <trkpt lat="43.77587" lon="7.13429">
        <ele>815.34</ele>
        <time>2022-04-28T11:23:54Z</time>
      </trkpt>
      <trkpt lat="43.77587" lon="7.1343">
        <ele>827.83</ele>
        <time>2022-04-28T11:23:55Z</time>
      </trkpt>
      <trkpt lat="43.77588" lon="7.13432">
        <ele>830.72</ele>
        <time>2022-04-28T11:23:58Z</time>
      </trkpt>
      <trkpt lat="43.77589" lon="7.13433">
        <ele>822.55</ele>
        <time>2022-04-28T11:23:59Z</time>
      </trkpt>
      <trkpt lat="43.77589" lon="7.13434">
        <ele>827.35</ele>
        <time>2022-04-28T11:24:00Z</time>
      </trkpt>
      <trkpt lat="43.77591" lon="7.13437">
        <ele>823.51</ele>
        <time>2022-04-28T11:24:04Z</time>
      </trkpt>
      <trkpt lat="43.77591" lon="7.13438">
        <ele>828.31</ele>
        <time>2022-04-28T11:24:05Z</time>
      </trkpt>
      <trkpt lat="43.77591" lon="7.13438">
        <ele>823.51</ele>
        <time>2022-04-28T11:24:06Z</time>
      </trkpt>
      <trkpt lat="43.77591" lon="7.1344">
        <ele>831.68</ele>
        <time>2022-04-28T11:24:08Z</time>
      </trkpt>
      <trkpt lat="43.77592" lon="7.1344">
        <ele>824.95</ele>
        <time>2022-04-28T11:24:09Z</time>
      </trkpt>
      <trkpt lat="43.77592" lon="7.13441">
        <ele>829.76</ele>
        <time>2022-04-28T11:24:10Z</time>
      </trkpt>
      <trkpt lat="43.77593" lon="7.13441">
        <ele>833.12</ele>
        <time>2022-04-28T11:24:11Z</time>
      </trkpt>
      <trkpt lat="43.77593" lon="7.13442">
        <ele>827.83</ele>
        <time>2022-04-28T11:24:12Z</time>
      </trkpt>
      <trkpt lat="43.77594" lon="7.13442">
        <ele>832.16</ele>
        <time>2022-04-28T11:24:13Z</time>
      </trkpt>
      <trkpt lat="43.77595" lon="7.13442">
        <ele>828.31</ele>
        <time>2022-04-28T11:24:14Z</time>
      </trkpt>
      <trkpt lat="43.77596" lon="7.13443">
        <ele>833.6</ele>
        <time>2022-04-28T11:24:16Z</time>
      </trkpt>
      <trkpt lat="43.77598" lon="7.13443">
        <ele>830.72</ele>
        <time>2022-04-28T11:24:18Z</time>
      </trkpt>
      <trkpt lat="43.77601" lon="7.13443">
        <ele>833.6</ele>
        <time>2022-04-28T11:24:21Z</time>
      </trkpt>
      <trkpt lat="43.77602" lon="7.13442">
        <ele>828.79</ele>
        <time>2022-04-28T11:24:22Z</time>
      </trkpt>
      <trkpt lat="43.77604" lon="7.13442">
        <ele>833.6</ele>
        <time>2022-04-28T11:24:24Z</time>
      </trkpt>
      <trkpt lat="43.77605" lon="7.13443">
        <ele>826.39</ele>
        <time>2022-04-28T11:24:25Z</time>
      </trkpt>
      <trkpt lat="43.77606" lon="7.13443">
        <ele>831.2</ele>
        <time>2022-04-28T11:24:26Z</time>
      </trkpt>
      <trkpt lat="43.77608" lon="7.13444">
        <ele>835.52</ele>
        <time>2022-04-28T11:24:29Z</time>
      </trkpt>
      <trkpt lat="43.77608" lon="7.13445">
        <ele>826.87</ele>
        <time>2022-04-28T11:24:30Z</time>
      </trkpt>
      <trkpt lat="43.77608" lon="7.13446">
        <ele>834.08</ele>
        <time>2022-04-28T11:24:31Z</time>
      </trkpt>
      <trkpt lat="43.77608" lon="7.13447">
        <ele>826.39</ele>
        <time>2022-04-28T11:24:32Z</time>
      </trkpt>
      <trkpt lat="43.77608" lon="7.13448">
        <ele>831.68</ele>
        <time>2022-04-28T11:24:33Z</time>
      </trkpt>
      <trkpt lat="43.77609" lon="7.13448">
        <ele>827.83</ele>
        <time>2022-04-28T11:24:34Z</time>
      </trkpt>
      <trkpt lat="43.77609" lon="7.13449">
        <ele>831.68</ele>
        <time>2022-04-28T11:24:35Z</time>
      </trkpt>
      <trkpt lat="43.77609" lon="7.13454">
        <ele>835.52</ele>
        <time>2022-04-28T11:24:40Z</time>
      </trkpt>
      <trkpt lat="43.77608" lon="7.13455">
        <ele>829.27</ele>
        <time>2022-04-28T11:24:41Z</time>
      </trkpt>
      <trkpt lat="43.77608" lon="7.13456">
        <ele>834.56</ele>
        <time>2022-04-28T11:24:42Z</time>
      </trkpt>
      <trkpt lat="43.77608" lon="7.1346">
        <ele>829.76</ele>
        <time>2022-04-28T11:24:50Z</time>
      </trkpt>
      <trkpt lat="43.77608" lon="7.13461">
        <ele>838.41</ele>
        <time>2022-04-28T11:24:51Z</time>
      </trkpt>
      <trkpt lat="43.77608" lon="7.13461">
        <ele>834.08</ele>
        <time>2022-04-28T11:24:52Z</time>
      </trkpt>
      <trkpt lat="43.7761" lon="7.13458">
        <ele>835.04</ele>
        <time>2022-04-28T11:25:06Z</time>
      </trkpt>
      <trkpt lat="43.77611" lon="7.13458">
        <ele>826.39</ele>
        <time>2022-04-28T11:25:11Z</time>
      </trkpt>
      <trkpt lat="43.77611" lon="7.13458">
        <ele>837.93</ele>
        <time>2022-04-28T11:25:12Z</time>
      </trkpt>
      <trkpt lat="43.77612" lon="7.13458">
        <ele>827.35</ele>
        <time>2022-04-28T11:25:13Z</time>
      </trkpt>
      <trkpt lat="43.77613" lon="7.13458">
        <ele>836.48</ele>
        <time>2022-04-28T11:25:14Z</time>
      </trkpt>
      <trkpt lat="43.77614" lon="7.13459">
        <ele>832.16</ele>
        <time>2022-04-28T11:25:15Z</time>
      </trkpt>
      <trkpt lat="43.77614" lon="7.13459">
        <ele>836.48</ele>
        <time>2022-04-28T11:25:16Z</time>
      </trkpt>
      <trkpt lat="43.77612" lon="7.13461">
        <ele>832.64</ele>
        <time>2022-04-28T11:25:23Z</time>
      </trkpt>
      <trkpt lat="43.77611" lon="7.13459">
        <ele>835.52</ele>
        <time>2022-04-28T11:25:32Z</time>
      </trkpt>
      <trkpt lat="43.77612" lon="7.13454">
        <ele>836.48</ele>
        <time>2022-04-28T11:25:52Z</time>
      </trkpt>
      <trkpt lat="43.7761" lon="7.13456">
        <ele>835.04</ele>
        <time>2022-04-28T11:26:13Z</time>
      </trkpt>
      <trkpt lat="43.77608" lon="7.13455">
        <ele>830.24</ele>
        <time>2022-04-28T11:26:19Z</time>
      </trkpt>
      <trkpt lat="43.77608" lon="7.13455">
        <ele>836.96</ele>
        <time>2022-04-28T11:26:20Z</time>
      </trkpt>
      <trkpt lat="43.77608" lon="7.13455">
        <ele>834.56</ele>
        <time>2022-04-28T11:26:24Z</time>
      </trkpt>
      <trkpt lat="43.77608" lon="7.13455">
        <ele>837.93</ele>
        <time>2022-04-28T11:26:25Z</time>
      </trkpt>
      <trkpt lat="43.77608" lon="7.13455">
        <ele>835.52</ele>
        <time>2022-04-28T11:26:26Z</time>
      </trkpt>
      <trkpt lat="43.77606" lon="7.13454">
        <ele>830.24</ele>
        <time>2022-04-28T11:26:36Z</time>
      </trkpt>
      <trkpt lat="43.77606" lon="7.13454">
        <ele>835.04</ele>
        <time>2022-04-28T11:26:38Z</time>
      </trkpt>
      <trkpt lat="43.77606" lon="7.13453">
        <ele>834.56</ele>
        <time>2022-04-28T11:26:39Z</time>
      </trkpt>
      <trkpt lat="43.77607" lon="7.13451">
        <ele>834.56</ele>
        <time>2022-04-28T11:26:51Z</time>
      </trkpt>
      <trkpt lat="43.77608" lon="7.13449">
        <ele>833.12</ele>
        <time>2022-04-28T11:27:09Z</time>
      </trkpt>
      <trkpt lat="43.77608" lon="7.13449">
        <ele>835.04</ele>
        <time>2022-04-28T11:27:11Z</time>
      </trkpt>
      <trkpt lat="43.77604" lon="7.1345">
        <ele>834.56</ele>
        <time>2022-04-28T11:27:42Z</time>
      </trkpt>
      <trkpt lat="43.77603" lon="7.13451">
        <ele>833.6</ele>
        <time>2022-04-28T11:28:11Z</time>
      </trkpt>
      <trkpt lat="43.77604" lon="7.13448">
        <ele>828.79</ele>
        <time>2022-04-28T11:28:34Z</time>
      </trkpt>
      <trkpt lat="43.77604" lon="7.13448">
        <ele>838.89</ele>
        <time>2022-04-28T11:28:35Z</time>
      </trkpt>
      <trkpt lat="43.77604" lon="7.13448">
        <ele>834.08</ele>
        <time>2022-04-28T11:28:36Z</time>
      </trkpt>
      <trkpt lat="43.77607" lon="7.13449">
        <ele>833.6</ele>
        <time>2022-04-28T11:28:45Z</time>
      </trkpt>
      <trkpt lat="43.77608" lon="7.1345">
        <ele>837.93</ele>
        <time>2022-04-28T11:28:52Z</time>
      </trkpt>
      <trkpt lat="43.77609" lon="7.1345">
        <ele>829.27</ele>
        <time>2022-04-28T11:28:53Z</time>
      </trkpt>
      <trkpt lat="43.77608" lon="7.1345">
        <ele>834.08</ele>
        <time>2022-04-28T11:28:54Z</time>
      </trkpt>
      <trkpt lat="43.77607" lon="7.13447">
        <ele>839.37</ele>
        <time>2022-04-28T11:29:07Z</time>
      </trkpt>
      <trkpt lat="43.77607" lon="7.13447">
        <ele>834.08</ele>
        <time>2022-04-28T11:29:08Z</time>
      </trkpt>
      <trkpt lat="43.77608" lon="7.13444">
        <ele>830.72</ele>
        <time>2022-04-28T11:29:37Z</time>
      </trkpt>
      <trkpt lat="43.77608" lon="7.13444">
        <ele>830.72</ele>
        <time>2022-04-28T11:29:38Z</time>
      </trkpt>
      <trkpt lat="43.77608" lon="7.13444">
        <ele>836.48</ele>
        <time>2022-04-28T11:29:39Z</time>
      </trkpt>
      <trkpt lat="43.77608" lon="7.13444">
        <ele>834.56</ele>
        <time>2022-04-28T11:29:40Z</time>
      </trkpt>
      <trkpt lat="43.7761" lon="7.13446">
        <ele>837.45</ele>
        <time>2022-04-28T11:29:48Z</time>
      </trkpt>
      <trkpt lat="43.77609" lon="7.13447">
        <ele>834.56</ele>
        <time>2022-04-28T11:29:49Z</time>
      </trkpt>
      <trkpt lat="43.77611" lon="7.13451">
        <ele>835.04</ele>
        <time>2022-04-28T11:30:27Z</time>
      </trkpt>
      <trkpt lat="43.77611" lon="7.13452">
        <ele>837.93</ele>
        <time>2022-04-28T11:30:31Z</time>
      </trkpt>
      <trkpt lat="43.77611" lon="7.13452">
        <ele>830.72</ele>
        <time>2022-04-28T11:30:32Z</time>
      </trkpt>
      <trkpt lat="43.77611" lon="7.13452">
        <ele>834.56</ele>
        <time>2022-04-28T11:30:33Z</time>
      </trkpt>
      <trkpt lat="43.77609" lon="7.13454">
        <ele>840.81</ele>
        <time>2022-04-28T11:30:52Z</time>
      </trkpt>
      <trkpt lat="43.77609" lon="7.13454">
        <ele>834.56</ele>
        <time>2022-04-28T11:30:53Z</time>
      </trkpt>
      <trkpt lat="43.77609" lon="7.13454">
        <ele>831.2</ele>
        <time>2022-04-28T11:30:54Z</time>
      </trkpt>
      <trkpt lat="43.77609" lon="7.13454">
        <ele>834.56</ele>
        <time>2022-04-28T11:30:55Z</time>
      </trkpt>
      <trkpt lat="43.77609" lon="7.13454">
        <ele>838.89</ele>
        <time>2022-04-28T11:30:57Z</time>
      </trkpt>
      <trkpt lat="43.77609" lon="7.13454">
        <ele>830.72</ele>
        <time>2022-04-28T11:30:58Z</time>
      </trkpt>
      <trkpt lat="43.77609" lon="7.13455">
        <ele>837.93</ele>
        <time>2022-04-28T11:30:59Z</time>
      </trkpt>
      <trkpt lat="43.77609" lon="7.13456">
        <ele>834.56</ele>
        <time>2022-04-28T11:31:01Z</time>
      </trkpt>
      <trkpt lat="43.77609" lon="7.13452">
        <ele>834.56</ele>
        <time>2022-04-28T11:31:26Z</time>
      </trkpt>
      <trkpt lat="43.77613" lon="7.13458">
        <ele>837.93</ele>
        <time>2022-04-28T11:31:57Z</time>
      </trkpt>
      <trkpt lat="43.77613" lon="7.13458">
        <ele>832.64</ele>
        <time>2022-04-28T11:31:58Z</time>
      </trkpt>
      <trkpt lat="43.77613" lon="7.13458">
        <ele>836</ele>
        <time>2022-04-28T11:32:00Z</time>
      </trkpt>
      <trkpt lat="43.77613" lon="7.13457">
        <ele>831.68</ele>
        <time>2022-04-28T11:32:14Z</time>
      </trkpt>
      <trkpt lat="43.77613" lon="7.13457">
        <ele>836.96</ele>
        <time>2022-04-28T11:32:15Z</time>
      </trkpt>
      <trkpt lat="43.77613" lon="7.13457">
        <ele>835.52</ele>
        <time>2022-04-28T11:32:16Z</time>
      </trkpt>
      <trkpt lat="43.77609" lon="7.13455">
        <ele>834.08</ele>
        <time>2022-04-28T11:32:47Z</time>
      </trkpt>
      <trkpt lat="43.77607" lon="7.1345">
        <ele>835.04</ele>
        <time>2022-04-28T11:33:11Z</time>
      </trkpt>
      <trkpt lat="43.77608" lon="7.13454">
        <ele>834.56</ele>
        <time>2022-04-28T11:33:38Z</time>
      </trkpt>
      <trkpt lat="43.77608" lon="7.13449">
        <ele>833.12</ele>
        <time>2022-04-28T11:34:03Z</time>
      </trkpt>
      <trkpt lat="43.77608" lon="7.13452">
        <ele>835.04</ele>
        <time>2022-04-28T11:34:38Z</time>
      </trkpt>
      <trkpt lat="43.77609" lon="7.13453">
        <ele>833.6</ele>
        <time>2022-04-28T11:35:13Z</time>
      </trkpt>
      <trkpt lat="43.77608" lon="7.13448">
        <ele>834.56</ele>
        <time>2022-04-28T11:35:44Z</time>
      </trkpt>
      <trkpt lat="43.77606" lon="7.13451">
        <ele>834.56</ele>
        <time>2022-04-28T11:36:12Z</time>
      </trkpt>
      <trkpt lat="43.77607" lon="7.1345">
        <ele>834.56</ele>
        <time>2022-04-28T11:36:41Z</time>
      </trkpt>
      <trkpt lat="43.7761" lon="7.13454">
        <ele>834.56</ele>
        <time>2022-04-28T11:37:15Z</time>
      </trkpt>
      <trkpt lat="43.77609" lon="7.13456">
        <ele>834.56</ele>
        <time>2022-04-28T11:37:46Z</time>
      </trkpt>
      <trkpt lat="43.77609" lon="7.13453">
        <ele>834.56</ele>
        <time>2022-04-28T11:38:11Z</time>
      </trkpt>
      <trkpt lat="43.77609" lon="7.13452">
        <ele>835.04</ele>
        <time>2022-04-28T11:38:18Z</time>
      </trkpt>
      <trkpt lat="43.77608" lon="7.13452">
        <ele>831.68</ele>
        <time>2022-04-28T11:38:33Z</time>
      </trkpt>
      <trkpt lat="43.77608" lon="7.13452">
        <ele>836.48</ele>
        <time>2022-04-28T11:38:34Z</time>
      </trkpt>
      <trkpt lat="43.77608" lon="7.13453">
        <ele>831.2</ele>
        <time>2022-04-28T11:38:36Z</time>
      </trkpt>
      <trkpt lat="43.77608" lon="7.13452">
        <ele>836</ele>
        <time>2022-04-28T11:38:37Z</time>
      </trkpt>
      <trkpt lat="43.77608" lon="7.13452">
        <ele>832.64</ele>
        <time>2022-04-28T11:38:38Z</time>
      </trkpt>
      <trkpt lat="43.77608" lon="7.13452">
        <ele>835.04</ele>
        <time>2022-04-28T11:38:44Z</time>
      </trkpt>
      <trkpt lat="43.77606" lon="7.13449">
        <ele>835.04</ele>
        <time>2022-04-28T11:39:12Z</time>
      </trkpt>
      <trkpt lat="43.77605" lon="7.1345">
        <ele>834.56</ele>
        <time>2022-04-28T11:39:34Z</time>
      </trkpt>
      <trkpt lat="43.77606" lon="7.13452">
        <ele>834.08</ele>
        <time>2022-04-28T11:40:00Z</time>
      </trkpt>
      <trkpt lat="43.77607" lon="7.13448">
        <ele>833.6</ele>
        <time>2022-04-28T11:40:13Z</time>
      </trkpt>
      <trkpt lat="43.77608" lon="7.13452">
        <ele>835.04</ele>
        <time>2022-04-28T11:40:39Z</time>
      </trkpt>
      <trkpt lat="43.77609" lon="7.1345">
        <ele>834.56</ele>
        <time>2022-04-28T11:41:18Z</time>
      </trkpt>
      <trkpt lat="43.7761" lon="7.13452">
        <ele>835.04</ele>
        <time>2022-04-28T11:41:47Z</time>
      </trkpt>
      <trkpt lat="43.77609" lon="7.13451">
        <ele>830.72</ele>
        <time>2022-04-28T11:42:12Z</time>
      </trkpt>
      <trkpt lat="43.77609" lon="7.13452">
        <ele>834.08</ele>
        <time>2022-04-28T11:42:13Z</time>
      </trkpt>
      <trkpt lat="43.77609" lon="7.13454">
        <ele>835.04</ele>
        <time>2022-04-28T11:42:36Z</time>
      </trkpt>
      <trkpt lat="43.77611" lon="7.13452">
        <ele>833.6</ele>
        <time>2022-04-28T11:43:13Z</time>
      </trkpt>
      <trkpt lat="43.77612" lon="7.13453">
        <ele>834.56</ele>
        <time>2022-04-28T11:43:51Z</time>
      </trkpt>
      <trkpt lat="43.77608" lon="7.13451">
        <ele>831.2</ele>
        <time>2022-04-28T11:44:03Z</time>
      </trkpt>
      <trkpt lat="43.77607" lon="7.1345">
        <ele>834.08</ele>
        <time>2022-04-28T11:44:07Z</time>
      </trkpt>
      <trkpt lat="43.77604" lon="7.13451">
        <ele>833.6</ele>
        <time>2022-04-28T11:44:43Z</time>
      </trkpt>
      <trkpt lat="43.77606" lon="7.13446">
        <ele>833.12</ele>
        <time>2022-04-28T11:45:02Z</time>
      </trkpt>
      <trkpt lat="43.77607" lon="7.13448">
        <ele>834.56</ele>
        <time>2022-04-28T11:45:41Z</time>
      </trkpt>
      <trkpt lat="43.77609" lon="7.13451">
        <ele>835.04</ele>
        <time>2022-04-28T11:46:14Z</time>
      </trkpt>
      <trkpt lat="43.77606" lon="7.1345">
        <ele>834.08</ele>
        <time>2022-04-28T11:46:54Z</time>
      </trkpt>
      <trkpt lat="43.77608" lon="7.13452">
        <ele>833.6</ele>
        <time>2022-04-28T11:47:23Z</time>
      </trkpt>
      <trkpt lat="43.77609" lon="7.13453">
        <ele>834.56</ele>
        <time>2022-04-28T11:47:35Z</time>
      </trkpt>
      <trkpt lat="43.77608" lon="7.13451">
        <ele>834.56</ele>
        <time>2022-04-28T11:48:12Z</time>
      </trkpt>
      <trkpt lat="43.77608" lon="7.13449">
        <ele>834.08</ele>
        <time>2022-04-28T11:48:38Z</time>
      </trkpt>
      <trkpt lat="43.77607" lon="7.13451">
        <ele>833.6</ele>
        <time>2022-04-28T11:49:12Z</time>
      </trkpt>
      <trkpt lat="43.77608" lon="7.13449">
        <ele>836.96</ele>
        <time>2022-04-28T11:49:44Z</time>
      </trkpt>
      <trkpt lat="43.77609" lon="7.13452">
        <ele>833.6</ele>
        <time>2022-04-28T11:49:45Z</time>
      </trkpt>
      <trkpt lat="43.77608" lon="7.13451">
        <ele>833.12</ele>
        <time>2022-04-28T11:50:08Z</time>
      </trkpt>
      <trkpt lat="43.7761" lon="7.1345">
        <ele>833.12</ele>
        <time>2022-04-28T11:50:33Z</time>
      </trkpt>
      <trkpt lat="43.77608" lon="7.13452">
        <ele>815.82</ele>
        <time>2022-04-28T11:50:45Z</time>
      </trkpt>
      <trkpt lat="43.77607" lon="7.13452">
        <ele>842.73</ele>
        <time>2022-04-28T11:50:46Z</time>
      </trkpt>
      <trkpt lat="43.77607" lon="7.13452">
        <ele>833.12</ele>
        <time>2022-04-28T11:50:47Z</time>
      </trkpt>
      <trkpt lat="43.77602" lon="7.13458">
        <ele>832.64</ele>
        <time>2022-04-28T11:50:58Z</time>
      </trkpt>
      <trkpt lat="43.776" lon="7.13461">
        <ele>832.64</ele>
        <time>2022-04-28T11:51:01Z</time>
      </trkpt>
      <trkpt lat="43.77598" lon="7.13464">
        <ele>834.56</ele>
        <time>2022-04-28T11:51:04Z</time>
      </trkpt>
      <trkpt lat="43.77598" lon="7.13467">
        <ele>833.12</ele>
        <time>2022-04-28T11:51:06Z</time>
      </trkpt>
      <trkpt lat="43.77595" lon="7.13471">
        <ele>834.56</ele>
        <time>2022-04-28T11:51:11Z</time>
      </trkpt>
      <trkpt lat="43.77593" lon="7.13486">
        <ele>834.08</ele>
        <time>2022-04-28T11:51:25Z</time>
      </trkpt>
      <trkpt lat="43.77589" lon="7.13494">
        <ele>833.12</ele>
        <time>2022-04-28T11:51:32Z</time>
      </trkpt>
      <trkpt lat="43.77587" lon="7.13497">
        <ele>835.52</ele>
        <time>2022-04-28T11:51:35Z</time>
      </trkpt>
      <trkpt lat="43.77586" lon="7.13498">
        <ele>832.16</ele>
        <time>2022-04-28T11:51:36Z</time>
      </trkpt>
      <trkpt lat="43.77585" lon="7.13499">
        <ele>835.52</ele>
        <time>2022-04-28T11:51:37Z</time>
      </trkpt>
      <trkpt lat="43.77577" lon="7.13506">
        <ele>836</ele>
        <time>2022-04-28T11:51:46Z</time>
      </trkpt>
      <trkpt lat="43.77573" lon="7.13515">
        <ele>837.93</ele>
        <time>2022-04-28T11:51:58Z</time>
      </trkpt>
      <trkpt lat="43.77571" lon="7.13519">
        <ele>837.45</ele>
        <time>2022-04-28T11:52:12Z</time>
      </trkpt>
      <trkpt lat="43.77571" lon="7.13522">
        <ele>837.45</ele>
        <time>2022-04-28T11:52:27Z</time>
      </trkpt>
      <trkpt lat="43.77572" lon="7.13525">
        <ele>837.93</ele>
        <time>2022-04-28T11:52:43Z</time>
      </trkpt>
      <trkpt lat="43.77574" lon="7.13528">
        <ele>839.37</ele>
        <time>2022-04-28T11:52:49Z</time>
      </trkpt>
      <trkpt lat="43.77575" lon="7.13531">
        <ele>841.29</ele>
        <time>2022-04-28T11:52:51Z</time>
      </trkpt>
      <trkpt lat="43.77576" lon="7.13531">
        <ele>836.48</ele>
        <time>2022-04-28T11:52:52Z</time>
      </trkpt>
      <trkpt lat="43.77574" lon="7.13531">
        <ele>838.41</ele>
        <time>2022-04-28T11:53:06Z</time>
      </trkpt>
      <trkpt lat="43.77572" lon="7.13532">
        <ele>836</ele>
        <time>2022-04-28T11:53:30Z</time>
      </trkpt>
      <trkpt lat="43.7757" lon="7.13533">
        <ele>839.37</ele>
        <time>2022-04-28T11:53:32Z</time>
      </trkpt>
      <trkpt lat="43.77569" lon="7.13535">
        <ele>836</ele>
        <time>2022-04-28T11:53:34Z</time>
      </trkpt>
      <trkpt lat="43.77568" lon="7.13536">
        <ele>839.85</ele>
        <time>2022-04-28T11:53:35Z</time>
      </trkpt>
      <trkpt lat="43.77568" lon="7.13538">
        <ele>837.93</ele>
        <time>2022-04-28T11:53:37Z</time>
      </trkpt>
      <trkpt lat="43.77562" lon="7.13549">
        <ele>838.89</ele>
        <time>2022-04-28T11:53:48Z</time>
      </trkpt>
      <trkpt lat="43.77561" lon="7.1355">
        <ele>839.85</ele>
        <time>2022-04-28T11:53:49Z</time>
      </trkpt>
      <trkpt lat="43.77561" lon="7.13571">
        <ele>839.37</ele>
        <time>2022-04-28T11:54:04Z</time>
      </trkpt>
      <trkpt lat="43.77566" lon="7.13591">
        <ele>839.85</ele>
        <time>2022-04-28T11:54:18Z</time>
      </trkpt>
      <trkpt lat="43.77565" lon="7.13601">
        <ele>837.45</ele>
        <time>2022-04-28T11:54:27Z</time>
      </trkpt>
      <trkpt lat="43.77566" lon="7.13606">
        <ele>838.41</ele>
        <time>2022-04-28T11:54:30Z</time>
      </trkpt>
      <trkpt lat="43.77569" lon="7.13622">
        <ele>838.41</ele>
        <time>2022-04-28T11:54:42Z</time>
      </trkpt>
      <trkpt lat="43.7757" lon="7.13623">
        <ele>839.37</ele>
        <time>2022-04-28T11:54:43Z</time>
      </trkpt>
      <trkpt lat="43.77571" lon="7.13631">
        <ele>838.41</ele>
        <time>2022-04-28T11:54:50Z</time>
      </trkpt>
      <trkpt lat="43.77571" lon="7.13639">
        <ele>839.37</ele>
        <time>2022-04-28T11:54:55Z</time>
      </trkpt>
      <trkpt lat="43.77571" lon="7.13644">
        <ele>838.89</ele>
        <time>2022-04-28T11:54:59Z</time>
      </trkpt>
      <trkpt lat="43.77571" lon="7.13647">
        <ele>840.81</ele>
        <time>2022-04-28T11:55:01Z</time>
      </trkpt>
      <trkpt lat="43.77573" lon="7.13654">
        <ele>839.37</ele>
        <time>2022-04-28T11:55:06Z</time>
      </trkpt>
      <trkpt lat="43.77574" lon="7.13657">
        <ele>838.89</ele>
        <time>2022-04-28T11:55:08Z</time>
      </trkpt>
      <trkpt lat="43.77578" lon="7.13671">
        <ele>838.41</ele>
        <time>2022-04-28T11:55:20Z</time>
      </trkpt>
      <trkpt lat="43.77578" lon="7.13679">
        <ele>837.45</ele>
        <time>2022-04-28T11:55:27Z</time>
      </trkpt>
      <trkpt lat="43.77578" lon="7.13682">
        <ele>837.45</ele>
        <time>2022-04-28T11:55:29Z</time>
      </trkpt>
      <trkpt lat="43.77574" lon="7.13698">
        <ele>836.48</ele>
        <time>2022-04-28T11:55:42Z</time>
      </trkpt>
      <trkpt lat="43.77574" lon="7.13706">
        <ele>835.04</ele>
        <time>2022-04-28T11:55:49Z</time>
      </trkpt>
      <trkpt lat="43.77566" lon="7.1372">
        <ele>834.56</ele>
        <time>2022-04-28T11:56:02Z</time>
      </trkpt>
      <trkpt lat="43.77561" lon="7.13724">
        <ele>834.08</ele>
        <time>2022-04-28T11:56:15Z</time>
      </trkpt>
      <trkpt lat="43.77561" lon="7.13725">
        <ele>833.6</ele>
        <time>2022-04-28T11:56:26Z</time>
      </trkpt>
      <trkpt lat="43.77549" lon="7.1373">
        <ele>835.52</ele>
        <time>2022-04-28T11:56:36Z</time>
      </trkpt>
      <trkpt lat="43.77537" lon="7.13733">
        <ele>833.6</ele>
        <time>2022-04-28T11:56:48Z</time>
      </trkpt>
      <trkpt lat="43.77534" lon="7.13734">
        <ele>835.52</ele>
        <time>2022-04-28T11:56:51Z</time>
      </trkpt>
      <trkpt lat="43.77523" lon="7.13733">
        <ele>835.52</ele>
        <time>2022-04-28T11:57:02Z</time>
      </trkpt>
      <trkpt lat="43.77518" lon="7.13733">
        <ele>834.08</ele>
        <time>2022-04-28T11:57:06Z</time>
      </trkpt>
      <trkpt lat="43.77512" lon="7.13735">
        <ele>834.56</ele>
        <time>2022-04-28T11:57:13Z</time>
      </trkpt>
      <trkpt lat="43.77509" lon="7.13734">
        <ele>837.45</ele>
        <time>2022-04-28T11:57:16Z</time>
      </trkpt>
      <trkpt lat="43.77508" lon="7.13733">
        <ele>833.12</ele>
        <time>2022-04-28T11:57:17Z</time>
      </trkpt>
      <trkpt lat="43.77507" lon="7.13733">
        <ele>837.93</ele>
        <time>2022-04-28T11:57:18Z</time>
      </trkpt>
      <trkpt lat="43.77505" lon="7.13733">
        <ele>834.08</ele>
        <time>2022-04-28T11:57:21Z</time>
      </trkpt>
      <trkpt lat="43.77504" lon="7.13733">
        <ele>834.08</ele>
        <time>2022-04-28T11:57:22Z</time>
      </trkpt>
      <trkpt lat="43.77502" lon="7.13734">
        <ele>836.48</ele>
        <time>2022-04-28T11:57:24Z</time>
      </trkpt>
      <trkpt lat="43.77498" lon="7.13735">
        <ele>837.45</ele>
        <time>2022-04-28T11:57:28Z</time>
      </trkpt>
      <trkpt lat="43.77495" lon="7.13733">
        <ele>837.93</ele>
        <time>2022-04-28T11:57:31Z</time>
      </trkpt>
      <trkpt lat="43.77484" lon="7.1374">
        <ele>835.52</ele>
        <time>2022-04-28T11:57:43Z</time>
      </trkpt>
      <trkpt lat="43.77482" lon="7.13741">
        <ele>836.48</ele>
        <time>2022-04-28T11:57:45Z</time>
      </trkpt>
      <trkpt lat="43.7748" lon="7.13743">
        <ele>835.04</ele>
        <time>2022-04-28T11:57:47Z</time>
      </trkpt>
      <trkpt lat="43.77479" lon="7.13743">
        <ele>836.48</ele>
        <time>2022-04-28T11:57:48Z</time>
      </trkpt>
      <trkpt lat="43.77468" lon="7.13745">
        <ele>834.08</ele>
        <time>2022-04-28T11:58:00Z</time>
      </trkpt>
      <trkpt lat="43.77465" lon="7.13746">
        <ele>837.93</ele>
        <time>2022-04-28T11:58:04Z</time>
      </trkpt>
      <trkpt lat="43.77465" lon="7.13748">
        <ele>834.08</ele>
        <time>2022-04-28T11:58:05Z</time>
      </trkpt>
      <trkpt lat="43.77463" lon="7.13748">
        <ele>837.45</ele>
        <time>2022-04-28T11:58:08Z</time>
      </trkpt>
      <trkpt lat="43.77462" lon="7.13748">
        <ele>833.6</ele>
        <time>2022-04-28T11:58:09Z</time>
      </trkpt>
      <trkpt lat="43.77461" lon="7.13748">
        <ele>835.04</ele>
        <time>2022-04-28T11:58:11Z</time>
      </trkpt>
      <trkpt lat="43.77458" lon="7.1375">
        <ele>833.12</ele>
        <time>2022-04-28T11:58:15Z</time>
      </trkpt>
      <trkpt lat="43.77452" lon="7.13752">
        <ele>837.45</ele>
        <time>2022-04-28T11:58:23Z</time>
      </trkpt>
      <trkpt lat="43.7745" lon="7.13751">
        <ele>835.04</ele>
        <time>2022-04-28T11:58:25Z</time>
      </trkpt>
      <trkpt lat="43.77447" lon="7.1375">
        <ele>833.6</ele>
        <time>2022-04-28T11:58:28Z</time>
      </trkpt>
      <trkpt lat="43.77439" lon="7.13748">
        <ele>832.16</ele>
        <time>2022-04-28T11:58:40Z</time>
      </trkpt>
      <trkpt lat="43.77435" lon="7.13748">
        <ele>834.56</ele>
        <time>2022-04-28T11:58:45Z</time>
      </trkpt>
      <trkpt lat="43.77434" lon="7.13747">
        <ele>831.68</ele>
        <time>2022-04-28T11:58:51Z</time>
      </trkpt>
      <trkpt lat="43.77424" lon="7.13746">
        <ele>831.68</ele>
        <time>2022-04-28T11:59:03Z</time>
      </trkpt>
      <trkpt lat="43.77413" lon="7.13749">
        <ele>833.6</ele>
        <time>2022-04-28T11:59:15Z</time>
      </trkpt>
      <trkpt lat="43.77412" lon="7.13749">
        <ele>834.56</ele>
        <time>2022-04-28T11:59:17Z</time>
      </trkpt>
      <trkpt lat="43.7741" lon="7.13753">
        <ele>833.6</ele>
        <time>2022-04-28T11:59:31Z</time>
      </trkpt>
      <trkpt lat="43.77411" lon="7.13755">
        <ele>833.12</ele>
        <time>2022-04-28T11:59:52Z</time>
      </trkpt>
      <trkpt lat="43.77413" lon="7.13757">
        <ele>833.12</ele>
        <time>2022-04-28T12:00:17Z</time>
      </trkpt>
      <trkpt lat="43.77414" lon="7.13756">
        <ele>833.6</ele>
        <time>2022-04-28T12:00:30Z</time>
      </trkpt>
      <trkpt lat="43.77423" lon="7.13756">
        <ele>833.12</ele>
        <time>2022-04-28T12:00:42Z</time>
      </trkpt>
      <trkpt lat="43.77425" lon="7.13757">
        <ele>831.68</ele>
        <time>2022-04-28T12:00:44Z</time>
      </trkpt>
      <trkpt lat="43.77429" lon="7.1376">
        <ele>831.2</ele>
        <time>2022-04-28T12:00:56Z</time>
      </trkpt>
      <trkpt lat="43.77424" lon="7.13754">
        <ele>831.68</ele>
        <time>2022-04-28T12:01:12Z</time>
      </trkpt>
      <trkpt lat="43.7742" lon="7.13751">
        <ele>835.52</ele>
        <time>2022-04-28T12:01:22Z</time>
      </trkpt>
      <trkpt lat="43.77421" lon="7.13751">
        <ele>832.64</ele>
        <time>2022-04-28T12:01:24Z</time>
      </trkpt>
      <trkpt lat="43.77419" lon="7.13751">
        <ele>823.51</ele>
        <time>2022-04-28T12:01:39Z</time>
      </trkpt>
      <trkpt lat="43.77419" lon="7.13751">
        <ele>838.89</ele>
        <time>2022-04-28T12:01:40Z</time>
      </trkpt>
      <trkpt lat="43.77419" lon="7.1375">
        <ele>832.64</ele>
        <time>2022-04-28T12:01:42Z</time>
      </trkpt>
      <trkpt lat="43.77419" lon="7.13751">
        <ele>833.12</ele>
        <time>2022-04-28T12:01:43Z</time>
      </trkpt>
      <trkpt lat="43.7742" lon="7.13751">
        <ele>833.12</ele>
        <time>2022-04-28T12:02:03Z</time>
      </trkpt>
      <trkpt lat="43.77419" lon="7.13752">
        <ele>833.12</ele>
        <time>2022-04-28T12:02:24Z</time>
      </trkpt>
      <trkpt lat="43.7742" lon="7.13752">
        <ele>832.64</ele>
        <time>2022-04-28T12:02:45Z</time>
      </trkpt>
      <trkpt lat="43.77422" lon="7.13751">
        <ele>832.64</ele>
        <time>2022-04-28T12:03:10Z</time>
      </trkpt>
      <trkpt lat="43.7742" lon="7.13751">
        <ele>833.6</ele>
        <time>2022-04-28T12:03:32Z</time>
      </trkpt>
      <trkpt lat="43.77419" lon="7.13752">
        <ele>832.64</ele>
        <time>2022-04-28T12:03:59Z</time>
      </trkpt>
      <trkpt lat="43.77418" lon="7.13748">
        <ele>833.6</ele>
        <time>2022-04-28T12:04:17Z</time>
      </trkpt>
      <trkpt lat="43.77412" lon="7.1375">
        <ele>834.08</ele>
        <time>2022-04-28T12:04:37Z</time>
      </trkpt>
      <trkpt lat="43.7741" lon="7.13754">
        <ele>833.6</ele>
        <time>2022-04-28T12:04:41Z</time>
      </trkpt>
      <trkpt lat="43.77406" lon="7.13759">
        <ele>832.64</ele>
        <time>2022-04-28T12:04:47Z</time>
      </trkpt>
      <trkpt lat="43.77404" lon="7.13758">
        <ele>833.6</ele>
        <time>2022-04-28T12:04:49Z</time>
      </trkpt>
      <trkpt lat="43.774" lon="7.13757">
        <ele>834.56</ele>
        <time>2022-04-28T12:05:02Z</time>
      </trkpt>
      <trkpt lat="43.77398" lon="7.13757">
        <ele>828.79</ele>
        <time>2022-04-28T12:05:10Z</time>
      </trkpt>
      <trkpt lat="43.77397" lon="7.13757">
        <ele>834.56</ele>
        <time>2022-04-28T12:05:11Z</time>
      </trkpt>
      <trkpt lat="43.77396" lon="7.13755">
        <ele>831.2</ele>
        <time>2022-04-28T12:05:13Z</time>
      </trkpt>
      <trkpt lat="43.77396" lon="7.13754">
        <ele>844.18</ele>
        <time>2022-04-28T12:05:15Z</time>
      </trkpt>
      <trkpt lat="43.77395" lon="7.13754">
        <ele>835.04</ele>
        <time>2022-04-28T12:05:16Z</time>
      </trkpt>
      <trkpt lat="43.77391" lon="7.1375">
        <ele>835.04</ele>
        <time>2022-04-28T12:05:21Z</time>
      </trkpt>
      <trkpt lat="43.77389" lon="7.13748">
        <ele>835.04</ele>
        <time>2022-04-28T12:05:24Z</time>
      </trkpt>
      <trkpt lat="43.77387" lon="7.13746">
        <ele>832.64</ele>
        <time>2022-04-28T12:05:26Z</time>
      </trkpt>
      <trkpt lat="43.77386" lon="7.13745">
        <ele>836.48</ele>
        <time>2022-04-28T12:05:28Z</time>
      </trkpt>
      <trkpt lat="43.77383" lon="7.13745">
        <ele>834.08</ele>
        <time>2022-04-28T12:05:31Z</time>
      </trkpt>
      <trkpt lat="43.77378" lon="7.13748">
        <ele>836.48</ele>
        <time>2022-04-28T12:05:35Z</time>
      </trkpt>
      <trkpt lat="43.77372" lon="7.13765">
        <ele>834.08</ele>
        <time>2022-04-28T12:05:49Z</time>
      </trkpt>
      <trkpt lat="43.77365" lon="7.13773">
        <ele>832.64</ele>
        <time>2022-04-28T12:05:58Z</time>
      </trkpt>
      <trkpt lat="43.77363" lon="7.13776">
        <ele>833.12</ele>
        <time>2022-04-28T12:06:01Z</time>
      </trkpt>
      <trkpt lat="43.7736" lon="7.13777">
        <ele>834.56</ele>
        <time>2022-04-28T12:06:04Z</time>
      </trkpt>
      <trkpt lat="43.77356" lon="7.13777">
        <ele>834.08</ele>
        <time>2022-04-28T12:06:07Z</time>
      </trkpt>
      <trkpt lat="43.77354" lon="7.13778">
        <ele>832.64</ele>
        <time>2022-04-28T12:06:19Z</time>
      </trkpt>
      <trkpt lat="43.77353" lon="7.13778">
        <ele>833.6</ele>
        <time>2022-04-28T12:06:42Z</time>
      </trkpt>
      <trkpt lat="43.7735" lon="7.13779">
        <ele>832.64</ele>
        <time>2022-04-28T12:06:55Z</time>
      </trkpt>
      <trkpt lat="43.77345" lon="7.13784">
        <ele>832.16</ele>
        <time>2022-04-28T12:07:24Z</time>
      </trkpt>
      <trkpt lat="43.77344" lon="7.13784">
        <ele>830.72</ele>
        <time>2022-04-28T12:07:26Z</time>
      </trkpt>
      <trkpt lat="43.77337" lon="7.13789">
        <ele>831.2</ele>
        <time>2022-04-28T12:07:34Z</time>
      </trkpt>
      <trkpt lat="43.77336" lon="7.13789">
        <ele>832.64</ele>
        <time>2022-04-28T12:07:36Z</time>
      </trkpt>
      <trkpt lat="43.77333" lon="7.13786">
        <ele>833.12</ele>
        <time>2022-04-28T12:07:39Z</time>
      </trkpt>
      <trkpt lat="43.77333" lon="7.13784">
        <ele>829.76</ele>
        <time>2022-04-28T12:07:40Z</time>
      </trkpt>
      <trkpt lat="43.77332" lon="7.13783">
        <ele>832.64</ele>
        <time>2022-04-28T12:07:41Z</time>
      </trkpt>
      <trkpt lat="43.7733" lon="7.13781">
        <ele>832.16</ele>
        <time>2022-04-28T12:07:44Z</time>
      </trkpt>
      <trkpt lat="43.77323" lon="7.13775">
        <ele>833.12</ele>
        <time>2022-04-28T12:07:52Z</time>
      </trkpt>
      <trkpt lat="43.77321" lon="7.13774">
        <ele>831.2</ele>
        <time>2022-04-28T12:07:54Z</time>
      </trkpt>
      <trkpt lat="43.77317" lon="7.13774">
        <ele>829.76</ele>
        <time>2022-04-28T12:08:09Z</time>
      </trkpt>
      <trkpt lat="43.77316" lon="7.13767">
        <ele>832.64</ele>
        <time>2022-04-28T12:08:19Z</time>
      </trkpt>
      <trkpt lat="43.77317" lon="7.13766">
        <ele>829.76</ele>
        <time>2022-04-28T12:08:25Z</time>
      </trkpt>
      <trkpt lat="43.77316" lon="7.13771">
        <ele>830.24</ele>
        <time>2022-04-28T12:08:44Z</time>
      </trkpt>
      <trkpt lat="43.77314" lon="7.13775">
        <ele>830.72</ele>
        <time>2022-04-28T12:09:09Z</time>
      </trkpt>
      <trkpt lat="43.77312" lon="7.13764">
        <ele>831.68</ele>
        <time>2022-04-28T12:09:36Z</time>
      </trkpt>
      <trkpt lat="43.77311" lon="7.13761">
        <ele>831.68</ele>
        <time>2022-04-28T12:09:38Z</time>
      </trkpt>
      <trkpt lat="43.77309" lon="7.13759">
        <ele>830.24</ele>
        <time>2022-04-28T12:09:40Z</time>
      </trkpt>
      <trkpt lat="43.773" lon="7.13751">
        <ele>826.87</ele>
        <time>2022-04-28T12:09:52Z</time>
      </trkpt>
      <trkpt lat="43.773" lon="7.13751">
        <ele>831.68</ele>
        <time>2022-04-28T12:09:53Z</time>
      </trkpt>
      <trkpt lat="43.77299" lon="7.13752">
        <ele>830.24</ele>
        <time>2022-04-28T12:09:57Z</time>
      </trkpt>
      <trkpt lat="43.77292" lon="7.13759">
        <ele>830.72</ele>
        <time>2022-04-28T12:10:06Z</time>
      </trkpt>
      <trkpt lat="43.77292" lon="7.13759">
        <ele>829.27</ele>
        <time>2022-04-28T12:10:07Z</time>
      </trkpt>
      <trkpt lat="43.77285" lon="7.13759">
        <ele>829.27</ele>
        <time>2022-04-28T12:10:16Z</time>
      </trkpt>
      <trkpt lat="43.77281" lon="7.13761">
        <ele>829.27</ele>
        <time>2022-04-28T12:10:29Z</time>
      </trkpt>
      <trkpt lat="43.77279" lon="7.13763">
        <ele>830.24</ele>
        <time>2022-04-28T12:10:36Z</time>
      </trkpt>
      <trkpt lat="43.77276" lon="7.13764">
        <ele>832.64</ele>
        <time>2022-04-28T12:10:39Z</time>
      </trkpt>
      <trkpt lat="43.7727" lon="7.13764">
        <ele>832.64</ele>
        <time>2022-04-28T12:10:45Z</time>
      </trkpt>
      <trkpt lat="43.77269" lon="7.13764">
        <ele>828.79</ele>
        <time>2022-04-28T12:10:46Z</time>
      </trkpt>
      <trkpt lat="43.77267" lon="7.13764">
        <ele>832.64</ele>
        <time>2022-04-28T12:10:48Z</time>
      </trkpt>
      <trkpt lat="43.7726" lon="7.13764">
        <ele>828.31</ele>
        <time>2022-04-28T12:10:55Z</time>
      </trkpt>
      <trkpt lat="43.7726" lon="7.13766">
        <ele>831.68</ele>
        <time>2022-04-28T12:10:58Z</time>
      </trkpt>
      <trkpt lat="43.77253" lon="7.13769">
        <ele>828.31</ele>
        <time>2022-04-28T12:11:06Z</time>
      </trkpt>
      <trkpt lat="43.77253" lon="7.1377">
        <ele>828.79</ele>
        <time>2022-04-28T12:11:22Z</time>
      </trkpt>
      <trkpt lat="43.77252" lon="7.13772">
        <ele>828.79</ele>
        <time>2022-04-28T12:11:51Z</time>
      </trkpt>
      <trkpt lat="43.77244" lon="7.13778">
        <ele>827.35</ele>
        <time>2022-04-28T12:12:01Z</time>
      </trkpt>
      <trkpt lat="43.77239" lon="7.13782">
        <ele>828.79</ele>
        <time>2022-04-28T12:12:06Z</time>
      </trkpt>
      <trkpt lat="43.77233" lon="7.13787">
        <ele>828.79</ele>
        <time>2022-04-28T12:12:13Z</time>
      </trkpt>
      <trkpt lat="43.77232" lon="7.13789">
        <ele>823.03</ele>
        <time>2022-04-28T12:12:15Z</time>
      </trkpt>
      <trkpt lat="43.77231" lon="7.1379">
        <ele>830.72</ele>
        <time>2022-04-28T12:12:16Z</time>
      </trkpt>
      <trkpt lat="43.77231" lon="7.13792">
        <ele>827.35</ele>
        <time>2022-04-28T12:12:18Z</time>
      </trkpt>
      <trkpt lat="43.7723" lon="7.13794">
        <ele>831.2</ele>
        <time>2022-04-28T12:12:21Z</time>
      </trkpt>
      <trkpt lat="43.77229" lon="7.13797">
        <ele>827.83</ele>
        <time>2022-04-28T12:12:23Z</time>
      </trkpt>
      <trkpt lat="43.77225" lon="7.13808">
        <ele>825.91</ele>
        <time>2022-04-28T12:12:33Z</time>
      </trkpt>
      <trkpt lat="43.77222" lon="7.13812">
        <ele>828.79</ele>
        <time>2022-04-28T12:12:38Z</time>
      </trkpt>
      <trkpt lat="43.77221" lon="7.13813">
        <ele>828.31</ele>
        <time>2022-04-28T12:12:40Z</time>
      </trkpt>
      <trkpt lat="43.77216" lon="7.13816">
        <ele>827.83</ele>
        <time>2022-04-28T12:12:47Z</time>
      </trkpt>
      <trkpt lat="43.77213" lon="7.13818">
        <ele>828.79</ele>
        <time>2022-04-28T12:12:51Z</time>
      </trkpt>
      <trkpt lat="43.772" lon="7.13825">
        <ele>828.79</ele>
        <time>2022-04-28T12:13:04Z</time>
      </trkpt>
      <trkpt lat="43.77196" lon="7.13827">
        <ele>825.43</ele>
        <time>2022-04-28T12:13:08Z</time>
      </trkpt>
      <trkpt lat="43.77186" lon="7.13832">
        <ele>825.43</ele>
        <time>2022-04-28T12:13:18Z</time>
      </trkpt>
      <trkpt lat="43.77179" lon="7.13836">
        <ele>824.95</ele>
        <time>2022-04-28T12:13:26Z</time>
      </trkpt>
      <trkpt lat="43.7717" lon="7.13848">
        <ele>823.99</ele>
        <time>2022-04-28T12:13:38Z</time>
      </trkpt>
      <trkpt lat="43.77168" lon="7.1385">
        <ele>824.95</ele>
        <time>2022-04-28T12:13:40Z</time>
      </trkpt>
      <trkpt lat="43.77166" lon="7.13854">
        <ele>824.47</ele>
        <time>2022-04-28T12:13:44Z</time>
      </trkpt>
      <trkpt lat="43.77157" lon="7.13862">
        <ele>822.55</ele>
        <time>2022-04-28T12:13:53Z</time>
      </trkpt>
      <trkpt lat="43.77154" lon="7.13864">
        <ele>823.99</ele>
        <time>2022-04-28T12:13:56Z</time>
      </trkpt>
      <trkpt lat="43.77145" lon="7.13867">
        <ele>828.31</ele>
        <time>2022-04-28T12:14:05Z</time>
      </trkpt>
      <trkpt lat="43.77144" lon="7.13867">
        <ele>823.03</ele>
        <time>2022-04-28T12:14:06Z</time>
      </trkpt>
      <trkpt lat="43.77141" lon="7.1387">
        <ele>823.51</ele>
        <time>2022-04-28T12:14:10Z</time>
      </trkpt>
      <trkpt lat="43.77137" lon="7.13872">
        <ele>824.47</ele>
        <time>2022-04-28T12:14:14Z</time>
      </trkpt>
      <trkpt lat="43.77126" lon="7.13871">
        <ele>822.06</ele>
        <time>2022-04-28T12:14:28Z</time>
      </trkpt>
      <trkpt lat="43.77125" lon="7.13871">
        <ele>821.1</ele>
        <time>2022-04-28T12:14:29Z</time>
      </trkpt>
      <trkpt lat="43.77123" lon="7.1387">
        <ele>823.51</ele>
        <time>2022-04-28T12:14:31Z</time>
      </trkpt>
      <trkpt lat="43.77119" lon="7.13866">
        <ele>823.03</ele>
        <time>2022-04-28T12:14:36Z</time>
      </trkpt>
      <trkpt lat="43.77113" lon="7.13869">
        <ele>819.66</ele>
        <time>2022-04-28T12:14:42Z</time>
      </trkpt>
      <trkpt lat="43.77113" lon="7.1387">
        <ele>822.55</ele>
        <time>2022-04-28T12:14:43Z</time>
      </trkpt>
      <trkpt lat="43.77109" lon="7.1387">
        <ele>822.06</ele>
        <time>2022-04-28T12:14:46Z</time>
      </trkpt>
      <trkpt lat="43.77099" lon="7.13866">
        <ele>820.62</ele>
        <time>2022-04-28T12:14:56Z</time>
      </trkpt>
      <trkpt lat="43.77098" lon="7.13866">
        <ele>823.99</ele>
        <time>2022-04-28T12:14:57Z</time>
      </trkpt>
      <trkpt lat="43.77094" lon="7.13864">
        <ele>821.1</ele>
        <time>2022-04-28T12:15:00Z</time>
      </trkpt>
      <trkpt lat="43.77093" lon="7.13864">
        <ele>823.99</ele>
        <time>2022-04-28T12:15:01Z</time>
      </trkpt>
      <trkpt lat="43.77091" lon="7.13865">
        <ele>820.62</ele>
        <time>2022-04-28T12:15:03Z</time>
      </trkpt>
      <trkpt lat="43.7709" lon="7.13866">
        <ele>823.99</ele>
        <time>2022-04-28T12:15:04Z</time>
      </trkpt>
      <trkpt lat="43.77084" lon="7.13867">
        <ele>821.58</ele>
        <time>2022-04-28T12:15:11Z</time>
      </trkpt>
      <trkpt lat="43.77081" lon="7.13867">
        <ele>823.03</ele>
        <time>2022-04-28T12:15:14Z</time>
      </trkpt>
      <trkpt lat="43.77076" lon="7.13864">
        <ele>820.14</ele>
        <time>2022-04-28T12:15:20Z</time>
      </trkpt>
      <trkpt lat="43.77075" lon="7.13865">
        <ele>824.47</ele>
        <time>2022-04-28T12:15:21Z</time>
      </trkpt>
      <trkpt lat="43.77074" lon="7.13865">
        <ele>824.95</ele>
        <time>2022-04-28T12:15:22Z</time>
      </trkpt>
      <trkpt lat="43.77069" lon="7.13861">
        <ele>823.99</ele>
        <time>2022-04-28T12:15:28Z</time>
      </trkpt>
      <trkpt lat="43.77056" lon="7.13862">
        <ele>823.51</ele>
        <time>2022-04-28T12:15:40Z</time>
      </trkpt>
      <trkpt lat="43.77051" lon="7.13859">
        <ele>819.66</ele>
        <time>2022-04-28T12:15:46Z</time>
      </trkpt>
      <trkpt lat="43.7705" lon="7.13859">
        <ele>823.03</ele>
        <time>2022-04-28T12:15:47Z</time>
      </trkpt>
      <trkpt lat="43.77048" lon="7.13859">
        <ele>822.55</ele>
        <time>2022-04-28T12:15:49Z</time>
      </trkpt>
      <trkpt lat="43.77037" lon="7.13855">
        <ele>823.03</ele>
        <time>2022-04-28T12:16:02Z</time>
      </trkpt>
      <trkpt lat="43.77036" lon="7.13855">
        <ele>819.18</ele>
        <time>2022-04-28T12:16:04Z</time>
      </trkpt>
      <trkpt lat="43.77035" lon="7.13855">
        <ele>823.03</ele>
        <time>2022-04-28T12:16:05Z</time>
      </trkpt>
      <trkpt lat="43.77031" lon="7.13852">
        <ele>818.22</ele>
        <time>2022-04-28T12:16:09Z</time>
      </trkpt>
      <trkpt lat="43.7703" lon="7.13852">
        <ele>823.03</ele>
        <time>2022-04-28T12:16:10Z</time>
      </trkpt>
      <trkpt lat="43.77028" lon="7.13851">
        <ele>819.66</ele>
        <time>2022-04-28T12:16:12Z</time>
      </trkpt>
      <trkpt lat="43.77027" lon="7.13851">
        <ele>822.06</ele>
        <time>2022-04-28T12:16:13Z</time>
      </trkpt>
      <trkpt lat="43.77025" lon="7.13851">
        <ele>819.66</ele>
        <time>2022-04-28T12:16:15Z</time>
      </trkpt>
      <trkpt lat="43.77019" lon="7.13851">
        <ele>822.06</ele>
        <time>2022-04-28T12:16:21Z</time>
      </trkpt>
      <trkpt lat="43.77015" lon="7.1386">
        <ele>821.1</ele>
        <time>2022-04-28T12:16:33Z</time>
      </trkpt>
      <trkpt lat="43.77008" lon="7.13859">
        <ele>819.18</ele>
        <time>2022-04-28T12:16:45Z</time>
      </trkpt>
      <trkpt lat="43.77005" lon="7.13863">
        <ele>817.74</ele>
        <time>2022-04-28T12:16:50Z</time>
      </trkpt>
      <trkpt lat="43.77003" lon="7.13867">
        <ele>819.66</ele>
        <time>2022-04-28T12:16:53Z</time>
      </trkpt>
      <trkpt lat="43.76994" lon="7.1387">
        <ele>818.7</ele>
        <time>2022-04-28T12:17:06Z</time>
      </trkpt>
      <trkpt lat="43.76989" lon="7.13871">
        <ele>817.26</ele>
        <time>2022-04-28T12:17:12Z</time>
      </trkpt>
      <trkpt lat="43.76974" lon="7.13866">
        <ele>817.74</ele>
        <time>2022-04-28T12:17:26Z</time>
      </trkpt>
      <trkpt lat="43.7697" lon="7.13864">
        <ele>816.78</ele>
        <time>2022-04-28T12:17:30Z</time>
      </trkpt>
      <trkpt lat="43.76965" lon="7.13864">
        <ele>818.22</ele>
        <time>2022-04-28T12:17:34Z</time>
      </trkpt>
      <trkpt lat="43.76962" lon="7.13862">
        <ele>816.3</ele>
        <time>2022-04-28T12:17:37Z</time>
      </trkpt>
      <trkpt lat="43.76957" lon="7.13858">
        <ele>815.82</ele>
        <time>2022-04-28T12:17:44Z</time>
      </trkpt>
      <trkpt lat="43.76955" lon="7.13859">
        <ele>815.82</ele>
        <time>2022-04-28T12:18:00Z</time>
      </trkpt>
      <trkpt lat="43.76957" lon="7.13866">
        <ele>815.82</ele>
        <time>2022-04-28T12:18:24Z</time>
      </trkpt>
      <trkpt lat="43.76957" lon="7.13864">
        <ele>816.78</ele>
        <time>2022-04-28T12:18:53Z</time>
      </trkpt>
      <trkpt lat="43.76954" lon="7.13859">
        <ele>816.3</ele>
        <time>2022-04-28T12:19:25Z</time>
      </trkpt>
      <trkpt lat="43.7694" lon="7.1385">
        <ele>813.89</ele>
        <time>2022-04-28T12:19:39Z</time>
      </trkpt>
      <trkpt lat="43.76929" lon="7.13847">
        <ele>812.45</ele>
        <time>2022-04-28T12:19:51Z</time>
      </trkpt>
      <trkpt lat="43.76914" lon="7.13851">
        <ele>812.93</ele>
        <time>2022-04-28T12:20:04Z</time>
      </trkpt>
      <trkpt lat="43.76907" lon="7.13851">
        <ele>812.93</ele>
        <time>2022-04-28T12:20:19Z</time>
      </trkpt>
      <trkpt lat="43.76894" lon="7.13853">
        <ele>811.01</ele>
        <time>2022-04-28T12:20:31Z</time>
      </trkpt>
      <trkpt lat="43.76887" lon="7.13852">
        <ele>811.49</ele>
        <time>2022-04-28T12:20:37Z</time>
      </trkpt>
      <trkpt lat="43.76885" lon="7.13853">
        <ele>811.49</ele>
        <time>2022-04-28T12:20:39Z</time>
      </trkpt>
      <trkpt lat="43.76871" lon="7.13857">
        <ele>811.97</ele>
        <time>2022-04-28T12:20:51Z</time>
      </trkpt>
      <trkpt lat="43.76865" lon="7.13858">
        <ele>812.93</ele>
        <time>2022-04-28T12:20:57Z</time>
      </trkpt>
      <trkpt lat="43.76858" lon="7.1386">
        <ele>811.97</ele>
        <time>2022-04-28T12:21:03Z</time>
      </trkpt>
      <trkpt lat="43.76856" lon="7.13861">
        <ele>812.45</ele>
        <time>2022-04-28T12:21:05Z</time>
      </trkpt>
      <trkpt lat="43.76845" lon="7.13867">
        <ele>812.45</ele>
        <time>2022-04-28T12:21:18Z</time>
      </trkpt>
      <trkpt lat="43.76841" lon="7.13871">
        <ele>811.49</ele>
        <time>2022-04-28T12:21:24Z</time>
      </trkpt>
      <trkpt lat="43.76839" lon="7.13874">
        <ele>811.49</ele>
        <time>2022-04-28T12:21:28Z</time>
      </trkpt>
      <trkpt lat="43.76834" lon="7.13877">
        <ele>808.61</ele>
        <time>2022-04-28T12:21:33Z</time>
      </trkpt>
      <trkpt lat="43.76833" lon="7.13877">
        <ele>813.41</ele>
        <time>2022-04-28T12:21:34Z</time>
      </trkpt>
      <trkpt lat="43.7683" lon="7.13879">
        <ele>811.49</ele>
        <time>2022-04-28T12:21:37Z</time>
      </trkpt>
      <trkpt lat="43.76828" lon="7.1388">
        <ele>811.97</ele>
        <time>2022-04-28T12:21:39Z</time>
      </trkpt>
      <trkpt lat="43.76826" lon="7.13883">
        <ele>814.37</ele>
        <time>2022-04-28T12:21:42Z</time>
      </trkpt>
      <trkpt lat="43.76825" lon="7.13884">
        <ele>811.01</ele>
        <time>2022-04-28T12:21:43Z</time>
      </trkpt>
      <trkpt lat="43.76816" lon="7.13886">
        <ele>811.97</ele>
        <time>2022-04-28T12:21:53Z</time>
      </trkpt>
      <trkpt lat="43.76814" lon="7.13884">
        <ele>811.49</ele>
        <time>2022-04-28T12:21:55Z</time>
      </trkpt>
      <trkpt lat="43.76804" lon="7.13877">
        <ele>809.09</ele>
        <time>2022-04-28T12:22:07Z</time>
      </trkpt>
      <trkpt lat="43.76803" lon="7.13877">
        <ele>812.45</ele>
        <time>2022-04-28T12:22:08Z</time>
      </trkpt>
      <trkpt lat="43.76802" lon="7.13876">
        <ele>810.53</ele>
        <time>2022-04-28T12:22:24Z</time>
      </trkpt>
      <trkpt lat="43.76804" lon="7.1388">
        <ele>811.49</ele>
        <time>2022-04-28T12:22:49Z</time>
      </trkpt>
      <trkpt lat="43.76805" lon="7.13881">
        <ele>811.49</ele>
        <time>2022-04-28T12:23:11Z</time>
      </trkpt>
      <trkpt lat="43.76801" lon="7.13878">
        <ele>811.97</ele>
        <time>2022-04-28T12:23:37Z</time>
      </trkpt>
      <trkpt lat="43.76796" lon="7.13879">
        <ele>803.32</ele>
        <time>2022-04-28T12:23:47Z</time>
      </trkpt>
      <trkpt lat="43.76796" lon="7.13879">
        <ele>818.7</ele>
        <time>2022-04-28T12:23:48Z</time>
      </trkpt>
      <trkpt lat="43.76795" lon="7.13879">
        <ele>810.53</ele>
        <time>2022-04-28T12:23:49Z</time>
      </trkpt>
      <trkpt lat="43.76793" lon="7.1388">
        <ele>811.97</ele>
        <time>2022-04-28T12:23:51Z</time>
      </trkpt>
      <trkpt lat="43.76787" lon="7.13882">
        <ele>809.57</ele>
        <time>2022-04-28T12:23:57Z</time>
      </trkpt>
      <trkpt lat="43.76781" lon="7.13885">
        <ele>809.09</ele>
        <time>2022-04-28T12:24:05Z</time>
      </trkpt>
      <trkpt lat="43.76771" lon="7.13888">
        <ele>807.16</ele>
        <time>2022-04-28T12:24:16Z</time>
      </trkpt>
      <trkpt lat="43.7676" lon="7.13886">
        <ele>805.24</ele>
        <time>2022-04-28T12:24:29Z</time>
      </trkpt>
      <trkpt lat="43.76751" lon="7.13878">
        <ele>803.8</ele>
        <time>2022-04-28T12:24:40Z</time>
      </trkpt>
      <trkpt lat="43.76741" lon="7.13871">
        <ele>800.44</ele>
        <time>2022-04-28T12:24:51Z</time>
      </trkpt>
      <trkpt lat="43.76737" lon="7.13868">
        <ele>799.95</ele>
        <time>2022-04-28T12:24:55Z</time>
      </trkpt>
      <trkpt lat="43.76731" lon="7.13864">
        <ele>798.99</ele>
        <time>2022-04-28T12:25:02Z</time>
      </trkpt>
      <trkpt lat="43.76727" lon="7.13861">
        <ele>798.51</ele>
        <time>2022-04-28T12:25:06Z</time>
      </trkpt>
      <trkpt lat="43.76725" lon="7.13861">
        <ele>797.55</ele>
        <time>2022-04-28T12:25:08Z</time>
      </trkpt>
      <trkpt lat="43.76722" lon="7.13862">
        <ele>797.55</ele>
        <time>2022-04-28T12:25:11Z</time>
      </trkpt>
      <trkpt lat="43.76715" lon="7.13862">
        <ele>796.11</ele>
        <time>2022-04-28T12:25:18Z</time>
      </trkpt>
      <trkpt lat="43.76713" lon="7.13862">
        <ele>796.11</ele>
        <time>2022-04-28T12:25:20Z</time>
      </trkpt>
      <trkpt lat="43.76701" lon="7.13867">
        <ele>795.15</ele>
        <time>2022-04-28T12:25:33Z</time>
      </trkpt>
      <trkpt lat="43.76698" lon="7.13869">
        <ele>795.63</ele>
        <time>2022-04-28T12:25:36Z</time>
      </trkpt>
      <trkpt lat="43.76694" lon="7.13875">
        <ele>794.67</ele>
        <time>2022-04-28T12:25:41Z</time>
      </trkpt>
      <trkpt lat="43.7669" lon="7.13881">
        <ele>794.19</ele>
        <time>2022-04-28T12:25:48Z</time>
      </trkpt>
      <trkpt lat="43.76687" lon="7.13884">
        <ele>793.22</ele>
        <time>2022-04-28T12:25:51Z</time>
      </trkpt>
      <trkpt lat="43.76683" lon="7.13892">
        <ele>794.67</ele>
        <time>2022-04-28T12:25:58Z</time>
      </trkpt>
      <trkpt lat="43.76676" lon="7.13902">
        <ele>792.74</ele>
        <time>2022-04-28T12:26:09Z</time>
      </trkpt>
      <trkpt lat="43.76675" lon="7.13904">
        <ele>793.22</ele>
        <time>2022-04-28T12:26:11Z</time>
      </trkpt>
      <trkpt lat="43.76673" lon="7.13913">
        <ele>792.74</ele>
        <time>2022-04-28T12:26:18Z</time>
      </trkpt>
      <trkpt lat="43.7667" lon="7.13914">
        <ele>792.26</ele>
        <time>2022-04-28T12:26:21Z</time>
      </trkpt>
      <trkpt lat="43.7666" lon="7.13917">
        <ele>791.3</ele>
        <time>2022-04-28T12:26:31Z</time>
      </trkpt>
      <trkpt lat="43.7665" lon="7.13925">
        <ele>790.82</ele>
        <time>2022-04-28T12:26:45Z</time>
      </trkpt>
      <trkpt lat="43.76646" lon="7.1393">
        <ele>790.34</ele>
        <time>2022-04-28T12:26:50Z</time>
      </trkpt>
      <trkpt lat="43.76644" lon="7.13932">
        <ele>789.86</ele>
        <time>2022-04-28T12:26:55Z</time>
      </trkpt>
      <trkpt lat="43.76636" lon="7.13936">
        <ele>788.9</ele>
        <time>2022-04-28T12:27:08Z</time>
      </trkpt>
      <trkpt lat="43.76635" lon="7.13938">
        <ele>788.42</ele>
        <time>2022-04-28T12:27:10Z</time>
      </trkpt>
      <trkpt lat="43.76625" lon="7.13948">
        <ele>786.98</ele>
        <time>2022-04-28T12:27:23Z</time>
      </trkpt>
      <trkpt lat="43.76621" lon="7.13947">
        <ele>782.65</ele>
        <time>2022-04-28T12:27:31Z</time>
      </trkpt>
      <trkpt lat="43.76621" lon="7.13946">
        <ele>786.98</ele>
        <time>2022-04-28T12:27:32Z</time>
      </trkpt>
      <trkpt lat="43.76622" lon="7.13946">
        <ele>783.61</ele>
        <time>2022-04-28T12:27:33Z</time>
      </trkpt>
      <trkpt lat="43.76622" lon="7.13946">
        <ele>786.98</ele>
        <time>2022-04-28T12:27:34Z</time>
      </trkpt>
      <trkpt lat="43.7662" lon="7.13943">
        <ele>786.5</ele>
        <time>2022-04-28T12:27:52Z</time>
      </trkpt>
      <trkpt lat="43.76621" lon="7.13942">
        <ele>786.02</ele>
        <time>2022-04-28T12:28:13Z</time>
      </trkpt>
      <trkpt lat="43.76621" lon="7.13941">
        <ele>786.02</ele>
        <time>2022-04-28T12:28:54Z</time>
      </trkpt>
      <trkpt lat="43.76623" lon="7.1394">
        <ele>786.02</ele>
        <time>2022-04-28T12:29:29Z</time>
      </trkpt>
      <trkpt lat="43.76621" lon="7.13947">
        <ele>785.53</ele>
        <time>2022-04-28T12:30:05Z</time>
      </trkpt>
      <trkpt lat="43.76618" lon="7.13949">
        <ele>785.53</ele>
        <time>2022-04-28T12:30:09Z</time>
      </trkpt>
      <trkpt lat="43.76616" lon="7.13953">
        <ele>783.13</ele>
        <time>2022-04-28T12:30:12Z</time>
      </trkpt>
      <trkpt lat="43.76617" lon="7.13954">
        <ele>786.02</ele>
        <time>2022-04-28T12:30:13Z</time>
      </trkpt>
      <trkpt lat="43.76617" lon="7.13957">
        <ele>783.13</ele>
        <time>2022-04-28T12:30:15Z</time>
      </trkpt>
      <trkpt lat="43.76606" lon="7.13971">
        <ele>784.09</ele>
        <time>2022-04-28T12:30:27Z</time>
      </trkpt>
      <trkpt lat="43.76592" lon="7.1398">
        <ele>781.69</ele>
        <time>2022-04-28T12:30:40Z</time>
      </trkpt>
      <trkpt lat="43.7659" lon="7.13981">
        <ele>780.73</ele>
        <time>2022-04-28T12:30:42Z</time>
      </trkpt>
      <trkpt lat="43.76579" lon="7.13987">
        <ele>780.25</ele>
        <time>2022-04-28T12:30:51Z</time>
      </trkpt>
      <trkpt lat="43.76577" lon="7.13989">
        <ele>780.73</ele>
        <time>2022-04-28T12:30:53Z</time>
      </trkpt>
      <trkpt lat="43.76567" lon="7.13996">
        <ele>780.25</ele>
        <time>2022-04-28T12:31:03Z</time>
      </trkpt>
      <trkpt lat="43.76561" lon="7.13999">
        <ele>777.84</ele>
        <time>2022-04-28T12:31:10Z</time>
      </trkpt>
      <trkpt lat="43.76558" lon="7.13997">
        <ele>775.92</ele>
        <time>2022-04-28T12:31:13Z</time>
      </trkpt>
      <trkpt lat="43.76554" lon="7.13997">
        <ele>776.4</ele>
        <time>2022-04-28T12:31:17Z</time>
      </trkpt>
      <trkpt lat="43.76542" lon="7.14001">
        <ele>774.96</ele>
        <time>2022-04-28T12:31:29Z</time>
      </trkpt>
      <trkpt lat="43.76541" lon="7.14002">
        <ele>774</ele>
        <time>2022-04-28T12:31:30Z</time>
      </trkpt>
      <trkpt lat="43.76532" lon="7.14012">
        <ele>774.96</ele>
        <time>2022-04-28T12:31:40Z</time>
      </trkpt>
      <trkpt lat="43.76531" lon="7.14013">
        <ele>771.6</ele>
        <time>2022-04-28T12:31:41Z</time>
      </trkpt>
      <trkpt lat="43.76531" lon="7.14013">
        <ele>773.04</ele>
        <time>2022-04-28T12:31:42Z</time>
      </trkpt>
      <trkpt lat="43.76528" lon="7.14015">
        <ele>771.11</ele>
        <time>2022-04-28T12:31:45Z</time>
      </trkpt>
      <trkpt lat="43.76527" lon="7.14016">
        <ele>772.08</ele>
        <time>2022-04-28T12:31:47Z</time>
      </trkpt>
      <trkpt lat="43.76521" lon="7.14024">
        <ele>769.67</ele>
        <time>2022-04-28T12:31:58Z</time>
      </trkpt>
      <trkpt lat="43.7652" lon="7.14027">
        <ele>769.67</ele>
        <time>2022-04-28T12:32:02Z</time>
      </trkpt>
      <trkpt lat="43.76515" lon="7.14031">
        <ele>769.19</ele>
        <time>2022-04-28T12:32:09Z</time>
      </trkpt>
      <trkpt lat="43.76514" lon="7.14034">
        <ele>768.71</ele>
        <time>2022-04-28T12:32:12Z</time>
      </trkpt>
      <trkpt lat="43.76513" lon="7.14038">
        <ele>768.23</ele>
        <time>2022-04-28T12:32:15Z</time>
      </trkpt>
      <trkpt lat="43.76509" lon="7.14053">
        <ele>764.87</ele>
        <time>2022-04-28T12:32:27Z</time>
      </trkpt>
      <trkpt lat="43.76508" lon="7.14054">
        <ele>764.87</ele>
        <time>2022-04-28T12:32:28Z</time>
      </trkpt>
      <trkpt lat="43.76499" lon="7.14067">
        <ele>763.42</ele>
        <time>2022-04-28T12:32:41Z</time>
      </trkpt>
      <trkpt lat="43.76492" lon="7.14072">
        <ele>762.46</ele>
        <time>2022-04-28T12:32:50Z</time>
      </trkpt>
      <trkpt lat="43.76489" lon="7.14074">
        <ele>761.02</ele>
        <time>2022-04-28T12:32:53Z</time>
      </trkpt>
      <trkpt lat="43.76486" lon="7.14077">
        <ele>759.58</ele>
        <time>2022-04-28T12:32:57Z</time>
      </trkpt>
      <trkpt lat="43.7648" lon="7.14082">
        <ele>757.66</ele>
        <time>2022-04-28T12:33:08Z</time>
      </trkpt>
      <trkpt lat="43.76474" lon="7.14092">
        <ele>755.73</ele>
        <time>2022-04-28T12:33:20Z</time>
      </trkpt>
      <trkpt lat="43.76472" lon="7.14095">
        <ele>754.29</ele>
        <time>2022-04-28T12:33:28Z</time>
      </trkpt>
      <trkpt lat="43.76466" lon="7.14102">
        <ele>753.81</ele>
        <time>2022-04-28T12:33:39Z</time>
      </trkpt>
      <trkpt lat="43.76464" lon="7.14108">
        <ele>752.37</ele>
        <time>2022-04-28T12:33:45Z</time>
      </trkpt>
      <trkpt lat="43.76463" lon="7.14111">
        <ele>751.89</ele>
        <time>2022-04-28T12:33:48Z</time>
      </trkpt>
      <trkpt lat="43.76459" lon="7.14116">
        <ele>752.37</ele>
        <time>2022-04-28T12:33:53Z</time>
      </trkpt>
      <trkpt lat="43.76458" lon="7.14119">
        <ele>750.93</ele>
        <time>2022-04-28T12:33:56Z</time>
      </trkpt>
      <trkpt lat="43.76455" lon="7.14121">
        <ele>750.93</ele>
        <time>2022-04-28T12:34:00Z</time>
      </trkpt>
      <trkpt lat="43.76453" lon="7.14124">
        <ele>749</ele>
        <time>2022-04-28T12:34:07Z</time>
      </trkpt>
      <trkpt lat="43.76447" lon="7.14129">
        <ele>749.49</ele>
        <time>2022-04-28T12:34:16Z</time>
      </trkpt>
      <trkpt lat="43.76445" lon="7.14131">
        <ele>752.85</ele>
        <time>2022-04-28T12:34:18Z</time>
      </trkpt>
      <trkpt lat="43.76444" lon="7.14131">
        <ele>749.97</ele>
        <time>2022-04-28T12:34:19Z</time>
      </trkpt>
      <trkpt lat="43.76434" lon="7.1414">
        <ele>746.6</ele>
        <time>2022-04-28T12:34:35Z</time>
      </trkpt>
      <trkpt lat="43.7643" lon="7.14142">
        <ele>749.97</ele>
        <time>2022-04-28T12:34:45Z</time>
      </trkpt>
      <trkpt lat="43.76426" lon="7.14146">
        <ele>746.6</ele>
        <time>2022-04-28T12:34:56Z</time>
      </trkpt>
      <trkpt lat="43.76418" lon="7.14153">
        <ele>746.12</ele>
        <time>2022-04-28T12:35:07Z</time>
      </trkpt>
      <trkpt lat="43.76414" lon="7.14153">
        <ele>747.08</ele>
        <time>2022-04-28T12:35:12Z</time>
      </trkpt>
      <trkpt lat="43.76405" lon="7.14154">
        <ele>745.16</ele>
        <time>2022-04-28T12:35:23Z</time>
      </trkpt>
      <trkpt lat="43.76401" lon="7.14153">
        <ele>744.2</ele>
        <time>2022-04-28T12:35:27Z</time>
      </trkpt>
      <trkpt lat="43.76397" lon="7.14151">
        <ele>744.68</ele>
        <time>2022-04-28T12:35:32Z</time>
      </trkpt>
      <trkpt lat="43.76392" lon="7.14151">
        <ele>742.28</ele>
        <time>2022-04-28T12:35:37Z</time>
      </trkpt>
      <trkpt lat="43.76383" lon="7.14148">
        <ele>741.31</ele>
        <time>2022-04-28T12:35:53Z</time>
      </trkpt>
      <trkpt lat="43.76377" lon="7.14151">
        <ele>740.83</ele>
        <time>2022-04-28T12:36:08Z</time>
      </trkpt>
      <trkpt lat="43.76374" lon="7.14152">
        <ele>738.43</ele>
        <time>2022-04-28T12:36:20Z</time>
      </trkpt>
      <trkpt lat="43.76367" lon="7.14148">
        <ele>737.95</ele>
        <time>2022-04-28T12:36:34Z</time>
      </trkpt>
      <trkpt lat="43.76358" lon="7.14148">
        <ele>734.58</ele>
        <time>2022-04-28T12:36:47Z</time>
      </trkpt>
      <trkpt lat="43.76351" lon="7.14153">
        <ele>734.1</ele>
        <time>2022-04-28T12:37:01Z</time>
      </trkpt>
      <trkpt lat="43.76343" lon="7.14156">
        <ele>732.18</ele>
        <time>2022-04-28T12:37:16Z</time>
      </trkpt>
      <trkpt lat="43.76332" lon="7.14156">
        <ele>731.22</ele>
        <time>2022-04-28T12:37:29Z</time>
      </trkpt>
      <trkpt lat="43.76326" lon="7.14159">
        <ele>728.82</ele>
        <time>2022-04-28T12:37:37Z</time>
      </trkpt>
      <trkpt lat="43.76324" lon="7.1416">
        <ele>729.3</ele>
        <time>2022-04-28T12:37:39Z</time>
      </trkpt>
      <trkpt lat="43.76317" lon="7.14163">
        <ele>728.34</ele>
        <time>2022-04-28T12:37:48Z</time>
      </trkpt>
      <trkpt lat="43.76307" lon="7.14161">
        <ele>725.93</ele>
        <time>2022-04-28T12:38:00Z</time>
      </trkpt>
      <trkpt lat="43.76302" lon="7.1416">
        <ele>725.93</ele>
        <time>2022-04-28T12:38:17Z</time>
      </trkpt>
      <trkpt lat="43.76293" lon="7.14161">
        <ele>725.93</ele>
        <time>2022-04-28T12:38:30Z</time>
      </trkpt>
      <trkpt lat="43.76288" lon="7.1416">
        <ele>722.57</ele>
        <time>2022-04-28T12:38:38Z</time>
      </trkpt>
      <trkpt lat="43.76282" lon="7.14165">
        <ele>724.97</ele>
        <time>2022-04-28T12:38:56Z</time>
      </trkpt>
      <trkpt lat="43.7628" lon="7.14168">
        <ele>721.61</ele>
        <time>2022-04-28T12:39:00Z</time>
      </trkpt>
      <trkpt lat="43.76279" lon="7.1417">
        <ele>722.09</ele>
        <time>2022-04-28T12:39:02Z</time>
      </trkpt>
      <trkpt lat="43.76274" lon="7.14178">
        <ele>718.72</ele>
        <time>2022-04-28T12:39:10Z</time>
      </trkpt>
      <trkpt lat="43.76266" lon="7.14186">
        <ele>718.24</ele>
        <time>2022-04-28T12:39:23Z</time>
      </trkpt>
      <trkpt lat="43.76257" lon="7.1419">
        <ele>717.28</ele>
        <time>2022-04-28T12:39:36Z</time>
      </trkpt>
      <trkpt lat="43.76256" lon="7.1419">
        <ele>716.8</ele>
        <time>2022-04-28T12:39:38Z</time>
      </trkpt>
      <trkpt lat="43.76246" lon="7.14183">
        <ele>715.84</ele>
        <time>2022-04-28T12:39:50Z</time>
      </trkpt>
      <trkpt lat="43.7624" lon="7.14181">
        <ele>714.4</ele>
        <time>2022-04-28T12:40:00Z</time>
      </trkpt>
      <trkpt lat="43.76238" lon="7.14181">
        <ele>712.47</ele>
        <time>2022-04-28T12:40:02Z</time>
      </trkpt>
      <trkpt lat="43.76231" lon="7.14178">
        <ele>711.51</ele>
        <time>2022-04-28T12:40:10Z</time>
      </trkpt>
      <trkpt lat="43.76218" lon="7.14171">
        <ele>708.63</ele>
        <time>2022-04-28T12:40:24Z</time>
      </trkpt>
      <trkpt lat="43.76211" lon="7.14166">
        <ele>707.19</ele>
        <time>2022-04-28T12:40:38Z</time>
      </trkpt>
      <trkpt lat="43.7621" lon="7.14165">
        <ele>706.23</ele>
        <time>2022-04-28T12:40:39Z</time>
      </trkpt>
      <trkpt lat="43.76201" lon="7.14162">
        <ele>703.82</ele>
        <time>2022-04-28T12:40:49Z</time>
      </trkpt>
      <trkpt lat="43.76195" lon="7.14165">
        <ele>703.82</ele>
        <time>2022-04-28T12:40:56Z</time>
      </trkpt>
      <trkpt lat="43.76187" lon="7.14165">
        <ele>702.86</ele>
        <time>2022-04-28T12:41:06Z</time>
      </trkpt>
      <trkpt lat="43.76179" lon="7.14165">
        <ele>700.46</ele>
        <time>2022-04-28T12:41:19Z</time>
      </trkpt>
      <trkpt lat="43.76177" lon="7.14165">
        <ele>700.46</ele>
        <time>2022-04-28T12:41:21Z</time>
      </trkpt>
      <trkpt lat="43.76175" lon="7.14165">
        <ele>699.98</ele>
        <time>2022-04-28T12:41:24Z</time>
      </trkpt>
      <trkpt lat="43.7617" lon="7.14169">
        <ele>699.5</ele>
        <time>2022-04-28T12:41:31Z</time>
      </trkpt>
      <trkpt lat="43.76164" lon="7.14176">
        <ele>697.09</ele>
        <time>2022-04-28T12:41:39Z</time>
      </trkpt>
      <trkpt lat="43.76159" lon="7.14179">
        <ele>695.17</ele>
        <time>2022-04-28T12:41:50Z</time>
      </trkpt>
      <trkpt lat="43.76156" lon="7.14177">
        <ele>694.69</ele>
        <time>2022-04-28T12:41:55Z</time>
      </trkpt>
      <trkpt lat="43.76149" lon="7.1417">
        <ele>693.25</ele>
        <time>2022-04-28T12:42:08Z</time>
      </trkpt>
      <trkpt lat="43.76147" lon="7.14176">
        <ele>693.25</ele>
        <time>2022-04-28T12:42:17Z</time>
      </trkpt>
      <trkpt lat="43.76147" lon="7.14185">
        <ele>690.36</ele>
        <time>2022-04-28T12:42:26Z</time>
      </trkpt>
      <trkpt lat="43.76147" lon="7.14185">
        <ele>667.29</ele>
        <time>2022-04-28T12:42:27Z</time>
      </trkpt>
      <trkpt lat="43.76147" lon="7.14186">
        <ele>691.81</ele>
        <time>2022-04-28T12:42:28Z</time>
      </trkpt>
      <trkpt lat="43.76146" lon="7.14187">
        <ele>692.29</ele>
        <time>2022-04-28T12:42:29Z</time>
      </trkpt>
      <trkpt lat="43.76142" lon="7.14189">
        <ele>699.98</ele>
        <time>2022-04-28T12:42:40Z</time>
      </trkpt>
      <trkpt lat="43.76142" lon="7.14189">
        <ele>687</ele>
        <time>2022-04-28T12:42:41Z</time>
      </trkpt>
      <trkpt lat="43.76141" lon="7.14189">
        <ele>697.57</ele>
        <time>2022-04-28T12:42:42Z</time>
      </trkpt>
      <trkpt lat="43.76141" lon="7.14188">
        <ele>690.36</ele>
        <time>2022-04-28T12:42:43Z</time>
      </trkpt>
      <trkpt lat="43.76141" lon="7.14188">
        <ele>673.06</ele>
        <time>2022-04-28T12:42:44Z</time>
      </trkpt>
      <trkpt lat="43.76141" lon="7.14188">
        <ele>699.5</ele>
        <time>2022-04-28T12:42:45Z</time>
      </trkpt>
      <trkpt lat="43.76141" lon="7.14188">
        <ele>694.21</ele>
        <time>2022-04-28T12:42:46Z</time>
      </trkpt>
      <trkpt lat="43.76141" lon="7.14189">
        <ele>689.88</ele>
        <time>2022-04-28T12:42:47Z</time>
      </trkpt>
      <trkpt lat="43.76141" lon="7.14189">
        <ele>672.1</ele>
        <time>2022-04-28T12:42:48Z</time>
      </trkpt>
      <trkpt lat="43.76141" lon="7.14189">
        <ele>696.61</ele>
        <time>2022-04-28T12:42:49Z</time>
      </trkpt>
      <trkpt lat="43.76141" lon="7.14188">
        <ele>696.13</ele>
        <time>2022-04-28T12:42:50Z</time>
      </trkpt>
      <trkpt lat="43.7614" lon="7.14188">
        <ele>670.18</ele>
        <time>2022-04-28T12:42:51Z</time>
      </trkpt>
      <trkpt lat="43.76139" lon="7.14187">
        <ele>698.53</ele>
        <time>2022-04-28T12:42:52Z</time>
      </trkpt>
      <trkpt lat="43.76133" lon="7.1418">
        <ele>687.96</ele>
        <time>2022-04-28T12:43:00Z</time>
      </trkpt>
      <trkpt lat="43.76127" lon="7.14184">
        <ele>687</ele>
        <time>2022-04-28T12:43:11Z</time>
      </trkpt>
      <trkpt lat="43.76125" lon="7.14187">
        <ele>686.52</ele>
        <time>2022-04-28T12:43:14Z</time>
      </trkpt>
      <trkpt lat="43.76124" lon="7.14193">
        <ele>684.12</ele>
        <time>2022-04-28T12:43:19Z</time>
      </trkpt>
      <trkpt lat="43.76121" lon="7.14194">
        <ele>683.15</ele>
        <time>2022-04-28T12:43:24Z</time>
      </trkpt>
      <trkpt lat="43.76112" lon="7.14186">
        <ele>682.19</ele>
        <time>2022-04-28T12:43:35Z</time>
      </trkpt>
      <trkpt lat="43.76107" lon="7.1418">
        <ele>679.79</ele>
        <time>2022-04-28T12:43:43Z</time>
      </trkpt>
      <trkpt lat="43.76098" lon="7.1419">
        <ele>677.87</ele>
        <time>2022-04-28T12:43:56Z</time>
      </trkpt>
      <trkpt lat="43.76098" lon="7.14192">
        <ele>676.91</ele>
        <time>2022-04-28T12:43:58Z</time>
      </trkpt>
      <trkpt lat="43.76098" lon="7.14191">
        <ele>671.62</ele>
        <time>2022-04-28T12:44:00Z</time>
      </trkpt>
      <trkpt lat="43.76097" lon="7.14192">
        <ele>671.62</ele>
        <time>2022-04-28T12:44:01Z</time>
      </trkpt>
      <trkpt lat="43.76097" lon="7.14192">
        <ele>685.56</ele>
        <time>2022-04-28T12:44:02Z</time>
      </trkpt>
      <trkpt lat="43.76097" lon="7.14192">
        <ele>677.87</ele>
        <time>2022-04-28T12:44:03Z</time>
      </trkpt>
      <trkpt lat="43.76097" lon="7.14193">
        <ele>659.12</ele>
        <time>2022-04-28T12:44:04Z</time>
      </trkpt>
      <trkpt lat="43.76097" lon="7.14193">
        <ele>682.67</ele>
        <time>2022-04-28T12:44:05Z</time>
      </trkpt>
      <trkpt lat="43.76097" lon="7.14194">
        <ele>677.39</ele>
        <time>2022-04-28T12:44:06Z</time>
      </trkpt>
      <trkpt lat="43.76095" lon="7.14195">
        <ele>675.94</ele>
        <time>2022-04-28T12:44:08Z</time>
      </trkpt>
      <trkpt lat="43.76094" lon="7.14195">
        <ele>675.94</ele>
        <time>2022-04-28T12:44:09Z</time>
      </trkpt>
      <trkpt lat="43.76089" lon="7.14185">
        <ele>674.98</ele>
        <time>2022-04-28T12:44:23Z</time>
      </trkpt>
      <trkpt lat="43.76086" lon="7.1418">
        <ele>672.1</ele>
        <time>2022-04-28T12:44:31Z</time>
      </trkpt>
      <trkpt lat="43.76086" lon="7.1418">
        <ele>674.98</ele>
        <time>2022-04-28T12:44:32Z</time>
      </trkpt>
      <trkpt lat="43.7608" lon="7.14191">
        <ele>670.66</ele>
        <time>2022-04-28T12:44:43Z</time>
      </trkpt>
      <trkpt lat="43.76079" lon="7.14191">
        <ele>670.66</ele>
        <time>2022-04-28T12:44:44Z</time>
      </trkpt>
      <trkpt lat="43.76075" lon="7.14194">
        <ele>670.66</ele>
        <time>2022-04-28T12:44:50Z</time>
      </trkpt>
      <trkpt lat="43.76066" lon="7.14204">
        <ele>667.29</ele>
        <time>2022-04-28T12:45:03Z</time>
      </trkpt>
      <trkpt lat="43.76059" lon="7.14212">
        <ele>663.93</ele>
        <time>2022-04-28T12:45:14Z</time>
      </trkpt>
      <trkpt lat="43.76051" lon="7.14219">
        <ele>661.04</ele>
        <time>2022-04-28T12:45:25Z</time>
      </trkpt>
      <trkpt lat="43.76047" lon="7.14222">
        <ele>662.01</ele>
        <time>2022-04-28T12:45:31Z</time>
      </trkpt>
      <trkpt lat="43.7604" lon="7.14223">
        <ele>660.08</ele>
        <time>2022-04-28T12:45:38Z</time>
      </trkpt>
      <trkpt lat="43.7604" lon="7.14227">
        <ele>658.64</ele>
        <time>2022-04-28T12:45:40Z</time>
      </trkpt>
      <trkpt lat="43.76037" lon="7.14234">
        <ele>658.64</ele>
        <time>2022-04-28T12:45:50Z</time>
      </trkpt>
      <trkpt lat="43.76035" lon="7.14233">
        <ele>657.68</ele>
        <time>2022-04-28T12:45:52Z</time>
      </trkpt>
      <trkpt lat="43.76032" lon="7.14233">
        <ele>656.72</ele>
        <time>2022-04-28T12:45:55Z</time>
      </trkpt>
      <trkpt lat="43.76031" lon="7.14232">
        <ele>659.12</ele>
        <time>2022-04-28T12:45:57Z</time>
      </trkpt>
      <trkpt lat="43.76025" lon="7.14232">
        <ele>658.16</ele>
        <time>2022-04-28T12:46:01Z</time>
      </trkpt>
      <trkpt lat="43.76023" lon="7.14234">
        <ele>653.83</ele>
        <time>2022-04-28T12:46:03Z</time>
      </trkpt>
      <trkpt lat="43.76021" lon="7.14235">
        <ele>655.28</ele>
        <time>2022-04-28T12:46:05Z</time>
      </trkpt>
      <trkpt lat="43.76015" lon="7.14239">
        <ele>655.76</ele>
        <time>2022-04-28T12:46:14Z</time>
      </trkpt>
      <trkpt lat="43.76014" lon="7.14239">
        <ele>656.72</ele>
        <time>2022-04-28T12:46:16Z</time>
      </trkpt>
      <trkpt lat="43.76013" lon="7.14239">
        <ele>655.28</ele>
        <time>2022-04-28T12:46:18Z</time>
      </trkpt>
      <trkpt lat="43.76012" lon="7.1424">
        <ele>654.8</ele>
        <time>2022-04-28T12:46:21Z</time>
      </trkpt>
      <trkpt lat="43.76003" lon="7.14247">
        <ele>654.8</ele>
        <time>2022-04-28T12:46:33Z</time>
      </trkpt>
      <trkpt lat="43.76002" lon="7.14251">
        <ele>653.35</ele>
        <time>2022-04-28T12:46:46Z</time>
      </trkpt>
      <trkpt lat="43.76002" lon="7.1425">
        <ele>654.31</ele>
        <time>2022-04-28T12:46:47Z</time>
      </trkpt>
      <trkpt lat="43.75991" lon="7.14259">
        <ele>652.39</ele>
        <time>2022-04-28T12:47:00Z</time>
      </trkpt>
      <trkpt lat="43.7599" lon="7.14259">
        <ele>652.39</ele>
        <time>2022-04-28T12:47:01Z</time>
      </trkpt>
      <trkpt lat="43.7599" lon="7.14259">
        <ele>638.93</ele>
        <time>2022-04-28T12:47:03Z</time>
      </trkpt>
      <trkpt lat="43.75989" lon="7.14259">
        <ele>654.8</ele>
        <time>2022-04-28T12:47:04Z</time>
      </trkpt>
      <trkpt lat="43.75989" lon="7.1426">
        <ele>661.52</ele>
        <time>2022-04-28T12:47:05Z</time>
      </trkpt>
      <trkpt lat="43.75988" lon="7.1426">
        <ele>651.91</ele>
        <time>2022-04-28T12:47:06Z</time>
      </trkpt>
      <trkpt lat="43.75982" lon="7.14264">
        <ele>651.43</ele>
        <time>2022-04-28T12:47:20Z</time>
      </trkpt>
      <trkpt lat="43.75979" lon="7.14266">
        <ele>650.47</ele>
        <time>2022-04-28T12:47:25Z</time>
      </trkpt>
      <trkpt lat="43.75978" lon="7.14267">
        <ele>677.87</ele>
        <time>2022-04-28T12:47:27Z</time>
      </trkpt>
      <trkpt lat="43.75979" lon="7.14267">
        <ele>654.31</ele>
        <time>2022-04-28T12:47:28Z</time>
      </trkpt>
      <trkpt lat="43.75978" lon="7.14268">
        <ele>650.95</ele>
        <time>2022-04-28T12:47:29Z</time>
      </trkpt>
      <trkpt lat="43.75978" lon="7.14268">
        <ele>650.95</ele>
        <time>2022-04-28T12:47:30Z</time>
      </trkpt>
      <trkpt lat="43.75976" lon="7.14271">
        <ele>636.05</ele>
        <time>2022-04-28T12:47:34Z</time>
      </trkpt>
      <trkpt lat="43.75976" lon="7.14271">
        <ele>642.3</ele>
        <time>2022-04-28T12:47:35Z</time>
      </trkpt>
      <trkpt lat="43.75976" lon="7.14272">
        <ele>665.85</ele>
        <time>2022-04-28T12:47:36Z</time>
      </trkpt>
      <trkpt lat="43.75977" lon="7.14272">
        <ele>650.47</ele>
        <time>2022-04-28T12:47:37Z</time>
      </trkpt>
      <trkpt lat="43.75976" lon="7.14272">
        <ele>649.99</ele>
        <time>2022-04-28T12:47:39Z</time>
      </trkpt>
      <trkpt lat="43.75976" lon="7.14272">
        <ele>644.7</ele>
        <time>2022-04-28T12:47:41Z</time>
      </trkpt>
      <trkpt lat="43.75976" lon="7.14272">
        <ele>654.31</ele>
        <time>2022-04-28T12:47:42Z</time>
      </trkpt>
      <trkpt lat="43.75977" lon="7.14272">
        <ele>647.1</ele>
        <time>2022-04-28T12:47:43Z</time>
      </trkpt>
      <trkpt lat="43.75976" lon="7.14272">
        <ele>655.76</ele>
        <time>2022-04-28T12:47:44Z</time>
      </trkpt>
      <trkpt lat="43.75976" lon="7.14273">
        <ele>652.87</ele>
        <time>2022-04-28T12:47:45Z</time>
      </trkpt>
      <trkpt lat="43.75976" lon="7.14273">
        <ele>650.47</ele>
        <time>2022-04-28T12:47:47Z</time>
      </trkpt>
      <trkpt lat="43.75974" lon="7.14274">
        <ele>624.99</ele>
        <time>2022-04-28T12:47:53Z</time>
      </trkpt>
      <trkpt lat="43.75974" lon="7.14274">
        <ele>650.95</ele>
        <time>2022-04-28T12:47:54Z</time>
      </trkpt>
      <trkpt lat="43.75974" lon="7.14274">
        <ele>642.78</ele>
        <time>2022-04-28T12:47:55Z</time>
      </trkpt>
      <trkpt lat="43.75973" lon="7.14274">
        <ele>657.2</ele>
        <time>2022-04-28T12:47:56Z</time>
      </trkpt>
      <trkpt lat="43.75973" lon="7.14274">
        <ele>641.34</ele>
        <time>2022-04-28T12:47:58Z</time>
      </trkpt>
      <trkpt lat="43.75973" lon="7.14274">
        <ele>660.56</ele>
        <time>2022-04-28T12:47:59Z</time>
      </trkpt>
      <trkpt lat="43.75973" lon="7.14274">
        <ele>649.99</ele>
        <time>2022-04-28T12:48:00Z</time>
      </trkpt>
      <trkpt lat="43.75973" lon="7.14274">
        <ele>647.1</ele>
        <time>2022-04-28T12:48:04Z</time>
      </trkpt>
      <trkpt lat="43.75973" lon="7.14275">
        <ele>639.89</ele>
        <time>2022-04-28T12:48:05Z</time>
      </trkpt>
      <trkpt lat="43.75973" lon="7.14275">
        <ele>663.45</ele>
        <time>2022-04-28T12:48:06Z</time>
      </trkpt>
      <trkpt lat="43.75973" lon="7.14275">
        <ele>648.07</ele>
        <time>2022-04-28T12:48:07Z</time>
      </trkpt>
      <trkpt lat="43.75973" lon="7.14275">
        <ele>660.56</ele>
        <time>2022-04-28T12:48:08Z</time>
      </trkpt>
      <trkpt lat="43.75972" lon="7.14276">
        <ele>649.99</ele>
        <time>2022-04-28T12:48:09Z</time>
      </trkpt>
      <trkpt lat="43.75972" lon="7.14278">
        <ele>648.07</ele>
        <time>2022-04-28T12:48:13Z</time>
      </trkpt>
      <trkpt lat="43.7597" lon="7.14277">
        <ele>652.87</ele>
        <time>2022-04-28T12:48:15Z</time>
      </trkpt>
      <trkpt lat="43.75971" lon="7.14278">
        <ele>652.87</ele>
        <time>2022-04-28T12:48:16Z</time>
      </trkpt>
      <trkpt lat="43.75971" lon="7.14279">
        <ele>649.51</ele>
        <time>2022-04-28T12:48:17Z</time>
      </trkpt>
      <trkpt lat="43.75971" lon="7.14281">
        <ele>649.51</ele>
        <time>2022-04-28T12:48:20Z</time>
      </trkpt>
      <trkpt lat="43.75971" lon="7.14282">
        <ele>619.23</ele>
        <time>2022-04-28T12:48:22Z</time>
      </trkpt>
      <trkpt lat="43.75971" lon="7.14282">
        <ele>646.62</ele>
        <time>2022-04-28T12:48:23Z</time>
      </trkpt>
      <trkpt lat="43.75971" lon="7.14282">
        <ele>655.28</ele>
        <time>2022-04-28T12:48:24Z</time>
      </trkpt>
      <trkpt lat="43.75971" lon="7.14282">
        <ele>647.59</ele>
        <time>2022-04-28T12:48:25Z</time>
      </trkpt>
      <trkpt lat="43.75971" lon="7.14282">
        <ele>641.34</ele>
        <time>2022-04-28T12:48:26Z</time>
      </trkpt>
      <trkpt lat="43.75971" lon="7.14282">
        <ele>662.01</ele>
        <time>2022-04-28T12:48:27Z</time>
      </trkpt>
      <trkpt lat="43.75971" lon="7.14281">
        <ele>650.95</ele>
        <time>2022-04-28T12:48:28Z</time>
      </trkpt>
      <trkpt lat="43.75971" lon="7.14281">
        <ele>647.1</ele>
        <time>2022-04-28T12:48:29Z</time>
      </trkpt>
      <trkpt lat="43.75971" lon="7.14281">
        <ele>642.3</ele>
        <time>2022-04-28T12:48:30Z</time>
      </trkpt>
      <trkpt lat="43.75971" lon="7.14281">
        <ele>636.05</ele>
        <time>2022-04-28T12:48:31Z</time>
      </trkpt>
      <trkpt lat="43.75971" lon="7.14281">
        <ele>660.08</ele>
        <time>2022-04-28T12:48:32Z</time>
      </trkpt>
      <trkpt lat="43.75971" lon="7.14281">
        <ele>648.07</ele>
        <time>2022-04-28T12:48:33Z</time>
      </trkpt>
      <trkpt lat="43.7597" lon="7.14282">
        <ele>647.1</ele>
        <time>2022-04-28T12:48:35Z</time>
      </trkpt>
      <trkpt lat="43.75968" lon="7.14285">
        <ele>638.45</ele>
        <time>2022-04-28T12:48:41Z</time>
      </trkpt>
      <trkpt lat="43.75967" lon="7.14286">
        <ele>661.04</ele>
        <time>2022-04-28T12:48:42Z</time>
      </trkpt>
      <trkpt lat="43.75967" lon="7.14287">
        <ele>648.55</ele>
        <time>2022-04-28T12:48:43Z</time>
      </trkpt>
      <trkpt lat="43.75965" lon="7.14288">
        <ele>647.59</ele>
        <time>2022-04-28T12:48:48Z</time>
      </trkpt>
      <trkpt lat="43.75959" lon="7.14292">
        <ele>644.22</ele>
        <time>2022-04-28T12:48:57Z</time>
      </trkpt>
      <trkpt lat="43.75959" lon="7.14293">
        <ele>644.22</ele>
        <time>2022-04-28T12:48:58Z</time>
      </trkpt>
      <trkpt lat="43.75958" lon="7.14293">
        <ele>652.87</ele>
        <time>2022-04-28T12:48:59Z</time>
      </trkpt>
      <trkpt lat="43.75958" lon="7.14293">
        <ele>648.07</ele>
        <time>2022-04-28T12:49:00Z</time>
      </trkpt>
      <trkpt lat="43.75953" lon="7.14293">
        <ele>620.19</ele>
        <time>2022-04-28T12:49:08Z</time>
      </trkpt>
      <trkpt lat="43.75953" lon="7.14293">
        <ele>656.72</ele>
        <time>2022-04-28T12:49:09Z</time>
      </trkpt>
      <trkpt lat="43.75953" lon="7.14293">
        <ele>648.55</ele>
        <time>2022-04-28T12:49:10Z</time>
      </trkpt>
      <trkpt lat="43.75953" lon="7.14293">
        <ele>645.66</ele>
        <time>2022-04-28T12:49:11Z</time>
      </trkpt>
      <trkpt lat="43.75953" lon="7.14293">
        <ele>645.18</ele>
        <time>2022-04-28T12:49:12Z</time>
      </trkpt>
      <trkpt lat="43.75953" lon="7.14293">
        <ele>640.86</ele>
        <time>2022-04-28T12:49:13Z</time>
      </trkpt>
      <trkpt lat="43.75952" lon="7.14293">
        <ele>647.59</ele>
        <time>2022-04-28T12:49:14Z</time>
      </trkpt>
      <trkpt lat="43.75953" lon="7.14293">
        <ele>655.76</ele>
        <time>2022-04-28T12:49:15Z</time>
      </trkpt>
      <trkpt lat="43.75952" lon="7.14293">
        <ele>655.76</ele>
        <time>2022-04-28T12:49:16Z</time>
      </trkpt>
      <trkpt lat="43.75952" lon="7.14294">
        <ele>649.99</ele>
        <time>2022-04-28T12:49:17Z</time>
      </trkpt>
      <trkpt lat="43.7595" lon="7.14294">
        <ele>646.14</ele>
        <time>2022-04-28T12:49:19Z</time>
      </trkpt>
      <trkpt lat="43.75946" lon="7.14295">
        <ele>645.18</ele>
        <time>2022-04-28T12:49:23Z</time>
      </trkpt>
      <trkpt lat="43.75943" lon="7.14296">
        <ele>645.18</ele>
        <time>2022-04-28T12:49:31Z</time>
      </trkpt>
      <trkpt lat="43.75937" lon="7.14298">
        <ele>642.78</ele>
        <time>2022-04-28T12:49:38Z</time>
      </trkpt>
      <trkpt lat="43.75932" lon="7.14297">
        <ele>641.82</ele>
        <time>2022-04-28T12:49:44Z</time>
      </trkpt>
      <trkpt lat="43.7593" lon="7.14298">
        <ele>645.18</ele>
        <time>2022-04-28T12:49:46Z</time>
      </trkpt>
      <trkpt lat="43.75929" lon="7.14298">
        <ele>643.26</ele>
        <time>2022-04-28T12:49:47Z</time>
      </trkpt>
      <trkpt lat="43.75925" lon="7.14298">
        <ele>641.34</ele>
        <time>2022-04-28T12:49:51Z</time>
      </trkpt>
      <trkpt lat="43.75921" lon="7.14307">
        <ele>642.3</ele>
        <time>2022-04-28T12:50:03Z</time>
      </trkpt>
      <trkpt lat="43.75921" lon="7.14308">
        <ele>638.45</ele>
        <time>2022-04-28T12:50:12Z</time>
      </trkpt>
      <trkpt lat="43.75921" lon="7.14308">
        <ele>647.1</ele>
        <time>2022-04-28T12:50:13Z</time>
      </trkpt>
      <trkpt lat="43.7592" lon="7.14308">
        <ele>645.18</ele>
        <time>2022-04-28T12:50:14Z</time>
      </trkpt>
      <trkpt lat="43.75919" lon="7.1431">
        <ele>644.7</ele>
        <time>2022-04-28T12:50:41Z</time>
      </trkpt>
      <trkpt lat="43.75919" lon="7.14311">
        <ele>641.34</ele>
        <time>2022-04-28T12:50:56Z</time>
      </trkpt>
      <trkpt lat="43.75918" lon="7.14311">
        <ele>642.78</ele>
        <time>2022-04-28T12:50:57Z</time>
      </trkpt>
      <trkpt lat="43.75918" lon="7.1431">
        <ele>646.62</ele>
        <time>2022-04-28T12:50:59Z</time>
      </trkpt>
      <trkpt lat="43.75917" lon="7.1431">
        <ele>644.22</ele>
        <time>2022-04-28T12:51:00Z</time>
      </trkpt>
      <trkpt lat="43.7592" lon="7.1431">
        <ele>640.38</ele>
        <time>2022-04-28T12:51:13Z</time>
      </trkpt>
      <trkpt lat="43.7592" lon="7.1431">
        <ele>644.22</ele>
        <time>2022-04-28T12:51:14Z</time>
      </trkpt>
      <trkpt lat="43.75919" lon="7.14309">
        <ele>643.74</ele>
        <time>2022-04-28T12:51:42Z</time>
      </trkpt>
      <trkpt lat="43.75917" lon="7.14306">
        <ele>644.22</ele>
        <time>2022-04-28T12:52:16Z</time>
      </trkpt>
      <trkpt lat="43.75919" lon="7.14308">
        <ele>644.22</ele>
        <time>2022-04-28T12:52:44Z</time>
      </trkpt>
      <trkpt lat="43.75919" lon="7.14307">
        <ele>643.74</ele>
        <time>2022-04-28T12:53:13Z</time>
      </trkpt>
      <trkpt lat="43.7592" lon="7.14311">
        <ele>643.26</ele>
        <time>2022-04-28T12:53:54Z</time>
      </trkpt>
      <trkpt lat="43.75923" lon="7.14311">
        <ele>643.74</ele>
        <time>2022-04-28T12:54:33Z</time>
      </trkpt>
      <trkpt lat="43.75918" lon="7.14307">
        <ele>643.74</ele>
        <time>2022-04-28T12:55:12Z</time>
      </trkpt>
      <trkpt lat="43.75918" lon="7.14307">
        <ele>642.3</ele>
        <time>2022-04-28T12:55:51Z</time>
      </trkpt>
      <trkpt lat="43.75916" lon="7.14309">
        <ele>643.26</ele>
        <time>2022-04-28T12:56:26Z</time>
      </trkpt>
      <trkpt lat="43.75919" lon="7.14311">
        <ele>643.26</ele>
        <time>2022-04-28T12:56:53Z</time>
      </trkpt>
      <trkpt lat="43.75919" lon="7.14308">
        <ele>644.22</ele>
        <time>2022-04-28T12:57:17Z</time>
      </trkpt>
      <trkpt lat="43.75918" lon="7.14308">
        <ele>643.74</ele>
        <time>2022-04-28T12:57:35Z</time>
      </trkpt>
      <trkpt lat="43.75918" lon="7.14307">
        <ele>642.78</ele>
        <time>2022-04-28T12:57:37Z</time>
      </trkpt>
      <trkpt lat="43.75915" lon="7.14303">
        <ele>643.74</ele>
        <time>2022-04-28T12:58:01Z</time>
      </trkpt>
      <trkpt lat="43.75917" lon="7.14308">
        <ele>643.26</ele>
        <time>2022-04-28T12:58:28Z</time>
      </trkpt>
      <trkpt lat="43.75917" lon="7.14306">
        <ele>641.82</ele>
        <time>2022-04-28T12:58:38Z</time>
      </trkpt>
      <trkpt lat="43.75916" lon="7.14306">
        <ele>644.22</ele>
        <time>2022-04-28T12:58:41Z</time>
      </trkpt>
      <trkpt lat="43.75916" lon="7.14305">
        <ele>649.03</ele>
        <time>2022-04-28T12:58:42Z</time>
      </trkpt>
      <trkpt lat="43.75916" lon="7.14305">
        <ele>642.78</ele>
        <time>2022-04-28T12:58:43Z</time>
      </trkpt>
      <trkpt lat="43.75919" lon="7.14306">
        <ele>638.93</ele>
        <time>2022-04-28T12:59:04Z</time>
      </trkpt>
      <trkpt lat="43.75919" lon="7.14306">
        <ele>645.18</ele>
        <time>2022-04-28T12:59:05Z</time>
      </trkpt>
      <trkpt lat="43.75917" lon="7.14306">
        <ele>641.82</ele>
        <time>2022-04-28T12:59:15Z</time>
      </trkpt>
      <trkpt lat="43.75917" lon="7.14306">
        <ele>645.66</ele>
        <time>2022-04-28T12:59:16Z</time>
      </trkpt>
      <trkpt lat="43.75917" lon="7.14306">
        <ele>644.7</ele>
        <time>2022-04-28T12:59:39Z</time>
      </trkpt>
      <trkpt lat="43.75911" lon="7.14303">
        <ele>643.74</ele>
        <time>2022-04-28T12:59:56Z</time>
      </trkpt>
      <trkpt lat="43.75911" lon="7.14305">
        <ele>643.74</ele>
        <time>2022-04-28T13:00:14Z</time>
      </trkpt>
      <trkpt lat="43.7591" lon="7.14301">
        <ele>642.78</ele>
        <time>2022-04-28T13:00:35Z</time>
      </trkpt>
      <trkpt lat="43.75902" lon="7.14303">
        <ele>642.3</ele>
        <time>2022-04-28T13:00:46Z</time>
      </trkpt>
      <trkpt lat="43.759" lon="7.14302">
        <ele>643.26</ele>
        <time>2022-04-28T13:00:51Z</time>
      </trkpt>
      <trkpt lat="43.75897" lon="7.14302">
        <ele>643.74</ele>
        <time>2022-04-28T13:00:53Z</time>
      </trkpt>
      <trkpt lat="43.75894" lon="7.14302">
        <ele>642.3</ele>
        <time>2022-04-28T13:00:56Z</time>
      </trkpt>
      <trkpt lat="43.75886" lon="7.14293">
        <ele>647.1</ele>
        <time>2022-04-28T13:01:08Z</time>
      </trkpt>
      <trkpt lat="43.75884" lon="7.14293">
        <ele>643.74</ele>
        <time>2022-04-28T13:01:10Z</time>
      </trkpt>
      <trkpt lat="43.75878" lon="7.14293">
        <ele>643.26</ele>
        <time>2022-04-28T13:01:15Z</time>
      </trkpt>
      <trkpt lat="43.75863" lon="7.14299">
        <ele>641.82</ele>
        <time>2022-04-28T13:01:30Z</time>
      </trkpt>
      <trkpt lat="43.75863" lon="7.14298">
        <ele>642.78</ele>
        <time>2022-04-28T13:01:32Z</time>
      </trkpt>
      <trkpt lat="43.75857" lon="7.14302">
        <ele>640.86</ele>
        <time>2022-04-28T13:01:44Z</time>
      </trkpt>
      <trkpt lat="43.75842" lon="7.14304">
        <ele>639.89</ele>
        <time>2022-04-28T13:01:58Z</time>
      </trkpt>
      <trkpt lat="43.75837" lon="7.14305">
        <ele>639.41</ele>
        <time>2022-04-28T13:02:03Z</time>
      </trkpt>
      <trkpt lat="43.75832" lon="7.14305">
        <ele>638.93</ele>
        <time>2022-04-28T13:02:08Z</time>
      </trkpt>
      <trkpt lat="43.75829" lon="7.14308">
        <ele>639.89</ele>
        <time>2022-04-28T13:02:11Z</time>
      </trkpt>
      <trkpt lat="43.75826" lon="7.14309">
        <ele>637.97</ele>
        <time>2022-04-28T13:02:14Z</time>
      </trkpt>
      <trkpt lat="43.75816" lon="7.14311">
        <ele>637.49</ele>
        <time>2022-04-28T13:02:22Z</time>
      </trkpt>
      <trkpt lat="43.75802" lon="7.14321">
        <ele>638.45</ele>
        <time>2022-04-28T13:02:35Z</time>
      </trkpt>
      <trkpt lat="43.75798" lon="7.14322">
        <ele>639.41</ele>
        <time>2022-04-28T13:02:39Z</time>
      </trkpt>
      <trkpt lat="43.75787" lon="7.14327">
        <ele>637.01</ele>
        <time>2022-04-28T13:02:49Z</time>
      </trkpt>
      <trkpt lat="43.75777" lon="7.14328">
        <ele>636.05</ele>
        <time>2022-04-28T13:02:57Z</time>
      </trkpt>
      <trkpt lat="43.75774" lon="7.14329">
        <ele>636.05</ele>
        <time>2022-04-28T13:03:00Z</time>
      </trkpt>
      <trkpt lat="43.75766" lon="7.14329">
        <ele>635.57</ele>
        <time>2022-04-28T13:03:07Z</time>
      </trkpt>
      <trkpt lat="43.75761" lon="7.14329">
        <ele>634.13</ele>
        <time>2022-04-28T13:03:12Z</time>
      </trkpt>
      <trkpt lat="43.75748" lon="7.14328">
        <ele>634.61</ele>
        <time>2022-04-28T13:03:24Z</time>
      </trkpt>
      <trkpt lat="43.75746" lon="7.14327">
        <ele>631.72</ele>
        <time>2022-04-28T13:03:26Z</time>
      </trkpt>
      <trkpt lat="43.75744" lon="7.14326">
        <ele>636.05</ele>
        <time>2022-04-28T13:03:28Z</time>
      </trkpt>
      <trkpt lat="43.75737" lon="7.14326">
        <ele>632.68</ele>
        <time>2022-04-28T13:03:34Z</time>
      </trkpt>
      <trkpt lat="43.75734" lon="7.14325">
        <ele>634.61</ele>
        <time>2022-04-28T13:03:37Z</time>
      </trkpt>
      <trkpt lat="43.75724" lon="7.14325">
        <ele>633.65</ele>
        <time>2022-04-28T13:03:48Z</time>
      </trkpt>
      <trkpt lat="43.75723" lon="7.14324">
        <ele>630.76</ele>
        <time>2022-04-28T13:03:51Z</time>
      </trkpt>
      <trkpt lat="43.75719" lon="7.14321">
        <ele>631.24</ele>
        <time>2022-04-28T13:03:58Z</time>
      </trkpt>
      <trkpt lat="43.75708" lon="7.14316">
        <ele>632.68</ele>
        <time>2022-04-28T13:04:09Z</time>
      </trkpt>
      <trkpt lat="43.757" lon="7.14316">
        <ele>631.24</ele>
        <time>2022-04-28T13:04:20Z</time>
      </trkpt>
      <trkpt lat="43.75699" lon="7.14316">
        <ele>623.07</ele>
        <time>2022-04-28T13:04:23Z</time>
      </trkpt>
      <trkpt lat="43.75699" lon="7.14317">
        <ele>646.14</ele>
        <time>2022-04-28T13:04:24Z</time>
      </trkpt>
      <trkpt lat="43.757" lon="7.14317">
        <ele>632.68</ele>
        <time>2022-04-28T13:04:25Z</time>
      </trkpt>
      <trkpt lat="43.75699" lon="7.14316">
        <ele>631.24</ele>
        <time>2022-04-28T13:04:27Z</time>
      </trkpt>
      <trkpt lat="43.75688" lon="7.14308">
        <ele>629.32</ele>
        <time>2022-04-28T13:04:42Z</time>
      </trkpt>
      <trkpt lat="43.75678" lon="7.14312">
        <ele>628.36</ele>
        <time>2022-04-28T13:04:55Z</time>
      </trkpt>
      <trkpt lat="43.75672" lon="7.14313">
        <ele>624.99</ele>
        <time>2022-04-28T13:05:04Z</time>
      </trkpt>
      <trkpt lat="43.75671" lon="7.14314">
        <ele>625.47</ele>
        <time>2022-04-28T13:05:05Z</time>
      </trkpt>
      <trkpt lat="43.75661" lon="7.14316">
        <ele>625.47</ele>
        <time>2022-04-28T13:05:18Z</time>
      </trkpt>
      <trkpt lat="43.75659" lon="7.14316">
        <ele>623.55</ele>
        <time>2022-04-28T13:05:20Z</time>
      </trkpt>
      <trkpt lat="43.75659" lon="7.14316">
        <ele>623.55</ele>
        <time>2022-04-28T13:05:21Z</time>
      </trkpt>
      <trkpt lat="43.75654" lon="7.14315">
        <ele>622.59</ele>
        <time>2022-04-28T13:05:26Z</time>
      </trkpt>
      <trkpt lat="43.75652" lon="7.14316">
        <ele>620.19</ele>
        <time>2022-04-28T13:05:29Z</time>
      </trkpt>
      <trkpt lat="43.7565" lon="7.14317">
        <ele>630.76</ele>
        <time>2022-04-28T13:05:31Z</time>
      </trkpt>
      <trkpt lat="43.7565" lon="7.14317">
        <ele>623.07</ele>
        <time>2022-04-28T13:05:32Z</time>
      </trkpt>
      <trkpt lat="43.7565" lon="7.14317">
        <ele>622.59</ele>
        <time>2022-04-28T13:05:33Z</time>
      </trkpt>
      <trkpt lat="43.75648" lon="7.14317">
        <ele>621.63</ele>
        <time>2022-04-28T13:05:35Z</time>
      </trkpt>
      <trkpt lat="43.75646" lon="7.14317">
        <ele>618.75</ele>
        <time>2022-04-28T13:05:38Z</time>
      </trkpt>
      <trkpt lat="43.75644" lon="7.14317">
        <ele>622.11</ele>
        <time>2022-04-28T13:05:40Z</time>
      </trkpt>
      <trkpt lat="43.7564" lon="7.14318">
        <ele>619.23</ele>
        <time>2022-04-28T13:05:44Z</time>
      </trkpt>
      <trkpt lat="43.75632" lon="7.14318">
        <ele>618.26</ele>
        <time>2022-04-28T13:05:55Z</time>
      </trkpt>
      <trkpt lat="43.7563" lon="7.14319">
        <ele>618.26</ele>
        <time>2022-04-28T13:05:57Z</time>
      </trkpt>
      <trkpt lat="43.75626" lon="7.14322">
        <ele>616.82</ele>
        <time>2022-04-28T13:06:02Z</time>
      </trkpt>
      <trkpt lat="43.75617" lon="7.14323">
        <ele>614.9</ele>
        <time>2022-04-28T13:06:10Z</time>
      </trkpt>
      <trkpt lat="43.75612" lon="7.14324">
        <ele>614.42</ele>
        <time>2022-04-28T13:06:16Z</time>
      </trkpt>
      <trkpt lat="43.75605" lon="7.14326">
        <ele>612.98</ele>
        <time>2022-04-28T13:06:26Z</time>
      </trkpt>
      <trkpt lat="43.75604" lon="7.14329">
        <ele>611.54</ele>
        <time>2022-04-28T13:06:39Z</time>
      </trkpt>
      <trkpt lat="43.75593" lon="7.1433">
        <ele>608.65</ele>
        <time>2022-04-28T13:06:51Z</time>
      </trkpt>
      <trkpt lat="43.7558" lon="7.1433">
        <ele>608.65</ele>
        <time>2022-04-28T13:07:03Z</time>
      </trkpt>
      <trkpt lat="43.75577" lon="7.14328">
        <ele>608.17</ele>
        <time>2022-04-28T13:07:07Z</time>
      </trkpt>
      <trkpt lat="43.75566" lon="7.14328">
        <ele>605.29</ele>
        <time>2022-04-28T13:07:18Z</time>
      </trkpt>
      <trkpt lat="43.75564" lon="7.14328">
        <ele>607.21</ele>
        <time>2022-04-28T13:07:20Z</time>
      </trkpt>
      <trkpt lat="43.75564" lon="7.14328">
        <ele>607.21</ele>
        <time>2022-04-28T13:07:21Z</time>
      </trkpt>
      <trkpt lat="43.75552" lon="7.14328">
        <ele>605.29</ele>
        <time>2022-04-28T13:07:33Z</time>
      </trkpt>
      <trkpt lat="43.7555" lon="7.14329">
        <ele>601.44</ele>
        <time>2022-04-28T13:07:35Z</time>
      </trkpt>
      <trkpt lat="43.7555" lon="7.14329">
        <ele>604.81</ele>
        <time>2022-04-28T13:07:36Z</time>
      </trkpt>
      <trkpt lat="43.75541" lon="7.14329">
        <ele>602.88</ele>
        <time>2022-04-28T13:07:47Z</time>
      </trkpt>
      <trkpt lat="43.7554" lon="7.14329">
        <ele>599.52</ele>
        <time>2022-04-28T13:07:49Z</time>
      </trkpt>
      <trkpt lat="43.75539" lon="7.14329">
        <ele>602.88</ele>
        <time>2022-04-28T13:07:50Z</time>
      </trkpt>
      <trkpt lat="43.75532" lon="7.14331">
        <ele>600.96</ele>
        <time>2022-04-28T13:08:01Z</time>
      </trkpt>
      <trkpt lat="43.75531" lon="7.14331">
        <ele>600</ele>
        <time>2022-04-28T13:08:02Z</time>
      </trkpt>
      <trkpt lat="43.75528" lon="7.1433">
        <ele>597.6</ele>
        <time>2022-04-28T13:08:10Z</time>
      </trkpt>
      <trkpt lat="43.75528" lon="7.1433">
        <ele>603.36</ele>
        <time>2022-04-28T13:08:11Z</time>
      </trkpt>
      <trkpt lat="43.75528" lon="7.14331">
        <ele>599.52</ele>
        <time>2022-04-28T13:08:12Z</time>
      </trkpt>
      <trkpt lat="43.75523" lon="7.14331">
        <ele>599.04</ele>
        <time>2022-04-28T13:08:22Z</time>
      </trkpt>
      <trkpt lat="43.75519" lon="7.14332">
        <ele>598.08</ele>
        <time>2022-04-28T13:08:33Z</time>
      </trkpt>
      <trkpt lat="43.75517" lon="7.14334">
        <ele>598.56</ele>
        <time>2022-04-28T13:08:50Z</time>
      </trkpt>
      <trkpt lat="43.75516" lon="7.14334">
        <ele>597.12</ele>
        <time>2022-04-28T13:08:51Z</time>
      </trkpt>
      <trkpt lat="43.75505" lon="7.1433">
        <ele>596.15</ele>
        <time>2022-04-28T13:09:04Z</time>
      </trkpt>
      <trkpt lat="43.75503" lon="7.14329">
        <ele>595.67</ele>
        <time>2022-04-28T13:09:06Z</time>
      </trkpt>
      <trkpt lat="43.75497" lon="7.14326">
        <ele>595.67</ele>
        <time>2022-04-28T13:09:13Z</time>
      </trkpt>
      <trkpt lat="43.75486" lon="7.14322">
        <ele>592.79</ele>
        <time>2022-04-28T13:09:24Z</time>
      </trkpt>
      <trkpt lat="43.75485" lon="7.14322">
        <ele>596.15</ele>
        <time>2022-04-28T13:09:25Z</time>
      </trkpt>
      <trkpt lat="43.75485" lon="7.14322">
        <ele>592.79</ele>
        <time>2022-04-28T13:09:26Z</time>
      </trkpt>
      <trkpt lat="43.75476" lon="7.14316">
        <ele>590.39</ele>
        <time>2022-04-28T13:09:42Z</time>
      </trkpt>
      <trkpt lat="43.75472" lon="7.14315">
        <ele>592.79</ele>
        <time>2022-04-28T13:09:47Z</time>
      </trkpt>
      <trkpt lat="43.7547" lon="7.14316">
        <ele>590.39</ele>
        <time>2022-04-28T13:09:49Z</time>
      </trkpt>
      <trkpt lat="43.75461" lon="7.14314">
        <ele>588.46</ele>
        <time>2022-04-28T13:10:00Z</time>
      </trkpt>
      <trkpt lat="43.75455" lon="7.14309">
        <ele>587.5</ele>
        <time>2022-04-28T13:10:06Z</time>
      </trkpt>
      <trkpt lat="43.75451" lon="7.14304">
        <ele>588.95</ele>
        <time>2022-04-28T13:10:12Z</time>
      </trkpt>
      <trkpt lat="43.75444" lon="7.14299">
        <ele>587.02</ele>
        <time>2022-04-28T13:10:18Z</time>
      </trkpt>
      <trkpt lat="43.75441" lon="7.14298">
        <ele>588.46</ele>
        <time>2022-04-28T13:10:21Z</time>
      </trkpt>
      <trkpt lat="43.75434" lon="7.14292">
        <ele>584.14</ele>
        <time>2022-04-28T13:10:30Z</time>
      </trkpt>
      <trkpt lat="43.75433" lon="7.14291">
        <ele>587.02</ele>
        <time>2022-04-28T13:10:31Z</time>
      </trkpt>
      <trkpt lat="43.75426" lon="7.14287">
        <ele>585.1</ele>
        <time>2022-04-28T13:10:41Z</time>
      </trkpt>
      <trkpt lat="43.75417" lon="7.14281">
        <ele>582.7</ele>
        <time>2022-04-28T13:10:55Z</time>
      </trkpt>
      <trkpt lat="43.75408" lon="7.14275">
        <ele>582.7</ele>
        <time>2022-04-28T13:11:07Z</time>
      </trkpt>
      <trkpt lat="43.75403" lon="7.14273">
        <ele>581.25</ele>
        <time>2022-04-28T13:11:21Z</time>
      </trkpt>
      <trkpt lat="43.75403" lon="7.14272">
        <ele>577.41</ele>
        <time>2022-04-28T13:11:26Z</time>
      </trkpt>
      <trkpt lat="43.75403" lon="7.14272">
        <ele>585.1</ele>
        <time>2022-04-28T13:11:27Z</time>
      </trkpt>
      <trkpt lat="43.75403" lon="7.14272">
        <ele>582.22</ele>
        <time>2022-04-28T13:11:28Z</time>
      </trkpt>
      <trkpt lat="43.75403" lon="7.14272">
        <ele>581.73</ele>
        <time>2022-04-28T13:11:54Z</time>
      </trkpt>
      <trkpt lat="43.75406" lon="7.14277">
        <ele>581.25</ele>
        <time>2022-04-28T13:12:24Z</time>
      </trkpt>
      <trkpt lat="43.75407" lon="7.14277">
        <ele>582.22</ele>
        <time>2022-04-28T13:12:58Z</time>
      </trkpt>
      <trkpt lat="43.75408" lon="7.14277">
        <ele>581.73</ele>
        <time>2022-04-28T13:12:59Z</time>
      </trkpt>
      <trkpt lat="43.75406" lon="7.14276">
        <ele>581.25</ele>
        <time>2022-04-28T13:13:34Z</time>
      </trkpt>
      <trkpt lat="43.75407" lon="7.14277">
        <ele>584.62</ele>
        <time>2022-04-28T13:13:39Z</time>
      </trkpt>
      <trkpt lat="43.75407" lon="7.14277">
        <ele>581.25</ele>
        <time>2022-04-28T13:13:40Z</time>
      </trkpt>
      <trkpt lat="43.75407" lon="7.14278">
        <ele>575.97</ele>
        <time>2022-04-28T13:13:57Z</time>
      </trkpt>
      <trkpt lat="43.75407" lon="7.14278">
        <ele>586.54</ele>
        <time>2022-04-28T13:13:58Z</time>
      </trkpt>
      <trkpt lat="43.75407" lon="7.14278">
        <ele>580.29</ele>
        <time>2022-04-28T13:14:01Z</time>
      </trkpt>
      <trkpt lat="43.75407" lon="7.14278">
        <ele>582.22</ele>
        <time>2022-04-28T13:14:02Z</time>
      </trkpt>
      <trkpt lat="43.75407" lon="7.14278">
        <ele>585.58</ele>
        <time>2022-04-28T13:14:28Z</time>
      </trkpt>
      <trkpt lat="43.75407" lon="7.14278">
        <ele>581.73</ele>
        <time>2022-04-28T13:14:29Z</time>
      </trkpt>
      <trkpt lat="43.75407" lon="7.14275">
        <ele>581.73</ele>
        <time>2022-04-28T13:14:50Z</time>
      </trkpt>
      <trkpt lat="43.75406" lon="7.14276">
        <ele>581.73</ele>
        <time>2022-04-28T13:15:26Z</time>
      </trkpt>
      <trkpt lat="43.75406" lon="7.14277">
        <ele>577.89</ele>
        <time>2022-04-28T13:15:53Z</time>
      </trkpt>
      <trkpt lat="43.75405" lon="7.14277">
        <ele>582.22</ele>
        <time>2022-04-28T13:15:54Z</time>
      </trkpt>
      <trkpt lat="43.75405" lon="7.14277">
        <ele>586.54</ele>
        <time>2022-04-28T13:16:01Z</time>
      </trkpt>
      <trkpt lat="43.75405" lon="7.14277">
        <ele>584.14</ele>
        <time>2022-04-28T13:16:02Z</time>
      </trkpt>
      <trkpt lat="43.75405" lon="7.14277">
        <ele>581.25</ele>
        <time>2022-04-28T13:16:04Z</time>
      </trkpt>
      <trkpt lat="43.75406" lon="7.14278">
        <ele>584.62</ele>
        <time>2022-04-28T13:16:25Z</time>
      </trkpt>
      <trkpt lat="43.75406" lon="7.14277">
        <ele>581.25</ele>
        <time>2022-04-28T13:16:26Z</time>
      </trkpt>
      <trkpt lat="43.75406" lon="7.14276">
        <ele>581.73</ele>
        <time>2022-04-28T13:17:03Z</time>
      </trkpt>
      <trkpt lat="43.75406" lon="7.14277">
        <ele>586.54</ele>
        <time>2022-04-28T13:17:09Z</time>
      </trkpt>
      <trkpt lat="43.75405" lon="7.14277">
        <ele>579.33</ele>
        <time>2022-04-28T13:17:10Z</time>
      </trkpt>
      <trkpt lat="43.75404" lon="7.14276">
        <ele>583.18</ele>
        <time>2022-04-28T13:17:11Z</time>
      </trkpt>
      <trkpt lat="43.75404" lon="7.14276">
        <ele>583.18</ele>
        <time>2022-04-28T13:17:12Z</time>
      </trkpt>
      <trkpt lat="43.75396" lon="7.14267">
        <ele>581.73</ele>
        <time>2022-04-28T13:17:25Z</time>
      </trkpt>
      <trkpt lat="43.75389" lon="7.14266">
        <ele>576.93</ele>
        <time>2022-04-28T13:17:31Z</time>
      </trkpt>
      <trkpt lat="43.75384" lon="7.14265">
        <ele>578.37</ele>
        <time>2022-04-28T13:17:36Z</time>
      </trkpt>
      <trkpt lat="43.75377" lon="7.14263">
        <ele>576.93</ele>
        <time>2022-04-28T13:17:43Z</time>
      </trkpt>
      <trkpt lat="43.75371" lon="7.14262">
        <ele>574.04</ele>
        <time>2022-04-28T13:17:50Z</time>
      </trkpt>
      <trkpt lat="43.7537" lon="7.14262">
        <ele>574.04</ele>
        <time>2022-04-28T13:17:52Z</time>
      </trkpt>
      <trkpt lat="43.75367" lon="7.14262">
        <ele>573.56</ele>
        <time>2022-04-28T13:17:55Z</time>
      </trkpt>
      <trkpt lat="43.75362" lon="7.1426">
        <ele>573.08</ele>
        <time>2022-04-28T13:18:00Z</time>
      </trkpt>
      <trkpt lat="43.75361" lon="7.14259">
        <ele>573.56</ele>
        <time>2022-04-28T13:18:02Z</time>
      </trkpt>
      <trkpt lat="43.75351" lon="7.14262">
        <ele>571.64</ele>
        <time>2022-04-28T13:18:11Z</time>
      </trkpt>
      <trkpt lat="43.75352" lon="7.14268">
        <ele>570.2</ele>
        <time>2022-04-28T13:18:22Z</time>
      </trkpt>
      <trkpt lat="43.75353" lon="7.1427">
        <ele>570.2</ele>
        <time>2022-04-28T13:18:25Z</time>
      </trkpt>
      <trkpt lat="43.75358" lon="7.14279">
        <ele>567.8</ele>
        <time>2022-04-28T13:18:33Z</time>
      </trkpt>
      <trkpt lat="43.7536" lon="7.14282">
        <ele>569.72</ele>
        <time>2022-04-28T13:18:38Z</time>
      </trkpt>
      <trkpt lat="43.75362" lon="7.14285">
        <ele>568.28</ele>
        <time>2022-04-28T13:18:41Z</time>
      </trkpt>
      <trkpt lat="43.75364" lon="7.14286">
        <ele>566.83</ele>
        <time>2022-04-28T13:18:44Z</time>
      </trkpt>
      <trkpt lat="43.75368" lon="7.14291">
        <ele>567.32</ele>
        <time>2022-04-28T13:18:49Z</time>
      </trkpt>
      <trkpt lat="43.75374" lon="7.14294">
        <ele>564.43</ele>
        <time>2022-04-28T13:18:56Z</time>
      </trkpt>
      <trkpt lat="43.75382" lon="7.14303">
        <ele>563.47</ele>
        <time>2022-04-28T13:19:07Z</time>
      </trkpt>
      <trkpt lat="43.75379" lon="7.14301">
        <ele>560.59</ele>
        <time>2022-04-28T13:19:19Z</time>
      </trkpt>
      <trkpt lat="43.75379" lon="7.143">
        <ele>562.99</ele>
        <time>2022-04-28T13:19:26Z</time>
      </trkpt>
      <trkpt lat="43.75379" lon="7.143">
        <ele>562.03</ele>
        <time>2022-04-28T13:19:28Z</time>
      </trkpt>
      <trkpt lat="43.75375" lon="7.14298">
        <ele>561.55</ele>
        <time>2022-04-28T13:19:32Z</time>
      </trkpt>
      <trkpt lat="43.75371" lon="7.14297">
        <ele>560.11</ele>
        <time>2022-04-28T13:19:36Z</time>
      </trkpt>
      <trkpt lat="43.75369" lon="7.14296">
        <ele>561.55</ele>
        <time>2022-04-28T13:19:38Z</time>
      </trkpt>
      <trkpt lat="43.75367" lon="7.14295">
        <ele>559.14</ele>
        <time>2022-04-28T13:19:41Z</time>
      </trkpt>
      <trkpt lat="43.75358" lon="7.14291">
        <ele>559.14</ele>
        <time>2022-04-28T13:19:53Z</time>
      </trkpt>
      <trkpt lat="43.75352" lon="7.1429">
        <ele>556.74</ele>
        <time>2022-04-28T13:19:59Z</time>
      </trkpt>
      <trkpt lat="43.75347" lon="7.14287">
        <ele>553.86</ele>
        <time>2022-04-28T13:20:04Z</time>
      </trkpt>
      <trkpt lat="43.75345" lon="7.14286">
        <ele>554.82</ele>
        <time>2022-04-28T13:20:07Z</time>
      </trkpt>
      <trkpt lat="43.75334" lon="7.14282">
        <ele>553.38</ele>
        <time>2022-04-28T13:20:20Z</time>
      </trkpt>
      <trkpt lat="43.75327" lon="7.14278">
        <ele>553.86</ele>
        <time>2022-04-28T13:20:26Z</time>
      </trkpt>
      <trkpt lat="43.75323" lon="7.14278">
        <ele>550.97</ele>
        <time>2022-04-28T13:20:29Z</time>
      </trkpt>
      <trkpt lat="43.7531" lon="7.1427">
        <ele>550.01</ele>
        <time>2022-04-28T13:20:42Z</time>
      </trkpt>
      <trkpt lat="43.75301" lon="7.1426">
        <ele>550.97</ele>
        <time>2022-04-28T13:20:51Z</time>
      </trkpt>
      <trkpt lat="43.75294" lon="7.14255">
        <ele>547.13</ele>
        <time>2022-04-28T13:20:58Z</time>
      </trkpt>
      <trkpt lat="43.75279" lon="7.1425">
        <ele>548.09</ele>
        <time>2022-04-28T13:21:12Z</time>
      </trkpt>
      <trkpt lat="43.75266" lon="7.14247">
        <ele>543.28</ele>
        <time>2022-04-28T13:21:24Z</time>
      </trkpt>
      <trkpt lat="43.75262" lon="7.14247">
        <ele>543.76</ele>
        <time>2022-04-28T13:21:29Z</time>
      </trkpt>
      <trkpt lat="43.75256" lon="7.14247">
        <ele>543.28</ele>
        <time>2022-04-28T13:21:36Z</time>
      </trkpt>
      <trkpt lat="43.75251" lon="7.14246">
        <ele>543.76</ele>
        <time>2022-04-28T13:21:41Z</time>
      </trkpt>
      <trkpt lat="43.75248" lon="7.14247">
        <ele>540.88</ele>
        <time>2022-04-28T13:21:44Z</time>
      </trkpt>
      <trkpt lat="43.75242" lon="7.14248">
        <ele>538.96</ele>
        <time>2022-04-28T13:21:53Z</time>
      </trkpt>
      <trkpt lat="43.75232" lon="7.14246">
        <ele>537.03</ele>
        <time>2022-04-28T13:22:05Z</time>
      </trkpt>
      <trkpt lat="43.75224" lon="7.14244">
        <ele>537.51</ele>
        <time>2022-04-28T13:22:19Z</time>
      </trkpt>
      <trkpt lat="43.75222" lon="7.14243">
        <ele>537.03</ele>
        <time>2022-04-28T13:22:21Z</time>
      </trkpt>
      <trkpt lat="43.7522" lon="7.14243">
        <ele>534.63</ele>
        <time>2022-04-28T13:22:23Z</time>
      </trkpt>
      <trkpt lat="43.75218" lon="7.14241">
        <ele>536.55</ele>
        <time>2022-04-28T13:22:25Z</time>
      </trkpt>
      <trkpt lat="43.75216" lon="7.1424">
        <ele>534.63</ele>
        <time>2022-04-28T13:22:27Z</time>
      </trkpt>
      <trkpt lat="43.75208" lon="7.14229">
        <ele>535.11</ele>
        <time>2022-04-28T13:22:38Z</time>
      </trkpt>
      <trkpt lat="43.75207" lon="7.14228">
        <ele>532.23</ele>
        <time>2022-04-28T13:22:39Z</time>
      </trkpt>
      <trkpt lat="43.75206" lon="7.14227">
        <ele>532.23</ele>
        <time>2022-04-28T13:22:40Z</time>
      </trkpt>
      <trkpt lat="43.75205" lon="7.14225">
        <ele>535.59</ele>
        <time>2022-04-28T13:22:42Z</time>
      </trkpt>
      <trkpt lat="43.75204" lon="7.14225">
        <ele>531.75</ele>
        <time>2022-04-28T13:22:43Z</time>
      </trkpt>
      <trkpt lat="43.752" lon="7.1422">
        <ele>534.15</ele>
        <time>2022-04-28T13:22:49Z</time>
      </trkpt>
      <trkpt lat="43.75194" lon="7.14217">
        <ele>532.71</ele>
        <time>2022-04-28T13:22:54Z</time>
      </trkpt>
      <trkpt lat="43.75187" lon="7.14214">
        <ele>531.27</ele>
        <time>2022-04-28T13:23:01Z</time>
      </trkpt>
      <trkpt lat="43.75178" lon="7.14211">
        <ele>527.42</ele>
        <time>2022-04-28T13:23:12Z</time>
      </trkpt>
      <trkpt lat="43.75177" lon="7.1421">
        <ele>530.3</ele>
        <time>2022-04-28T13:23:13Z</time>
      </trkpt>
      <trkpt lat="43.75173" lon="7.14207">
        <ele>528.38</ele>
        <time>2022-04-28T13:23:18Z</time>
      </trkpt>
      <trkpt lat="43.75157" lon="7.14199">
        <ele>527.9</ele>
        <time>2022-04-28T13:23:30Z</time>
      </trkpt>
      <trkpt lat="43.75147" lon="7.14191">
        <ele>525.02</ele>
        <time>2022-04-28T13:23:39Z</time>
      </trkpt>
      <trkpt lat="43.75146" lon="7.14191">
        <ele>527.42</ele>
        <time>2022-04-28T13:23:40Z</time>
      </trkpt>
      <trkpt lat="43.75144" lon="7.14189">
        <ele>527.9</ele>
        <time>2022-04-28T13:23:42Z</time>
      </trkpt>
      <trkpt lat="43.75138" lon="7.14188">
        <ele>527.9</ele>
        <time>2022-04-28T13:23:47Z</time>
      </trkpt>
      <trkpt lat="43.75135" lon="7.14186">
        <ele>526.94</ele>
        <time>2022-04-28T13:23:50Z</time>
      </trkpt>
      <trkpt lat="43.75128" lon="7.14184">
        <ele>524.06</ele>
        <time>2022-04-28T13:23:56Z</time>
      </trkpt>
      <trkpt lat="43.75124" lon="7.14182">
        <ele>526.46</ele>
        <time>2022-04-28T13:23:59Z</time>
      </trkpt>
      <trkpt lat="43.75121" lon="7.14181">
        <ele>524.54</ele>
        <time>2022-04-28T13:24:01Z</time>
      </trkpt>
      <trkpt lat="43.7512" lon="7.14181">
        <ele>522.61</ele>
        <time>2022-04-28T13:24:02Z</time>
      </trkpt>
      <trkpt lat="43.75116" lon="7.14179">
        <ele>525.5</ele>
        <time>2022-04-28T13:24:05Z</time>
      </trkpt>
      <trkpt lat="43.75107" lon="7.14178">
        <ele>522.13</ele>
        <time>2022-04-28T13:24:13Z</time>
      </trkpt>
      <trkpt lat="43.75095" lon="7.14175">
        <ele>518.29</ele>
        <time>2022-04-28T13:24:23Z</time>
      </trkpt>
      <trkpt lat="43.75093" lon="7.14174">
        <ele>519.73</ele>
        <time>2022-04-28T13:24:24Z</time>
      </trkpt>
      <trkpt lat="43.75089" lon="7.14173">
        <ele>516.85</ele>
        <time>2022-04-28T13:24:29Z</time>
      </trkpt>
      <trkpt lat="43.75088" lon="7.14172">
        <ele>518.77</ele>
        <time>2022-04-28T13:24:30Z</time>
      </trkpt>
      <trkpt lat="43.75075" lon="7.14169">
        <ele>516.85</ele>
        <time>2022-04-28T13:24:41Z</time>
      </trkpt>
      <trkpt lat="43.75066" lon="7.14167">
        <ele>511.56</ele>
        <time>2022-04-28T13:24:49Z</time>
      </trkpt>
      <trkpt lat="43.75063" lon="7.14165">
        <ele>515.4</ele>
        <time>2022-04-28T13:24:52Z</time>
      </trkpt>
      <trkpt lat="43.75051" lon="7.14161">
        <ele>512.52</ele>
        <time>2022-04-28T13:25:03Z</time>
      </trkpt>
      <trkpt lat="43.75049" lon="7.14161">
        <ele>513.48</ele>
        <time>2022-04-28T13:25:05Z</time>
      </trkpt>
      <trkpt lat="43.75046" lon="7.14164">
        <ele>511.08</ele>
        <time>2022-04-28T13:25:08Z</time>
      </trkpt>
      <trkpt lat="43.75043" lon="7.14169">
        <ele>500.98</ele>
        <time>2022-04-28T13:25:17Z</time>
      </trkpt>
      <trkpt lat="43.75043" lon="7.14169">
        <ele>521.65</ele>
        <time>2022-04-28T13:25:18Z</time>
      </trkpt>
      <trkpt lat="43.75043" lon="7.14169">
        <ele>510.6</ele>
        <time>2022-04-28T13:25:19Z</time>
      </trkpt>
      <trkpt lat="43.75048" lon="7.14165">
        <ele>511.08</ele>
        <time>2022-04-28T13:25:47Z</time>
      </trkpt>
      <trkpt lat="43.7505" lon="7.14166">
        <ele>511.08</ele>
        <time>2022-04-28T13:26:09Z</time>
      </trkpt>
      <trkpt lat="43.75055" lon="7.14167">
        <ele>511.56</ele>
        <time>2022-04-28T13:26:43Z</time>
      </trkpt>
      <trkpt lat="43.75049" lon="7.14169">
        <ele>511.56</ele>
        <time>2022-04-28T13:27:15Z</time>
      </trkpt>
      <trkpt lat="43.75051" lon="7.14163">
        <ele>511.56</ele>
        <time>2022-04-28T13:27:37Z</time>
      </trkpt>
      <trkpt lat="43.75044" lon="7.14162">
        <ele>511.08</ele>
        <time>2022-04-28T13:27:42Z</time>
      </trkpt>
      <trkpt lat="43.7503" lon="7.14154">
        <ele>508.19</ele>
        <time>2022-04-28T13:27:55Z</time>
      </trkpt>
      <trkpt lat="43.75025" lon="7.1415">
        <ele>506.27</ele>
        <time>2022-04-28T13:28:02Z</time>
      </trkpt>
      <trkpt lat="43.75023" lon="7.14149">
        <ele>507.71</ele>
        <time>2022-04-28T13:28:04Z</time>
      </trkpt>
      <trkpt lat="43.75016" lon="7.14147">
        <ele>503.87</ele>
        <time>2022-04-28T13:28:13Z</time>
      </trkpt>
      <trkpt lat="43.75012" lon="7.14146">
        <ele>504.83</ele>
        <time>2022-04-28T13:28:17Z</time>
      </trkpt>
      <trkpt lat="43.75002" lon="7.14145">
        <ele>501.46</ele>
        <time>2022-04-28T13:28:28Z</time>
      </trkpt>
      <trkpt lat="43.74996" lon="7.14141">
        <ele>500.5</ele>
        <time>2022-04-28T13:28:47Z</time>
      </trkpt>
      <trkpt lat="43.74994" lon="7.14141">
        <ele>500.02</ele>
        <time>2022-04-28T13:28:49Z</time>
      </trkpt>
      <trkpt lat="43.74985" lon="7.14145">
        <ele>498.1</ele>
        <time>2022-04-28T13:28:58Z</time>
      </trkpt>
      <trkpt lat="43.74983" lon="7.14146">
        <ele>500.02</ele>
        <time>2022-04-28T13:29:00Z</time>
      </trkpt>
      <trkpt lat="43.74978" lon="7.14147">
        <ele>496.18</ele>
        <time>2022-04-28T13:29:04Z</time>
      </trkpt>
      <trkpt lat="43.74967" lon="7.1415">
        <ele>496.66</ele>
        <time>2022-04-28T13:29:16Z</time>
      </trkpt>
      <trkpt lat="43.74958" lon="7.14151">
        <ele>495.22</ele>
        <time>2022-04-28T13:29:27Z</time>
      </trkpt>
      <trkpt lat="43.74954" lon="7.14153">
        <ele>494.26</ele>
        <time>2022-04-28T13:29:34Z</time>
      </trkpt>
      <trkpt lat="43.74953" lon="7.14154">
        <ele>495.22</ele>
        <time>2022-04-28T13:29:36Z</time>
      </trkpt>
      <trkpt lat="43.74951" lon="7.14155">
        <ele>492.33</ele>
        <time>2022-04-28T13:29:38Z</time>
      </trkpt>
      <trkpt lat="43.7495" lon="7.14156">
        <ele>492.81</ele>
        <time>2022-04-28T13:29:39Z</time>
      </trkpt>
      <trkpt lat="43.74949" lon="7.14158">
        <ele>493.29</ele>
        <time>2022-04-28T13:29:41Z</time>
      </trkpt>
      <trkpt lat="43.74943" lon="7.14165">
        <ele>490.41</ele>
        <time>2022-04-28T13:29:53Z</time>
      </trkpt>
      <trkpt lat="43.74939" lon="7.14174">
        <ele>488.97</ele>
        <time>2022-04-28T13:30:04Z</time>
      </trkpt>
      <trkpt lat="43.74939" lon="7.14177">
        <ele>487.05</ele>
        <time>2022-04-28T13:30:07Z</time>
      </trkpt>
      <trkpt lat="43.74935" lon="7.14181">
        <ele>486.56</ele>
        <time>2022-04-28T13:30:11Z</time>
      </trkpt>
      <trkpt lat="43.7493" lon="7.14184">
        <ele>485.6</ele>
        <time>2022-04-28T13:30:16Z</time>
      </trkpt>
      <trkpt lat="43.74928" lon="7.14186">
        <ele>484.64</ele>
        <time>2022-04-28T13:30:20Z</time>
      </trkpt>
      <trkpt lat="43.74923" lon="7.14189">
        <ele>483.2</ele>
        <time>2022-04-28T13:30:28Z</time>
      </trkpt>
      <trkpt lat="43.7492" lon="7.14193">
        <ele>480.32</ele>
        <time>2022-04-28T13:30:33Z</time>
      </trkpt>
      <trkpt lat="43.74923" lon="7.14197">
        <ele>479.84</ele>
        <time>2022-04-28T13:30:38Z</time>
      </trkpt>
      <trkpt lat="43.7493" lon="7.14203">
        <ele>477.91</ele>
        <time>2022-04-28T13:30:46Z</time>
      </trkpt>
      <trkpt lat="43.74929" lon="7.14206">
        <ele>479.35</ele>
        <time>2022-04-28T13:30:49Z</time>
      </trkpt>
      <trkpt lat="43.74928" lon="7.14206">
        <ele>474.07</ele>
        <time>2022-04-28T13:30:51Z</time>
      </trkpt>
      <trkpt lat="43.7492" lon="7.14205">
        <ele>477.43</ele>
        <time>2022-04-28T13:30:58Z</time>
      </trkpt>
      <trkpt lat="43.74913" lon="7.14204">
        <ele>476.47</ele>
        <time>2022-04-28T13:31:05Z</time>
      </trkpt>
      <trkpt lat="43.74911" lon="7.14204">
        <ele>477.43</ele>
        <time>2022-04-28T13:31:07Z</time>
      </trkpt>
      <trkpt lat="43.7491" lon="7.14204">
        <ele>474.55</ele>
        <time>2022-04-28T13:31:08Z</time>
      </trkpt>
      <trkpt lat="43.74904" lon="7.14203">
        <ele>474.55</ele>
        <time>2022-04-28T13:31:13Z</time>
      </trkpt>
      <trkpt lat="43.74899" lon="7.14204">
        <ele>473.11</ele>
        <time>2022-04-28T13:31:18Z</time>
      </trkpt>
      <trkpt lat="43.74897" lon="7.14209">
        <ele>473.11</ele>
        <time>2022-04-28T13:31:24Z</time>
      </trkpt>
      <trkpt lat="43.749" lon="7.14217">
        <ele>470.7</ele>
        <time>2022-04-28T13:31:30Z</time>
      </trkpt>
      <trkpt lat="43.74902" lon="7.14219">
        <ele>470.22</ele>
        <time>2022-04-28T13:31:33Z</time>
      </trkpt>
      <trkpt lat="43.74901" lon="7.14225">
        <ele>467.82</ele>
        <time>2022-04-28T13:31:40Z</time>
      </trkpt>
      <trkpt lat="43.74896" lon="7.14225">
        <ele>466.86</ele>
        <time>2022-04-28T13:31:45Z</time>
      </trkpt>
      <trkpt lat="43.74895" lon="7.14224">
        <ele>467.82</ele>
        <time>2022-04-28T13:31:47Z</time>
      </trkpt>
      <trkpt lat="43.74892" lon="7.14223">
        <ele>464.93</ele>
        <time>2022-04-28T13:31:49Z</time>
      </trkpt>
      <trkpt lat="43.74887" lon="7.14222">
        <ele>469.26</ele>
        <time>2022-04-28T13:31:53Z</time>
      </trkpt>
      <trkpt lat="43.74886" lon="7.14222">
        <ele>465.42</ele>
        <time>2022-04-28T13:31:54Z</time>
      </trkpt>
      <trkpt lat="43.74871" lon="7.14224">
        <ele>460.61</ele>
        <time>2022-04-28T13:32:07Z</time>
      </trkpt>
      <trkpt lat="43.74864" lon="7.14224">
        <ele>460.13</ele>
        <time>2022-04-28T13:32:13Z</time>
      </trkpt>
      <trkpt lat="43.7486" lon="7.14224">
        <ele>461.09</ele>
        <time>2022-04-28T13:32:17Z</time>
      </trkpt>
      <trkpt lat="43.74859" lon="7.14224">
        <ele>459.65</ele>
        <time>2022-04-28T13:32:20Z</time>
      </trkpt>
      <trkpt lat="43.74848" lon="7.14224">
        <ele>456.76</ele>
        <time>2022-04-28T13:32:30Z</time>
      </trkpt>
      <trkpt lat="43.74838" lon="7.14225">
        <ele>455.8</ele>
        <time>2022-04-28T13:32:41Z</time>
      </trkpt>
      <trkpt lat="43.7484" lon="7.14229">
        <ele>452.92</ele>
        <time>2022-04-28T13:32:51Z</time>
      </trkpt>
      <trkpt lat="43.74841" lon="7.1423">
        <ele>456.28</ele>
        <time>2022-04-28T13:32:57Z</time>
      </trkpt>
      <trkpt lat="43.74841" lon="7.14229">
        <ele>454.84</ele>
        <time>2022-04-28T13:33:00Z</time>
      </trkpt>
      <trkpt lat="43.74839" lon="7.14227">
        <ele>454.84</ele>
        <time>2022-04-28T13:33:15Z</time>
      </trkpt>
      <trkpt lat="43.74839" lon="7.1423">
        <ele>454.36</ele>
        <time>2022-04-28T13:33:30Z</time>
      </trkpt>
      <trkpt lat="43.74839" lon="7.14232">
        <ele>455.8</ele>
        <time>2022-04-28T13:33:49Z</time>
      </trkpt>
      <trkpt lat="43.7484" lon="7.14233">
        <ele>455.8</ele>
        <time>2022-04-28T13:33:51Z</time>
      </trkpt>
      <trkpt lat="43.74841" lon="7.14236">
        <ele>453.4</ele>
        <time>2022-04-28T13:33:53Z</time>
      </trkpt>
      <trkpt lat="43.74844" lon="7.14252">
        <ele>451.48</ele>
        <time>2022-04-28T13:34:07Z</time>
      </trkpt>
      <trkpt lat="43.74842" lon="7.14258">
        <ele>448.59</ele>
        <time>2022-04-28T13:34:13Z</time>
      </trkpt>
      <trkpt lat="43.74839" lon="7.14265">
        <ele>447.63</ele>
        <time>2022-04-28T13:34:20Z</time>
      </trkpt>
      <trkpt lat="43.74834" lon="7.14281">
        <ele>445.71</ele>
        <time>2022-04-28T13:34:34Z</time>
      </trkpt>
      <trkpt lat="43.74834" lon="7.14282">
        <ele>445.71</ele>
        <time>2022-04-28T13:34:35Z</time>
      </trkpt>
      <trkpt lat="43.74829" lon="7.1429">
        <ele>442.34</ele>
        <time>2022-04-28T13:34:42Z</time>
      </trkpt>
      <trkpt lat="43.74828" lon="7.14292">
        <ele>444.75</ele>
        <time>2022-04-28T13:34:44Z</time>
      </trkpt>
      <trkpt lat="43.74828" lon="7.14293">
        <ele>443.79</ele>
        <time>2022-04-28T13:34:45Z</time>
      </trkpt>
      <trkpt lat="43.74825" lon="7.14298">
        <ele>443.79</ele>
        <time>2022-04-28T13:34:49Z</time>
      </trkpt>
      <trkpt lat="43.74821" lon="7.14303">
        <ele>439.94</ele>
        <time>2022-04-28T13:34:57Z</time>
      </trkpt>
      <trkpt lat="43.74821" lon="7.14304">
        <ele>443.79</ele>
        <time>2022-04-28T13:34:58Z</time>
      </trkpt>
      <trkpt lat="43.74825" lon="7.14308">
        <ele>440.42</ele>
        <time>2022-04-28T13:35:02Z</time>
      </trkpt>
      <trkpt lat="43.74831" lon="7.14313">
        <ele>442.82</ele>
        <time>2022-04-28T13:35:10Z</time>
      </trkpt>
      <trkpt lat="43.74834" lon="7.14316">
        <ele>441.38</ele>
        <time>2022-04-28T13:35:16Z</time>
      </trkpt>
      <trkpt lat="43.74837" lon="7.14324">
        <ele>439.94</ele>
        <time>2022-04-28T13:35:23Z</time>
      </trkpt>
      <trkpt lat="43.74842" lon="7.14334">
        <ele>439.94</ele>
        <time>2022-04-28T13:35:32Z</time>
      </trkpt>
      <trkpt lat="43.74841" lon="7.14336">
        <ele>439.46</ele>
        <time>2022-04-28T13:35:35Z</time>
      </trkpt>
      <trkpt lat="43.74835" lon="7.14338">
        <ele>438.02</ele>
        <time>2022-04-28T13:35:42Z</time>
      </trkpt>
      <trkpt lat="43.74834" lon="7.14348">
        <ele>437.06</ele>
        <time>2022-04-28T13:35:49Z</time>
      </trkpt>
      <trkpt lat="43.74837" lon="7.1435">
        <ele>436.1</ele>
        <time>2022-04-28T13:35:54Z</time>
      </trkpt>
      <trkpt lat="43.74839" lon="7.14351">
        <ele>436.58</ele>
        <time>2022-04-28T13:35:56Z</time>
      </trkpt>
      <trkpt lat="43.74843" lon="7.1435">
        <ele>437.54</ele>
        <time>2022-04-28T13:36:00Z</time>
      </trkpt>
      <trkpt lat="43.74845" lon="7.14349">
        <ele>434.17</ele>
        <time>2022-04-28T13:36:02Z</time>
      </trkpt>
      <trkpt lat="43.74845" lon="7.14349">
        <ele>439.46</ele>
        <time>2022-04-28T13:36:03Z</time>
      </trkpt>
      <trkpt lat="43.74846" lon="7.14348">
        <ele>434.65</ele>
        <time>2022-04-28T13:36:04Z</time>
      </trkpt>
      <trkpt lat="43.74847" lon="7.14348">
        <ele>437.06</ele>
        <time>2022-04-28T13:36:06Z</time>
      </trkpt>
      <trkpt lat="43.74851" lon="7.14348">
        <ele>437.54</ele>
        <time>2022-04-28T13:36:09Z</time>
      </trkpt>
      <trkpt lat="43.74856" lon="7.14349">
        <ele>436.1</ele>
        <time>2022-04-28T13:36:14Z</time>
      </trkpt>
      <trkpt lat="43.74859" lon="7.14352">
        <ele>435.61</ele>
        <time>2022-04-28T13:36:17Z</time>
      </trkpt>
      <trkpt lat="43.74862" lon="7.14356">
        <ele>437.06</ele>
        <time>2022-04-28T13:36:20Z</time>
      </trkpt>
      <trkpt lat="43.74866" lon="7.1436">
        <ele>433.69</ele>
        <time>2022-04-28T13:36:25Z</time>
      </trkpt>
      <trkpt lat="43.74866" lon="7.14362">
        <ele>437.06</ele>
        <time>2022-04-28T13:36:27Z</time>
      </trkpt>
      <trkpt lat="43.74865" lon="7.14363">
        <ele>432.25</ele>
        <time>2022-04-28T13:36:39Z</time>
      </trkpt>
      <trkpt lat="43.74865" lon="7.14364">
        <ele>436.1</ele>
        <time>2022-04-28T13:36:40Z</time>
      </trkpt>
      <trkpt lat="43.74864" lon="7.14369">
        <ele>435.61</ele>
        <time>2022-04-28T13:36:52Z</time>
      </trkpt>
      <trkpt lat="43.74865" lon="7.14373">
        <ele>434.65</ele>
        <time>2022-04-28T13:37:06Z</time>
      </trkpt>
      <trkpt lat="43.74865" lon="7.14374">
        <ele>436.1</ele>
        <time>2022-04-28T13:37:28Z</time>
      </trkpt>
      <trkpt lat="43.74865" lon="7.14373">
        <ele>435.13</ele>
        <time>2022-04-28T13:37:30Z</time>
      </trkpt>
      <trkpt lat="43.74865" lon="7.14374">
        <ele>435.13</ele>
        <time>2022-04-28T13:37:41Z</time>
      </trkpt>
      <trkpt lat="43.74865" lon="7.14374">
        <ele>434.65</ele>
        <time>2022-04-28T13:38:01Z</time>
      </trkpt>
      <trkpt lat="43.74866" lon="7.14372">
        <ele>434.65</ele>
        <time>2022-04-28T13:38:24Z</time>
      </trkpt>
      <trkpt lat="43.74865" lon="7.14373">
        <ele>431.29</ele>
        <time>2022-04-28T13:38:32Z</time>
      </trkpt>
      <trkpt lat="43.74866" lon="7.14373">
        <ele>439.46</ele>
        <time>2022-04-28T13:38:33Z</time>
      </trkpt>
      <trkpt lat="43.74865" lon="7.14373">
        <ele>434.65</ele>
        <time>2022-04-28T13:38:34Z</time>
      </trkpt>
      <trkpt lat="43.74864" lon="7.14373">
        <ele>438.5</ele>
        <time>2022-04-28T13:38:42Z</time>
      </trkpt>
      <trkpt lat="43.74864" lon="7.14373">
        <ele>434.65</ele>
        <time>2022-04-28T13:38:43Z</time>
      </trkpt>
      <trkpt lat="43.74865" lon="7.14374">
        <ele>428.89</ele>
        <time>2022-04-28T13:39:04Z</time>
      </trkpt>
      <trkpt lat="43.74865" lon="7.14374">
        <ele>435.13</ele>
        <time>2022-04-28T13:39:05Z</time>
      </trkpt>
      <trkpt lat="43.74863" lon="7.14375">
        <ele>435.61</ele>
        <time>2022-04-28T13:39:44Z</time>
      </trkpt>
      <trkpt lat="43.74865" lon="7.14375">
        <ele>436.1</ele>
        <time>2022-04-28T13:40:06Z</time>
      </trkpt>
      <trkpt lat="43.74867" lon="7.14373">
        <ele>436.58</ele>
        <time>2022-04-28T13:40:39Z</time>
      </trkpt>
      <trkpt lat="43.74866" lon="7.14373">
        <ele>432.73</ele>
        <time>2022-04-28T13:40:40Z</time>
      </trkpt>
      <trkpt lat="43.74865" lon="7.14373">
        <ele>437.06</ele>
        <time>2022-04-28T13:40:45Z</time>
      </trkpt>
      <trkpt lat="43.74865" lon="7.14373">
        <ele>434.65</ele>
        <time>2022-04-28T13:40:46Z</time>
      </trkpt>
      <trkpt lat="43.74864" lon="7.14373">
        <ele>434.65</ele>
        <time>2022-04-28T13:41:21Z</time>
      </trkpt>
      <trkpt lat="43.74863" lon="7.14373">
        <ele>434.65</ele>
        <time>2022-04-28T13:41:47Z</time>
      </trkpt>
      <trkpt lat="43.74862" lon="7.14373">
        <ele>438.02</ele>
        <time>2022-04-28T13:41:57Z</time>
      </trkpt>
      <trkpt lat="43.74862" lon="7.14374">
        <ele>434.65</ele>
        <time>2022-04-28T13:42:01Z</time>
      </trkpt>
      <trkpt lat="43.74862" lon="7.14374">
        <ele>431.29</ele>
        <time>2022-04-28T13:42:03Z</time>
      </trkpt>
      <trkpt lat="43.74862" lon="7.14374">
        <ele>435.13</ele>
        <time>2022-04-28T13:42:04Z</time>
      </trkpt>
      <trkpt lat="43.74863" lon="7.14373">
        <ele>431.29</ele>
        <time>2022-04-28T13:42:21Z</time>
      </trkpt>
      <trkpt lat="43.74863" lon="7.14373">
        <ele>435.13</ele>
        <time>2022-04-28T13:42:22Z</time>
      </trkpt>
      <trkpt lat="43.74864" lon="7.14373">
        <ele>435.61</ele>
        <time>2022-04-28T13:42:30Z</time>
      </trkpt>
      <trkpt lat="43.74864" lon="7.14374">
        <ele>432.25</ele>
        <time>2022-04-28T13:42:54Z</time>
      </trkpt>
      <trkpt lat="43.74864" lon="7.14374">
        <ele>438.5</ele>
        <time>2022-04-28T13:42:55Z</time>
      </trkpt>
      <trkpt lat="43.74864" lon="7.14374">
        <ele>434.65</ele>
        <time>2022-04-28T13:42:56Z</time>
      </trkpt>
      <trkpt lat="43.74864" lon="7.14371">
        <ele>437.54</ele>
        <time>2022-04-28T13:43:06Z</time>
      </trkpt>
      <trkpt lat="43.74865" lon="7.14369">
        <ele>434.65</ele>
        <time>2022-04-28T13:43:10Z</time>
      </trkpt>
      <trkpt lat="43.7487" lon="7.14369">
        <ele>435.13</ele>
        <time>2022-04-28T13:43:22Z</time>
      </trkpt>
      <trkpt lat="43.7487" lon="7.14367">
        <ele>434.17</ele>
        <time>2022-04-28T13:43:38Z</time>
      </trkpt>
      <trkpt lat="43.74868" lon="7.14361">
        <ele>431.29</ele>
        <time>2022-04-28T13:43:45Z</time>
      </trkpt>
      <trkpt lat="43.74867" lon="7.14361">
        <ele>439.94</ele>
        <time>2022-04-28T13:43:46Z</time>
      </trkpt>
      <trkpt lat="43.74866" lon="7.14361">
        <ele>434.17</ele>
        <time>2022-04-28T13:43:47Z</time>
      </trkpt>
      <trkpt lat="43.74863" lon="7.1437">
        <ele>432.25</ele>
        <time>2022-04-28T13:43:59Z</time>
      </trkpt>
      <trkpt lat="43.74864" lon="7.14371">
        <ele>435.61</ele>
        <time>2022-04-28T13:44:01Z</time>
      </trkpt>
      <trkpt lat="43.74864" lon="7.14371">
        <ele>434.65</ele>
        <time>2022-04-28T13:44:02Z</time>
      </trkpt>
      <trkpt lat="43.74864" lon="7.14372">
        <ele>427.44</ele>
        <time>2022-04-28T13:44:05Z</time>
      </trkpt>
      <trkpt lat="43.74864" lon="7.14372">
        <ele>445.23</ele>
        <time>2022-04-28T13:44:06Z</time>
      </trkpt>
      <trkpt lat="43.74864" lon="7.14372">
        <ele>433.69</ele>
        <time>2022-04-28T13:44:07Z</time>
      </trkpt>
      <trkpt lat="43.74864" lon="7.14373">
        <ele>431.77</ele>
        <time>2022-04-28T13:44:35Z</time>
      </trkpt>
      <trkpt lat="43.74864" lon="7.14374">
        <ele>437.54</ele>
        <time>2022-04-28T13:44:36Z</time>
      </trkpt>
      <trkpt lat="43.74864" lon="7.14374">
        <ele>434.17</ele>
        <time>2022-04-28T13:44:37Z</time>
      </trkpt>
      <trkpt lat="43.74864" lon="7.14373">
        <ele>435.13</ele>
        <time>2022-04-28T13:45:05Z</time>
      </trkpt>
      <trkpt lat="43.74864" lon="7.14373">
        <ele>434.17</ele>
        <time>2022-04-28T13:45:32Z</time>
      </trkpt>
      <trkpt lat="43.74863" lon="7.14372">
        <ele>434.17</ele>
        <time>2022-04-28T13:46:05Z</time>
      </trkpt>
      <trkpt lat="43.74863" lon="7.14372">
        <ele>433.69</ele>
        <time>2022-04-28T13:46:06Z</time>
      </trkpt>
      <trkpt lat="43.74864" lon="7.14371">
        <ele>432.73</ele>
        <time>2022-04-28T13:46:13Z</time>
      </trkpt>
      <trkpt lat="43.74863" lon="7.1437">
        <ele>434.17</ele>
        <time>2022-04-28T13:46:15Z</time>
      </trkpt>
      <trkpt lat="43.74863" lon="7.1437">
        <ele>440.9</ele>
        <time>2022-04-28T13:46:16Z</time>
      </trkpt>
      <trkpt lat="43.74863" lon="7.1437">
        <ele>429.85</ele>
        <time>2022-04-28T13:46:17Z</time>
      </trkpt>
      <trkpt lat="43.74863" lon="7.1437">
        <ele>432.73</ele>
        <time>2022-04-28T13:46:18Z</time>
      </trkpt>
      <trkpt lat="43.74864" lon="7.14371">
        <ele>436.58</ele>
        <time>2022-04-28T13:46:27Z</time>
      </trkpt>
      <trkpt lat="43.74861" lon="7.14374">
        <ele>434.17</ele>
        <time>2022-04-28T13:46:51Z</time>
      </trkpt>
      <trkpt lat="43.74863" lon="7.14373">
        <ele>434.17</ele>
        <time>2022-04-28T13:47:17Z</time>
      </trkpt>
      <trkpt lat="43.74864" lon="7.14373">
        <ele>433.69</ele>
        <time>2022-04-28T13:47:36Z</time>
      </trkpt>
      <trkpt lat="43.74864" lon="7.14373">
        <ele>434.17</ele>
        <time>2022-04-28T13:47:53Z</time>
      </trkpt>
      <trkpt lat="43.74867" lon="7.14373">
        <ele>434.17</ele>
        <time>2022-04-28T13:48:19Z</time>
      </trkpt>
      <trkpt lat="43.74865" lon="7.14374">
        <ele>434.17</ele>
        <time>2022-04-28T13:48:51Z</time>
      </trkpt>
    </trkseg>
  </trk>
</gpx>